<?xml version="1.0" encoding="UTF-8" standalone="no" ?>
<gpx xmlns="http://www.topografix.com/GPX/1/1" xmlns:xsi="http://www.w3.org/2001/XMLSchema-instance" xsi:schemaLocation="http://www.topografix.com/GPX/1/1 http://www.topografix.com/GPX/1/1/gpx.xsd" version="1.1" creator="VisuGPX - https://www.visugpx.com">
  <metadata>
    <name>2017-05-24 Bike ride-Amberieux-Rance O 33km</name>
    <desc><![CDATA[2017-05-24 Bike ride-Amberieux-Rance O 33km]]></desc>
  </metadata>
  <wpt lat="45.92462" lon="4.73717">
    <ele>174</ele>
    <name><![CDATA[2017-05-24 10:23 (Start)]]></name>
  </wpt>
  <wpt lat="45.92459" lon="4.73709">
    <ele>174</ele>
    <name><![CDATA[2017-05-24 10:23 (End)]]></name>
    <desc><![CDATA[Created by Google My Tracks on Android  Name: 2017-05-24 10:23 Activity type: biking Description: - Total distance: 32.53 km (20.2 mi) Total time: 1:42:10 Moving time: 1:36:41 Average speed: 19.10 km/h (11.9 mi/h) Average moving speed: 20.19 km/h (12.5 mi/h) Max speed: 47.99 km/h (29.8 mi/h) Average pace: 3:08 min/km (5:03 min/mi) Average moving pace: 2:58 min/km (4:47 min/mi) Fastest pace: 1:15 min/km (2:01 min/mi) Max elevation: 298 m (977 ft) Min elevation: 170 m (559 ft) Elevation gain: 473 m (1553 ft) Max grade: 8 % Min grade: -14 % Recorded: 24/05/2017 10:23]]></desc>
  </wpt>
  <trk>
    <name><![CDATA[2017-05-24 10:23]]></name>
    <trkseg>
      <trkpt lat="45.92462" lon="4.73717">
        <ele>174</ele>
        <time>2017-05-24T08:23:05.839Z</time>
      </trkpt>
      <trkpt lat="45.92462" lon="4.73717">
        <ele>174</ele>
        <time>2017-05-24T08:23:20Z</time>
      </trkpt>
      <trkpt lat="45.92462" lon="4.73718">
        <ele>174</ele>
        <time>2017-05-24T08:23:21Z</time>
      </trkpt>
      <trkpt lat="45.92468" lon="4.73712">
        <ele>174</ele>
        <time>2017-05-24T08:23:27Z</time>
      </trkpt>
      <trkpt lat="45.92469" lon="4.73709">
        <ele>174</ele>
        <time>2017-05-24T08:23:28Z</time>
      </trkpt>
      <trkpt lat="45.92472" lon="4.73701">
        <ele>174</ele>
        <time>2017-05-24T08:23:31Z</time>
      </trkpt>
      <trkpt lat="45.92472" lon="4.73697">
        <ele>174</ele>
        <time>2017-05-24T08:23:32Z</time>
      </trkpt>
      <trkpt lat="45.92472" lon="4.73687">
        <ele>174</ele>
        <time>2017-05-24T08:23:34Z</time>
      </trkpt>
      <trkpt lat="45.92471" lon="4.73681">
        <ele>174</ele>
        <time>2017-05-24T08:23:35Z</time>
      </trkpt>
      <trkpt lat="45.92471" lon="4.73671">
        <ele>174</ele>
        <time>2017-05-24T08:23:37Z</time>
      </trkpt>
      <trkpt lat="45.92471" lon="4.73666">
        <ele>174</ele>
        <time>2017-05-24T08:23:38Z</time>
      </trkpt>
      <trkpt lat="45.92471" lon="4.73655">
        <ele>174</ele>
        <time>2017-05-24T08:23:40Z</time>
      </trkpt>
      <trkpt lat="45.92472" lon="4.73651">
        <ele>174</ele>
        <time>2017-05-24T08:23:41Z</time>
      </trkpt>
      <trkpt lat="45.92477" lon="4.73645">
        <ele>174</ele>
        <time>2017-05-24T08:23:43Z</time>
      </trkpt>
      <trkpt lat="45.92481" lon="4.73643">
        <ele>174</ele>
        <time>2017-05-24T08:23:44Z</time>
      </trkpt>
      <trkpt lat="45.92488" lon="4.73643">
        <ele>174</ele>
        <time>2017-05-24T08:23:46Z</time>
      </trkpt>
      <trkpt lat="45.92491" lon="4.73643">
        <ele>174</ele>
        <time>2017-05-24T08:23:47Z</time>
      </trkpt>
      <trkpt lat="45.92499" lon="4.73643">
        <ele>174</ele>
        <time>2017-05-24T08:23:49Z</time>
      </trkpt>
      <trkpt lat="45.92504" lon="4.73643">
        <ele>174</ele>
        <time>2017-05-24T08:23:50Z</time>
      </trkpt>
      <trkpt lat="45.92512" lon="4.73643">
        <ele>174</ele>
        <time>2017-05-24T08:23:52Z</time>
      </trkpt>
      <trkpt lat="45.92517" lon="4.73643">
        <ele>174</ele>
        <time>2017-05-24T08:23:53Z</time>
      </trkpt>
      <trkpt lat="45.92521" lon="4.73643">
        <ele>173</ele>
        <time>2017-05-24T08:23:54Z</time>
      </trkpt>
      <trkpt lat="45.92526" lon="4.73642">
        <ele>173</ele>
        <time>2017-05-24T08:23:55Z</time>
      </trkpt>
      <trkpt lat="45.92534" lon="4.7364">
        <ele>173</ele>
        <time>2017-05-24T08:23:57Z</time>
      </trkpt>
      <trkpt lat="45.92539" lon="4.73639">
        <ele>173</ele>
        <time>2017-05-24T08:23:58Z</time>
      </trkpt>
      <trkpt lat="45.92547" lon="4.73636">
        <ele>173</ele>
        <time>2017-05-24T08:24:00Z</time>
      </trkpt>
      <trkpt lat="45.92551" lon="4.73635">
        <ele>173</ele>
        <time>2017-05-24T08:24:01Z</time>
      </trkpt>
      <trkpt lat="45.9256" lon="4.73633">
        <ele>173</ele>
        <time>2017-05-24T08:24:03Z</time>
      </trkpt>
      <trkpt lat="45.92564" lon="4.73632">
        <ele>173</ele>
        <time>2017-05-24T08:24:04Z</time>
      </trkpt>
      <trkpt lat="45.92572" lon="4.7363">
        <ele>173</ele>
        <time>2017-05-24T08:24:06Z</time>
      </trkpt>
      <trkpt lat="45.92576" lon="4.73628">
        <ele>173</ele>
        <time>2017-05-24T08:24:07Z</time>
      </trkpt>
      <trkpt lat="45.92581" lon="4.73627">
        <ele>173</ele>
        <time>2017-05-24T08:24:08Z</time>
      </trkpt>
      <trkpt lat="45.92586" lon="4.73627">
        <ele>172</ele>
        <time>2017-05-24T08:24:09Z</time>
      </trkpt>
      <trkpt lat="45.92594" lon="4.73625">
        <ele>173</ele>
        <time>2017-05-24T08:24:11Z</time>
      </trkpt>
      <trkpt lat="45.92598" lon="4.73625">
        <ele>173</ele>
        <time>2017-05-24T08:24:12Z</time>
      </trkpt>
      <trkpt lat="45.92607" lon="4.73625">
        <ele>173</ele>
        <time>2017-05-24T08:24:14Z</time>
      </trkpt>
      <trkpt lat="45.92611" lon="4.73626">
        <ele>173</ele>
        <time>2017-05-24T08:24:15Z</time>
      </trkpt>
      <trkpt lat="45.92616" lon="4.73633">
        <ele>173</ele>
        <time>2017-05-24T08:24:16Z</time>
      </trkpt>
      <trkpt lat="45.92619" lon="4.73637">
        <ele>173</ele>
        <time>2017-05-24T08:24:17Z</time>
      </trkpt>
      <trkpt lat="45.92622" lon="4.73643">
        <ele>173</ele>
        <time>2017-05-24T08:24:18Z</time>
      </trkpt>
      <trkpt lat="45.92625" lon="4.73648">
        <ele>173</ele>
        <time>2017-05-24T08:24:19Z</time>
      </trkpt>
      <trkpt lat="45.92627" lon="4.73654">
        <ele>173</ele>
        <time>2017-05-24T08:24:20Z</time>
      </trkpt>
      <trkpt lat="45.92629" lon="4.7366">
        <ele>173</ele>
        <time>2017-05-24T08:24:21Z</time>
      </trkpt>
      <trkpt lat="45.92631" lon="4.73666">
        <ele>173</ele>
        <time>2017-05-24T08:24:22Z</time>
      </trkpt>
      <trkpt lat="45.92633" lon="4.73672">
        <ele>173</ele>
        <time>2017-05-24T08:24:23Z</time>
      </trkpt>
      <trkpt lat="45.92636" lon="4.73678">
        <ele>173</ele>
        <time>2017-05-24T08:24:24Z</time>
      </trkpt>
      <trkpt lat="45.9264" lon="4.73683">
        <ele>173</ele>
        <time>2017-05-24T08:24:25Z</time>
      </trkpt>
      <trkpt lat="45.92643" lon="4.73688">
        <ele>173</ele>
        <time>2017-05-24T08:24:26Z</time>
      </trkpt>
      <trkpt lat="45.92647" lon="4.73693">
        <ele>173</ele>
        <time>2017-05-24T08:24:27Z</time>
      </trkpt>
      <trkpt lat="45.92651" lon="4.73697">
        <ele>173</ele>
        <time>2017-05-24T08:24:28Z</time>
      </trkpt>
      <trkpt lat="45.92656" lon="4.73701">
        <ele>173</ele>
        <time>2017-05-24T08:24:29Z</time>
      </trkpt>
      <trkpt lat="45.9266" lon="4.73705">
        <ele>173</ele>
        <time>2017-05-24T08:24:30Z</time>
      </trkpt>
      <trkpt lat="45.92665" lon="4.73707">
        <ele>173</ele>
        <time>2017-05-24T08:24:31Z</time>
      </trkpt>
      <trkpt lat="45.9267" lon="4.73709">
        <ele>174</ele>
        <time>2017-05-24T08:24:32Z</time>
      </trkpt>
      <trkpt lat="45.92674" lon="4.73711">
        <ele>174</ele>
        <time>2017-05-24T08:24:33Z</time>
      </trkpt>
      <trkpt lat="45.92679" lon="4.73713">
        <ele>173</ele>
        <time>2017-05-24T08:24:34Z</time>
      </trkpt>
      <trkpt lat="45.92684" lon="4.73714">
        <ele>173</ele>
        <time>2017-05-24T08:24:35Z</time>
      </trkpt>
      <trkpt lat="45.92689" lon="4.73715">
        <ele>173</ele>
        <time>2017-05-24T08:24:36Z</time>
      </trkpt>
      <trkpt lat="45.92694" lon="4.73716">
        <ele>173</ele>
        <time>2017-05-24T08:24:37Z</time>
      </trkpt>
      <trkpt lat="45.927" lon="4.73717">
        <ele>173</ele>
        <time>2017-05-24T08:24:38Z</time>
      </trkpt>
      <trkpt lat="45.92705" lon="4.73717">
        <ele>173</ele>
        <time>2017-05-24T08:24:39Z</time>
      </trkpt>
      <trkpt lat="45.92711" lon="4.73718">
        <ele>173</ele>
        <time>2017-05-24T08:24:40Z</time>
      </trkpt>
      <trkpt lat="45.92716" lon="4.73719">
        <ele>173</ele>
        <time>2017-05-24T08:24:41Z</time>
      </trkpt>
      <trkpt lat="45.92721" lon="4.7372">
        <ele>173</ele>
        <time>2017-05-24T08:24:42Z</time>
      </trkpt>
      <trkpt lat="45.92726" lon="4.73721">
        <ele>173</ele>
        <time>2017-05-24T08:24:43Z</time>
      </trkpt>
      <trkpt lat="45.92731" lon="4.73723">
        <ele>173</ele>
        <time>2017-05-24T08:24:44Z</time>
      </trkpt>
      <trkpt lat="45.92736" lon="4.73724">
        <ele>173</ele>
        <time>2017-05-24T08:24:45Z</time>
      </trkpt>
      <trkpt lat="45.92741" lon="4.73725">
        <ele>173</ele>
        <time>2017-05-24T08:24:46Z</time>
      </trkpt>
      <trkpt lat="45.92746" lon="4.73727">
        <ele>173</ele>
        <time>2017-05-24T08:24:47Z</time>
      </trkpt>
      <trkpt lat="45.92754" lon="4.73729">
        <ele>172</ele>
        <time>2017-05-24T08:24:49Z</time>
      </trkpt>
      <trkpt lat="45.92759" lon="4.73731">
        <ele>172</ele>
        <time>2017-05-24T08:24:50Z</time>
      </trkpt>
      <trkpt lat="45.92764" lon="4.73732">
        <ele>172</ele>
        <time>2017-05-24T08:24:51Z</time>
      </trkpt>
      <trkpt lat="45.92768" lon="4.73734">
        <ele>172</ele>
        <time>2017-05-24T08:24:52Z</time>
      </trkpt>
      <trkpt lat="45.92773" lon="4.73734">
        <ele>172</ele>
        <time>2017-05-24T08:24:53Z</time>
      </trkpt>
      <trkpt lat="45.92779" lon="4.73734">
        <ele>172</ele>
        <time>2017-05-24T08:24:54Z</time>
      </trkpt>
      <trkpt lat="45.92785" lon="4.73726">
        <ele>172</ele>
        <time>2017-05-24T08:24:56Z</time>
      </trkpt>
      <trkpt lat="45.92787" lon="4.7372">
        <ele>172</ele>
        <time>2017-05-24T08:24:57Z</time>
      </trkpt>
      <trkpt lat="45.92788" lon="4.73708">
        <ele>172</ele>
        <time>2017-05-24T08:24:59Z</time>
      </trkpt>
      <trkpt lat="45.92789" lon="4.73702">
        <ele>172</ele>
        <time>2017-05-24T08:25:00Z</time>
      </trkpt>
      <trkpt lat="45.92791" lon="4.73696">
        <ele>172</ele>
        <time>2017-05-24T08:25:01Z</time>
      </trkpt>
      <trkpt lat="45.92793" lon="4.7369">
        <ele>172</ele>
        <time>2017-05-24T08:25:02Z</time>
      </trkpt>
      <trkpt lat="45.92796" lon="4.73678">
        <ele>172</ele>
        <time>2017-05-24T08:25:04Z</time>
      </trkpt>
      <trkpt lat="45.92797" lon="4.73671">
        <ele>172</ele>
        <time>2017-05-24T08:25:05Z</time>
      </trkpt>
      <trkpt lat="45.92799" lon="4.73659">
        <ele>172</ele>
        <time>2017-05-24T08:25:07Z</time>
      </trkpt>
      <trkpt lat="45.92801" lon="4.73653">
        <ele>172</ele>
        <time>2017-05-24T08:25:08Z</time>
      </trkpt>
      <trkpt lat="45.92805" lon="4.73642">
        <ele>172</ele>
        <time>2017-05-24T08:25:10Z</time>
      </trkpt>
      <trkpt lat="45.92808" lon="4.73638">
        <ele>172</ele>
        <time>2017-05-24T08:25:11Z</time>
      </trkpt>
      <trkpt lat="45.92813" lon="4.7363">
        <ele>172</ele>
        <time>2017-05-24T08:25:13Z</time>
      </trkpt>
      <trkpt lat="45.92815" lon="4.73625">
        <ele>172</ele>
        <time>2017-05-24T08:25:14Z</time>
      </trkpt>
      <trkpt lat="45.92817" lon="4.7362">
        <ele>172</ele>
        <time>2017-05-24T08:25:15Z</time>
      </trkpt>
      <trkpt lat="45.92819" lon="4.73613">
        <ele>172</ele>
        <time>2017-05-24T08:25:16Z</time>
      </trkpt>
      <trkpt lat="45.92819" lon="4.73606">
        <ele>171</ele>
        <time>2017-05-24T08:25:17Z</time>
      </trkpt>
      <trkpt lat="45.92819" lon="4.73599">
        <ele>171</ele>
        <time>2017-05-24T08:25:18Z</time>
      </trkpt>
      <trkpt lat="45.92819" lon="4.73592">
        <ele>171</ele>
        <time>2017-05-24T08:25:19Z</time>
      </trkpt>
      <trkpt lat="45.9282" lon="4.73584">
        <ele>171</ele>
        <time>2017-05-24T08:25:20Z</time>
      </trkpt>
      <trkpt lat="45.9282" lon="4.73577">
        <ele>171</ele>
        <time>2017-05-24T08:25:21Z</time>
      </trkpt>
      <trkpt lat="45.92821" lon="4.73569">
        <ele>171</ele>
        <time>2017-05-24T08:25:22Z</time>
      </trkpt>
      <trkpt lat="45.92821" lon="4.73561">
        <ele>171</ele>
        <time>2017-05-24T08:25:23Z</time>
      </trkpt>
      <trkpt lat="45.92821" lon="4.73554">
        <ele>171</ele>
        <time>2017-05-24T08:25:24Z</time>
      </trkpt>
      <trkpt lat="45.92821" lon="4.73546">
        <ele>171</ele>
        <time>2017-05-24T08:25:25Z</time>
      </trkpt>
      <trkpt lat="45.92822" lon="4.73538">
        <ele>172</ele>
        <time>2017-05-24T08:25:26Z</time>
      </trkpt>
      <trkpt lat="45.92822" lon="4.7353">
        <ele>172</ele>
        <time>2017-05-24T08:25:27Z</time>
      </trkpt>
      <trkpt lat="45.92823" lon="4.73521">
        <ele>172</ele>
        <time>2017-05-24T08:25:28Z</time>
      </trkpt>
      <trkpt lat="45.92824" lon="4.73513">
        <ele>172</ele>
        <time>2017-05-24T08:25:29Z</time>
      </trkpt>
      <trkpt lat="45.92825" lon="4.73505">
        <ele>172</ele>
        <time>2017-05-24T08:25:30Z</time>
      </trkpt>
      <trkpt lat="45.92826" lon="4.73496">
        <ele>172</ele>
        <time>2017-05-24T08:25:31Z</time>
      </trkpt>
      <trkpt lat="45.92827" lon="4.73488">
        <ele>172</ele>
        <time>2017-05-24T08:25:32Z</time>
      </trkpt>
      <trkpt lat="45.92828" lon="4.7348">
        <ele>172</ele>
        <time>2017-05-24T08:25:33Z</time>
      </trkpt>
      <trkpt lat="45.92828" lon="4.73472">
        <ele>172</ele>
        <time>2017-05-24T08:25:34Z</time>
      </trkpt>
      <trkpt lat="45.9283" lon="4.73464">
        <ele>172</ele>
        <time>2017-05-24T08:25:35Z</time>
      </trkpt>
      <trkpt lat="45.92831" lon="4.73457">
        <ele>172</ele>
        <time>2017-05-24T08:25:36Z</time>
      </trkpt>
      <trkpt lat="45.92832" lon="4.7345">
        <ele>172</ele>
        <time>2017-05-24T08:25:37Z</time>
      </trkpt>
      <trkpt lat="45.92833" lon="4.73443">
        <ele>172</ele>
        <time>2017-05-24T08:25:38Z</time>
      </trkpt>
      <trkpt lat="45.92833" lon="4.73436">
        <ele>172</ele>
        <time>2017-05-24T08:25:39Z</time>
      </trkpt>
      <trkpt lat="45.92834" lon="4.73429">
        <ele>172</ele>
        <time>2017-05-24T08:25:40Z</time>
      </trkpt>
      <trkpt lat="45.92835" lon="4.73422">
        <ele>172</ele>
        <time>2017-05-24T08:25:41Z</time>
      </trkpt>
      <trkpt lat="45.92836" lon="4.73414">
        <ele>172</ele>
        <time>2017-05-24T08:25:42Z</time>
      </trkpt>
      <trkpt lat="45.92837" lon="4.73407">
        <ele>172</ele>
        <time>2017-05-24T08:25:43Z</time>
      </trkpt>
      <trkpt lat="45.92838" lon="4.73399">
        <ele>172</ele>
        <time>2017-05-24T08:25:44Z</time>
      </trkpt>
      <trkpt lat="45.92838" lon="4.73392">
        <ele>172</ele>
        <time>2017-05-24T08:25:45Z</time>
      </trkpt>
      <trkpt lat="45.92839" lon="4.73384">
        <ele>172</ele>
        <time>2017-05-24T08:25:46Z</time>
      </trkpt>
      <trkpt lat="45.9284" lon="4.73377">
        <ele>172</ele>
        <time>2017-05-24T08:25:47Z</time>
      </trkpt>
      <trkpt lat="45.92841" lon="4.73369">
        <ele>171</ele>
        <time>2017-05-24T08:25:48Z</time>
      </trkpt>
      <trkpt lat="45.92842" lon="4.73362">
        <ele>171</ele>
        <time>2017-05-24T08:25:49Z</time>
      </trkpt>
      <trkpt lat="45.92843" lon="4.73354">
        <ele>171</ele>
        <time>2017-05-24T08:25:50Z</time>
      </trkpt>
      <trkpt lat="45.92844" lon="4.73347">
        <ele>171</ele>
        <time>2017-05-24T08:25:51Z</time>
      </trkpt>
      <trkpt lat="45.92844" lon="4.7334">
        <ele>171</ele>
        <time>2017-05-24T08:25:52Z</time>
      </trkpt>
      <trkpt lat="45.92845" lon="4.73332">
        <ele>171</ele>
        <time>2017-05-24T08:25:53Z</time>
      </trkpt>
      <trkpt lat="45.92846" lon="4.73324">
        <ele>171</ele>
        <time>2017-05-24T08:25:54Z</time>
      </trkpt>
      <trkpt lat="45.92847" lon="4.73316">
        <ele>171</ele>
        <time>2017-05-24T08:25:55Z</time>
      </trkpt>
      <trkpt lat="45.92847" lon="4.73308">
        <ele>171</ele>
        <time>2017-05-24T08:25:56Z</time>
      </trkpt>
      <trkpt lat="45.92848" lon="4.73301">
        <ele>171</ele>
        <time>2017-05-24T08:25:57Z</time>
      </trkpt>
      <trkpt lat="45.92849" lon="4.73294">
        <ele>171</ele>
        <time>2017-05-24T08:25:58Z</time>
      </trkpt>
      <trkpt lat="45.9285" lon="4.73286">
        <ele>171</ele>
        <time>2017-05-24T08:25:59Z</time>
      </trkpt>
      <trkpt lat="45.92852" lon="4.73279">
        <ele>171</ele>
        <time>2017-05-24T08:26:00Z</time>
      </trkpt>
      <trkpt lat="45.92853" lon="4.73271">
        <ele>171</ele>
        <time>2017-05-24T08:26:01Z</time>
      </trkpt>
      <trkpt lat="45.92854" lon="4.73263">
        <ele>171</ele>
        <time>2017-05-24T08:26:02Z</time>
      </trkpt>
      <trkpt lat="45.92855" lon="4.73255">
        <ele>171</ele>
        <time>2017-05-24T08:26:03Z</time>
      </trkpt>
      <trkpt lat="45.92856" lon="4.73247">
        <ele>171</ele>
        <time>2017-05-24T08:26:04Z</time>
      </trkpt>
      <trkpt lat="45.92857" lon="4.73239">
        <ele>171</ele>
        <time>2017-05-24T08:26:05Z</time>
      </trkpt>
      <trkpt lat="45.92858" lon="4.73231">
        <ele>171</ele>
        <time>2017-05-24T08:26:06Z</time>
      </trkpt>
      <trkpt lat="45.92859" lon="4.73222">
        <ele>171</ele>
        <time>2017-05-24T08:26:07Z</time>
      </trkpt>
      <trkpt lat="45.92861" lon="4.73214">
        <ele>171</ele>
        <time>2017-05-24T08:26:08Z</time>
      </trkpt>
      <trkpt lat="45.92861" lon="4.73206">
        <ele>171</ele>
        <time>2017-05-24T08:26:09Z</time>
      </trkpt>
      <trkpt lat="45.92862" lon="4.73198">
        <ele>171</ele>
        <time>2017-05-24T08:26:10Z</time>
      </trkpt>
      <trkpt lat="45.92863" lon="4.7319">
        <ele>171</ele>
        <time>2017-05-24T08:26:11Z</time>
      </trkpt>
      <trkpt lat="45.92864" lon="4.73182">
        <ele>171</ele>
        <time>2017-05-24T08:26:12Z</time>
      </trkpt>
      <trkpt lat="45.92865" lon="4.73175">
        <ele>171</ele>
        <time>2017-05-24T08:26:13Z</time>
      </trkpt>
      <trkpt lat="45.92866" lon="4.73167">
        <ele>171</ele>
        <time>2017-05-24T08:26:14Z</time>
      </trkpt>
      <trkpt lat="45.92867" lon="4.73159">
        <ele>171</ele>
        <time>2017-05-24T08:26:15Z</time>
      </trkpt>
      <trkpt lat="45.92869" lon="4.73152">
        <ele>171</ele>
        <time>2017-05-24T08:26:16Z</time>
      </trkpt>
      <trkpt lat="45.9287" lon="4.73144">
        <ele>171</ele>
        <time>2017-05-24T08:26:17Z</time>
      </trkpt>
      <trkpt lat="45.92871" lon="4.73136">
        <ele>171</ele>
        <time>2017-05-24T08:26:18Z</time>
      </trkpt>
      <trkpt lat="45.92873" lon="4.73129">
        <ele>171</ele>
        <time>2017-05-24T08:26:19Z</time>
      </trkpt>
      <trkpt lat="45.92874" lon="4.73121">
        <ele>172</ele>
        <time>2017-05-24T08:26:20Z</time>
      </trkpt>
      <trkpt lat="45.92876" lon="4.73113">
        <ele>172</ele>
        <time>2017-05-24T08:26:21Z</time>
      </trkpt>
      <trkpt lat="45.92878" lon="4.73105">
        <ele>172</ele>
        <time>2017-05-24T08:26:22Z</time>
      </trkpt>
      <trkpt lat="45.92881" lon="4.73098">
        <ele>172</ele>
        <time>2017-05-24T08:26:23Z</time>
      </trkpt>
      <trkpt lat="45.92883" lon="4.7309">
        <ele>172</ele>
        <time>2017-05-24T08:26:24Z</time>
      </trkpt>
      <trkpt lat="45.92886" lon="4.73084">
        <ele>172</ele>
        <time>2017-05-24T08:26:25Z</time>
      </trkpt>
      <trkpt lat="45.92889" lon="4.73077">
        <ele>172</ele>
        <time>2017-05-24T08:26:26Z</time>
      </trkpt>
      <trkpt lat="45.92892" lon="4.73071">
        <ele>172</ele>
        <time>2017-05-24T08:26:27Z</time>
      </trkpt>
      <trkpt lat="45.92895" lon="4.73065">
        <ele>172</ele>
        <time>2017-05-24T08:26:28Z</time>
      </trkpt>
      <trkpt lat="45.92898" lon="4.73058">
        <ele>172</ele>
        <time>2017-05-24T08:26:29Z</time>
      </trkpt>
      <trkpt lat="45.92902" lon="4.73052">
        <ele>172</ele>
        <time>2017-05-24T08:26:30Z</time>
      </trkpt>
      <trkpt lat="45.92906" lon="4.73046">
        <ele>172</ele>
        <time>2017-05-24T08:26:31Z</time>
      </trkpt>
      <trkpt lat="45.9291" lon="4.73041">
        <ele>172</ele>
        <time>2017-05-24T08:26:32Z</time>
      </trkpt>
      <trkpt lat="45.92914" lon="4.73035">
        <ele>172</ele>
        <time>2017-05-24T08:26:33Z</time>
      </trkpt>
      <trkpt lat="45.92919" lon="4.73029">
        <ele>172</ele>
        <time>2017-05-24T08:26:34Z</time>
      </trkpt>
      <trkpt lat="45.92923" lon="4.73023">
        <ele>171</ele>
        <time>2017-05-24T08:26:35Z</time>
      </trkpt>
      <trkpt lat="45.92927" lon="4.73018">
        <ele>171</ele>
        <time>2017-05-24T08:26:36Z</time>
      </trkpt>
      <trkpt lat="45.92932" lon="4.73012">
        <ele>171</ele>
        <time>2017-05-24T08:26:37Z</time>
      </trkpt>
      <trkpt lat="45.92936" lon="4.73007">
        <ele>171</ele>
        <time>2017-05-24T08:26:38Z</time>
      </trkpt>
      <trkpt lat="45.92941" lon="4.73001">
        <ele>171</ele>
        <time>2017-05-24T08:26:39Z</time>
      </trkpt>
      <trkpt lat="45.92945" lon="4.72996">
        <ele>171</ele>
        <time>2017-05-24T08:26:40Z</time>
      </trkpt>
      <trkpt lat="45.92949" lon="4.72991">
        <ele>171</ele>
        <time>2017-05-24T08:26:41Z</time>
      </trkpt>
      <trkpt lat="45.92954" lon="4.72986">
        <ele>171</ele>
        <time>2017-05-24T08:26:42Z</time>
      </trkpt>
      <trkpt lat="45.92958" lon="4.72981">
        <ele>171</ele>
        <time>2017-05-24T08:26:43Z</time>
      </trkpt>
      <trkpt lat="45.92962" lon="4.72977">
        <ele>171</ele>
        <time>2017-05-24T08:26:44Z</time>
      </trkpt>
      <trkpt lat="45.92965" lon="4.72972">
        <ele>171</ele>
        <time>2017-05-24T08:26:45Z</time>
      </trkpt>
      <trkpt lat="45.92969" lon="4.72968">
        <ele>171</ele>
        <time>2017-05-24T08:26:46Z</time>
      </trkpt>
      <trkpt lat="45.92972" lon="4.72963">
        <ele>171</ele>
        <time>2017-05-24T08:26:47Z</time>
      </trkpt>
      <trkpt lat="45.92976" lon="4.72959">
        <ele>171</ele>
        <time>2017-05-24T08:26:48Z</time>
      </trkpt>
      <trkpt lat="45.9298" lon="4.72954">
        <ele>171</ele>
        <time>2017-05-24T08:26:49Z</time>
      </trkpt>
      <trkpt lat="45.92983" lon="4.72949">
        <ele>171</ele>
        <time>2017-05-24T08:26:50Z</time>
      </trkpt>
      <trkpt lat="45.92987" lon="4.72945">
        <ele>171</ele>
        <time>2017-05-24T08:26:51Z</time>
      </trkpt>
      <trkpt lat="45.92992" lon="4.7294">
        <ele>171</ele>
        <time>2017-05-24T08:26:52Z</time>
      </trkpt>
      <trkpt lat="45.92996" lon="4.72935">
        <ele>171</ele>
        <time>2017-05-24T08:26:53Z</time>
      </trkpt>
      <trkpt lat="45.93001" lon="4.72929">
        <ele>170</ele>
        <time>2017-05-24T08:26:54Z</time>
      </trkpt>
      <trkpt lat="45.93005" lon="4.72924">
        <ele>170</ele>
        <time>2017-05-24T08:26:55Z</time>
      </trkpt>
      <trkpt lat="45.9301" lon="4.72919">
        <ele>170</ele>
        <time>2017-05-24T08:26:56Z</time>
      </trkpt>
      <trkpt lat="45.93014" lon="4.72914">
        <ele>171</ele>
        <time>2017-05-24T08:26:57Z</time>
      </trkpt>
      <trkpt lat="45.93019" lon="4.72909">
        <ele>171</ele>
        <time>2017-05-24T08:26:58Z</time>
      </trkpt>
      <trkpt lat="45.93023" lon="4.72904">
        <ele>172</ele>
        <time>2017-05-24T08:26:59Z</time>
      </trkpt>
      <trkpt lat="45.93027" lon="4.72899">
        <ele>172</ele>
        <time>2017-05-24T08:27:00Z</time>
      </trkpt>
      <trkpt lat="45.93031" lon="4.72894">
        <ele>172</ele>
        <time>2017-05-24T08:27:01Z</time>
      </trkpt>
      <trkpt lat="45.93036" lon="4.72889">
        <ele>172</ele>
        <time>2017-05-24T08:27:02Z</time>
      </trkpt>
      <trkpt lat="45.9304" lon="4.72884">
        <ele>172</ele>
        <time>2017-05-24T08:27:03Z</time>
      </trkpt>
      <trkpt lat="45.93045" lon="4.72878">
        <ele>172</ele>
        <time>2017-05-24T08:27:04Z</time>
      </trkpt>
      <trkpt lat="45.93049" lon="4.72872">
        <ele>172</ele>
        <time>2017-05-24T08:27:05Z</time>
      </trkpt>
      <trkpt lat="45.93054" lon="4.72867">
        <ele>172</ele>
        <time>2017-05-24T08:27:06Z</time>
      </trkpt>
      <trkpt lat="45.93058" lon="4.72861">
        <ele>172</ele>
        <time>2017-05-24T08:27:07Z</time>
      </trkpt>
      <trkpt lat="45.93063" lon="4.72856">
        <ele>172</ele>
        <time>2017-05-24T08:27:08Z</time>
      </trkpt>
      <trkpt lat="45.93067" lon="4.72851">
        <ele>172</ele>
        <time>2017-05-24T08:27:09Z</time>
      </trkpt>
      <trkpt lat="45.93072" lon="4.72847">
        <ele>172</ele>
        <time>2017-05-24T08:27:10Z</time>
      </trkpt>
      <trkpt lat="45.93076" lon="4.72843">
        <ele>173</ele>
        <time>2017-05-24T08:27:11Z</time>
      </trkpt>
      <trkpt lat="45.9308" lon="4.7284">
        <ele>173</ele>
        <time>2017-05-24T08:27:12Z</time>
      </trkpt>
      <trkpt lat="45.93084" lon="4.72837">
        <ele>173</ele>
        <time>2017-05-24T08:27:13Z</time>
      </trkpt>
      <trkpt lat="45.93088" lon="4.72833">
        <ele>173</ele>
        <time>2017-05-24T08:27:14Z</time>
      </trkpt>
      <trkpt lat="45.93094" lon="4.72826">
        <ele>172</ele>
        <time>2017-05-24T08:27:15Z</time>
      </trkpt>
      <trkpt lat="45.931" lon="4.72822">
        <ele>172</ele>
        <time>2017-05-24T08:27:16Z</time>
      </trkpt>
      <trkpt lat="45.93104" lon="4.72814">
        <ele>172</ele>
        <time>2017-05-24T08:27:17Z</time>
      </trkpt>
      <trkpt lat="45.93105" lon="4.72805">
        <ele>171</ele>
        <time>2017-05-24T08:27:18Z</time>
      </trkpt>
      <trkpt lat="45.93109" lon="4.72798">
        <ele>171</ele>
        <time>2017-05-24T08:27:19Z</time>
      </trkpt>
      <trkpt lat="45.93113" lon="4.72793">
        <ele>171</ele>
        <time>2017-05-24T08:27:20Z</time>
      </trkpt>
      <trkpt lat="45.93118" lon="4.72787">
        <ele>171</ele>
        <time>2017-05-24T08:27:21Z</time>
      </trkpt>
      <trkpt lat="45.93123" lon="4.72782">
        <ele>171</ele>
        <time>2017-05-24T08:27:22Z</time>
      </trkpt>
      <trkpt lat="45.93128" lon="4.72777">
        <ele>171</ele>
        <time>2017-05-24T08:27:23Z</time>
      </trkpt>
      <trkpt lat="45.93134" lon="4.72772">
        <ele>171</ele>
        <time>2017-05-24T08:27:24Z</time>
      </trkpt>
      <trkpt lat="45.93138" lon="4.72767">
        <ele>171</ele>
        <time>2017-05-24T08:27:25Z</time>
      </trkpt>
      <trkpt lat="45.93144" lon="4.72763">
        <ele>171</ele>
        <time>2017-05-24T08:27:26Z</time>
      </trkpt>
      <trkpt lat="45.93149" lon="4.72759">
        <ele>170</ele>
        <time>2017-05-24T08:27:27Z</time>
      </trkpt>
      <trkpt lat="45.93153" lon="4.72754">
        <ele>170</ele>
        <time>2017-05-24T08:27:28Z</time>
      </trkpt>
      <trkpt lat="45.93157" lon="4.72749">
        <ele>170</ele>
        <time>2017-05-24T08:27:29Z</time>
      </trkpt>
      <trkpt lat="45.9316" lon="4.72744">
        <ele>170</ele>
        <time>2017-05-24T08:27:30Z</time>
      </trkpt>
      <trkpt lat="45.93165" lon="4.72739">
        <ele>170</ele>
        <time>2017-05-24T08:27:31Z</time>
      </trkpt>
      <trkpt lat="45.93169" lon="4.72733">
        <ele>170</ele>
        <time>2017-05-24T08:27:32Z</time>
      </trkpt>
      <trkpt lat="45.93173" lon="4.72728">
        <ele>170</ele>
        <time>2017-05-24T08:27:33Z</time>
      </trkpt>
      <trkpt lat="45.93177" lon="4.72723">
        <ele>170</ele>
        <time>2017-05-24T08:27:34Z</time>
      </trkpt>
      <trkpt lat="45.93182" lon="4.72717">
        <ele>169</ele>
        <time>2017-05-24T08:27:35Z</time>
      </trkpt>
      <trkpt lat="45.93186" lon="4.72712">
        <ele>169</ele>
        <time>2017-05-24T08:27:36Z</time>
      </trkpt>
      <trkpt lat="45.9319" lon="4.72707">
        <ele>169</ele>
        <time>2017-05-24T08:27:37Z</time>
      </trkpt>
      <trkpt lat="45.93194" lon="4.72702">
        <ele>169</ele>
        <time>2017-05-24T08:27:38Z</time>
      </trkpt>
      <trkpt lat="45.93198" lon="4.72696">
        <ele>169</ele>
        <time>2017-05-24T08:27:39Z</time>
      </trkpt>
      <trkpt lat="45.93203" lon="4.72691">
        <ele>169</ele>
        <time>2017-05-24T08:27:40Z</time>
      </trkpt>
      <trkpt lat="45.93207" lon="4.72686">
        <ele>169</ele>
        <time>2017-05-24T08:27:41Z</time>
      </trkpt>
      <trkpt lat="45.93211" lon="4.72681">
        <ele>169</ele>
        <time>2017-05-24T08:27:42Z</time>
      </trkpt>
      <trkpt lat="45.93215" lon="4.72676">
        <ele>169</ele>
        <time>2017-05-24T08:27:43Z</time>
      </trkpt>
      <trkpt lat="45.93219" lon="4.72671">
        <ele>169</ele>
        <time>2017-05-24T08:27:44Z</time>
      </trkpt>
      <trkpt lat="45.93223" lon="4.72666">
        <ele>170</ele>
        <time>2017-05-24T08:27:45Z</time>
      </trkpt>
      <trkpt lat="45.93228" lon="4.72661">
        <ele>170</ele>
        <time>2017-05-24T08:27:46Z</time>
      </trkpt>
      <trkpt lat="45.93232" lon="4.72656">
        <ele>169</ele>
        <time>2017-05-24T08:27:47Z</time>
      </trkpt>
      <trkpt lat="45.93236" lon="4.72651">
        <ele>170</ele>
        <time>2017-05-24T08:27:48Z</time>
      </trkpt>
      <trkpt lat="45.9324" lon="4.72646">
        <ele>170</ele>
        <time>2017-05-24T08:27:49Z</time>
      </trkpt>
      <trkpt lat="45.93245" lon="4.72641">
        <ele>170</ele>
        <time>2017-05-24T08:27:50Z</time>
      </trkpt>
      <trkpt lat="45.93249" lon="4.72636">
        <ele>170</ele>
        <time>2017-05-24T08:27:51Z</time>
      </trkpt>
      <trkpt lat="45.93253" lon="4.72631">
        <ele>170</ele>
        <time>2017-05-24T08:27:52Z</time>
      </trkpt>
      <trkpt lat="45.93257" lon="4.72626">
        <ele>170</ele>
        <time>2017-05-24T08:27:53Z</time>
      </trkpt>
      <trkpt lat="45.93262" lon="4.72621">
        <ele>170</ele>
        <time>2017-05-24T08:27:54Z</time>
      </trkpt>
      <trkpt lat="45.93266" lon="4.72617">
        <ele>170</ele>
        <time>2017-05-24T08:27:55Z</time>
      </trkpt>
      <trkpt lat="45.93271" lon="4.72612">
        <ele>170</ele>
        <time>2017-05-24T08:27:56Z</time>
      </trkpt>
      <trkpt lat="45.93275" lon="4.72606">
        <ele>170</ele>
        <time>2017-05-24T08:27:57Z</time>
      </trkpt>
      <trkpt lat="45.93279" lon="4.72601">
        <ele>170</ele>
        <time>2017-05-24T08:27:58Z</time>
      </trkpt>
      <trkpt lat="45.93283" lon="4.72596">
        <ele>170</ele>
        <time>2017-05-24T08:27:59Z</time>
      </trkpt>
      <trkpt lat="45.93288" lon="4.72591">
        <ele>170</ele>
        <time>2017-05-24T08:28:00Z</time>
      </trkpt>
      <trkpt lat="45.93292" lon="4.72586">
        <ele>170</ele>
        <time>2017-05-24T08:28:01Z</time>
      </trkpt>
      <trkpt lat="45.93296" lon="4.72581">
        <ele>171</ele>
        <time>2017-05-24T08:28:02Z</time>
      </trkpt>
      <trkpt lat="45.933" lon="4.72576">
        <ele>171</ele>
        <time>2017-05-24T08:28:03Z</time>
      </trkpt>
      <trkpt lat="45.93305" lon="4.72571">
        <ele>171</ele>
        <time>2017-05-24T08:28:04Z</time>
      </trkpt>
      <trkpt lat="45.93309" lon="4.72566">
        <ele>171</ele>
        <time>2017-05-24T08:28:05Z</time>
      </trkpt>
      <trkpt lat="45.93314" lon="4.72561">
        <ele>171</ele>
        <time>2017-05-24T08:28:06Z</time>
      </trkpt>
      <trkpt lat="45.93318" lon="4.72556">
        <ele>171</ele>
        <time>2017-05-24T08:28:07Z</time>
      </trkpt>
      <trkpt lat="45.93323" lon="4.72551">
        <ele>172</ele>
        <time>2017-05-24T08:28:08Z</time>
      </trkpt>
      <trkpt lat="45.93327" lon="4.72547">
        <ele>172</ele>
        <time>2017-05-24T08:28:09Z</time>
      </trkpt>
      <trkpt lat="45.93332" lon="4.72542">
        <ele>172</ele>
        <time>2017-05-24T08:28:10Z</time>
      </trkpt>
      <trkpt lat="45.93336" lon="4.72537">
        <ele>171</ele>
        <time>2017-05-24T08:28:11Z</time>
      </trkpt>
      <trkpt lat="45.9334" lon="4.72532">
        <ele>172</ele>
        <time>2017-05-24T08:28:12Z</time>
      </trkpt>
      <trkpt lat="45.93344" lon="4.72527">
        <ele>172</ele>
        <time>2017-05-24T08:28:13Z</time>
      </trkpt>
      <trkpt lat="45.93348" lon="4.72523">
        <ele>172</ele>
        <time>2017-05-24T08:28:14Z</time>
      </trkpt>
      <trkpt lat="45.93352" lon="4.72518">
        <ele>172</ele>
        <time>2017-05-24T08:28:15Z</time>
      </trkpt>
      <trkpt lat="45.93356" lon="4.72514">
        <ele>172</ele>
        <time>2017-05-24T08:28:16Z</time>
      </trkpt>
      <trkpt lat="45.9336" lon="4.72509">
        <ele>172</ele>
        <time>2017-05-24T08:28:17Z</time>
      </trkpt>
      <trkpt lat="45.93364" lon="4.72504">
        <ele>172</ele>
        <time>2017-05-24T08:28:18Z</time>
      </trkpt>
      <trkpt lat="45.93368" lon="4.725">
        <ele>173</ele>
        <time>2017-05-24T08:28:19Z</time>
      </trkpt>
      <trkpt lat="45.93372" lon="4.72495">
        <ele>173</ele>
        <time>2017-05-24T08:28:20Z</time>
      </trkpt>
      <trkpt lat="45.93376" lon="4.72491">
        <ele>173</ele>
        <time>2017-05-24T08:28:21Z</time>
      </trkpt>
      <trkpt lat="45.9338" lon="4.72486">
        <ele>173</ele>
        <time>2017-05-24T08:28:22Z</time>
      </trkpt>
      <trkpt lat="45.93383" lon="4.72482">
        <ele>173</ele>
        <time>2017-05-24T08:28:23Z</time>
      </trkpt>
      <trkpt lat="45.93387" lon="4.72478">
        <ele>173</ele>
        <time>2017-05-24T08:28:24Z</time>
      </trkpt>
      <trkpt lat="45.93392" lon="4.72469">
        <ele>173</ele>
        <time>2017-05-24T08:28:26Z</time>
      </trkpt>
      <trkpt lat="45.93394" lon="4.72465">
        <ele>173</ele>
        <time>2017-05-24T08:28:27Z</time>
      </trkpt>
      <trkpt lat="45.93396" lon="4.72454">
        <ele>173</ele>
        <time>2017-05-24T08:28:29Z</time>
      </trkpt>
      <trkpt lat="45.93397" lon="4.7245">
        <ele>173</ele>
        <time>2017-05-24T08:28:30Z</time>
      </trkpt>
      <trkpt lat="45.93401" lon="4.72438">
        <ele>173</ele>
        <time>2017-05-24T08:28:32Z</time>
      </trkpt>
      <trkpt lat="45.93404" lon="4.72433">
        <ele>173</ele>
        <time>2017-05-24T08:28:33Z</time>
      </trkpt>
      <trkpt lat="45.93407" lon="4.72428">
        <ele>174</ele>
        <time>2017-05-24T08:28:34Z</time>
      </trkpt>
      <trkpt lat="45.9341" lon="4.72423">
        <ele>174</ele>
        <time>2017-05-24T08:28:35Z</time>
      </trkpt>
      <trkpt lat="45.93418" lon="4.72417">
        <ele>174</ele>
        <time>2017-05-24T08:28:37Z</time>
      </trkpt>
      <trkpt lat="45.93423" lon="4.72414">
        <ele>174</ele>
        <time>2017-05-24T08:28:38Z</time>
      </trkpt>
      <trkpt lat="45.93428" lon="4.72412">
        <ele>174</ele>
        <time>2017-05-24T08:28:39Z</time>
      </trkpt>
      <trkpt lat="45.93433" lon="4.7241">
        <ele>174</ele>
        <time>2017-05-24T08:28:40Z</time>
      </trkpt>
      <trkpt lat="45.93438" lon="4.72407">
        <ele>174</ele>
        <time>2017-05-24T08:28:41Z</time>
      </trkpt>
      <trkpt lat="45.93442" lon="4.72404">
        <ele>173</ele>
        <time>2017-05-24T08:28:42Z</time>
      </trkpt>
      <trkpt lat="45.93447" lon="4.72401">
        <ele>173</ele>
        <time>2017-05-24T08:28:43Z</time>
      </trkpt>
      <trkpt lat="45.93452" lon="4.72397">
        <ele>173</ele>
        <time>2017-05-24T08:28:44Z</time>
      </trkpt>
      <trkpt lat="45.93456" lon="4.72393">
        <ele>173</ele>
        <time>2017-05-24T08:28:45Z</time>
      </trkpt>
      <trkpt lat="45.93461" lon="4.72388">
        <ele>173</ele>
        <time>2017-05-24T08:28:46Z</time>
      </trkpt>
      <trkpt lat="45.93465" lon="4.72383">
        <ele>173</ele>
        <time>2017-05-24T08:28:47Z</time>
      </trkpt>
      <trkpt lat="45.93469" lon="4.72378">
        <ele>173</ele>
        <time>2017-05-24T08:28:48Z</time>
      </trkpt>
      <trkpt lat="45.93474" lon="4.72372">
        <ele>173</ele>
        <time>2017-05-24T08:28:49Z</time>
      </trkpt>
      <trkpt lat="45.93478" lon="4.72367">
        <ele>173</ele>
        <time>2017-05-24T08:28:50Z</time>
      </trkpt>
      <trkpt lat="45.93482" lon="4.72361">
        <ele>173</ele>
        <time>2017-05-24T08:28:51Z</time>
      </trkpt>
      <trkpt lat="45.93486" lon="4.72355">
        <ele>173</ele>
        <time>2017-05-24T08:28:52Z</time>
      </trkpt>
      <trkpt lat="45.9349" lon="4.72349">
        <ele>173</ele>
        <time>2017-05-24T08:28:53Z</time>
      </trkpt>
      <trkpt lat="45.93494" lon="4.72343">
        <ele>173</ele>
        <time>2017-05-24T08:28:54Z</time>
      </trkpt>
      <trkpt lat="45.93497" lon="4.72338">
        <ele>173</ele>
        <time>2017-05-24T08:28:55Z</time>
      </trkpt>
      <trkpt lat="45.93501" lon="4.72333">
        <ele>173</ele>
        <time>2017-05-24T08:28:56Z</time>
      </trkpt>
      <trkpt lat="45.93504" lon="4.72328">
        <ele>173</ele>
        <time>2017-05-24T08:28:57Z</time>
      </trkpt>
      <trkpt lat="45.93508" lon="4.72323">
        <ele>173</ele>
        <time>2017-05-24T08:28:58Z</time>
      </trkpt>
      <trkpt lat="45.93511" lon="4.72318">
        <ele>173</ele>
        <time>2017-05-24T08:28:59Z</time>
      </trkpt>
      <trkpt lat="45.93515" lon="4.72312">
        <ele>173</ele>
        <time>2017-05-24T08:29:00Z</time>
      </trkpt>
      <trkpt lat="45.93518" lon="4.72306">
        <ele>173</ele>
        <time>2017-05-24T08:29:01Z</time>
      </trkpt>
      <trkpt lat="45.93522" lon="4.72299">
        <ele>172</ele>
        <time>2017-05-24T08:29:02Z</time>
      </trkpt>
      <trkpt lat="45.93526" lon="4.72293">
        <ele>172</ele>
        <time>2017-05-24T08:29:03Z</time>
      </trkpt>
      <trkpt lat="45.93529" lon="4.72286">
        <ele>172</ele>
        <time>2017-05-24T08:29:04Z</time>
      </trkpt>
      <trkpt lat="45.93532" lon="4.7228">
        <ele>172</ele>
        <time>2017-05-24T08:29:05Z</time>
      </trkpt>
      <trkpt lat="45.93534" lon="4.72274">
        <ele>172</ele>
        <time>2017-05-24T08:29:06Z</time>
      </trkpt>
      <trkpt lat="45.93539" lon="4.72264">
        <ele>172</ele>
        <time>2017-05-24T08:29:08Z</time>
      </trkpt>
      <trkpt lat="45.93541" lon="4.7226">
        <ele>172</ele>
        <time>2017-05-24T08:29:09Z</time>
      </trkpt>
      <trkpt lat="45.93545" lon="4.72251">
        <ele>172</ele>
        <time>2017-05-24T08:29:11Z</time>
      </trkpt>
      <trkpt lat="45.93547" lon="4.72246">
        <ele>172</ele>
        <time>2017-05-24T08:29:12Z</time>
      </trkpt>
      <trkpt lat="45.93551" lon="4.72236">
        <ele>172</ele>
        <time>2017-05-24T08:29:14Z</time>
      </trkpt>
      <trkpt lat="45.93555" lon="4.72233">
        <ele>173</ele>
        <time>2017-05-24T08:29:15Z</time>
      </trkpt>
      <trkpt lat="45.93559" lon="4.72231">
        <ele>173</ele>
        <time>2017-05-24T08:29:16Z</time>
      </trkpt>
      <trkpt lat="45.93564" lon="4.72231">
        <ele>173</ele>
        <time>2017-05-24T08:29:17Z</time>
      </trkpt>
      <trkpt lat="45.93571" lon="4.72238">
        <ele>173</ele>
        <time>2017-05-24T08:29:19Z</time>
      </trkpt>
      <trkpt lat="45.93575" lon="4.72241">
        <ele>173</ele>
        <time>2017-05-24T08:29:20Z</time>
      </trkpt>
      <trkpt lat="45.93578" lon="4.72246">
        <ele>173</ele>
        <time>2017-05-24T08:29:21Z</time>
      </trkpt>
      <trkpt lat="45.93582" lon="4.72249">
        <ele>173</ele>
        <time>2017-05-24T08:29:22Z</time>
      </trkpt>
      <trkpt lat="45.93589" lon="4.72257">
        <ele>173</ele>
        <time>2017-05-24T08:29:24Z</time>
      </trkpt>
      <trkpt lat="45.93593" lon="4.7226">
        <ele>173</ele>
        <time>2017-05-24T08:29:25Z</time>
      </trkpt>
      <trkpt lat="45.93597" lon="4.72264">
        <ele>173</ele>
        <time>2017-05-24T08:29:26Z</time>
      </trkpt>
      <trkpt lat="45.93601" lon="4.72268">
        <ele>173</ele>
        <time>2017-05-24T08:29:27Z</time>
      </trkpt>
      <trkpt lat="45.93604" lon="4.72272">
        <ele>172</ele>
        <time>2017-05-24T08:29:28Z</time>
      </trkpt>
      <trkpt lat="45.93608" lon="4.72276">
        <ele>172</ele>
        <time>2017-05-24T08:29:29Z</time>
      </trkpt>
      <trkpt lat="45.93614" lon="4.72284">
        <ele>172</ele>
        <time>2017-05-24T08:29:31Z</time>
      </trkpt>
      <trkpt lat="45.93618" lon="4.72288">
        <ele>172</ele>
        <time>2017-05-24T08:29:32Z</time>
      </trkpt>
      <trkpt lat="45.93622" lon="4.72293">
        <ele>172</ele>
        <time>2017-05-24T08:29:33Z</time>
      </trkpt>
      <trkpt lat="45.93627" lon="4.72297">
        <ele>172</ele>
        <time>2017-05-24T08:29:34Z</time>
      </trkpt>
      <trkpt lat="45.93631" lon="4.72301">
        <ele>172</ele>
        <time>2017-05-24T08:29:35Z</time>
      </trkpt>
      <trkpt lat="45.93636" lon="4.72305">
        <ele>172</ele>
        <time>2017-05-24T08:29:36Z</time>
      </trkpt>
      <trkpt lat="45.9364" lon="4.7231">
        <ele>172</ele>
        <time>2017-05-24T08:29:37Z</time>
      </trkpt>
      <trkpt lat="45.93644" lon="4.72314">
        <ele>172</ele>
        <time>2017-05-24T08:29:38Z</time>
      </trkpt>
      <trkpt lat="45.93648" lon="4.72319">
        <ele>172</ele>
        <time>2017-05-24T08:29:39Z</time>
      </trkpt>
      <trkpt lat="45.93653" lon="4.72323">
        <ele>172</ele>
        <time>2017-05-24T08:29:40Z</time>
      </trkpt>
      <trkpt lat="45.93657" lon="4.72327">
        <ele>171</ele>
        <time>2017-05-24T08:29:41Z</time>
      </trkpt>
      <trkpt lat="45.93662" lon="4.72331">
        <ele>171</ele>
        <time>2017-05-24T08:29:42Z</time>
      </trkpt>
      <trkpt lat="45.93666" lon="4.72335">
        <ele>171</ele>
        <time>2017-05-24T08:29:43Z</time>
      </trkpt>
      <trkpt lat="45.9367" lon="4.72339">
        <ele>171</ele>
        <time>2017-05-24T08:29:44Z</time>
      </trkpt>
      <trkpt lat="45.93674" lon="4.72343">
        <ele>171</ele>
        <time>2017-05-24T08:29:45Z</time>
      </trkpt>
      <trkpt lat="45.93679" lon="4.72347">
        <ele>171</ele>
        <time>2017-05-24T08:29:46Z</time>
      </trkpt>
      <trkpt lat="45.93683" lon="4.72351">
        <ele>171</ele>
        <time>2017-05-24T08:29:47Z</time>
      </trkpt>
      <trkpt lat="45.93687" lon="4.72353">
        <ele>171</ele>
        <time>2017-05-24T08:29:48Z</time>
      </trkpt>
      <trkpt lat="45.93693" lon="4.72357">
        <ele>171</ele>
        <time>2017-05-24T08:29:49Z</time>
      </trkpt>
      <trkpt lat="45.93697" lon="4.72361">
        <ele>171</ele>
        <time>2017-05-24T08:29:50Z</time>
      </trkpt>
      <trkpt lat="45.93703" lon="4.72365">
        <ele>171</ele>
        <time>2017-05-24T08:29:51Z</time>
      </trkpt>
      <trkpt lat="45.93707" lon="4.72369">
        <ele>171</ele>
        <time>2017-05-24T08:29:52Z</time>
      </trkpt>
      <trkpt lat="45.93711" lon="4.72374">
        <ele>172</ele>
        <time>2017-05-24T08:29:53Z</time>
      </trkpt>
      <trkpt lat="45.93715" lon="4.72378">
        <ele>171</ele>
        <time>2017-05-24T08:29:54Z</time>
      </trkpt>
      <trkpt lat="45.9372" lon="4.72382">
        <ele>171</ele>
        <time>2017-05-24T08:29:55Z</time>
      </trkpt>
      <trkpt lat="45.93724" lon="4.72386">
        <ele>171</ele>
        <time>2017-05-24T08:29:56Z</time>
      </trkpt>
      <trkpt lat="45.93728" lon="4.7239">
        <ele>171</ele>
        <time>2017-05-24T08:29:57Z</time>
      </trkpt>
      <trkpt lat="45.93732" lon="4.72394">
        <ele>171</ele>
        <time>2017-05-24T08:29:58Z</time>
      </trkpt>
      <trkpt lat="45.93736" lon="4.72399">
        <ele>171</ele>
        <time>2017-05-24T08:29:59Z</time>
      </trkpt>
      <trkpt lat="45.9374" lon="4.72403">
        <ele>171</ele>
        <time>2017-05-24T08:30:00Z</time>
      </trkpt>
      <trkpt lat="45.93745" lon="4.72408">
        <ele>171</ele>
        <time>2017-05-24T08:30:01Z</time>
      </trkpt>
      <trkpt lat="45.9375" lon="4.72412">
        <ele>171</ele>
        <time>2017-05-24T08:30:02Z</time>
      </trkpt>
      <trkpt lat="45.93754" lon="4.72417">
        <ele>171</ele>
        <time>2017-05-24T08:30:03Z</time>
      </trkpt>
      <trkpt lat="45.93759" lon="4.72421">
        <ele>171</ele>
        <time>2017-05-24T08:30:04Z</time>
      </trkpt>
      <trkpt lat="45.93763" lon="4.72426">
        <ele>171</ele>
        <time>2017-05-24T08:30:05Z</time>
      </trkpt>
      <trkpt lat="45.93768" lon="4.72431">
        <ele>171</ele>
        <time>2017-05-24T08:30:06Z</time>
      </trkpt>
      <trkpt lat="45.93773" lon="4.72436">
        <ele>171</ele>
        <time>2017-05-24T08:30:07Z</time>
      </trkpt>
      <trkpt lat="45.93778" lon="4.72441">
        <ele>172</ele>
        <time>2017-05-24T08:30:08Z</time>
      </trkpt>
      <trkpt lat="45.93783" lon="4.72446">
        <ele>172</ele>
        <time>2017-05-24T08:30:09Z</time>
      </trkpt>
      <trkpt lat="45.93788" lon="4.72451">
        <ele>172</ele>
        <time>2017-05-24T08:30:10Z</time>
      </trkpt>
      <trkpt lat="45.93793" lon="4.72456">
        <ele>172</ele>
        <time>2017-05-24T08:30:11Z</time>
      </trkpt>
      <trkpt lat="45.93798" lon="4.7246">
        <ele>172</ele>
        <time>2017-05-24T08:30:12Z</time>
      </trkpt>
      <trkpt lat="45.93803" lon="4.72464">
        <ele>172</ele>
        <time>2017-05-24T08:30:13Z</time>
      </trkpt>
      <trkpt lat="45.93807" lon="4.72469">
        <ele>172</ele>
        <time>2017-05-24T08:30:14Z</time>
      </trkpt>
      <trkpt lat="45.93812" lon="4.72473">
        <ele>172</ele>
        <time>2017-05-24T08:30:15Z</time>
      </trkpt>
      <trkpt lat="45.93816" lon="4.72478">
        <ele>172</ele>
        <time>2017-05-24T08:30:16Z</time>
      </trkpt>
      <trkpt lat="45.93821" lon="4.72482">
        <ele>173</ele>
        <time>2017-05-24T08:30:17Z</time>
      </trkpt>
      <trkpt lat="45.93826" lon="4.72487">
        <ele>173</ele>
        <time>2017-05-24T08:30:18Z</time>
      </trkpt>
      <trkpt lat="45.93831" lon="4.72492">
        <ele>173</ele>
        <time>2017-05-24T08:30:19Z</time>
      </trkpt>
      <trkpt lat="45.93836" lon="4.72496">
        <ele>174</ele>
        <time>2017-05-24T08:30:20Z</time>
      </trkpt>
      <trkpt lat="45.93841" lon="4.725">
        <ele>174</ele>
        <time>2017-05-24T08:30:21Z</time>
      </trkpt>
      <trkpt lat="45.93844" lon="4.72504">
        <ele>174</ele>
        <time>2017-05-24T08:30:22Z</time>
      </trkpt>
      <trkpt lat="45.93848" lon="4.72507">
        <ele>174</ele>
        <time>2017-05-24T08:30:23Z</time>
      </trkpt>
      <trkpt lat="45.93852" lon="4.72512">
        <ele>173</ele>
        <time>2017-05-24T08:30:24Z</time>
      </trkpt>
      <trkpt lat="45.93857" lon="4.72518">
        <ele>173</ele>
        <time>2017-05-24T08:30:25Z</time>
      </trkpt>
      <trkpt lat="45.93864" lon="4.72521">
        <ele>173</ele>
        <time>2017-05-24T08:30:26Z</time>
      </trkpt>
      <trkpt lat="45.9387" lon="4.72522">
        <ele>173</ele>
        <time>2017-05-24T08:30:27Z</time>
      </trkpt>
      <trkpt lat="45.93877" lon="4.72521">
        <ele>173</ele>
        <time>2017-05-24T08:30:28Z</time>
      </trkpt>
      <trkpt lat="45.93881" lon="4.72517">
        <ele>173</ele>
        <time>2017-05-24T08:30:29Z</time>
      </trkpt>
      <trkpt lat="45.93885" lon="4.72513">
        <ele>173</ele>
        <time>2017-05-24T08:30:30Z</time>
      </trkpt>
      <trkpt lat="45.93889" lon="4.72507">
        <ele>173</ele>
        <time>2017-05-24T08:30:31Z</time>
      </trkpt>
      <trkpt lat="45.93892" lon="4.72501">
        <ele>172</ele>
        <time>2017-05-24T08:30:32Z</time>
      </trkpt>
      <trkpt lat="45.93895" lon="4.72496">
        <ele>172</ele>
        <time>2017-05-24T08:30:33Z</time>
      </trkpt>
      <trkpt lat="45.939" lon="4.72491">
        <ele>172</ele>
        <time>2017-05-24T08:30:34Z</time>
      </trkpt>
      <trkpt lat="45.93904" lon="4.72486">
        <ele>172</ele>
        <time>2017-05-24T08:30:35Z</time>
      </trkpt>
      <trkpt lat="45.93908" lon="4.72481">
        <ele>172</ele>
        <time>2017-05-24T08:30:36Z</time>
      </trkpt>
      <trkpt lat="45.93913" lon="4.72475">
        <ele>172</ele>
        <time>2017-05-24T08:30:37Z</time>
      </trkpt>
      <trkpt lat="45.93917" lon="4.7247">
        <ele>171</ele>
        <time>2017-05-24T08:30:38Z</time>
      </trkpt>
      <trkpt lat="45.93922" lon="4.72464">
        <ele>171</ele>
        <time>2017-05-24T08:30:39Z</time>
      </trkpt>
      <trkpt lat="45.93926" lon="4.72458">
        <ele>171</ele>
        <time>2017-05-24T08:30:40Z</time>
      </trkpt>
      <trkpt lat="45.93931" lon="4.72453">
        <ele>171</ele>
        <time>2017-05-24T08:30:41Z</time>
      </trkpt>
      <trkpt lat="45.93935" lon="4.72447">
        <ele>171</ele>
        <time>2017-05-24T08:30:42Z</time>
      </trkpt>
      <trkpt lat="45.9394" lon="4.72442">
        <ele>171</ele>
        <time>2017-05-24T08:30:43Z</time>
      </trkpt>
      <trkpt lat="45.93944" lon="4.72437">
        <ele>171</ele>
        <time>2017-05-24T08:30:44Z</time>
      </trkpt>
      <trkpt lat="45.93948" lon="4.72432">
        <ele>171</ele>
        <time>2017-05-24T08:30:45Z</time>
      </trkpt>
      <trkpt lat="45.93953" lon="4.72426">
        <ele>171</ele>
        <time>2017-05-24T08:30:46Z</time>
      </trkpt>
      <trkpt lat="45.93957" lon="4.72421">
        <ele>171</ele>
        <time>2017-05-24T08:30:47Z</time>
      </trkpt>
      <trkpt lat="45.93962" lon="4.72415">
        <ele>171</ele>
        <time>2017-05-24T08:30:48Z</time>
      </trkpt>
      <trkpt lat="45.93966" lon="4.7241">
        <ele>171</ele>
        <time>2017-05-24T08:30:49Z</time>
      </trkpt>
      <trkpt lat="45.93971" lon="4.72404">
        <ele>171</ele>
        <time>2017-05-24T08:30:50Z</time>
      </trkpt>
      <trkpt lat="45.93975" lon="4.72399">
        <ele>171</ele>
        <time>2017-05-24T08:30:51Z</time>
      </trkpt>
      <trkpt lat="45.9398" lon="4.72393">
        <ele>171</ele>
        <time>2017-05-24T08:30:52Z</time>
      </trkpt>
      <trkpt lat="45.93984" lon="4.72387">
        <ele>171</ele>
        <time>2017-05-24T08:30:53Z</time>
      </trkpt>
      <trkpt lat="45.93989" lon="4.72381">
        <ele>171</ele>
        <time>2017-05-24T08:30:54Z</time>
      </trkpt>
      <trkpt lat="45.93993" lon="4.72376">
        <ele>171</ele>
        <time>2017-05-24T08:30:55Z</time>
      </trkpt>
      <trkpt lat="45.93997" lon="4.7237">
        <ele>171</ele>
        <time>2017-05-24T08:30:56Z</time>
      </trkpt>
      <trkpt lat="45.94001" lon="4.72365">
        <ele>171</ele>
        <time>2017-05-24T08:30:57Z</time>
      </trkpt>
      <trkpt lat="45.94006" lon="4.7236">
        <ele>171</ele>
        <time>2017-05-24T08:30:58Z</time>
      </trkpt>
      <trkpt lat="45.9401" lon="4.72354">
        <ele>171</ele>
        <time>2017-05-24T08:30:59Z</time>
      </trkpt>
      <trkpt lat="45.94014" lon="4.72349">
        <ele>171</ele>
        <time>2017-05-24T08:31:00Z</time>
      </trkpt>
      <trkpt lat="45.94018" lon="4.72344">
        <ele>171</ele>
        <time>2017-05-24T08:31:01Z</time>
      </trkpt>
      <trkpt lat="45.94022" lon="4.72339">
        <ele>171</ele>
        <time>2017-05-24T08:31:02Z</time>
      </trkpt>
      <trkpt lat="45.94026" lon="4.72333">
        <ele>171</ele>
        <time>2017-05-24T08:31:03Z</time>
      </trkpt>
      <trkpt lat="45.9403" lon="4.72328">
        <ele>171</ele>
        <time>2017-05-24T08:31:04Z</time>
      </trkpt>
      <trkpt lat="45.94033" lon="4.72323">
        <ele>171</ele>
        <time>2017-05-24T08:31:05Z</time>
      </trkpt>
      <trkpt lat="45.94037" lon="4.72318">
        <ele>171</ele>
        <time>2017-05-24T08:31:06Z</time>
      </trkpt>
      <trkpt lat="45.94044" lon="4.7231">
        <ele>171</ele>
        <time>2017-05-24T08:31:08Z</time>
      </trkpt>
      <trkpt lat="45.94047" lon="4.72305">
        <ele>171</ele>
        <time>2017-05-24T08:31:09Z</time>
      </trkpt>
      <trkpt lat="45.94051" lon="4.723">
        <ele>171</ele>
        <time>2017-05-24T08:31:10Z</time>
      </trkpt>
      <trkpt lat="45.94055" lon="4.72295">
        <ele>171</ele>
        <time>2017-05-24T08:31:11Z</time>
      </trkpt>
      <trkpt lat="45.9406" lon="4.7229">
        <ele>171</ele>
        <time>2017-05-24T08:31:12Z</time>
      </trkpt>
      <trkpt lat="45.94065" lon="4.72285">
        <ele>171</ele>
        <time>2017-05-24T08:31:13Z</time>
      </trkpt>
      <trkpt lat="45.9407" lon="4.72281">
        <ele>171</ele>
        <time>2017-05-24T08:31:14Z</time>
      </trkpt>
      <trkpt lat="45.94074" lon="4.72277">
        <ele>171</ele>
        <time>2017-05-24T08:31:15Z</time>
      </trkpt>
      <trkpt lat="45.94079" lon="4.72274">
        <ele>171</ele>
        <time>2017-05-24T08:31:16Z</time>
      </trkpt>
      <trkpt lat="45.94084" lon="4.72272">
        <ele>171</ele>
        <time>2017-05-24T08:31:17Z</time>
      </trkpt>
      <trkpt lat="45.94089" lon="4.72271">
        <ele>171</ele>
        <time>2017-05-24T08:31:18Z</time>
      </trkpt>
      <trkpt lat="45.94095" lon="4.7227">
        <ele>171</ele>
        <time>2017-05-24T08:31:19Z</time>
      </trkpt>
      <trkpt lat="45.94101" lon="4.7227">
        <ele>171</ele>
        <time>2017-05-24T08:31:20Z</time>
      </trkpt>
      <trkpt lat="45.94107" lon="4.72272">
        <ele>171</ele>
        <time>2017-05-24T08:31:21Z</time>
      </trkpt>
      <trkpt lat="45.94112" lon="4.72274">
        <ele>171</ele>
        <time>2017-05-24T08:31:22Z</time>
      </trkpt>
      <trkpt lat="45.94118" lon="4.72277">
        <ele>171</ele>
        <time>2017-05-24T08:31:23Z</time>
      </trkpt>
      <trkpt lat="45.94124" lon="4.7228">
        <ele>171</ele>
        <time>2017-05-24T08:31:24Z</time>
      </trkpt>
      <trkpt lat="45.9413" lon="4.72283">
        <ele>171</ele>
        <time>2017-05-24T08:31:25Z</time>
      </trkpt>
      <trkpt lat="45.94136" lon="4.72286">
        <ele>171</ele>
        <time>2017-05-24T08:31:26Z</time>
      </trkpt>
      <trkpt lat="45.94141" lon="4.72288">
        <ele>171</ele>
        <time>2017-05-24T08:31:27Z</time>
      </trkpt>
      <trkpt lat="45.94147" lon="4.72291">
        <ele>171</ele>
        <time>2017-05-24T08:31:28Z</time>
      </trkpt>
      <trkpt lat="45.94151" lon="4.72293">
        <ele>171</ele>
        <time>2017-05-24T08:31:29Z</time>
      </trkpt>
      <trkpt lat="45.94156" lon="4.72294">
        <ele>171</ele>
        <time>2017-05-24T08:31:30Z</time>
      </trkpt>
      <trkpt lat="45.94161" lon="4.72295">
        <ele>171</ele>
        <time>2017-05-24T08:31:31Z</time>
      </trkpt>
      <trkpt lat="45.94166" lon="4.72295">
        <ele>171</ele>
        <time>2017-05-24T08:31:32Z</time>
      </trkpt>
      <trkpt lat="45.94171" lon="4.72295">
        <ele>171</ele>
        <time>2017-05-24T08:31:33Z</time>
      </trkpt>
      <trkpt lat="45.94177" lon="4.72296">
        <ele>171</ele>
        <time>2017-05-24T08:31:34Z</time>
      </trkpt>
      <trkpt lat="45.94182" lon="4.72296">
        <ele>171</ele>
        <time>2017-05-24T08:31:35Z</time>
      </trkpt>
      <trkpt lat="45.94188" lon="4.72297">
        <ele>171</ele>
        <time>2017-05-24T08:31:36Z</time>
      </trkpt>
      <trkpt lat="45.94193" lon="4.72297">
        <ele>171</ele>
        <time>2017-05-24T08:31:37Z</time>
      </trkpt>
      <trkpt lat="45.94199" lon="4.72297">
        <ele>171</ele>
        <time>2017-05-24T08:31:38Z</time>
      </trkpt>
      <trkpt lat="45.94205" lon="4.72296">
        <ele>171</ele>
        <time>2017-05-24T08:31:39Z</time>
      </trkpt>
      <trkpt lat="45.9421" lon="4.72295">
        <ele>171</ele>
        <time>2017-05-24T08:31:40Z</time>
      </trkpt>
      <trkpt lat="45.94215" lon="4.72294">
        <ele>171</ele>
        <time>2017-05-24T08:31:41Z</time>
      </trkpt>
      <trkpt lat="45.9422" lon="4.72293">
        <ele>171</ele>
        <time>2017-05-24T08:31:42Z</time>
      </trkpt>
      <trkpt lat="45.94225" lon="4.72292">
        <ele>171</ele>
        <time>2017-05-24T08:31:43Z</time>
      </trkpt>
      <trkpt lat="45.94231" lon="4.72291">
        <ele>171</ele>
        <time>2017-05-24T08:31:44Z</time>
      </trkpt>
      <trkpt lat="45.94235" lon="4.7229">
        <ele>171</ele>
        <time>2017-05-24T08:31:45Z</time>
      </trkpt>
      <trkpt lat="45.94244" lon="4.72287">
        <ele>171</ele>
        <time>2017-05-24T08:31:47Z</time>
      </trkpt>
      <trkpt lat="45.94248" lon="4.72286">
        <ele>171</ele>
        <time>2017-05-24T08:31:48Z</time>
      </trkpt>
      <trkpt lat="45.94253" lon="4.72284">
        <ele>171</ele>
        <time>2017-05-24T08:31:49Z</time>
      </trkpt>
      <trkpt lat="45.94257" lon="4.72282">
        <ele>171</ele>
        <time>2017-05-24T08:31:50Z</time>
      </trkpt>
      <trkpt lat="45.94265" lon="4.72279">
        <ele>171</ele>
        <time>2017-05-24T08:31:52Z</time>
      </trkpt>
      <trkpt lat="45.94267" lon="4.72278">
        <ele>171</ele>
        <time>2017-05-24T08:31:53Z</time>
      </trkpt>
      <trkpt lat="45.94274" lon="4.72285">
        <ele>171</ele>
        <time>2017-05-24T08:31:57Z</time>
      </trkpt>
      <trkpt lat="45.94277" lon="4.72289">
        <ele>171</ele>
        <time>2017-05-24T08:31:58Z</time>
      </trkpt>
      <trkpt lat="45.94279" lon="4.72295">
        <ele>171</ele>
        <time>2017-05-24T08:31:59Z</time>
      </trkpt>
      <trkpt lat="45.94281" lon="4.72301">
        <ele>171</ele>
        <time>2017-05-24T08:32:00Z</time>
      </trkpt>
      <trkpt lat="45.94284" lon="4.72307">
        <ele>171</ele>
        <time>2017-05-24T08:32:01Z</time>
      </trkpt>
      <trkpt lat="45.94287" lon="4.72313">
        <ele>171</ele>
        <time>2017-05-24T08:32:02Z</time>
      </trkpt>
      <trkpt lat="45.94289" lon="4.72319">
        <ele>171</ele>
        <time>2017-05-24T08:32:03Z</time>
      </trkpt>
      <trkpt lat="45.94292" lon="4.72326">
        <ele>171</ele>
        <time>2017-05-24T08:32:04Z</time>
      </trkpt>
      <trkpt lat="45.94295" lon="4.72331">
        <ele>171</ele>
        <time>2017-05-24T08:32:05Z</time>
      </trkpt>
      <trkpt lat="45.94298" lon="4.72337">
        <ele>172</ele>
        <time>2017-05-24T08:32:06Z</time>
      </trkpt>
      <trkpt lat="45.94302" lon="4.72343">
        <ele>172</ele>
        <time>2017-05-24T08:32:07Z</time>
      </trkpt>
      <trkpt lat="45.94305" lon="4.7235">
        <ele>172</ele>
        <time>2017-05-24T08:32:08Z</time>
      </trkpt>
      <trkpt lat="45.94308" lon="4.72356">
        <ele>172</ele>
        <time>2017-05-24T08:32:09Z</time>
      </trkpt>
      <trkpt lat="45.9431" lon="4.72363">
        <ele>172</ele>
        <time>2017-05-24T08:32:10Z</time>
      </trkpt>
      <trkpt lat="45.94312" lon="4.72369">
        <ele>172</ele>
        <time>2017-05-24T08:32:11Z</time>
      </trkpt>
      <trkpt lat="45.94315" lon="4.72375">
        <ele>172</ele>
        <time>2017-05-24T08:32:12Z</time>
      </trkpt>
      <trkpt lat="45.94318" lon="4.72382">
        <ele>172</ele>
        <time>2017-05-24T08:32:13Z</time>
      </trkpt>
      <trkpt lat="45.9432" lon="4.72388">
        <ele>172</ele>
        <time>2017-05-24T08:32:14Z</time>
      </trkpt>
      <trkpt lat="45.94323" lon="4.72393">
        <ele>172</ele>
        <time>2017-05-24T08:32:15Z</time>
      </trkpt>
      <trkpt lat="45.94326" lon="4.72399">
        <ele>172</ele>
        <time>2017-05-24T08:32:16Z</time>
      </trkpt>
      <trkpt lat="45.94329" lon="4.72406">
        <ele>173</ele>
        <time>2017-05-24T08:32:17Z</time>
      </trkpt>
      <trkpt lat="45.94332" lon="4.72412">
        <ele>173</ele>
        <time>2017-05-24T08:32:18Z</time>
      </trkpt>
      <trkpt lat="45.94336" lon="4.72419">
        <ele>173</ele>
        <time>2017-05-24T08:32:19Z</time>
      </trkpt>
      <trkpt lat="45.94339" lon="4.72426">
        <ele>173</ele>
        <time>2017-05-24T08:32:20Z</time>
      </trkpt>
      <trkpt lat="45.94341" lon="4.72433">
        <ele>173</ele>
        <time>2017-05-24T08:32:21Z</time>
      </trkpt>
      <trkpt lat="45.94344" lon="4.72439">
        <ele>173</ele>
        <time>2017-05-24T08:32:22Z</time>
      </trkpt>
      <trkpt lat="45.94347" lon="4.72444">
        <ele>173</ele>
        <time>2017-05-24T08:32:23Z</time>
      </trkpt>
      <trkpt lat="45.94349" lon="4.7245">
        <ele>173</ele>
        <time>2017-05-24T08:32:24Z</time>
      </trkpt>
      <trkpt lat="45.94352" lon="4.72456">
        <ele>173</ele>
        <time>2017-05-24T08:32:25Z</time>
      </trkpt>
      <trkpt lat="45.94354" lon="4.72462">
        <ele>173</ele>
        <time>2017-05-24T08:32:26Z</time>
      </trkpt>
      <trkpt lat="45.94357" lon="4.72467">
        <ele>173</ele>
        <time>2017-05-24T08:32:27Z</time>
      </trkpt>
      <trkpt lat="45.9436" lon="4.72473">
        <ele>173</ele>
        <time>2017-05-24T08:32:28Z</time>
      </trkpt>
      <trkpt lat="45.94362" lon="4.72478">
        <ele>173</ele>
        <time>2017-05-24T08:32:29Z</time>
      </trkpt>
      <trkpt lat="45.94365" lon="4.72484">
        <ele>173</ele>
        <time>2017-05-24T08:32:30Z</time>
      </trkpt>
      <trkpt lat="45.94368" lon="4.72491">
        <ele>173</ele>
        <time>2017-05-24T08:32:31Z</time>
      </trkpt>
      <trkpt lat="45.9437" lon="4.72497">
        <ele>173</ele>
        <time>2017-05-24T08:32:32Z</time>
      </trkpt>
      <trkpt lat="45.94373" lon="4.72504">
        <ele>173</ele>
        <time>2017-05-24T08:32:33Z</time>
      </trkpt>
      <trkpt lat="45.94376" lon="4.72511">
        <ele>174</ele>
        <time>2017-05-24T08:32:34Z</time>
      </trkpt>
      <trkpt lat="45.94379" lon="4.72518">
        <ele>174</ele>
        <time>2017-05-24T08:32:35Z</time>
      </trkpt>
      <trkpt lat="45.94381" lon="4.72525">
        <ele>174</ele>
        <time>2017-05-24T08:32:36Z</time>
      </trkpt>
      <trkpt lat="45.94383" lon="4.72533">
        <ele>174</ele>
        <time>2017-05-24T08:32:37Z</time>
      </trkpt>
      <trkpt lat="45.94385" lon="4.7254">
        <ele>174</ele>
        <time>2017-05-24T08:32:38Z</time>
      </trkpt>
      <trkpt lat="45.94386" lon="4.72547">
        <ele>173</ele>
        <time>2017-05-24T08:32:39Z</time>
      </trkpt>
      <trkpt lat="45.94387" lon="4.72554">
        <ele>173</ele>
        <time>2017-05-24T08:32:40Z</time>
      </trkpt>
      <trkpt lat="45.94388" lon="4.72561">
        <ele>173</ele>
        <time>2017-05-24T08:32:41Z</time>
      </trkpt>
      <trkpt lat="45.94389" lon="4.72568">
        <ele>173</ele>
        <time>2017-05-24T08:32:42Z</time>
      </trkpt>
      <trkpt lat="45.94391" lon="4.72575">
        <ele>173</ele>
        <time>2017-05-24T08:32:43Z</time>
      </trkpt>
      <trkpt lat="45.94392" lon="4.72582">
        <ele>173</ele>
        <time>2017-05-24T08:32:44Z</time>
      </trkpt>
      <trkpt lat="45.94393" lon="4.7259">
        <ele>173</ele>
        <time>2017-05-24T08:32:45Z</time>
      </trkpt>
      <trkpt lat="45.94395" lon="4.72598">
        <ele>173</ele>
        <time>2017-05-24T08:32:46Z</time>
      </trkpt>
      <trkpt lat="45.94396" lon="4.72606">
        <ele>173</ele>
        <time>2017-05-24T08:32:47Z</time>
      </trkpt>
      <trkpt lat="45.94398" lon="4.72615">
        <ele>173</ele>
        <time>2017-05-24T08:32:48Z</time>
      </trkpt>
      <trkpt lat="45.94399" lon="4.72624">
        <ele>173</ele>
        <time>2017-05-24T08:32:49Z</time>
      </trkpt>
      <trkpt lat="45.94401" lon="4.72632">
        <ele>174</ele>
        <time>2017-05-24T08:32:50Z</time>
      </trkpt>
      <trkpt lat="45.94402" lon="4.72641">
        <ele>174</ele>
        <time>2017-05-24T08:32:51Z</time>
      </trkpt>
      <trkpt lat="45.94403" lon="4.72649">
        <ele>174</ele>
        <time>2017-05-24T08:32:52Z</time>
      </trkpt>
      <trkpt lat="45.94404" lon="4.72657">
        <ele>174</ele>
        <time>2017-05-24T08:32:53Z</time>
      </trkpt>
      <trkpt lat="45.94405" lon="4.72665">
        <ele>174</ele>
        <time>2017-05-24T08:32:54Z</time>
      </trkpt>
      <trkpt lat="45.94406" lon="4.72672">
        <ele>173</ele>
        <time>2017-05-24T08:32:55Z</time>
      </trkpt>
      <trkpt lat="45.94407" lon="4.7268">
        <ele>173</ele>
        <time>2017-05-24T08:32:56Z</time>
      </trkpt>
      <trkpt lat="45.94407" lon="4.72688">
        <ele>173</ele>
        <time>2017-05-24T08:32:57Z</time>
      </trkpt>
      <trkpt lat="45.94407" lon="4.72695">
        <ele>173</ele>
        <time>2017-05-24T08:32:58Z</time>
      </trkpt>
      <trkpt lat="45.94408" lon="4.72703">
        <ele>172</ele>
        <time>2017-05-24T08:32:59Z</time>
      </trkpt>
      <trkpt lat="45.94408" lon="4.7271">
        <ele>172</ele>
        <time>2017-05-24T08:33:00Z</time>
      </trkpt>
      <trkpt lat="45.94409" lon="4.72718">
        <ele>172</ele>
        <time>2017-05-24T08:33:01Z</time>
      </trkpt>
      <trkpt lat="45.9441" lon="4.72725">
        <ele>172</ele>
        <time>2017-05-24T08:33:02Z</time>
      </trkpt>
      <trkpt lat="45.94411" lon="4.72732">
        <ele>172</ele>
        <time>2017-05-24T08:33:03Z</time>
      </trkpt>
      <trkpt lat="45.94412" lon="4.7274">
        <ele>171</ele>
        <time>2017-05-24T08:33:04Z</time>
      </trkpt>
      <trkpt lat="45.94414" lon="4.72748">
        <ele>171</ele>
        <time>2017-05-24T08:33:05Z</time>
      </trkpt>
      <trkpt lat="45.94415" lon="4.72756">
        <ele>170</ele>
        <time>2017-05-24T08:33:06Z</time>
      </trkpt>
      <trkpt lat="45.94415" lon="4.72764">
        <ele>170</ele>
        <time>2017-05-24T08:33:07Z</time>
      </trkpt>
      <trkpt lat="45.94417" lon="4.72772">
        <ele>169</ele>
        <time>2017-05-24T08:33:08Z</time>
      </trkpt>
      <trkpt lat="45.94418" lon="4.72781">
        <ele>168</ele>
        <time>2017-05-24T08:33:09Z</time>
      </trkpt>
      <trkpt lat="45.94419" lon="4.72789">
        <ele>168</ele>
        <time>2017-05-24T08:33:10Z</time>
      </trkpt>
      <trkpt lat="45.9442" lon="4.72797">
        <ele>167</ele>
        <time>2017-05-24T08:33:11Z</time>
      </trkpt>
      <trkpt lat="45.9442" lon="4.72806">
        <ele>167</ele>
        <time>2017-05-24T08:33:12Z</time>
      </trkpt>
      <trkpt lat="45.94421" lon="4.72814">
        <ele>167</ele>
        <time>2017-05-24T08:33:13Z</time>
      </trkpt>
      <trkpt lat="45.94423" lon="4.72823">
        <ele>167</ele>
        <time>2017-05-24T08:33:14Z</time>
      </trkpt>
      <trkpt lat="45.94424" lon="4.72831">
        <ele>166</ele>
        <time>2017-05-24T08:33:15Z</time>
      </trkpt>
      <trkpt lat="45.94426" lon="4.72839">
        <ele>166</ele>
        <time>2017-05-24T08:33:16Z</time>
      </trkpt>
      <trkpt lat="45.94427" lon="4.72847">
        <ele>166</ele>
        <time>2017-05-24T08:33:17Z</time>
      </trkpt>
      <trkpt lat="45.94428" lon="4.72856">
        <ele>166</ele>
        <time>2017-05-24T08:33:18Z</time>
      </trkpt>
      <trkpt lat="45.94429" lon="4.72864">
        <ele>166</ele>
        <time>2017-05-24T08:33:19Z</time>
      </trkpt>
      <trkpt lat="45.9443" lon="4.72871">
        <ele>166</ele>
        <time>2017-05-24T08:33:20Z</time>
      </trkpt>
      <trkpt lat="45.94431" lon="4.72879">
        <ele>166</ele>
        <time>2017-05-24T08:33:21Z</time>
      </trkpt>
      <trkpt lat="45.94432" lon="4.72886">
        <ele>166</ele>
        <time>2017-05-24T08:33:22Z</time>
      </trkpt>
      <trkpt lat="45.94433" lon="4.72898">
        <ele>166</ele>
        <time>2017-05-24T08:33:24Z</time>
      </trkpt>
      <trkpt lat="45.94434" lon="4.72904">
        <ele>166</ele>
        <time>2017-05-24T08:33:25Z</time>
      </trkpt>
      <trkpt lat="45.94435" lon="4.72911">
        <ele>166</ele>
        <time>2017-05-24T08:33:26Z</time>
      </trkpt>
      <trkpt lat="45.94436" lon="4.72917">
        <ele>167</ele>
        <time>2017-05-24T08:33:27Z</time>
      </trkpt>
      <trkpt lat="45.94436" lon="4.72924">
        <ele>167</ele>
        <time>2017-05-24T08:33:28Z</time>
      </trkpt>
      <trkpt lat="45.94438" lon="4.7293">
        <ele>167</ele>
        <time>2017-05-24T08:33:29Z</time>
      </trkpt>
      <trkpt lat="45.94439" lon="4.72937">
        <ele>167</ele>
        <time>2017-05-24T08:33:30Z</time>
      </trkpt>
      <trkpt lat="45.9444" lon="4.72944">
        <ele>167</ele>
        <time>2017-05-24T08:33:31Z</time>
      </trkpt>
      <trkpt lat="45.94441" lon="4.72951">
        <ele>167</ele>
        <time>2017-05-24T08:33:32Z</time>
      </trkpt>
      <trkpt lat="45.94442" lon="4.72959">
        <ele>167</ele>
        <time>2017-05-24T08:33:33Z</time>
      </trkpt>
      <trkpt lat="45.94443" lon="4.72966">
        <ele>167</ele>
        <time>2017-05-24T08:33:34Z</time>
      </trkpt>
      <trkpt lat="45.94444" lon="4.72974">
        <ele>167</ele>
        <time>2017-05-24T08:33:35Z</time>
      </trkpt>
      <trkpt lat="45.94445" lon="4.72982">
        <ele>167</ele>
        <time>2017-05-24T08:33:36Z</time>
      </trkpt>
      <trkpt lat="45.94446" lon="4.7299">
        <ele>167</ele>
        <time>2017-05-24T08:33:37Z</time>
      </trkpt>
      <trkpt lat="45.94447" lon="4.72998">
        <ele>167</ele>
        <time>2017-05-24T08:33:38Z</time>
      </trkpt>
      <trkpt lat="45.94449" lon="4.73007">
        <ele>169</ele>
        <time>2017-05-24T08:33:39Z</time>
      </trkpt>
      <trkpt lat="45.9445" lon="4.73015">
        <ele>169</ele>
        <time>2017-05-24T08:33:40Z</time>
      </trkpt>
      <trkpt lat="45.94451" lon="4.73024">
        <ele>169</ele>
        <time>2017-05-24T08:33:41Z</time>
      </trkpt>
      <trkpt lat="45.94452" lon="4.73033">
        <ele>169</ele>
        <time>2017-05-24T08:33:42Z</time>
      </trkpt>
      <trkpt lat="45.94453" lon="4.73043">
        <ele>169</ele>
        <time>2017-05-24T08:33:43Z</time>
      </trkpt>
      <trkpt lat="45.94454" lon="4.73052">
        <ele>170</ele>
        <time>2017-05-24T08:33:44Z</time>
      </trkpt>
      <trkpt lat="45.94455" lon="4.73062">
        <ele>170</ele>
        <time>2017-05-24T08:33:45Z</time>
      </trkpt>
      <trkpt lat="45.94457" lon="4.73071">
        <ele>170</ele>
        <time>2017-05-24T08:33:46Z</time>
      </trkpt>
      <trkpt lat="45.94458" lon="4.7308">
        <ele>170</ele>
        <time>2017-05-24T08:33:47Z</time>
      </trkpt>
      <trkpt lat="45.94459" lon="4.7309">
        <ele>171</ele>
        <time>2017-05-24T08:33:48Z</time>
      </trkpt>
      <trkpt lat="45.94461" lon="4.73099">
        <ele>171</ele>
        <time>2017-05-24T08:33:49Z</time>
      </trkpt>
      <trkpt lat="45.94461" lon="4.73109">
        <ele>172</ele>
        <time>2017-05-24T08:33:50Z</time>
      </trkpt>
      <trkpt lat="45.94463" lon="4.73117">
        <ele>172</ele>
        <time>2017-05-24T08:33:51Z</time>
      </trkpt>
      <trkpt lat="45.94464" lon="4.73126">
        <ele>172</ele>
        <time>2017-05-24T08:33:52Z</time>
      </trkpt>
      <trkpt lat="45.94465" lon="4.73134">
        <ele>172</ele>
        <time>2017-05-24T08:33:53Z</time>
      </trkpt>
      <trkpt lat="45.94467" lon="4.73142">
        <ele>172</ele>
        <time>2017-05-24T08:33:54Z</time>
      </trkpt>
      <trkpt lat="45.94468" lon="4.7315">
        <ele>172</ele>
        <time>2017-05-24T08:33:55Z</time>
      </trkpt>
      <trkpt lat="45.94469" lon="4.73157">
        <ele>172</ele>
        <time>2017-05-24T08:33:56Z</time>
      </trkpt>
      <trkpt lat="45.9447" lon="4.73165">
        <ele>172</ele>
        <time>2017-05-24T08:33:57Z</time>
      </trkpt>
      <trkpt lat="45.94471" lon="4.73173">
        <ele>174</ele>
        <time>2017-05-24T08:33:58Z</time>
      </trkpt>
      <trkpt lat="45.94472" lon="4.7318">
        <ele>174</ele>
        <time>2017-05-24T08:33:59Z</time>
      </trkpt>
      <trkpt lat="45.94472" lon="4.73188">
        <ele>174</ele>
        <time>2017-05-24T08:34:00Z</time>
      </trkpt>
      <trkpt lat="45.94473" lon="4.73196">
        <ele>174</ele>
        <time>2017-05-24T08:34:01Z</time>
      </trkpt>
      <trkpt lat="45.94474" lon="4.73203">
        <ele>174</ele>
        <time>2017-05-24T08:34:02Z</time>
      </trkpt>
      <trkpt lat="45.94475" lon="4.73209">
        <ele>175</ele>
        <time>2017-05-24T08:34:03Z</time>
      </trkpt>
      <trkpt lat="45.94476" lon="4.73216">
        <ele>175</ele>
        <time>2017-05-24T08:34:04Z</time>
      </trkpt>
      <trkpt lat="45.94477" lon="4.73223">
        <ele>175</ele>
        <time>2017-05-24T08:34:05Z</time>
      </trkpt>
      <trkpt lat="45.94478" lon="4.73229">
        <ele>175</ele>
        <time>2017-05-24T08:34:06Z</time>
      </trkpt>
      <trkpt lat="45.94479" lon="4.73236">
        <ele>175</ele>
        <time>2017-05-24T08:34:07Z</time>
      </trkpt>
      <trkpt lat="45.9448" lon="4.73242">
        <ele>175</ele>
        <time>2017-05-24T08:34:08Z</time>
      </trkpt>
      <trkpt lat="45.9448" lon="4.73249">
        <ele>175</ele>
        <time>2017-05-24T08:34:09Z</time>
      </trkpt>
      <trkpt lat="45.94481" lon="4.73255">
        <ele>176</ele>
        <time>2017-05-24T08:34:10Z</time>
      </trkpt>
      <trkpt lat="45.94481" lon="4.73262">
        <ele>177</ele>
        <time>2017-05-24T08:34:11Z</time>
      </trkpt>
      <trkpt lat="45.94482" lon="4.73269">
        <ele>177</ele>
        <time>2017-05-24T08:34:12Z</time>
      </trkpt>
      <trkpt lat="45.94483" lon="4.73277">
        <ele>177</ele>
        <time>2017-05-24T08:34:13Z</time>
      </trkpt>
      <trkpt lat="45.94484" lon="4.73285">
        <ele>177</ele>
        <time>2017-05-24T08:34:14Z</time>
      </trkpt>
      <trkpt lat="45.94484" lon="4.73293">
        <ele>177</ele>
        <time>2017-05-24T08:34:15Z</time>
      </trkpt>
      <trkpt lat="45.94485" lon="4.73301">
        <ele>177</ele>
        <time>2017-05-24T08:34:16Z</time>
      </trkpt>
      <trkpt lat="45.94486" lon="4.7331">
        <ele>177</ele>
        <time>2017-05-24T08:34:17Z</time>
      </trkpt>
      <trkpt lat="45.94487" lon="4.73318">
        <ele>177</ele>
        <time>2017-05-24T08:34:18Z</time>
      </trkpt>
      <trkpt lat="45.94487" lon="4.73326">
        <ele>177</ele>
        <time>2017-05-24T08:34:19Z</time>
      </trkpt>
      <trkpt lat="45.94488" lon="4.73334">
        <ele>178</ele>
        <time>2017-05-24T08:34:20Z</time>
      </trkpt>
      <trkpt lat="45.94489" lon="4.73342">
        <ele>178</ele>
        <time>2017-05-24T08:34:21Z</time>
      </trkpt>
      <trkpt lat="45.9449" lon="4.7335">
        <ele>178</ele>
        <time>2017-05-24T08:34:22Z</time>
      </trkpt>
      <trkpt lat="45.94491" lon="4.73358">
        <ele>179</ele>
        <time>2017-05-24T08:34:23Z</time>
      </trkpt>
      <trkpt lat="45.94492" lon="4.73366">
        <ele>179</ele>
        <time>2017-05-24T08:34:24Z</time>
      </trkpt>
      <trkpt lat="45.94493" lon="4.73373">
        <ele>179</ele>
        <time>2017-05-24T08:34:25Z</time>
      </trkpt>
      <trkpt lat="45.94494" lon="4.7338">
        <ele>179</ele>
        <time>2017-05-24T08:34:26Z</time>
      </trkpt>
      <trkpt lat="45.94494" lon="4.73387">
        <ele>179</ele>
        <time>2017-05-24T08:34:27Z</time>
      </trkpt>
      <trkpt lat="45.94495" lon="4.73393">
        <ele>179</ele>
        <time>2017-05-24T08:34:28Z</time>
      </trkpt>
      <trkpt lat="45.94495" lon="4.734">
        <ele>180</ele>
        <time>2017-05-24T08:34:29Z</time>
      </trkpt>
      <trkpt lat="45.94496" lon="4.73407">
        <ele>180</ele>
        <time>2017-05-24T08:34:30Z</time>
      </trkpt>
      <trkpt lat="45.94497" lon="4.73415">
        <ele>180</ele>
        <time>2017-05-24T08:34:31Z</time>
      </trkpt>
      <trkpt lat="45.94497" lon="4.73422">
        <ele>180</ele>
        <time>2017-05-24T08:34:32Z</time>
      </trkpt>
      <trkpt lat="45.94498" lon="4.7343">
        <ele>181</ele>
        <time>2017-05-24T08:34:33Z</time>
      </trkpt>
      <trkpt lat="45.94497" lon="4.73438">
        <ele>181</ele>
        <time>2017-05-24T08:34:34Z</time>
      </trkpt>
      <trkpt lat="45.94498" lon="4.73445">
        <ele>181</ele>
        <time>2017-05-24T08:34:35Z</time>
      </trkpt>
      <trkpt lat="45.94498" lon="4.73453">
        <ele>182</ele>
        <time>2017-05-24T08:34:36Z</time>
      </trkpt>
      <trkpt lat="45.94498" lon="4.7346">
        <ele>182</ele>
        <time>2017-05-24T08:34:37Z</time>
      </trkpt>
      <trkpt lat="45.94498" lon="4.73467">
        <ele>182</ele>
        <time>2017-05-24T08:34:38Z</time>
      </trkpt>
      <trkpt lat="45.94499" lon="4.73474">
        <ele>182</ele>
        <time>2017-05-24T08:34:39Z</time>
      </trkpt>
      <trkpt lat="45.945" lon="4.73482">
        <ele>182</ele>
        <time>2017-05-24T08:34:40Z</time>
      </trkpt>
      <trkpt lat="45.945" lon="4.73489">
        <ele>182</ele>
        <time>2017-05-24T08:34:41Z</time>
      </trkpt>
      <trkpt lat="45.945" lon="4.73501">
        <ele>183</ele>
        <time>2017-05-24T08:34:43Z</time>
      </trkpt>
      <trkpt lat="45.945" lon="4.73507">
        <ele>183</ele>
        <time>2017-05-24T08:34:44Z</time>
      </trkpt>
      <trkpt lat="45.945" lon="4.73513">
        <ele>184</ele>
        <time>2017-05-24T08:34:45Z</time>
      </trkpt>
      <trkpt lat="45.94499" lon="4.7352">
        <ele>184</ele>
        <time>2017-05-24T08:34:46Z</time>
      </trkpt>
      <trkpt lat="45.94499" lon="4.73526">
        <ele>184</ele>
        <time>2017-05-24T08:34:47Z</time>
      </trkpt>
      <trkpt lat="45.94499" lon="4.73533">
        <ele>184</ele>
        <time>2017-05-24T08:34:48Z</time>
      </trkpt>
      <trkpt lat="45.94499" lon="4.73539">
        <ele>184</ele>
        <time>2017-05-24T08:34:49Z</time>
      </trkpt>
      <trkpt lat="45.94499" lon="4.73546">
        <ele>185</ele>
        <time>2017-05-24T08:34:50Z</time>
      </trkpt>
      <trkpt lat="45.94499" lon="4.73553">
        <ele>185</ele>
        <time>2017-05-24T08:34:51Z</time>
      </trkpt>
      <trkpt lat="45.94498" lon="4.7356">
        <ele>185</ele>
        <time>2017-05-24T08:34:52Z</time>
      </trkpt>
      <trkpt lat="45.94497" lon="4.73568">
        <ele>185</ele>
        <time>2017-05-24T08:34:53Z</time>
      </trkpt>
      <trkpt lat="45.94497" lon="4.73575">
        <ele>185</ele>
        <time>2017-05-24T08:34:54Z</time>
      </trkpt>
      <trkpt lat="45.94496" lon="4.73581">
        <ele>185</ele>
        <time>2017-05-24T08:34:55Z</time>
      </trkpt>
      <trkpt lat="45.94496" lon="4.73587">
        <ele>185</ele>
        <time>2017-05-24T08:34:56Z</time>
      </trkpt>
      <trkpt lat="45.94495" lon="4.73594">
        <ele>185</ele>
        <time>2017-05-24T08:34:57Z</time>
      </trkpt>
      <trkpt lat="45.94494" lon="4.73601">
        <ele>185</ele>
        <time>2017-05-24T08:34:58Z</time>
      </trkpt>
      <trkpt lat="45.94493" lon="4.73607">
        <ele>186</ele>
        <time>2017-05-24T08:34:59Z</time>
      </trkpt>
      <trkpt lat="45.94493" lon="4.73614">
        <ele>186</ele>
        <time>2017-05-24T08:35:00Z</time>
      </trkpt>
      <trkpt lat="45.94492" lon="4.73626">
        <ele>186</ele>
        <time>2017-05-24T08:35:02Z</time>
      </trkpt>
      <trkpt lat="45.94491" lon="4.73632">
        <ele>186</ele>
        <time>2017-05-24T08:35:03Z</time>
      </trkpt>
      <trkpt lat="45.94491" lon="4.73639">
        <ele>186</ele>
        <time>2017-05-24T08:35:04Z</time>
      </trkpt>
      <trkpt lat="45.9449" lon="4.73646">
        <ele>186</ele>
        <time>2017-05-24T08:35:05Z</time>
      </trkpt>
      <trkpt lat="45.9449" lon="4.73653">
        <ele>185</ele>
        <time>2017-05-24T08:35:06Z</time>
      </trkpt>
      <trkpt lat="45.94489" lon="4.73661">
        <ele>185</ele>
        <time>2017-05-24T08:35:07Z</time>
      </trkpt>
      <trkpt lat="45.94488" lon="4.73669">
        <ele>185</ele>
        <time>2017-05-24T08:35:08Z</time>
      </trkpt>
      <trkpt lat="45.94487" lon="4.73676">
        <ele>186</ele>
        <time>2017-05-24T08:35:09Z</time>
      </trkpt>
      <trkpt lat="45.94486" lon="4.73683">
        <ele>186</ele>
        <time>2017-05-24T08:35:10Z</time>
      </trkpt>
      <trkpt lat="45.94484" lon="4.7369">
        <ele>186</ele>
        <time>2017-05-24T08:35:11Z</time>
      </trkpt>
      <trkpt lat="45.94483" lon="4.73697">
        <ele>186</ele>
        <time>2017-05-24T08:35:12Z</time>
      </trkpt>
      <trkpt lat="45.94482" lon="4.73703">
        <ele>186</ele>
        <time>2017-05-24T08:35:13Z</time>
      </trkpt>
      <trkpt lat="45.94481" lon="4.7371">
        <ele>186</ele>
        <time>2017-05-24T08:35:14Z</time>
      </trkpt>
      <trkpt lat="45.9448" lon="4.73717">
        <ele>186</ele>
        <time>2017-05-24T08:35:15Z</time>
      </trkpt>
      <trkpt lat="45.94479" lon="4.73724">
        <ele>186</ele>
        <time>2017-05-24T08:35:16Z</time>
      </trkpt>
      <trkpt lat="45.94478" lon="4.73731">
        <ele>186</ele>
        <time>2017-05-24T08:35:17Z</time>
      </trkpt>
      <trkpt lat="45.94477" lon="4.73743">
        <ele>186</ele>
        <time>2017-05-24T08:35:19Z</time>
      </trkpt>
      <trkpt lat="45.94477" lon="4.73748">
        <ele>186</ele>
        <time>2017-05-24T08:35:20Z</time>
      </trkpt>
      <trkpt lat="45.94476" lon="4.7376">
        <ele>186</ele>
        <time>2017-05-24T08:35:22Z</time>
      </trkpt>
      <trkpt lat="45.94475" lon="4.73765">
        <ele>186</ele>
        <time>2017-05-24T08:35:23Z</time>
      </trkpt>
      <trkpt lat="45.9448" lon="4.73775">
        <ele>186</ele>
        <time>2017-05-24T08:35:25Z</time>
      </trkpt>
      <trkpt lat="45.94484" lon="4.73778">
        <ele>186</ele>
        <time>2017-05-24T08:35:26Z</time>
      </trkpt>
      <trkpt lat="45.94491" lon="4.73784">
        <ele>186</ele>
        <time>2017-05-24T08:35:28Z</time>
      </trkpt>
      <trkpt lat="45.94494" lon="4.73787">
        <ele>186</ele>
        <time>2017-05-24T08:35:29Z</time>
      </trkpt>
      <trkpt lat="45.94501" lon="4.73793">
        <ele>186</ele>
        <time>2017-05-24T08:35:31Z</time>
      </trkpt>
      <trkpt lat="45.94504" lon="4.73796">
        <ele>186</ele>
        <time>2017-05-24T08:35:32Z</time>
      </trkpt>
      <trkpt lat="45.94511" lon="4.73803">
        <ele>186</ele>
        <time>2017-05-24T08:35:34Z</time>
      </trkpt>
      <trkpt lat="45.94514" lon="4.73806">
        <ele>186</ele>
        <time>2017-05-24T08:35:35Z</time>
      </trkpt>
      <trkpt lat="45.94521" lon="4.73814">
        <ele>186</ele>
        <time>2017-05-24T08:35:37Z</time>
      </trkpt>
      <trkpt lat="45.94525" lon="4.73817">
        <ele>186</ele>
        <time>2017-05-24T08:35:38Z</time>
      </trkpt>
      <trkpt lat="45.94532" lon="4.73824">
        <ele>186</ele>
        <time>2017-05-24T08:35:40Z</time>
      </trkpt>
      <trkpt lat="45.94536" lon="4.73827">
        <ele>186</ele>
        <time>2017-05-24T08:35:41Z</time>
      </trkpt>
      <trkpt lat="45.94543" lon="4.73834">
        <ele>186</ele>
        <time>2017-05-24T08:35:43Z</time>
      </trkpt>
      <trkpt lat="45.94546" lon="4.73837">
        <ele>186</ele>
        <time>2017-05-24T08:35:44Z</time>
      </trkpt>
      <trkpt lat="45.94552" lon="4.73845">
        <ele>186</ele>
        <time>2017-05-24T08:35:46Z</time>
      </trkpt>
      <trkpt lat="45.94556" lon="4.73849">
        <ele>186</ele>
        <time>2017-05-24T08:35:47Z</time>
      </trkpt>
      <trkpt lat="45.94561" lon="4.73853">
        <ele>186</ele>
        <time>2017-05-24T08:35:48Z</time>
      </trkpt>
      <trkpt lat="45.94565" lon="4.73858">
        <ele>186</ele>
        <time>2017-05-24T08:35:49Z</time>
      </trkpt>
      <trkpt lat="45.94569" lon="4.73863">
        <ele>186</ele>
        <time>2017-05-24T08:35:50Z</time>
      </trkpt>
      <trkpt lat="45.94573" lon="4.73867">
        <ele>186</ele>
        <time>2017-05-24T08:35:51Z</time>
      </trkpt>
      <trkpt lat="45.9458" lon="4.73875">
        <ele>186</ele>
        <time>2017-05-24T08:35:53Z</time>
      </trkpt>
      <trkpt lat="45.94583" lon="4.73879">
        <ele>186</ele>
        <time>2017-05-24T08:35:54Z</time>
      </trkpt>
      <trkpt lat="45.94588" lon="4.73885">
        <ele>187</ele>
        <time>2017-05-24T08:35:56Z</time>
      </trkpt>
      <trkpt lat="45.94591" lon="4.73888">
        <ele>187</ele>
        <time>2017-05-24T08:35:57Z</time>
      </trkpt>
      <trkpt lat="45.94597" lon="4.73895">
        <ele>187</ele>
        <time>2017-05-24T08:35:59Z</time>
      </trkpt>
      <trkpt lat="45.946" lon="4.73898">
        <ele>187</ele>
        <time>2017-05-24T08:36:00Z</time>
      </trkpt>
      <trkpt lat="45.94606" lon="4.73906">
        <ele>187</ele>
        <time>2017-05-24T08:36:02Z</time>
      </trkpt>
      <trkpt lat="45.94609" lon="4.7391">
        <ele>187</ele>
        <time>2017-05-24T08:36:03Z</time>
      </trkpt>
      <trkpt lat="45.94615" lon="4.73918">
        <ele>187</ele>
        <time>2017-05-24T08:36:05Z</time>
      </trkpt>
      <trkpt lat="45.94618" lon="4.73922">
        <ele>187</ele>
        <time>2017-05-24T08:36:06Z</time>
      </trkpt>
      <trkpt lat="45.94624" lon="4.73929">
        <ele>187</ele>
        <time>2017-05-24T08:36:08Z</time>
      </trkpt>
      <trkpt lat="45.94626" lon="4.73933">
        <ele>187</ele>
        <time>2017-05-24T08:36:09Z</time>
      </trkpt>
      <trkpt lat="45.94633" lon="4.73941">
        <ele>187</ele>
        <time>2017-05-24T08:36:11Z</time>
      </trkpt>
      <trkpt lat="45.94636" lon="4.73944">
        <ele>187</ele>
        <time>2017-05-24T08:36:12Z</time>
      </trkpt>
      <trkpt lat="45.94642" lon="4.73952">
        <ele>187</ele>
        <time>2017-05-24T08:36:14Z</time>
      </trkpt>
      <trkpt lat="45.94645" lon="4.73956">
        <ele>187</ele>
        <time>2017-05-24T08:36:15Z</time>
      </trkpt>
      <trkpt lat="45.9465" lon="4.73964">
        <ele>187</ele>
        <time>2017-05-24T08:36:17Z</time>
      </trkpt>
      <trkpt lat="45.94653" lon="4.73967">
        <ele>187</ele>
        <time>2017-05-24T08:36:18Z</time>
      </trkpt>
      <trkpt lat="45.94658" lon="4.73974">
        <ele>187</ele>
        <time>2017-05-24T08:36:20Z</time>
      </trkpt>
      <trkpt lat="45.94662" lon="4.73978">
        <ele>187</ele>
        <time>2017-05-24T08:36:21Z</time>
      </trkpt>
      <trkpt lat="45.94668" lon="4.73985">
        <ele>187</ele>
        <time>2017-05-24T08:36:23Z</time>
      </trkpt>
      <trkpt lat="45.94671" lon="4.73989">
        <ele>187</ele>
        <time>2017-05-24T08:36:24Z</time>
      </trkpt>
      <trkpt lat="45.94677" lon="4.73997">
        <ele>187</ele>
        <time>2017-05-24T08:36:26Z</time>
      </trkpt>
      <trkpt lat="45.9468" lon="4.74002">
        <ele>187</ele>
        <time>2017-05-24T08:36:27Z</time>
      </trkpt>
      <trkpt lat="45.94687" lon="4.7401">
        <ele>187</ele>
        <time>2017-05-24T08:36:29Z</time>
      </trkpt>
      <trkpt lat="45.9469" lon="4.74015">
        <ele>187</ele>
        <time>2017-05-24T08:36:30Z</time>
      </trkpt>
      <trkpt lat="45.94697" lon="4.74023">
        <ele>187</ele>
        <time>2017-05-24T08:36:32Z</time>
      </trkpt>
      <trkpt lat="45.947" lon="4.74026">
        <ele>187</ele>
        <time>2017-05-24T08:36:33Z</time>
      </trkpt>
      <trkpt lat="45.94705" lon="4.74034">
        <ele>187</ele>
        <time>2017-05-24T08:36:35Z</time>
      </trkpt>
      <trkpt lat="45.94708" lon="4.74038">
        <ele>187</ele>
        <time>2017-05-24T08:36:36Z</time>
      </trkpt>
      <trkpt lat="45.94715" lon="4.74047">
        <ele>187</ele>
        <time>2017-05-24T08:36:38Z</time>
      </trkpt>
      <trkpt lat="45.94718" lon="4.74051">
        <ele>187</ele>
        <time>2017-05-24T08:36:39Z</time>
      </trkpt>
      <trkpt lat="45.94724" lon="4.7406">
        <ele>188</ele>
        <time>2017-05-24T08:36:41Z</time>
      </trkpt>
      <trkpt lat="45.94727" lon="4.74064">
        <ele>188</ele>
        <time>2017-05-24T08:36:42Z</time>
      </trkpt>
      <trkpt lat="45.94733" lon="4.74072">
        <ele>188</ele>
        <time>2017-05-24T08:36:44Z</time>
      </trkpt>
      <trkpt lat="45.94736" lon="4.74076">
        <ele>188</ele>
        <time>2017-05-24T08:36:45Z</time>
      </trkpt>
      <trkpt lat="45.94741" lon="4.74084">
        <ele>188</ele>
        <time>2017-05-24T08:36:47Z</time>
      </trkpt>
      <trkpt lat="45.94744" lon="4.74087">
        <ele>188</ele>
        <time>2017-05-24T08:36:48Z</time>
      </trkpt>
      <trkpt lat="45.9475" lon="4.74094">
        <ele>188</ele>
        <time>2017-05-24T08:36:50Z</time>
      </trkpt>
      <trkpt lat="45.94753" lon="4.74099">
        <ele>189</ele>
        <time>2017-05-24T08:36:51Z</time>
      </trkpt>
      <trkpt lat="45.94757" lon="4.74104">
        <ele>189</ele>
        <time>2017-05-24T08:36:52Z</time>
      </trkpt>
      <trkpt lat="45.9476" lon="4.74109">
        <ele>189</ele>
        <time>2017-05-24T08:36:53Z</time>
      </trkpt>
      <trkpt lat="45.94764" lon="4.74114">
        <ele>189</ele>
        <time>2017-05-24T08:36:54Z</time>
      </trkpt>
      <trkpt lat="45.94768" lon="4.74119">
        <ele>189</ele>
        <time>2017-05-24T08:36:55Z</time>
      </trkpt>
      <trkpt lat="45.94772" lon="4.74125">
        <ele>189</ele>
        <time>2017-05-24T08:36:56Z</time>
      </trkpt>
      <trkpt lat="45.94776" lon="4.7413">
        <ele>189</ele>
        <time>2017-05-24T08:36:57Z</time>
      </trkpt>
      <trkpt lat="45.9478" lon="4.74135">
        <ele>189</ele>
        <time>2017-05-24T08:36:58Z</time>
      </trkpt>
      <trkpt lat="45.94783" lon="4.74141">
        <ele>189</ele>
        <time>2017-05-24T08:36:59Z</time>
      </trkpt>
      <trkpt lat="45.94787" lon="4.74146">
        <ele>189</ele>
        <time>2017-05-24T08:37:00Z</time>
      </trkpt>
      <trkpt lat="45.9479" lon="4.74152">
        <ele>189</ele>
        <time>2017-05-24T08:37:01Z</time>
      </trkpt>
      <trkpt lat="45.94794" lon="4.74157">
        <ele>189</ele>
        <time>2017-05-24T08:37:02Z</time>
      </trkpt>
      <trkpt lat="45.94797" lon="4.74163">
        <ele>189</ele>
        <time>2017-05-24T08:37:03Z</time>
      </trkpt>
      <trkpt lat="45.948" lon="4.74168">
        <ele>189</ele>
        <time>2017-05-24T08:37:04Z</time>
      </trkpt>
      <trkpt lat="45.94803" lon="4.74173">
        <ele>189</ele>
        <time>2017-05-24T08:37:05Z</time>
      </trkpt>
      <trkpt lat="45.94806" lon="4.74179">
        <ele>189</ele>
        <time>2017-05-24T08:37:06Z</time>
      </trkpt>
      <trkpt lat="45.94809" lon="4.74184">
        <ele>189</ele>
        <time>2017-05-24T08:37:07Z</time>
      </trkpt>
      <trkpt lat="45.94811" lon="4.7419">
        <ele>189</ele>
        <time>2017-05-24T08:37:08Z</time>
      </trkpt>
      <trkpt lat="45.94814" lon="4.74195">
        <ele>189</ele>
        <time>2017-05-24T08:37:09Z</time>
      </trkpt>
      <trkpt lat="45.94817" lon="4.742">
        <ele>189</ele>
        <time>2017-05-24T08:37:10Z</time>
      </trkpt>
      <trkpt lat="45.9482" lon="4.74205">
        <ele>188</ele>
        <time>2017-05-24T08:37:11Z</time>
      </trkpt>
      <trkpt lat="45.94823" lon="4.74211">
        <ele>188</ele>
        <time>2017-05-24T08:37:12Z</time>
      </trkpt>
      <trkpt lat="45.94826" lon="4.74216">
        <ele>188</ele>
        <time>2017-05-24T08:37:13Z</time>
      </trkpt>
      <trkpt lat="45.94828" lon="4.74223">
        <ele>188</ele>
        <time>2017-05-24T08:37:14Z</time>
      </trkpt>
      <trkpt lat="45.9483" lon="4.74228">
        <ele>188</ele>
        <time>2017-05-24T08:37:15Z</time>
      </trkpt>
      <trkpt lat="45.94833" lon="4.74234">
        <ele>189</ele>
        <time>2017-05-24T08:37:16Z</time>
      </trkpt>
      <trkpt lat="45.94836" lon="4.74239">
        <ele>189</ele>
        <time>2017-05-24T08:37:17Z</time>
      </trkpt>
      <trkpt lat="45.94838" lon="4.74244">
        <ele>189</ele>
        <time>2017-05-24T08:37:18Z</time>
      </trkpt>
      <trkpt lat="45.94842" lon="4.74249">
        <ele>189</ele>
        <time>2017-05-24T08:37:19Z</time>
      </trkpt>
      <trkpt lat="45.94845" lon="4.74255">
        <ele>190</ele>
        <time>2017-05-24T08:37:20Z</time>
      </trkpt>
      <trkpt lat="45.94848" lon="4.7426">
        <ele>190</ele>
        <time>2017-05-24T08:37:21Z</time>
      </trkpt>
      <trkpt lat="45.94851" lon="4.74265">
        <ele>190</ele>
        <time>2017-05-24T08:37:22Z</time>
      </trkpt>
      <trkpt lat="45.94854" lon="4.7427">
        <ele>190</ele>
        <time>2017-05-24T08:37:23Z</time>
      </trkpt>
      <trkpt lat="45.94857" lon="4.74275">
        <ele>190</ele>
        <time>2017-05-24T08:37:24Z</time>
      </trkpt>
      <trkpt lat="45.9486" lon="4.74281">
        <ele>190</ele>
        <time>2017-05-24T08:37:25Z</time>
      </trkpt>
      <trkpt lat="45.94865" lon="4.74291">
        <ele>191</ele>
        <time>2017-05-24T08:37:27Z</time>
      </trkpt>
      <trkpt lat="45.94867" lon="4.74297">
        <ele>191</ele>
        <time>2017-05-24T08:37:28Z</time>
      </trkpt>
      <trkpt lat="45.9487" lon="4.74302">
        <ele>191</ele>
        <time>2017-05-24T08:37:29Z</time>
      </trkpt>
      <trkpt lat="45.94873" lon="4.74308">
        <ele>191</ele>
        <time>2017-05-24T08:37:30Z</time>
      </trkpt>
      <trkpt lat="45.94876" lon="4.74315">
        <ele>191</ele>
        <time>2017-05-24T08:37:31Z</time>
      </trkpt>
      <trkpt lat="45.9488" lon="4.74321">
        <ele>191</ele>
        <time>2017-05-24T08:37:32Z</time>
      </trkpt>
      <trkpt lat="45.94883" lon="4.74328">
        <ele>191</ele>
        <time>2017-05-24T08:37:33Z</time>
      </trkpt>
      <trkpt lat="45.94887" lon="4.74336">
        <ele>191</ele>
        <time>2017-05-24T08:37:34Z</time>
      </trkpt>
      <trkpt lat="45.94891" lon="4.74343">
        <ele>191</ele>
        <time>2017-05-24T08:37:35Z</time>
      </trkpt>
      <trkpt lat="45.94895" lon="4.74351">
        <ele>191</ele>
        <time>2017-05-24T08:37:36Z</time>
      </trkpt>
      <trkpt lat="45.94899" lon="4.74358">
        <ele>191</ele>
        <time>2017-05-24T08:37:37Z</time>
      </trkpt>
      <trkpt lat="45.94903" lon="4.74365">
        <ele>191</ele>
        <time>2017-05-24T08:37:38Z</time>
      </trkpt>
      <trkpt lat="45.94908" lon="4.74372">
        <ele>191</ele>
        <time>2017-05-24T08:37:39Z</time>
      </trkpt>
      <trkpt lat="45.94911" lon="4.74379">
        <ele>191</ele>
        <time>2017-05-24T08:37:40Z</time>
      </trkpt>
      <trkpt lat="45.94914" lon="4.74386">
        <ele>191</ele>
        <time>2017-05-24T08:37:41Z</time>
      </trkpt>
      <trkpt lat="45.94917" lon="4.74392">
        <ele>192</ele>
        <time>2017-05-24T08:37:42Z</time>
      </trkpt>
      <trkpt lat="45.9492" lon="4.74398">
        <ele>192</ele>
        <time>2017-05-24T08:37:43Z</time>
      </trkpt>
      <trkpt lat="45.94924" lon="4.74404">
        <ele>192</ele>
        <time>2017-05-24T08:37:44Z</time>
      </trkpt>
      <trkpt lat="45.94927" lon="4.74409">
        <ele>192</ele>
        <time>2017-05-24T08:37:45Z</time>
      </trkpt>
      <trkpt lat="45.94931" lon="4.74416">
        <ele>192</ele>
        <time>2017-05-24T08:37:46Z</time>
      </trkpt>
      <trkpt lat="45.94934" lon="4.74422">
        <ele>192</ele>
        <time>2017-05-24T08:37:47Z</time>
      </trkpt>
      <trkpt lat="45.94937" lon="4.74428">
        <ele>192</ele>
        <time>2017-05-24T08:37:48Z</time>
      </trkpt>
      <trkpt lat="45.94939" lon="4.74433">
        <ele>192</ele>
        <time>2017-05-24T08:37:49Z</time>
      </trkpt>
      <trkpt lat="45.94942" lon="4.74439">
        <ele>192</ele>
        <time>2017-05-24T08:37:50Z</time>
      </trkpt>
      <trkpt lat="45.94946" lon="4.74449">
        <ele>192</ele>
        <time>2017-05-24T08:37:52Z</time>
      </trkpt>
      <trkpt lat="45.94949" lon="4.74454">
        <ele>192</ele>
        <time>2017-05-24T08:37:53Z</time>
      </trkpt>
      <trkpt lat="45.94951" lon="4.74459">
        <ele>193</ele>
        <time>2017-05-24T08:37:54Z</time>
      </trkpt>
      <trkpt lat="45.94954" lon="4.74464">
        <ele>193</ele>
        <time>2017-05-24T08:37:55Z</time>
      </trkpt>
      <trkpt lat="45.94957" lon="4.7447">
        <ele>193</ele>
        <time>2017-05-24T08:37:56Z</time>
      </trkpt>
      <trkpt lat="45.94961" lon="4.74475">
        <ele>193</ele>
        <time>2017-05-24T08:37:57Z</time>
      </trkpt>
      <trkpt lat="45.94965" lon="4.74482">
        <ele>193</ele>
        <time>2017-05-24T08:37:58Z</time>
      </trkpt>
      <trkpt lat="45.94969" lon="4.74489">
        <ele>193</ele>
        <time>2017-05-24T08:37:59Z</time>
      </trkpt>
      <trkpt lat="45.94972" lon="4.74496">
        <ele>193</ele>
        <time>2017-05-24T08:38:00Z</time>
      </trkpt>
      <trkpt lat="45.94976" lon="4.74503">
        <ele>193</ele>
        <time>2017-05-24T08:38:01Z</time>
      </trkpt>
      <trkpt lat="45.9498" lon="4.74511">
        <ele>193</ele>
        <time>2017-05-24T08:38:02Z</time>
      </trkpt>
      <trkpt lat="45.94984" lon="4.74517">
        <ele>193</ele>
        <time>2017-05-24T08:38:03Z</time>
      </trkpt>
      <trkpt lat="45.94988" lon="4.74523">
        <ele>193</ele>
        <time>2017-05-24T08:38:04Z</time>
      </trkpt>
      <trkpt lat="45.9499" lon="4.7453">
        <ele>193</ele>
        <time>2017-05-24T08:38:05Z</time>
      </trkpt>
      <trkpt lat="45.94993" lon="4.74536">
        <ele>193</ele>
        <time>2017-05-24T08:38:06Z</time>
      </trkpt>
      <trkpt lat="45.94996" lon="4.74541">
        <ele>193</ele>
        <time>2017-05-24T08:38:07Z</time>
      </trkpt>
      <trkpt lat="45.94999" lon="4.74547">
        <ele>193</ele>
        <time>2017-05-24T08:38:08Z</time>
      </trkpt>
      <trkpt lat="45.95001" lon="4.74552">
        <ele>194</ele>
        <time>2017-05-24T08:38:09Z</time>
      </trkpt>
      <trkpt lat="45.95004" lon="4.74558">
        <ele>194</ele>
        <time>2017-05-24T08:38:10Z</time>
      </trkpt>
      <trkpt lat="45.95007" lon="4.74563">
        <ele>194</ele>
        <time>2017-05-24T08:38:11Z</time>
      </trkpt>
      <trkpt lat="45.9501" lon="4.74569">
        <ele>194</ele>
        <time>2017-05-24T08:38:12Z</time>
      </trkpt>
      <trkpt lat="45.95013" lon="4.74575">
        <ele>194</ele>
        <time>2017-05-24T08:38:13Z</time>
      </trkpt>
      <trkpt lat="45.95016" lon="4.7458">
        <ele>194</ele>
        <time>2017-05-24T08:38:14Z</time>
      </trkpt>
      <trkpt lat="45.9502" lon="4.74586">
        <ele>194</ele>
        <time>2017-05-24T08:38:15Z</time>
      </trkpt>
      <trkpt lat="45.95024" lon="4.74593">
        <ele>194</ele>
        <time>2017-05-24T08:38:16Z</time>
      </trkpt>
      <trkpt lat="45.95026" lon="4.74601">
        <ele>194</ele>
        <time>2017-05-24T08:38:17Z</time>
      </trkpt>
      <trkpt lat="45.95029" lon="4.74608">
        <ele>194</ele>
        <time>2017-05-24T08:38:18Z</time>
      </trkpt>
      <trkpt lat="45.95034" lon="4.74615">
        <ele>194</ele>
        <time>2017-05-24T08:38:19Z</time>
      </trkpt>
      <trkpt lat="45.95038" lon="4.74623">
        <ele>194</ele>
        <time>2017-05-24T08:38:20Z</time>
      </trkpt>
      <trkpt lat="45.95042" lon="4.7463">
        <ele>194</ele>
        <time>2017-05-24T08:38:21Z</time>
      </trkpt>
      <trkpt lat="45.95045" lon="4.74637">
        <ele>194</ele>
        <time>2017-05-24T08:38:22Z</time>
      </trkpt>
      <trkpt lat="45.95049" lon="4.74643">
        <ele>194</ele>
        <time>2017-05-24T08:38:23Z</time>
      </trkpt>
      <trkpt lat="45.95052" lon="4.74649">
        <ele>194</ele>
        <time>2017-05-24T08:38:24Z</time>
      </trkpt>
      <trkpt lat="45.95055" lon="4.74655">
        <ele>194</ele>
        <time>2017-05-24T08:38:25Z</time>
      </trkpt>
      <trkpt lat="45.95058" lon="4.74661">
        <ele>194</ele>
        <time>2017-05-24T08:38:26Z</time>
      </trkpt>
      <trkpt lat="45.95061" lon="4.74666">
        <ele>194</ele>
        <time>2017-05-24T08:38:27Z</time>
      </trkpt>
      <trkpt lat="45.95063" lon="4.74672">
        <ele>194</ele>
        <time>2017-05-24T08:38:28Z</time>
      </trkpt>
      <trkpt lat="45.95066" lon="4.74677">
        <ele>194</ele>
        <time>2017-05-24T08:38:29Z</time>
      </trkpt>
      <trkpt lat="45.95069" lon="4.74683">
        <ele>194</ele>
        <time>2017-05-24T08:38:30Z</time>
      </trkpt>
      <trkpt lat="45.95072" lon="4.74689">
        <ele>194</ele>
        <time>2017-05-24T08:38:31Z</time>
      </trkpt>
      <trkpt lat="45.95075" lon="4.74694">
        <ele>194</ele>
        <time>2017-05-24T08:38:32Z</time>
      </trkpt>
      <trkpt lat="45.95078" lon="4.74699">
        <ele>194</ele>
        <time>2017-05-24T08:38:33Z</time>
      </trkpt>
      <trkpt lat="45.95081" lon="4.74705">
        <ele>194</ele>
        <time>2017-05-24T08:38:34Z</time>
      </trkpt>
      <trkpt lat="45.95084" lon="4.74711">
        <ele>194</ele>
        <time>2017-05-24T08:38:35Z</time>
      </trkpt>
      <trkpt lat="45.95087" lon="4.74717">
        <ele>194</ele>
        <time>2017-05-24T08:38:36Z</time>
      </trkpt>
      <trkpt lat="45.95091" lon="4.74723">
        <ele>194</ele>
        <time>2017-05-24T08:38:37Z</time>
      </trkpt>
      <trkpt lat="45.95094" lon="4.74728">
        <ele>194</ele>
        <time>2017-05-24T08:38:38Z</time>
      </trkpt>
      <trkpt lat="45.95096" lon="4.74733">
        <ele>194</ele>
        <time>2017-05-24T08:38:39Z</time>
      </trkpt>
      <trkpt lat="45.95102" lon="4.74742">
        <ele>194</ele>
        <time>2017-05-24T08:38:41Z</time>
      </trkpt>
      <trkpt lat="45.95106" lon="4.74748">
        <ele>194</ele>
        <time>2017-05-24T08:38:42Z</time>
      </trkpt>
      <trkpt lat="45.95109" lon="4.74753">
        <ele>194</ele>
        <time>2017-05-24T08:38:43Z</time>
      </trkpt>
      <trkpt lat="45.95113" lon="4.74759">
        <ele>194</ele>
        <time>2017-05-24T08:38:44Z</time>
      </trkpt>
      <trkpt lat="45.95117" lon="4.74765">
        <ele>194</ele>
        <time>2017-05-24T08:38:45Z</time>
      </trkpt>
      <trkpt lat="45.95121" lon="4.74771">
        <ele>194</ele>
        <time>2017-05-24T08:38:46Z</time>
      </trkpt>
      <trkpt lat="45.95125" lon="4.74778">
        <ele>194</ele>
        <time>2017-05-24T08:38:47Z</time>
      </trkpt>
      <trkpt lat="45.9513" lon="4.74785">
        <ele>194</ele>
        <time>2017-05-24T08:38:48Z</time>
      </trkpt>
      <trkpt lat="45.95135" lon="4.74791">
        <ele>194</ele>
        <time>2017-05-24T08:38:49Z</time>
      </trkpt>
      <trkpt lat="45.95139" lon="4.74798">
        <ele>194</ele>
        <time>2017-05-24T08:38:50Z</time>
      </trkpt>
      <trkpt lat="45.95143" lon="4.74805">
        <ele>194</ele>
        <time>2017-05-24T08:38:51Z</time>
      </trkpt>
      <trkpt lat="45.95147" lon="4.74811">
        <ele>194</ele>
        <time>2017-05-24T08:38:52Z</time>
      </trkpt>
      <trkpt lat="45.95151" lon="4.74818">
        <ele>194</ele>
        <time>2017-05-24T08:38:53Z</time>
      </trkpt>
      <trkpt lat="45.95155" lon="4.74824">
        <ele>194</ele>
        <time>2017-05-24T08:38:54Z</time>
      </trkpt>
      <trkpt lat="45.95159" lon="4.74829">
        <ele>194</ele>
        <time>2017-05-24T08:38:55Z</time>
      </trkpt>
      <trkpt lat="45.95163" lon="4.74835">
        <ele>194</ele>
        <time>2017-05-24T08:38:56Z</time>
      </trkpt>
      <trkpt lat="45.95167" lon="4.7484">
        <ele>194</ele>
        <time>2017-05-24T08:38:57Z</time>
      </trkpt>
      <trkpt lat="45.95171" lon="4.74846">
        <ele>194</ele>
        <time>2017-05-24T08:38:58Z</time>
      </trkpt>
      <trkpt lat="45.95174" lon="4.74851">
        <ele>194</ele>
        <time>2017-05-24T08:38:59Z</time>
      </trkpt>
      <trkpt lat="45.95177" lon="4.74857">
        <ele>194</ele>
        <time>2017-05-24T08:39:00Z</time>
      </trkpt>
      <trkpt lat="45.95181" lon="4.74862">
        <ele>194</ele>
        <time>2017-05-24T08:39:01Z</time>
      </trkpt>
      <trkpt lat="45.95184" lon="4.74867">
        <ele>194</ele>
        <time>2017-05-24T08:39:02Z</time>
      </trkpt>
      <trkpt lat="45.95187" lon="4.74872">
        <ele>194</ele>
        <time>2017-05-24T08:39:03Z</time>
      </trkpt>
      <trkpt lat="45.9519" lon="4.74877">
        <ele>194</ele>
        <time>2017-05-24T08:39:04Z</time>
      </trkpt>
      <trkpt lat="45.95194" lon="4.74882">
        <ele>194</ele>
        <time>2017-05-24T08:39:05Z</time>
      </trkpt>
      <trkpt lat="45.95197" lon="4.74888">
        <ele>194</ele>
        <time>2017-05-24T08:39:06Z</time>
      </trkpt>
      <trkpt lat="45.952" lon="4.74893">
        <ele>194</ele>
        <time>2017-05-24T08:39:07Z</time>
      </trkpt>
      <trkpt lat="45.95204" lon="4.74899">
        <ele>194</ele>
        <time>2017-05-24T08:39:08Z</time>
      </trkpt>
      <trkpt lat="45.95207" lon="4.74904">
        <ele>194</ele>
        <time>2017-05-24T08:39:09Z</time>
      </trkpt>
      <trkpt lat="45.9521" lon="4.74909">
        <ele>193</ele>
        <time>2017-05-24T08:39:10Z</time>
      </trkpt>
      <trkpt lat="45.95213" lon="4.74914">
        <ele>193</ele>
        <time>2017-05-24T08:39:11Z</time>
      </trkpt>
      <trkpt lat="45.95216" lon="4.74919">
        <ele>192</ele>
        <time>2017-05-24T08:39:12Z</time>
      </trkpt>
      <trkpt lat="45.95219" lon="4.74924">
        <ele>192</ele>
        <time>2017-05-24T08:39:13Z</time>
      </trkpt>
      <trkpt lat="45.95223" lon="4.7493">
        <ele>192</ele>
        <time>2017-05-24T08:39:14Z</time>
      </trkpt>
      <trkpt lat="45.95226" lon="4.74936">
        <ele>192</ele>
        <time>2017-05-24T08:39:15Z</time>
      </trkpt>
      <trkpt lat="45.9523" lon="4.74942">
        <ele>192</ele>
        <time>2017-05-24T08:39:16Z</time>
      </trkpt>
      <trkpt lat="45.95234" lon="4.74949">
        <ele>192</ele>
        <time>2017-05-24T08:39:17Z</time>
      </trkpt>
      <trkpt lat="45.95239" lon="4.74956">
        <ele>192</ele>
        <time>2017-05-24T08:39:18Z</time>
      </trkpt>
      <trkpt lat="45.95244" lon="4.74964">
        <ele>191</ele>
        <time>2017-05-24T08:39:19Z</time>
      </trkpt>
      <trkpt lat="45.95248" lon="4.74971">
        <ele>191</ele>
        <time>2017-05-24T08:39:20Z</time>
      </trkpt>
      <trkpt lat="45.95253" lon="4.74979">
        <ele>192</ele>
        <time>2017-05-24T08:39:21Z</time>
      </trkpt>
      <trkpt lat="45.95258" lon="4.74986">
        <ele>192</ele>
        <time>2017-05-24T08:39:22Z</time>
      </trkpt>
      <trkpt lat="45.95263" lon="4.74992">
        <ele>192</ele>
        <time>2017-05-24T08:39:23Z</time>
      </trkpt>
      <trkpt lat="45.95267" lon="4.74999">
        <ele>192</ele>
        <time>2017-05-24T08:39:24Z</time>
      </trkpt>
      <trkpt lat="45.95272" lon="4.75006">
        <ele>191</ele>
        <time>2017-05-24T08:39:25Z</time>
      </trkpt>
      <trkpt lat="45.95276" lon="4.75012">
        <ele>191</ele>
        <time>2017-05-24T08:39:26Z</time>
      </trkpt>
      <trkpt lat="45.9528" lon="4.75019">
        <ele>191</ele>
        <time>2017-05-24T08:39:27Z</time>
      </trkpt>
      <trkpt lat="45.95284" lon="4.75025">
        <ele>191</ele>
        <time>2017-05-24T08:39:28Z</time>
      </trkpt>
      <trkpt lat="45.95288" lon="4.75032">
        <ele>191</ele>
        <time>2017-05-24T08:39:29Z</time>
      </trkpt>
      <trkpt lat="45.95292" lon="4.75038">
        <ele>191</ele>
        <time>2017-05-24T08:39:30Z</time>
      </trkpt>
      <trkpt lat="45.95296" lon="4.75044">
        <ele>191</ele>
        <time>2017-05-24T08:39:31Z</time>
      </trkpt>
      <trkpt lat="45.953" lon="4.7505">
        <ele>191</ele>
        <time>2017-05-24T08:39:32Z</time>
      </trkpt>
      <trkpt lat="45.95304" lon="4.75056">
        <ele>191</ele>
        <time>2017-05-24T08:39:33Z</time>
      </trkpt>
      <trkpt lat="45.95308" lon="4.75062">
        <ele>192</ele>
        <time>2017-05-24T08:39:34Z</time>
      </trkpt>
      <trkpt lat="45.95312" lon="4.75069">
        <ele>192</ele>
        <time>2017-05-24T08:39:35Z</time>
      </trkpt>
      <trkpt lat="45.95316" lon="4.75075">
        <ele>192</ele>
        <time>2017-05-24T08:39:36Z</time>
      </trkpt>
      <trkpt lat="45.9532" lon="4.75081">
        <ele>192</ele>
        <time>2017-05-24T08:39:37Z</time>
      </trkpt>
      <trkpt lat="45.95324" lon="4.75087">
        <ele>191</ele>
        <time>2017-05-24T08:39:38Z</time>
      </trkpt>
      <trkpt lat="45.95327" lon="4.75093">
        <ele>191</ele>
        <time>2017-05-24T08:39:39Z</time>
      </trkpt>
      <trkpt lat="45.95331" lon="4.75099">
        <ele>191</ele>
        <time>2017-05-24T08:39:40Z</time>
      </trkpt>
      <trkpt lat="45.95335" lon="4.75104">
        <ele>192</ele>
        <time>2017-05-24T08:39:41Z</time>
      </trkpt>
      <trkpt lat="45.95339" lon="4.7511">
        <ele>192</ele>
        <time>2017-05-24T08:39:42Z</time>
      </trkpt>
      <trkpt lat="45.95342" lon="4.75116">
        <ele>192</ele>
        <time>2017-05-24T08:39:43Z</time>
      </trkpt>
      <trkpt lat="45.95346" lon="4.75121">
        <ele>191</ele>
        <time>2017-05-24T08:39:44Z</time>
      </trkpt>
      <trkpt lat="45.9535" lon="4.75127">
        <ele>191</ele>
        <time>2017-05-24T08:39:45Z</time>
      </trkpt>
      <trkpt lat="45.95353" lon="4.75132">
        <ele>191</ele>
        <time>2017-05-24T08:39:46Z</time>
      </trkpt>
      <trkpt lat="45.95356" lon="4.75138">
        <ele>191</ele>
        <time>2017-05-24T08:39:47Z</time>
      </trkpt>
      <trkpt lat="45.9536" lon="4.75144">
        <ele>191</ele>
        <time>2017-05-24T08:39:48Z</time>
      </trkpt>
      <trkpt lat="45.95364" lon="4.75151">
        <ele>191</ele>
        <time>2017-05-24T08:39:49Z</time>
      </trkpt>
      <trkpt lat="45.95367" lon="4.75157">
        <ele>191</ele>
        <time>2017-05-24T08:39:50Z</time>
      </trkpt>
      <trkpt lat="45.95371" lon="4.75164">
        <ele>191</ele>
        <time>2017-05-24T08:39:51Z</time>
      </trkpt>
      <trkpt lat="45.95375" lon="4.7517">
        <ele>189</ele>
        <time>2017-05-24T08:39:52Z</time>
      </trkpt>
      <trkpt lat="45.95379" lon="4.75177">
        <ele>189</ele>
        <time>2017-05-24T08:39:53Z</time>
      </trkpt>
      <trkpt lat="45.95384" lon="4.75184">
        <ele>189</ele>
        <time>2017-05-24T08:39:54Z</time>
      </trkpt>
      <trkpt lat="45.95387" lon="4.7519">
        <ele>189</ele>
        <time>2017-05-24T08:39:55Z</time>
      </trkpt>
      <trkpt lat="45.95391" lon="4.75197">
        <ele>189</ele>
        <time>2017-05-24T08:39:56Z</time>
      </trkpt>
      <trkpt lat="45.95395" lon="4.75204">
        <ele>189</ele>
        <time>2017-05-24T08:39:57Z</time>
      </trkpt>
      <trkpt lat="45.95398" lon="4.75211">
        <ele>188</ele>
        <time>2017-05-24T08:39:58Z</time>
      </trkpt>
      <trkpt lat="45.95402" lon="4.75218">
        <ele>188</ele>
        <time>2017-05-24T08:39:59Z</time>
      </trkpt>
      <trkpt lat="45.95406" lon="4.75224">
        <ele>188</ele>
        <time>2017-05-24T08:40:00Z</time>
      </trkpt>
      <trkpt lat="45.9541" lon="4.75231">
        <ele>189</ele>
        <time>2017-05-24T08:40:01Z</time>
      </trkpt>
      <trkpt lat="45.95414" lon="4.75237">
        <ele>189</ele>
        <time>2017-05-24T08:40:02Z</time>
      </trkpt>
      <trkpt lat="45.95417" lon="4.75244">
        <ele>190</ele>
        <time>2017-05-24T08:40:03Z</time>
      </trkpt>
      <trkpt lat="45.95421" lon="4.75251">
        <ele>189</ele>
        <time>2017-05-24T08:40:04Z</time>
      </trkpt>
      <trkpt lat="45.95424" lon="4.75257">
        <ele>189</ele>
        <time>2017-05-24T08:40:05Z</time>
      </trkpt>
      <trkpt lat="45.95427" lon="4.75263">
        <ele>189</ele>
        <time>2017-05-24T08:40:06Z</time>
      </trkpt>
      <trkpt lat="45.95431" lon="4.7527">
        <ele>189</ele>
        <time>2017-05-24T08:40:07Z</time>
      </trkpt>
      <trkpt lat="45.95434" lon="4.75277">
        <ele>188</ele>
        <time>2017-05-24T08:40:08Z</time>
      </trkpt>
      <trkpt lat="45.95438" lon="4.75283">
        <ele>188</ele>
        <time>2017-05-24T08:40:09Z</time>
      </trkpt>
      <trkpt lat="45.95441" lon="4.7529">
        <ele>188</ele>
        <time>2017-05-24T08:40:10Z</time>
      </trkpt>
      <trkpt lat="45.95445" lon="4.75297">
        <ele>188</ele>
        <time>2017-05-24T08:40:11Z</time>
      </trkpt>
      <trkpt lat="45.95448" lon="4.75304">
        <ele>188</ele>
        <time>2017-05-24T08:40:12Z</time>
      </trkpt>
      <trkpt lat="45.95452" lon="4.7531">
        <ele>188</ele>
        <time>2017-05-24T08:40:13Z</time>
      </trkpt>
      <trkpt lat="45.95456" lon="4.75317">
        <ele>188</ele>
        <time>2017-05-24T08:40:14Z</time>
      </trkpt>
      <trkpt lat="45.9546" lon="4.75324">
        <ele>188</ele>
        <time>2017-05-24T08:40:15Z</time>
      </trkpt>
      <trkpt lat="45.95464" lon="4.7533">
        <ele>188</ele>
        <time>2017-05-24T08:40:16Z</time>
      </trkpt>
      <trkpt lat="45.95468" lon="4.75337">
        <ele>186</ele>
        <time>2017-05-24T08:40:17Z</time>
      </trkpt>
      <trkpt lat="45.95472" lon="4.75344">
        <ele>186</ele>
        <time>2017-05-24T08:40:18Z</time>
      </trkpt>
      <trkpt lat="45.95476" lon="4.75351">
        <ele>186</ele>
        <time>2017-05-24T08:40:19Z</time>
      </trkpt>
      <trkpt lat="45.95479" lon="4.75358">
        <ele>186</ele>
        <time>2017-05-24T08:40:20Z</time>
      </trkpt>
      <trkpt lat="45.95483" lon="4.75366">
        <ele>185</ele>
        <time>2017-05-24T08:40:21Z</time>
      </trkpt>
      <trkpt lat="45.95486" lon="4.75374">
        <ele>185</ele>
        <time>2017-05-24T08:40:22Z</time>
      </trkpt>
      <trkpt lat="45.9549" lon="4.75382">
        <ele>185</ele>
        <time>2017-05-24T08:40:23Z</time>
      </trkpt>
      <trkpt lat="45.95493" lon="4.75389">
        <ele>185</ele>
        <time>2017-05-24T08:40:24Z</time>
      </trkpt>
      <trkpt lat="45.95496" lon="4.75397">
        <ele>185</ele>
        <time>2017-05-24T08:40:25Z</time>
      </trkpt>
      <trkpt lat="45.95499" lon="4.75405">
        <ele>185</ele>
        <time>2017-05-24T08:40:26Z</time>
      </trkpt>
      <trkpt lat="45.95501" lon="4.75412">
        <ele>186</ele>
        <time>2017-05-24T08:40:27Z</time>
      </trkpt>
      <trkpt lat="45.95503" lon="4.7542">
        <ele>185</ele>
        <time>2017-05-24T08:40:28Z</time>
      </trkpt>
      <trkpt lat="45.95505" lon="4.75428">
        <ele>186</ele>
        <time>2017-05-24T08:40:29Z</time>
      </trkpt>
      <trkpt lat="45.95506" lon="4.75435">
        <ele>186</ele>
        <time>2017-05-24T08:40:30Z</time>
      </trkpt>
      <trkpt lat="45.95508" lon="4.75446">
        <ele>186</ele>
        <time>2017-05-24T08:40:32Z</time>
      </trkpt>
      <trkpt lat="45.95508" lon="4.7545">
        <ele>187</ele>
        <time>2017-05-24T08:40:33Z</time>
      </trkpt>
      <trkpt lat="45.95508" lon="4.75455">
        <ele>187</ele>
        <time>2017-05-24T08:40:42Z</time>
      </trkpt>
      <trkpt lat="45.95508" lon="4.75457">
        <ele>186</ele>
        <time>2017-05-24T08:40:43Z</time>
      </trkpt>
      <trkpt lat="45.95508" lon="4.75459">
        <ele>186</ele>
        <time>2017-05-24T08:40:44Z</time>
      </trkpt>
      <trkpt lat="45.95507" lon="4.75462">
        <ele>186</ele>
        <time>2017-05-24T08:40:45Z</time>
      </trkpt>
      <trkpt lat="45.95505" lon="4.75471">
        <ele>186</ele>
        <time>2017-05-24T08:40:47Z</time>
      </trkpt>
      <trkpt lat="45.95505" lon="4.75476">
        <ele>186</ele>
        <time>2017-05-24T08:40:48Z</time>
      </trkpt>
      <trkpt lat="45.95509" lon="4.75487">
        <ele>186</ele>
        <time>2017-05-24T08:40:50Z</time>
      </trkpt>
      <trkpt lat="45.95511" lon="4.75492">
        <ele>185</ele>
        <time>2017-05-24T08:40:51Z</time>
      </trkpt>
      <trkpt lat="45.95518" lon="4.75499">
        <ele>186</ele>
        <time>2017-05-24T08:40:53Z</time>
      </trkpt>
      <trkpt lat="45.95523" lon="4.75502">
        <ele>185</ele>
        <time>2017-05-24T08:40:54Z</time>
      </trkpt>
      <trkpt lat="45.95528" lon="4.75505">
        <ele>185</ele>
        <time>2017-05-24T08:40:55Z</time>
      </trkpt>
      <trkpt lat="45.95532" lon="4.75508">
        <ele>185</ele>
        <time>2017-05-24T08:40:56Z</time>
      </trkpt>
      <trkpt lat="45.95537" lon="4.75513">
        <ele>186</ele>
        <time>2017-05-24T08:40:57Z</time>
      </trkpt>
      <trkpt lat="45.95542" lon="4.75518">
        <ele>186</ele>
        <time>2017-05-24T08:40:58Z</time>
      </trkpt>
      <trkpt lat="45.95546" lon="4.75522">
        <ele>186</ele>
        <time>2017-05-24T08:40:59Z</time>
      </trkpt>
      <trkpt lat="45.95551" lon="4.75527">
        <ele>186</ele>
        <time>2017-05-24T08:41:00Z</time>
      </trkpt>
      <trkpt lat="45.95555" lon="4.75531">
        <ele>186</ele>
        <time>2017-05-24T08:41:01Z</time>
      </trkpt>
      <trkpt lat="45.9556" lon="4.75535">
        <ele>186</ele>
        <time>2017-05-24T08:41:02Z</time>
      </trkpt>
      <trkpt lat="45.95564" lon="4.75539">
        <ele>186</ele>
        <time>2017-05-24T08:41:03Z</time>
      </trkpt>
      <trkpt lat="45.95568" lon="4.75543">
        <ele>186</ele>
        <time>2017-05-24T08:41:04Z</time>
      </trkpt>
      <trkpt lat="45.95572" lon="4.75548">
        <ele>186</ele>
        <time>2017-05-24T08:41:05Z</time>
      </trkpt>
      <trkpt lat="45.95576" lon="4.75553">
        <ele>186</ele>
        <time>2017-05-24T08:41:06Z</time>
      </trkpt>
      <trkpt lat="45.9558" lon="4.75558">
        <ele>186</ele>
        <time>2017-05-24T08:41:07Z</time>
      </trkpt>
      <trkpt lat="45.95584" lon="4.75563">
        <ele>188</ele>
        <time>2017-05-24T08:41:08Z</time>
      </trkpt>
      <trkpt lat="45.95588" lon="4.75569">
        <ele>188</ele>
        <time>2017-05-24T08:41:09Z</time>
      </trkpt>
      <trkpt lat="45.95591" lon="4.75574">
        <ele>187</ele>
        <time>2017-05-24T08:41:10Z</time>
      </trkpt>
      <trkpt lat="45.95594" lon="4.7558">
        <ele>187</ele>
        <time>2017-05-24T08:41:11Z</time>
      </trkpt>
      <trkpt lat="45.95596" lon="4.75587">
        <ele>187</ele>
        <time>2017-05-24T08:41:12Z</time>
      </trkpt>
      <trkpt lat="45.95598" lon="4.75593">
        <ele>187</ele>
        <time>2017-05-24T08:41:13Z</time>
      </trkpt>
      <trkpt lat="45.95601" lon="4.75598">
        <ele>187</ele>
        <time>2017-05-24T08:41:14Z</time>
      </trkpt>
      <trkpt lat="45.95605" lon="4.75608">
        <ele>187</ele>
        <time>2017-05-24T08:41:16Z</time>
      </trkpt>
      <trkpt lat="45.95606" lon="4.75613">
        <ele>188</ele>
        <time>2017-05-24T08:41:17Z</time>
      </trkpt>
      <trkpt lat="45.95608" lon="4.7562">
        <ele>188</ele>
        <time>2017-05-24T08:41:18Z</time>
      </trkpt>
      <trkpt lat="45.9561" lon="4.75626">
        <ele>188</ele>
        <time>2017-05-24T08:41:19Z</time>
      </trkpt>
      <trkpt lat="45.95612" lon="4.75633">
        <ele>188</ele>
        <time>2017-05-24T08:41:20Z</time>
      </trkpt>
      <trkpt lat="45.95614" lon="4.75641">
        <ele>188</ele>
        <time>2017-05-24T08:41:21Z</time>
      </trkpt>
      <trkpt lat="45.95616" lon="4.75648">
        <ele>188</ele>
        <time>2017-05-24T08:41:22Z</time>
      </trkpt>
      <trkpt lat="45.95617" lon="4.75657">
        <ele>188</ele>
        <time>2017-05-24T08:41:23Z</time>
      </trkpt>
      <trkpt lat="45.95619" lon="4.75666">
        <ele>188</ele>
        <time>2017-05-24T08:41:24Z</time>
      </trkpt>
      <trkpt lat="45.9562" lon="4.75675">
        <ele>187</ele>
        <time>2017-05-24T08:41:25Z</time>
      </trkpt>
      <trkpt lat="45.95622" lon="4.75684">
        <ele>187</ele>
        <time>2017-05-24T08:41:26Z</time>
      </trkpt>
      <trkpt lat="45.95623" lon="4.75693">
        <ele>187</ele>
        <time>2017-05-24T08:41:27Z</time>
      </trkpt>
      <trkpt lat="45.95624" lon="4.75702">
        <ele>187</ele>
        <time>2017-05-24T08:41:28Z</time>
      </trkpt>
      <trkpt lat="45.95624" lon="4.7571">
        <ele>187</ele>
        <time>2017-05-24T08:41:29Z</time>
      </trkpt>
      <trkpt lat="45.95625" lon="4.75718">
        <ele>187</ele>
        <time>2017-05-24T08:41:30Z</time>
      </trkpt>
      <trkpt lat="45.95627" lon="4.75726">
        <ele>187</ele>
        <time>2017-05-24T08:41:31Z</time>
      </trkpt>
      <trkpt lat="45.95628" lon="4.75734">
        <ele>187</ele>
        <time>2017-05-24T08:41:32Z</time>
      </trkpt>
      <trkpt lat="45.95629" lon="4.75741">
        <ele>187</ele>
        <time>2017-05-24T08:41:33Z</time>
      </trkpt>
      <trkpt lat="45.95629" lon="4.75749">
        <ele>187</ele>
        <time>2017-05-24T08:41:34Z</time>
      </trkpt>
      <trkpt lat="45.9563" lon="4.75756">
        <ele>186</ele>
        <time>2017-05-24T08:41:35Z</time>
      </trkpt>
      <trkpt lat="45.95631" lon="4.75763">
        <ele>186</ele>
        <time>2017-05-24T08:41:36Z</time>
      </trkpt>
      <trkpt lat="45.95632" lon="4.7577">
        <ele>185</ele>
        <time>2017-05-24T08:41:37Z</time>
      </trkpt>
      <trkpt lat="45.95634" lon="4.75778">
        <ele>185</ele>
        <time>2017-05-24T08:41:38Z</time>
      </trkpt>
      <trkpt lat="45.95635" lon="4.75786">
        <ele>185</ele>
        <time>2017-05-24T08:41:39Z</time>
      </trkpt>
      <trkpt lat="45.95636" lon="4.75794">
        <ele>185</ele>
        <time>2017-05-24T08:41:40Z</time>
      </trkpt>
      <trkpt lat="45.95638" lon="4.75802">
        <ele>185</ele>
        <time>2017-05-24T08:41:41Z</time>
      </trkpt>
      <trkpt lat="45.9564" lon="4.7581">
        <ele>185</ele>
        <time>2017-05-24T08:41:42Z</time>
      </trkpt>
      <trkpt lat="45.95641" lon="4.75818">
        <ele>185</ele>
        <time>2017-05-24T08:41:43Z</time>
      </trkpt>
      <trkpt lat="45.95643" lon="4.75826">
        <ele>185</ele>
        <time>2017-05-24T08:41:44Z</time>
      </trkpt>
      <trkpt lat="45.95644" lon="4.75834">
        <ele>184</ele>
        <time>2017-05-24T08:41:45Z</time>
      </trkpt>
      <trkpt lat="45.95646" lon="4.75841">
        <ele>184</ele>
        <time>2017-05-24T08:41:46Z</time>
      </trkpt>
      <trkpt lat="45.95648" lon="4.75849">
        <ele>184</ele>
        <time>2017-05-24T08:41:47Z</time>
      </trkpt>
      <trkpt lat="45.9565" lon="4.75856">
        <ele>184</ele>
        <time>2017-05-24T08:41:48Z</time>
      </trkpt>
      <trkpt lat="45.95652" lon="4.75863">
        <ele>184</ele>
        <time>2017-05-24T08:41:49Z</time>
      </trkpt>
      <trkpt lat="45.95654" lon="4.75871">
        <ele>184</ele>
        <time>2017-05-24T08:41:50Z</time>
      </trkpt>
      <trkpt lat="45.95656" lon="4.75879">
        <ele>184</ele>
        <time>2017-05-24T08:41:51Z</time>
      </trkpt>
      <trkpt lat="45.95659" lon="4.75886">
        <ele>184</ele>
        <time>2017-05-24T08:41:52Z</time>
      </trkpt>
      <trkpt lat="45.95662" lon="4.75893">
        <ele>184</ele>
        <time>2017-05-24T08:41:53Z</time>
      </trkpt>
      <trkpt lat="45.95665" lon="4.759">
        <ele>184</ele>
        <time>2017-05-24T08:41:54Z</time>
      </trkpt>
      <trkpt lat="45.95667" lon="4.75908">
        <ele>185</ele>
        <time>2017-05-24T08:41:55Z</time>
      </trkpt>
      <trkpt lat="45.9567" lon="4.75916">
        <ele>184</ele>
        <time>2017-05-24T08:41:56Z</time>
      </trkpt>
      <trkpt lat="45.95673" lon="4.75924">
        <ele>184</ele>
        <time>2017-05-24T08:41:57Z</time>
      </trkpt>
      <trkpt lat="45.95676" lon="4.75931">
        <ele>185</ele>
        <time>2017-05-24T08:41:58Z</time>
      </trkpt>
      <trkpt lat="45.95679" lon="4.75939">
        <ele>185</ele>
        <time>2017-05-24T08:41:59Z</time>
      </trkpt>
      <trkpt lat="45.95682" lon="4.75946">
        <ele>185</ele>
        <time>2017-05-24T08:42:00Z</time>
      </trkpt>
      <trkpt lat="45.95686" lon="4.75953">
        <ele>185</ele>
        <time>2017-05-24T08:42:01Z</time>
      </trkpt>
      <trkpt lat="45.95689" lon="4.7596">
        <ele>185</ele>
        <time>2017-05-24T08:42:02Z</time>
      </trkpt>
      <trkpt lat="45.95692" lon="4.75966">
        <ele>185</ele>
        <time>2017-05-24T08:42:03Z</time>
      </trkpt>
      <trkpt lat="45.95695" lon="4.75973">
        <ele>185</ele>
        <time>2017-05-24T08:42:04Z</time>
      </trkpt>
      <trkpt lat="45.95698" lon="4.75979">
        <ele>185</ele>
        <time>2017-05-24T08:42:05Z</time>
      </trkpt>
      <trkpt lat="45.95701" lon="4.75985">
        <ele>185</ele>
        <time>2017-05-24T08:42:06Z</time>
      </trkpt>
      <trkpt lat="45.95704" lon="4.75991">
        <ele>185</ele>
        <time>2017-05-24T08:42:07Z</time>
      </trkpt>
      <trkpt lat="45.95707" lon="4.75997">
        <ele>185</ele>
        <time>2017-05-24T08:42:08Z</time>
      </trkpt>
      <trkpt lat="45.95709" lon="4.76002">
        <ele>184</ele>
        <time>2017-05-24T08:42:09Z</time>
      </trkpt>
      <trkpt lat="45.95712" lon="4.76009">
        <ele>184</ele>
        <time>2017-05-24T08:42:10Z</time>
      </trkpt>
      <trkpt lat="45.95716" lon="4.76015">
        <ele>184</ele>
        <time>2017-05-24T08:42:11Z</time>
      </trkpt>
      <trkpt lat="45.95719" lon="4.76021">
        <ele>184</ele>
        <time>2017-05-24T08:42:12Z</time>
      </trkpt>
      <trkpt lat="45.95722" lon="4.76028">
        <ele>184</ele>
        <time>2017-05-24T08:42:13Z</time>
      </trkpt>
      <trkpt lat="45.95725" lon="4.76035">
        <ele>184</ele>
        <time>2017-05-24T08:42:14Z</time>
      </trkpt>
      <trkpt lat="45.95728" lon="4.76042">
        <ele>184</ele>
        <time>2017-05-24T08:42:15Z</time>
      </trkpt>
      <trkpt lat="45.95731" lon="4.7605">
        <ele>184</ele>
        <time>2017-05-24T08:42:16Z</time>
      </trkpt>
      <trkpt lat="45.95735" lon="4.76057">
        <ele>184</ele>
        <time>2017-05-24T08:42:17Z</time>
      </trkpt>
      <trkpt lat="45.95739" lon="4.76065">
        <ele>184</ele>
        <time>2017-05-24T08:42:18Z</time>
      </trkpt>
      <trkpt lat="45.95742" lon="4.76072">
        <ele>185</ele>
        <time>2017-05-24T08:42:19Z</time>
      </trkpt>
      <trkpt lat="45.95745" lon="4.7608">
        <ele>185</ele>
        <time>2017-05-24T08:42:20Z</time>
      </trkpt>
      <trkpt lat="45.95748" lon="4.76087">
        <ele>185</ele>
        <time>2017-05-24T08:42:21Z</time>
      </trkpt>
      <trkpt lat="45.95751" lon="4.76094">
        <ele>186</ele>
        <time>2017-05-24T08:42:22Z</time>
      </trkpt>
      <trkpt lat="45.95753" lon="4.76101">
        <ele>186</ele>
        <time>2017-05-24T08:42:23Z</time>
      </trkpt>
      <trkpt lat="45.95754" lon="4.76107">
        <ele>186</ele>
        <time>2017-05-24T08:42:24Z</time>
      </trkpt>
      <trkpt lat="45.95756" lon="4.76114">
        <ele>186</ele>
        <time>2017-05-24T08:42:25Z</time>
      </trkpt>
      <trkpt lat="45.95757" lon="4.76121">
        <ele>186</ele>
        <time>2017-05-24T08:42:26Z</time>
      </trkpt>
      <trkpt lat="45.95758" lon="4.76129">
        <ele>186</ele>
        <time>2017-05-24T08:42:27Z</time>
      </trkpt>
      <trkpt lat="45.95758" lon="4.76137">
        <ele>186</ele>
        <time>2017-05-24T08:42:28Z</time>
      </trkpt>
      <trkpt lat="45.95759" lon="4.76145">
        <ele>186</ele>
        <time>2017-05-24T08:42:29Z</time>
      </trkpt>
      <trkpt lat="45.95759" lon="4.76154">
        <ele>186</ele>
        <time>2017-05-24T08:42:30Z</time>
      </trkpt>
      <trkpt lat="45.9576" lon="4.76162">
        <ele>186</ele>
        <time>2017-05-24T08:42:31Z</time>
      </trkpt>
      <trkpt lat="45.9576" lon="4.76169">
        <ele>185</ele>
        <time>2017-05-24T08:42:32Z</time>
      </trkpt>
      <trkpt lat="45.9576" lon="4.76177">
        <ele>185</ele>
        <time>2017-05-24T08:42:33Z</time>
      </trkpt>
      <trkpt lat="45.95761" lon="4.76184">
        <ele>186</ele>
        <time>2017-05-24T08:42:34Z</time>
      </trkpt>
      <trkpt lat="45.95762" lon="4.76191">
        <ele>186</ele>
        <time>2017-05-24T08:42:35Z</time>
      </trkpt>
      <trkpt lat="45.95762" lon="4.76198">
        <ele>186</ele>
        <time>2017-05-24T08:42:36Z</time>
      </trkpt>
      <trkpt lat="45.95762" lon="4.76206">
        <ele>186</ele>
        <time>2017-05-24T08:42:37Z</time>
      </trkpt>
      <trkpt lat="45.95763" lon="4.76212">
        <ele>186</ele>
        <time>2017-05-24T08:42:38Z</time>
      </trkpt>
      <trkpt lat="45.95763" lon="4.76218">
        <ele>186</ele>
        <time>2017-05-24T08:42:39Z</time>
      </trkpt>
      <trkpt lat="45.95764" lon="4.76231">
        <ele>186</ele>
        <time>2017-05-24T08:42:41Z</time>
      </trkpt>
      <trkpt lat="45.95765" lon="4.76238">
        <ele>186</ele>
        <time>2017-05-24T08:42:42Z</time>
      </trkpt>
      <trkpt lat="45.95765" lon="4.76245">
        <ele>185</ele>
        <time>2017-05-24T08:42:43Z</time>
      </trkpt>
      <trkpt lat="45.95765" lon="4.76253">
        <ele>185</ele>
        <time>2017-05-24T08:42:44Z</time>
      </trkpt>
      <trkpt lat="45.95766" lon="4.76261">
        <ele>185</ele>
        <time>2017-05-24T08:42:45Z</time>
      </trkpt>
      <trkpt lat="45.95766" lon="4.76269">
        <ele>185</ele>
        <time>2017-05-24T08:42:46Z</time>
      </trkpt>
      <trkpt lat="45.95767" lon="4.76278">
        <ele>186</ele>
        <time>2017-05-24T08:42:47Z</time>
      </trkpt>
      <trkpt lat="45.95767" lon="4.76287">
        <ele>186</ele>
        <time>2017-05-24T08:42:48Z</time>
      </trkpt>
      <trkpt lat="45.95768" lon="4.76296">
        <ele>186</ele>
        <time>2017-05-24T08:42:49Z</time>
      </trkpt>
      <trkpt lat="45.95768" lon="4.76305">
        <ele>186</ele>
        <time>2017-05-24T08:42:50Z</time>
      </trkpt>
      <trkpt lat="45.95768" lon="4.76313">
        <ele>185</ele>
        <time>2017-05-24T08:42:51Z</time>
      </trkpt>
      <trkpt lat="45.95769" lon="4.76322">
        <ele>185</ele>
        <time>2017-05-24T08:42:52Z</time>
      </trkpt>
      <trkpt lat="45.95769" lon="4.7633">
        <ele>185</ele>
        <time>2017-05-24T08:42:53Z</time>
      </trkpt>
      <trkpt lat="45.9577" lon="4.76337">
        <ele>186</ele>
        <time>2017-05-24T08:42:54Z</time>
      </trkpt>
      <trkpt lat="45.9577" lon="4.76345">
        <ele>186</ele>
        <time>2017-05-24T08:42:55Z</time>
      </trkpt>
      <trkpt lat="45.9577" lon="4.76352">
        <ele>186</ele>
        <time>2017-05-24T08:42:56Z</time>
      </trkpt>
      <trkpt lat="45.95771" lon="4.7636">
        <ele>186</ele>
        <time>2017-05-24T08:42:57Z</time>
      </trkpt>
      <trkpt lat="45.95771" lon="4.76367">
        <ele>186</ele>
        <time>2017-05-24T08:42:58Z</time>
      </trkpt>
      <trkpt lat="45.95771" lon="4.76374">
        <ele>186</ele>
        <time>2017-05-24T08:42:59Z</time>
      </trkpt>
      <trkpt lat="45.95771" lon="4.76382">
        <ele>186</ele>
        <time>2017-05-24T08:43:00Z</time>
      </trkpt>
      <trkpt lat="45.95771" lon="4.76389">
        <ele>186</ele>
        <time>2017-05-24T08:43:01Z</time>
      </trkpt>
      <trkpt lat="45.95771" lon="4.76396">
        <ele>186</ele>
        <time>2017-05-24T08:43:02Z</time>
      </trkpt>
      <trkpt lat="45.95772" lon="4.76402">
        <ele>186</ele>
        <time>2017-05-24T08:43:03Z</time>
      </trkpt>
      <trkpt lat="45.95772" lon="4.76409">
        <ele>186</ele>
        <time>2017-05-24T08:43:04Z</time>
      </trkpt>
      <trkpt lat="45.95773" lon="4.76416">
        <ele>186</ele>
        <time>2017-05-24T08:43:05Z</time>
      </trkpt>
      <trkpt lat="45.95774" lon="4.76423">
        <ele>186</ele>
        <time>2017-05-24T08:43:06Z</time>
      </trkpt>
      <trkpt lat="45.95776" lon="4.7643">
        <ele>186</ele>
        <time>2017-05-24T08:43:07Z</time>
      </trkpt>
      <trkpt lat="45.95777" lon="4.76438">
        <ele>186</ele>
        <time>2017-05-24T08:43:08Z</time>
      </trkpt>
      <trkpt lat="45.95778" lon="4.76447">
        <ele>186</ele>
        <time>2017-05-24T08:43:09Z</time>
      </trkpt>
      <trkpt lat="45.95779" lon="4.76455">
        <ele>186</ele>
        <time>2017-05-24T08:43:10Z</time>
      </trkpt>
      <trkpt lat="45.9578" lon="4.76464">
        <ele>186</ele>
        <time>2017-05-24T08:43:11Z</time>
      </trkpt>
      <trkpt lat="45.95781" lon="4.76472">
        <ele>186</ele>
        <time>2017-05-24T08:43:12Z</time>
      </trkpt>
      <trkpt lat="45.95782" lon="4.7648">
        <ele>186</ele>
        <time>2017-05-24T08:43:13Z</time>
      </trkpt>
      <trkpt lat="45.95783" lon="4.76488">
        <ele>186</ele>
        <time>2017-05-24T08:43:14Z</time>
      </trkpt>
      <trkpt lat="45.95784" lon="4.76496">
        <ele>186</ele>
        <time>2017-05-24T08:43:15Z</time>
      </trkpt>
      <trkpt lat="45.95785" lon="4.76503">
        <ele>186</ele>
        <time>2017-05-24T08:43:16Z</time>
      </trkpt>
      <trkpt lat="45.95786" lon="4.7651">
        <ele>187</ele>
        <time>2017-05-24T08:43:17Z</time>
      </trkpt>
      <trkpt lat="45.95787" lon="4.76517">
        <ele>187</ele>
        <time>2017-05-24T08:43:18Z</time>
      </trkpt>
      <trkpt lat="45.95789" lon="4.76524">
        <ele>187</ele>
        <time>2017-05-24T08:43:19Z</time>
      </trkpt>
      <trkpt lat="45.9579" lon="4.76531">
        <ele>187</ele>
        <time>2017-05-24T08:43:20Z</time>
      </trkpt>
      <trkpt lat="45.95791" lon="4.76538">
        <ele>187</ele>
        <time>2017-05-24T08:43:21Z</time>
      </trkpt>
      <trkpt lat="45.95792" lon="4.76546">
        <ele>187</ele>
        <time>2017-05-24T08:43:22Z</time>
      </trkpt>
      <trkpt lat="45.95794" lon="4.76554">
        <ele>187</ele>
        <time>2017-05-24T08:43:23Z</time>
      </trkpt>
      <trkpt lat="45.95795" lon="4.76563">
        <ele>187</ele>
        <time>2017-05-24T08:43:24Z</time>
      </trkpt>
      <trkpt lat="45.95796" lon="4.76572">
        <ele>187</ele>
        <time>2017-05-24T08:43:25Z</time>
      </trkpt>
      <trkpt lat="45.95797" lon="4.76581">
        <ele>187</ele>
        <time>2017-05-24T08:43:26Z</time>
      </trkpt>
      <trkpt lat="45.95797" lon="4.76589">
        <ele>187</ele>
        <time>2017-05-24T08:43:27Z</time>
      </trkpt>
      <trkpt lat="45.95799" lon="4.76597">
        <ele>187</ele>
        <time>2017-05-24T08:43:28Z</time>
      </trkpt>
      <trkpt lat="45.958" lon="4.76605">
        <ele>187</ele>
        <time>2017-05-24T08:43:29Z</time>
      </trkpt>
      <trkpt lat="45.95801" lon="4.76613">
        <ele>188</ele>
        <time>2017-05-24T08:43:30Z</time>
      </trkpt>
      <trkpt lat="45.95802" lon="4.76621">
        <ele>188</ele>
        <time>2017-05-24T08:43:31Z</time>
      </trkpt>
      <trkpt lat="45.95804" lon="4.76628">
        <ele>188</ele>
        <time>2017-05-24T08:43:32Z</time>
      </trkpt>
      <trkpt lat="45.95805" lon="4.76635">
        <ele>188</ele>
        <time>2017-05-24T08:43:33Z</time>
      </trkpt>
      <trkpt lat="45.95806" lon="4.76642">
        <ele>188</ele>
        <time>2017-05-24T08:43:34Z</time>
      </trkpt>
      <trkpt lat="45.95807" lon="4.7665">
        <ele>188</ele>
        <time>2017-05-24T08:43:35Z</time>
      </trkpt>
      <trkpt lat="45.95808" lon="4.76657">
        <ele>188</ele>
        <time>2017-05-24T08:43:36Z</time>
      </trkpt>
      <trkpt lat="45.95809" lon="4.76664">
        <ele>188</ele>
        <time>2017-05-24T08:43:37Z</time>
      </trkpt>
      <trkpt lat="45.95811" lon="4.76671">
        <ele>189</ele>
        <time>2017-05-24T08:43:38Z</time>
      </trkpt>
      <trkpt lat="45.95812" lon="4.76678">
        <ele>189</ele>
        <time>2017-05-24T08:43:39Z</time>
      </trkpt>
      <trkpt lat="45.95813" lon="4.76684">
        <ele>189</ele>
        <time>2017-05-24T08:43:40Z</time>
      </trkpt>
      <trkpt lat="45.95813" lon="4.76691">
        <ele>189</ele>
        <time>2017-05-24T08:43:41Z</time>
      </trkpt>
      <trkpt lat="45.95814" lon="4.76697">
        <ele>189</ele>
        <time>2017-05-24T08:43:42Z</time>
      </trkpt>
      <trkpt lat="45.95816" lon="4.76704">
        <ele>189</ele>
        <time>2017-05-24T08:43:43Z</time>
      </trkpt>
      <trkpt lat="45.95817" lon="4.76711">
        <ele>189</ele>
        <time>2017-05-24T08:43:44Z</time>
      </trkpt>
      <trkpt lat="45.95818" lon="4.76718">
        <ele>189</ele>
        <time>2017-05-24T08:43:45Z</time>
      </trkpt>
      <trkpt lat="45.95819" lon="4.76726">
        <ele>190</ele>
        <time>2017-05-24T08:43:46Z</time>
      </trkpt>
      <trkpt lat="45.95821" lon="4.76734">
        <ele>190</ele>
        <time>2017-05-24T08:43:47Z</time>
      </trkpt>
      <trkpt lat="45.95822" lon="4.76742">
        <ele>190</ele>
        <time>2017-05-24T08:43:48Z</time>
      </trkpt>
      <trkpt lat="45.95824" lon="4.76751">
        <ele>191</ele>
        <time>2017-05-24T08:43:49Z</time>
      </trkpt>
      <trkpt lat="45.95825" lon="4.76758">
        <ele>191</ele>
        <time>2017-05-24T08:43:50Z</time>
      </trkpt>
      <trkpt lat="45.95826" lon="4.76766">
        <ele>190</ele>
        <time>2017-05-24T08:43:51Z</time>
      </trkpt>
      <trkpt lat="45.95828" lon="4.76773">
        <ele>190</ele>
        <time>2017-05-24T08:43:52Z</time>
      </trkpt>
      <trkpt lat="45.95828" lon="4.7678">
        <ele>190</ele>
        <time>2017-05-24T08:43:53Z</time>
      </trkpt>
      <trkpt lat="45.95829" lon="4.76786">
        <ele>190</ele>
        <time>2017-05-24T08:43:54Z</time>
      </trkpt>
      <trkpt lat="45.9583" lon="4.76799">
        <ele>190</ele>
        <time>2017-05-24T08:43:56Z</time>
      </trkpt>
      <trkpt lat="45.9583" lon="4.76805">
        <ele>190</ele>
        <time>2017-05-24T08:43:57Z</time>
      </trkpt>
      <trkpt lat="45.95829" lon="4.76812">
        <ele>190</ele>
        <time>2017-05-24T08:43:58Z</time>
      </trkpt>
      <trkpt lat="45.95828" lon="4.76819">
        <ele>190</ele>
        <time>2017-05-24T08:43:59Z</time>
      </trkpt>
      <trkpt lat="45.95827" lon="4.76826">
        <ele>190</ele>
        <time>2017-05-24T08:44:00Z</time>
      </trkpt>
      <trkpt lat="45.95826" lon="4.76832">
        <ele>190</ele>
        <time>2017-05-24T08:44:01Z</time>
      </trkpt>
      <trkpt lat="45.95825" lon="4.76838">
        <ele>190</ele>
        <time>2017-05-24T08:44:02Z</time>
      </trkpt>
      <trkpt lat="45.95823" lon="4.76845">
        <ele>190</ele>
        <time>2017-05-24T08:44:03Z</time>
      </trkpt>
      <trkpt lat="45.95822" lon="4.76851">
        <ele>189</ele>
        <time>2017-05-24T08:44:04Z</time>
      </trkpt>
      <trkpt lat="45.9582" lon="4.76858">
        <ele>189</ele>
        <time>2017-05-24T08:44:05Z</time>
      </trkpt>
      <trkpt lat="45.95819" lon="4.76864">
        <ele>189</ele>
        <time>2017-05-24T08:44:06Z</time>
      </trkpt>
      <trkpt lat="45.95818" lon="4.76871">
        <ele>189</ele>
        <time>2017-05-24T08:44:07Z</time>
      </trkpt>
      <trkpt lat="45.95816" lon="4.76878">
        <ele>189</ele>
        <time>2017-05-24T08:44:08Z</time>
      </trkpt>
      <trkpt lat="45.95815" lon="4.76885">
        <ele>189</ele>
        <time>2017-05-24T08:44:09Z</time>
      </trkpt>
      <trkpt lat="45.95813" lon="4.76891">
        <ele>189</ele>
        <time>2017-05-24T08:44:10Z</time>
      </trkpt>
      <trkpt lat="45.95812" lon="4.76898">
        <ele>189</ele>
        <time>2017-05-24T08:44:11Z</time>
      </trkpt>
      <trkpt lat="45.95811" lon="4.76905">
        <ele>189</ele>
        <time>2017-05-24T08:44:12Z</time>
      </trkpt>
      <trkpt lat="45.9581" lon="4.76912">
        <ele>189</ele>
        <time>2017-05-24T08:44:13Z</time>
      </trkpt>
      <trkpt lat="45.95808" lon="4.76919">
        <ele>189</ele>
        <time>2017-05-24T08:44:14Z</time>
      </trkpt>
      <trkpt lat="45.95807" lon="4.76926">
        <ele>189</ele>
        <time>2017-05-24T08:44:15Z</time>
      </trkpt>
      <trkpt lat="45.95806" lon="4.76933">
        <ele>189</ele>
        <time>2017-05-24T08:44:16Z</time>
      </trkpt>
      <trkpt lat="45.95805" lon="4.7694">
        <ele>189</ele>
        <time>2017-05-24T08:44:17Z</time>
      </trkpt>
      <trkpt lat="45.95804" lon="4.76947">
        <ele>189</ele>
        <time>2017-05-24T08:44:18Z</time>
      </trkpt>
      <trkpt lat="45.95802" lon="4.76954">
        <ele>189</ele>
        <time>2017-05-24T08:44:19Z</time>
      </trkpt>
      <trkpt lat="45.958" lon="4.76961">
        <ele>189</ele>
        <time>2017-05-24T08:44:20Z</time>
      </trkpt>
      <trkpt lat="45.95799" lon="4.76969">
        <ele>189</ele>
        <time>2017-05-24T08:44:21Z</time>
      </trkpt>
      <trkpt lat="45.95799" lon="4.76977">
        <ele>189</ele>
        <time>2017-05-24T08:44:22Z</time>
      </trkpt>
      <trkpt lat="45.95799" lon="4.76985">
        <ele>189</ele>
        <time>2017-05-24T08:44:23Z</time>
      </trkpt>
      <trkpt lat="45.95799" lon="4.76994">
        <ele>189</ele>
        <time>2017-05-24T08:44:24Z</time>
      </trkpt>
      <trkpt lat="45.958" lon="4.77003">
        <ele>190</ele>
        <time>2017-05-24T08:44:25Z</time>
      </trkpt>
      <trkpt lat="45.95801" lon="4.77012">
        <ele>190</ele>
        <time>2017-05-24T08:44:26Z</time>
      </trkpt>
      <trkpt lat="45.95803" lon="4.7702">
        <ele>190</ele>
        <time>2017-05-24T08:44:27Z</time>
      </trkpt>
      <trkpt lat="45.95806" lon="4.77027">
        <ele>190</ele>
        <time>2017-05-24T08:44:28Z</time>
      </trkpt>
      <trkpt lat="45.95808" lon="4.77035">
        <ele>190</ele>
        <time>2017-05-24T08:44:29Z</time>
      </trkpt>
      <trkpt lat="45.95811" lon="4.77042">
        <ele>190</ele>
        <time>2017-05-24T08:44:30Z</time>
      </trkpt>
      <trkpt lat="45.95814" lon="4.77049">
        <ele>190</ele>
        <time>2017-05-24T08:44:31Z</time>
      </trkpt>
      <trkpt lat="45.95817" lon="4.77055">
        <ele>190</ele>
        <time>2017-05-24T08:44:32Z</time>
      </trkpt>
      <trkpt lat="45.9582" lon="4.77062">
        <ele>190</ele>
        <time>2017-05-24T08:44:33Z</time>
      </trkpt>
      <trkpt lat="45.95823" lon="4.77069">
        <ele>191</ele>
        <time>2017-05-24T08:44:34Z</time>
      </trkpt>
      <trkpt lat="45.95826" lon="4.77075">
        <ele>191</ele>
        <time>2017-05-24T08:44:35Z</time>
      </trkpt>
      <trkpt lat="45.95828" lon="4.7708">
        <ele>191</ele>
        <time>2017-05-24T08:44:36Z</time>
      </trkpt>
      <trkpt lat="45.9583" lon="4.77086">
        <ele>192</ele>
        <time>2017-05-24T08:44:37Z</time>
      </trkpt>
      <trkpt lat="45.95832" lon="4.77092">
        <ele>191</ele>
        <time>2017-05-24T08:44:38Z</time>
      </trkpt>
      <trkpt lat="45.95834" lon="4.77098">
        <ele>193</ele>
        <time>2017-05-24T08:44:39Z</time>
      </trkpt>
      <trkpt lat="45.95836" lon="4.77105">
        <ele>193</ele>
        <time>2017-05-24T08:44:40Z</time>
      </trkpt>
      <trkpt lat="45.95838" lon="4.77113">
        <ele>193</ele>
        <time>2017-05-24T08:44:41Z</time>
      </trkpt>
      <trkpt lat="45.9584" lon="4.7712">
        <ele>193</ele>
        <time>2017-05-24T08:44:42Z</time>
      </trkpt>
      <trkpt lat="45.95842" lon="4.77127">
        <ele>193</ele>
        <time>2017-05-24T08:44:43Z</time>
      </trkpt>
      <trkpt lat="45.95844" lon="4.77134">
        <ele>193</ele>
        <time>2017-05-24T08:44:44Z</time>
      </trkpt>
      <trkpt lat="45.95847" lon="4.77142">
        <ele>192</ele>
        <time>2017-05-24T08:44:45Z</time>
      </trkpt>
      <trkpt lat="45.95849" lon="4.7715">
        <ele>192</ele>
        <time>2017-05-24T08:44:46Z</time>
      </trkpt>
      <trkpt lat="45.95851" lon="4.77158">
        <ele>192</ele>
        <time>2017-05-24T08:44:47Z</time>
      </trkpt>
      <trkpt lat="45.95853" lon="4.77167">
        <ele>192</ele>
        <time>2017-05-24T08:44:48Z</time>
      </trkpt>
      <trkpt lat="45.95856" lon="4.77175">
        <ele>192</ele>
        <time>2017-05-24T08:44:49Z</time>
      </trkpt>
      <trkpt lat="45.95858" lon="4.77183">
        <ele>192</ele>
        <time>2017-05-24T08:44:50Z</time>
      </trkpt>
      <trkpt lat="45.9586" lon="4.77191">
        <ele>192</ele>
        <time>2017-05-24T08:44:51Z</time>
      </trkpt>
      <trkpt lat="45.95861" lon="4.77199">
        <ele>192</ele>
        <time>2017-05-24T08:44:52Z</time>
      </trkpt>
      <trkpt lat="45.95863" lon="4.77207">
        <ele>193</ele>
        <time>2017-05-24T08:44:53Z</time>
      </trkpt>
      <trkpt lat="45.95864" lon="4.77214">
        <ele>193</ele>
        <time>2017-05-24T08:44:54Z</time>
      </trkpt>
      <trkpt lat="45.95866" lon="4.77221">
        <ele>193</ele>
        <time>2017-05-24T08:44:55Z</time>
      </trkpt>
      <trkpt lat="45.95867" lon="4.77228">
        <ele>193</ele>
        <time>2017-05-24T08:44:56Z</time>
      </trkpt>
      <trkpt lat="45.95868" lon="4.77235">
        <ele>193</ele>
        <time>2017-05-24T08:44:57Z</time>
      </trkpt>
      <trkpt lat="45.9587" lon="4.77242">
        <ele>193</ele>
        <time>2017-05-24T08:44:58Z</time>
      </trkpt>
      <trkpt lat="45.95872" lon="4.77249">
        <ele>193</ele>
        <time>2017-05-24T08:44:59Z</time>
      </trkpt>
      <trkpt lat="45.95874" lon="4.77256">
        <ele>193</ele>
        <time>2017-05-24T08:45:00Z</time>
      </trkpt>
      <trkpt lat="45.95875" lon="4.77264">
        <ele>193</ele>
        <time>2017-05-24T08:45:01Z</time>
      </trkpt>
      <trkpt lat="45.95877" lon="4.77271">
        <ele>193</ele>
        <time>2017-05-24T08:45:02Z</time>
      </trkpt>
      <trkpt lat="45.95878" lon="4.77278">
        <ele>193</ele>
        <time>2017-05-24T08:45:03Z</time>
      </trkpt>
      <trkpt lat="45.9588" lon="4.77284">
        <ele>193</ele>
        <time>2017-05-24T08:45:04Z</time>
      </trkpt>
      <trkpt lat="45.95881" lon="4.77291">
        <ele>193</ele>
        <time>2017-05-24T08:45:05Z</time>
      </trkpt>
      <trkpt lat="45.95882" lon="4.77297">
        <ele>193</ele>
        <time>2017-05-24T08:45:06Z</time>
      </trkpt>
      <trkpt lat="45.95884" lon="4.77303">
        <ele>193</ele>
        <time>2017-05-24T08:45:07Z</time>
      </trkpt>
      <trkpt lat="45.95887" lon="4.77315">
        <ele>193</ele>
        <time>2017-05-24T08:45:09Z</time>
      </trkpt>
      <trkpt lat="45.95889" lon="4.77321">
        <ele>193</ele>
        <time>2017-05-24T08:45:10Z</time>
      </trkpt>
      <trkpt lat="45.95893" lon="4.77331">
        <ele>193</ele>
        <time>2017-05-24T08:45:12Z</time>
      </trkpt>
      <trkpt lat="45.95895" lon="4.77337">
        <ele>193</ele>
        <time>2017-05-24T08:45:13Z</time>
      </trkpt>
      <trkpt lat="45.95897" lon="4.77343">
        <ele>193</ele>
        <time>2017-05-24T08:45:14Z</time>
      </trkpt>
      <trkpt lat="45.95899" lon="4.77349">
        <ele>193</ele>
        <time>2017-05-24T08:45:15Z</time>
      </trkpt>
      <trkpt lat="45.959" lon="4.77355">
        <ele>193</ele>
        <time>2017-05-24T08:45:16Z</time>
      </trkpt>
      <trkpt lat="45.95902" lon="4.77362">
        <ele>193</ele>
        <time>2017-05-24T08:45:17Z</time>
      </trkpt>
      <trkpt lat="45.95905" lon="4.7737">
        <ele>193</ele>
        <time>2017-05-24T08:45:18Z</time>
      </trkpt>
      <trkpt lat="45.95907" lon="4.77377">
        <ele>193</ele>
        <time>2017-05-24T08:45:19Z</time>
      </trkpt>
      <trkpt lat="45.9591" lon="4.77385">
        <ele>193</ele>
        <time>2017-05-24T08:45:20Z</time>
      </trkpt>
      <trkpt lat="45.95913" lon="4.77393">
        <ele>193</ele>
        <time>2017-05-24T08:45:21Z</time>
      </trkpt>
      <trkpt lat="45.95916" lon="4.774">
        <ele>193</ele>
        <time>2017-05-24T08:45:22Z</time>
      </trkpt>
      <trkpt lat="45.95919" lon="4.77408">
        <ele>195</ele>
        <time>2017-05-24T08:45:23Z</time>
      </trkpt>
      <trkpt lat="45.95921" lon="4.77415">
        <ele>195</ele>
        <time>2017-05-24T08:45:24Z</time>
      </trkpt>
      <trkpt lat="45.95924" lon="4.77421">
        <ele>195</ele>
        <time>2017-05-24T08:45:25Z</time>
      </trkpt>
      <trkpt lat="45.95926" lon="4.77427">
        <ele>195</ele>
        <time>2017-05-24T08:45:26Z</time>
      </trkpt>
      <trkpt lat="45.95928" lon="4.77433">
        <ele>195</ele>
        <time>2017-05-24T08:45:27Z</time>
      </trkpt>
      <trkpt lat="45.95931" lon="4.77444">
        <ele>195</ele>
        <time>2017-05-24T08:45:29Z</time>
      </trkpt>
      <trkpt lat="45.95933" lon="4.77449">
        <ele>195</ele>
        <time>2017-05-24T08:45:30Z</time>
      </trkpt>
      <trkpt lat="45.95935" lon="4.77458">
        <ele>195</ele>
        <time>2017-05-24T08:45:32Z</time>
      </trkpt>
      <trkpt lat="45.95937" lon="4.77463">
        <ele>195</ele>
        <time>2017-05-24T08:45:33Z</time>
      </trkpt>
      <trkpt lat="45.95939" lon="4.77469">
        <ele>195</ele>
        <time>2017-05-24T08:45:34Z</time>
      </trkpt>
      <trkpt lat="45.95941" lon="4.77475">
        <ele>195</ele>
        <time>2017-05-24T08:45:35Z</time>
      </trkpt>
      <trkpt lat="45.95943" lon="4.77482">
        <ele>195</ele>
        <time>2017-05-24T08:45:36Z</time>
      </trkpt>
      <trkpt lat="45.95946" lon="4.77488">
        <ele>195</ele>
        <time>2017-05-24T08:45:37Z</time>
      </trkpt>
      <trkpt lat="45.95948" lon="4.77494">
        <ele>195</ele>
        <time>2017-05-24T08:45:38Z</time>
      </trkpt>
      <trkpt lat="45.95951" lon="4.775">
        <ele>194</ele>
        <time>2017-05-24T08:45:39Z</time>
      </trkpt>
      <trkpt lat="45.95953" lon="4.77506">
        <ele>195</ele>
        <time>2017-05-24T08:45:40Z</time>
      </trkpt>
      <trkpt lat="45.95955" lon="4.77511">
        <ele>195</ele>
        <time>2017-05-24T08:45:41Z</time>
      </trkpt>
      <trkpt lat="45.9596" lon="4.77521">
        <ele>195</ele>
        <time>2017-05-24T08:45:43Z</time>
      </trkpt>
      <trkpt lat="45.95963" lon="4.77526">
        <ele>195</ele>
        <time>2017-05-24T08:45:44Z</time>
      </trkpt>
      <trkpt lat="45.95967" lon="4.77534">
        <ele>195</ele>
        <time>2017-05-24T08:45:46Z</time>
      </trkpt>
      <trkpt lat="45.95968" lon="4.77538">
        <ele>195</ele>
        <time>2017-05-24T08:45:47Z</time>
      </trkpt>
      <trkpt lat="45.95972" lon="4.77547">
        <ele>195</ele>
        <time>2017-05-24T08:45:50Z</time>
      </trkpt>
      <trkpt lat="45.95973" lon="4.77551">
        <ele>195</ele>
        <time>2017-05-24T08:45:51Z</time>
      </trkpt>
      <trkpt lat="45.95977" lon="4.77563">
        <ele>195</ele>
        <time>2017-05-24T08:45:54Z</time>
      </trkpt>
      <trkpt lat="45.95979" lon="4.77568">
        <ele>196</ele>
        <time>2017-05-24T08:45:55Z</time>
      </trkpt>
      <trkpt lat="45.95982" lon="4.77578">
        <ele>196</ele>
        <time>2017-05-24T08:45:57Z</time>
      </trkpt>
      <trkpt lat="45.95983" lon="4.77584">
        <ele>195</ele>
        <time>2017-05-24T08:45:58Z</time>
      </trkpt>
      <trkpt lat="45.95988" lon="4.77594">
        <ele>195</ele>
        <time>2017-05-24T08:46:00Z</time>
      </trkpt>
      <trkpt lat="45.95991" lon="4.77598">
        <ele>195</ele>
        <time>2017-05-24T08:46:01Z</time>
      </trkpt>
      <trkpt lat="45.95995" lon="4.77602">
        <ele>195</ele>
        <time>2017-05-24T08:46:02Z</time>
      </trkpt>
      <trkpt lat="45.95999" lon="4.77605">
        <ele>195</ele>
        <time>2017-05-24T08:46:03Z</time>
      </trkpt>
      <trkpt lat="45.96004" lon="4.7761">
        <ele>198</ele>
        <time>2017-05-24T08:46:04Z</time>
      </trkpt>
      <trkpt lat="45.96008" lon="4.77613">
        <ele>199</ele>
        <time>2017-05-24T08:46:05Z</time>
      </trkpt>
      <trkpt lat="45.96013" lon="4.77618">
        <ele>199</ele>
        <time>2017-05-24T08:46:06Z</time>
      </trkpt>
      <trkpt lat="45.96017" lon="4.77623">
        <ele>199</ele>
        <time>2017-05-24T08:46:07Z</time>
      </trkpt>
      <trkpt lat="45.9602" lon="4.77628">
        <ele>199</ele>
        <time>2017-05-24T08:46:08Z</time>
      </trkpt>
      <trkpt lat="45.96024" lon="4.77632">
        <ele>199</ele>
        <time>2017-05-24T08:46:09Z</time>
      </trkpt>
      <trkpt lat="45.9603" lon="4.7764">
        <ele>199</ele>
        <time>2017-05-24T08:46:11Z</time>
      </trkpt>
      <trkpt lat="45.96032" lon="4.77643">
        <ele>199</ele>
        <time>2017-05-24T08:46:12Z</time>
      </trkpt>
      <trkpt lat="45.96037" lon="4.77651">
        <ele>199</ele>
        <time>2017-05-24T08:46:14Z</time>
      </trkpt>
      <trkpt lat="45.9604" lon="4.77654">
        <ele>199</ele>
        <time>2017-05-24T08:46:15Z</time>
      </trkpt>
      <trkpt lat="45.96045" lon="4.77662">
        <ele>199</ele>
        <time>2017-05-24T08:46:17Z</time>
      </trkpt>
      <trkpt lat="45.96048" lon="4.77665">
        <ele>199</ele>
        <time>2017-05-24T08:46:18Z</time>
      </trkpt>
      <trkpt lat="45.96055" lon="4.77674">
        <ele>197</ele>
        <time>2017-05-24T08:46:20Z</time>
      </trkpt>
      <trkpt lat="45.96058" lon="4.77678">
        <ele>197</ele>
        <time>2017-05-24T08:46:21Z</time>
      </trkpt>
      <trkpt lat="45.96062" lon="4.77683">
        <ele>197</ele>
        <time>2017-05-24T08:46:22Z</time>
      </trkpt>
      <trkpt lat="45.96066" lon="4.77688">
        <ele>197</ele>
        <time>2017-05-24T08:46:23Z</time>
      </trkpt>
      <trkpt lat="45.96069" lon="4.77693">
        <ele>197</ele>
        <time>2017-05-24T08:46:24Z</time>
      </trkpt>
      <trkpt lat="45.96073" lon="4.77699">
        <ele>197</ele>
        <time>2017-05-24T08:46:25Z</time>
      </trkpt>
      <trkpt lat="45.96076" lon="4.77704">
        <ele>197</ele>
        <time>2017-05-24T08:46:26Z</time>
      </trkpt>
      <trkpt lat="45.96079" lon="4.7771">
        <ele>196</ele>
        <time>2017-05-24T08:46:27Z</time>
      </trkpt>
      <trkpt lat="45.96085" lon="4.77719">
        <ele>199</ele>
        <time>2017-05-24T08:46:29Z</time>
      </trkpt>
      <trkpt lat="45.96087" lon="4.77723">
        <ele>199</ele>
        <time>2017-05-24T08:46:30Z</time>
      </trkpt>
      <trkpt lat="45.96093" lon="4.7773">
        <ele>198</ele>
        <time>2017-05-24T08:46:32Z</time>
      </trkpt>
      <trkpt lat="45.96096" lon="4.77735">
        <ele>198</ele>
        <time>2017-05-24T08:46:33Z</time>
      </trkpt>
      <trkpt lat="45.96102" lon="4.77744">
        <ele>198</ele>
        <time>2017-05-24T08:46:35Z</time>
      </trkpt>
      <trkpt lat="45.96105" lon="4.77749">
        <ele>198</ele>
        <time>2017-05-24T08:46:36Z</time>
      </trkpt>
      <trkpt lat="45.96108" lon="4.77754">
        <ele>197</ele>
        <time>2017-05-24T08:46:37Z</time>
      </trkpt>
      <trkpt lat="45.96111" lon="4.77758">
        <ele>197</ele>
        <time>2017-05-24T08:46:38Z</time>
      </trkpt>
      <trkpt lat="45.96117" lon="4.77768">
        <ele>197</ele>
        <time>2017-05-24T08:46:40Z</time>
      </trkpt>
      <trkpt lat="45.96119" lon="4.77772">
        <ele>197</ele>
        <time>2017-05-24T08:46:41Z</time>
      </trkpt>
      <trkpt lat="45.96124" lon="4.77781">
        <ele>197</ele>
        <time>2017-05-24T08:46:43Z</time>
      </trkpt>
      <trkpt lat="45.96126" lon="4.77785">
        <ele>197</ele>
        <time>2017-05-24T08:46:44Z</time>
      </trkpt>
      <trkpt lat="45.96131" lon="4.77792">
        <ele>197</ele>
        <time>2017-05-24T08:46:46Z</time>
      </trkpt>
      <trkpt lat="45.96134" lon="4.77796">
        <ele>198</ele>
        <time>2017-05-24T08:46:47Z</time>
      </trkpt>
      <trkpt lat="45.96138" lon="4.77803">
        <ele>198</ele>
        <time>2017-05-24T08:46:49Z</time>
      </trkpt>
      <trkpt lat="45.96141" lon="4.77807">
        <ele>198</ele>
        <time>2017-05-24T08:46:50Z</time>
      </trkpt>
      <trkpt lat="45.96145" lon="4.77815">
        <ele>198</ele>
        <time>2017-05-24T08:46:52Z</time>
      </trkpt>
      <trkpt lat="45.96148" lon="4.77819">
        <ele>198</ele>
        <time>2017-05-24T08:46:53Z</time>
      </trkpt>
      <trkpt lat="45.9615" lon="4.77823">
        <ele>198</ele>
        <time>2017-05-24T08:46:54Z</time>
      </trkpt>
      <trkpt lat="45.96153" lon="4.77829">
        <ele>198</ele>
        <time>2017-05-24T08:46:55Z</time>
      </trkpt>
      <trkpt lat="45.96156" lon="4.77835">
        <ele>197</ele>
        <time>2017-05-24T08:46:56Z</time>
      </trkpt>
      <trkpt lat="45.9616" lon="4.77842">
        <ele>197</ele>
        <time>2017-05-24T08:46:57Z</time>
      </trkpt>
      <trkpt lat="45.96164" lon="4.77848">
        <ele>197</ele>
        <time>2017-05-24T08:46:58Z</time>
      </trkpt>
      <trkpt lat="45.96168" lon="4.77855">
        <ele>201</ele>
        <time>2017-05-24T08:46:59Z</time>
      </trkpt>
      <trkpt lat="45.96172" lon="4.77861">
        <ele>201</ele>
        <time>2017-05-24T08:47:00Z</time>
      </trkpt>
      <trkpt lat="45.96175" lon="4.77867">
        <ele>201</ele>
        <time>2017-05-24T08:47:01Z</time>
      </trkpt>
      <trkpt lat="45.96179" lon="4.77873">
        <ele>201</ele>
        <time>2017-05-24T08:47:02Z</time>
      </trkpt>
      <trkpt lat="45.96183" lon="4.77879">
        <ele>201</ele>
        <time>2017-05-24T08:47:03Z</time>
      </trkpt>
      <trkpt lat="45.96186" lon="4.77884">
        <ele>201</ele>
        <time>2017-05-24T08:47:04Z</time>
      </trkpt>
      <trkpt lat="45.96189" lon="4.77889">
        <ele>201</ele>
        <time>2017-05-24T08:47:05Z</time>
      </trkpt>
      <trkpt lat="45.96192" lon="4.77895">
        <ele>201</ele>
        <time>2017-05-24T08:47:06Z</time>
      </trkpt>
      <trkpt lat="45.96196" lon="4.779">
        <ele>201</ele>
        <time>2017-05-24T08:47:07Z</time>
      </trkpt>
      <trkpt lat="45.96199" lon="4.77906">
        <ele>201</ele>
        <time>2017-05-24T08:47:08Z</time>
      </trkpt>
      <trkpt lat="45.96203" lon="4.77912">
        <ele>202</ele>
        <time>2017-05-24T08:47:09Z</time>
      </trkpt>
      <trkpt lat="45.96206" lon="4.77917">
        <ele>199</ele>
        <time>2017-05-24T08:47:10Z</time>
      </trkpt>
      <trkpt lat="45.9621" lon="4.77922">
        <ele>199</ele>
        <time>2017-05-24T08:47:11Z</time>
      </trkpt>
      <trkpt lat="45.96213" lon="4.77927">
        <ele>199</ele>
        <time>2017-05-24T08:47:12Z</time>
      </trkpt>
      <trkpt lat="45.96216" lon="4.77933">
        <ele>199</ele>
        <time>2017-05-24T08:47:13Z</time>
      </trkpt>
      <trkpt lat="45.9622" lon="4.77937">
        <ele>200</ele>
        <time>2017-05-24T08:47:14Z</time>
      </trkpt>
      <trkpt lat="45.96224" lon="4.77942">
        <ele>200</ele>
        <time>2017-05-24T08:47:15Z</time>
      </trkpt>
      <trkpt lat="45.96227" lon="4.77947">
        <ele>200</ele>
        <time>2017-05-24T08:47:16Z</time>
      </trkpt>
      <trkpt lat="45.9623" lon="4.77951">
        <ele>199</ele>
        <time>2017-05-24T08:47:17Z</time>
      </trkpt>
      <trkpt lat="45.96237" lon="4.77959">
        <ele>199</ele>
        <time>2017-05-24T08:47:19Z</time>
      </trkpt>
      <trkpt lat="45.96241" lon="4.77963">
        <ele>199</ele>
        <time>2017-05-24T08:47:20Z</time>
      </trkpt>
      <trkpt lat="45.96244" lon="4.77967">
        <ele>198</ele>
        <time>2017-05-24T08:47:21Z</time>
      </trkpt>
      <trkpt lat="45.96248" lon="4.77971">
        <ele>198</ele>
        <time>2017-05-24T08:47:22Z</time>
      </trkpt>
      <trkpt lat="45.96253" lon="4.77975">
        <ele>202</ele>
        <time>2017-05-24T08:47:23Z</time>
      </trkpt>
      <trkpt lat="45.96256" lon="4.7798">
        <ele>202</ele>
        <time>2017-05-24T08:47:24Z</time>
      </trkpt>
      <trkpt lat="45.9626" lon="4.77985">
        <ele>201</ele>
        <time>2017-05-24T08:47:25Z</time>
      </trkpt>
      <trkpt lat="45.96264" lon="4.77988">
        <ele>201</ele>
        <time>2017-05-24T08:47:26Z</time>
      </trkpt>
      <trkpt lat="45.96268" lon="4.77992">
        <ele>202</ele>
        <time>2017-05-24T08:47:27Z</time>
      </trkpt>
      <trkpt lat="45.96273" lon="4.77996">
        <ele>202</ele>
        <time>2017-05-24T08:47:28Z</time>
      </trkpt>
      <trkpt lat="45.96277" lon="4.78">
        <ele>203</ele>
        <time>2017-05-24T08:47:29Z</time>
      </trkpt>
      <trkpt lat="45.96281" lon="4.78004">
        <ele>198</ele>
        <time>2017-05-24T08:47:30Z</time>
      </trkpt>
      <trkpt lat="45.96286" lon="4.78008">
        <ele>199</ele>
        <time>2017-05-24T08:47:31Z</time>
      </trkpt>
      <trkpt lat="45.9629" lon="4.78012">
        <ele>199</ele>
        <time>2017-05-24T08:47:32Z</time>
      </trkpt>
      <trkpt lat="45.96295" lon="4.78016">
        <ele>199</ele>
        <time>2017-05-24T08:47:33Z</time>
      </trkpt>
      <trkpt lat="45.96299" lon="4.7802">
        <ele>199</ele>
        <time>2017-05-24T08:47:34Z</time>
      </trkpt>
      <trkpt lat="45.96304" lon="4.78023">
        <ele>199</ele>
        <time>2017-05-24T08:47:35Z</time>
      </trkpt>
      <trkpt lat="45.96308" lon="4.78028">
        <ele>199</ele>
        <time>2017-05-24T08:47:36Z</time>
      </trkpt>
      <trkpt lat="45.96313" lon="4.78033">
        <ele>199</ele>
        <time>2017-05-24T08:47:37Z</time>
      </trkpt>
      <trkpt lat="45.96318" lon="4.78039">
        <ele>199</ele>
        <time>2017-05-24T08:47:38Z</time>
      </trkpt>
      <trkpt lat="45.96322" lon="4.78045">
        <ele>199</ele>
        <time>2017-05-24T08:47:39Z</time>
      </trkpt>
      <trkpt lat="45.96326" lon="4.78051">
        <ele>199</ele>
        <time>2017-05-24T08:47:40Z</time>
      </trkpt>
      <trkpt lat="45.9633" lon="4.78057">
        <ele>199</ele>
        <time>2017-05-24T08:47:41Z</time>
      </trkpt>
      <trkpt lat="45.96334" lon="4.78062">
        <ele>201</ele>
        <time>2017-05-24T08:47:42Z</time>
      </trkpt>
      <trkpt lat="45.96338" lon="4.78067">
        <ele>201</ele>
        <time>2017-05-24T08:47:43Z</time>
      </trkpt>
      <trkpt lat="45.96342" lon="4.78071">
        <ele>201</ele>
        <time>2017-05-24T08:47:44Z</time>
      </trkpt>
      <trkpt lat="45.96345" lon="4.78076">
        <ele>201</ele>
        <time>2017-05-24T08:47:45Z</time>
      </trkpt>
      <trkpt lat="45.96349" lon="4.7808">
        <ele>201</ele>
        <time>2017-05-24T08:47:46Z</time>
      </trkpt>
      <trkpt lat="45.96354" lon="4.78085">
        <ele>199</ele>
        <time>2017-05-24T08:47:47Z</time>
      </trkpt>
      <trkpt lat="45.96358" lon="4.7809">
        <ele>199</ele>
        <time>2017-05-24T08:47:48Z</time>
      </trkpt>
      <trkpt lat="45.96363" lon="4.78094">
        <ele>199</ele>
        <time>2017-05-24T08:47:49Z</time>
      </trkpt>
      <trkpt lat="45.96368" lon="4.78098">
        <ele>199</ele>
        <time>2017-05-24T08:47:50Z</time>
      </trkpt>
      <trkpt lat="45.96373" lon="4.78103">
        <ele>199</ele>
        <time>2017-05-24T08:47:51Z</time>
      </trkpt>
      <trkpt lat="45.96377" lon="4.78107">
        <ele>199</ele>
        <time>2017-05-24T08:47:52Z</time>
      </trkpt>
      <trkpt lat="45.96382" lon="4.78112">
        <ele>200</ele>
        <time>2017-05-24T08:47:53Z</time>
      </trkpt>
      <trkpt lat="45.96387" lon="4.78116">
        <ele>200</ele>
        <time>2017-05-24T08:47:54Z</time>
      </trkpt>
      <trkpt lat="45.96392" lon="4.7812">
        <ele>200</ele>
        <time>2017-05-24T08:47:55Z</time>
      </trkpt>
      <trkpt lat="45.96396" lon="4.78124">
        <ele>200</ele>
        <time>2017-05-24T08:47:56Z</time>
      </trkpt>
      <trkpt lat="45.964" lon="4.78128">
        <ele>199</ele>
        <time>2017-05-24T08:47:57Z</time>
      </trkpt>
      <trkpt lat="45.96404" lon="4.78131">
        <ele>199</ele>
        <time>2017-05-24T08:47:58Z</time>
      </trkpt>
      <trkpt lat="45.96408" lon="4.78135">
        <ele>199</ele>
        <time>2017-05-24T08:47:59Z</time>
      </trkpt>
      <trkpt lat="45.96412" lon="4.78138">
        <ele>199</ele>
        <time>2017-05-24T08:48:00Z</time>
      </trkpt>
      <trkpt lat="45.96417" lon="4.78142">
        <ele>199</ele>
        <time>2017-05-24T08:48:01Z</time>
      </trkpt>
      <trkpt lat="45.96421" lon="4.78146">
        <ele>202</ele>
        <time>2017-05-24T08:48:02Z</time>
      </trkpt>
      <trkpt lat="45.96425" lon="4.78151">
        <ele>202</ele>
        <time>2017-05-24T08:48:03Z</time>
      </trkpt>
      <trkpt lat="45.96429" lon="4.78155">
        <ele>202</ele>
        <time>2017-05-24T08:48:04Z</time>
      </trkpt>
      <trkpt lat="45.96433" lon="4.78159">
        <ele>202</ele>
        <time>2017-05-24T08:48:05Z</time>
      </trkpt>
      <trkpt lat="45.96437" lon="4.78164">
        <ele>202</ele>
        <time>2017-05-24T08:48:06Z</time>
      </trkpt>
      <trkpt lat="45.96441" lon="4.78168">
        <ele>199</ele>
        <time>2017-05-24T08:48:07Z</time>
      </trkpt>
      <trkpt lat="45.96446" lon="4.78172">
        <ele>199</ele>
        <time>2017-05-24T08:48:08Z</time>
      </trkpt>
      <trkpt lat="45.9645" lon="4.78176">
        <ele>199</ele>
        <time>2017-05-24T08:48:09Z</time>
      </trkpt>
      <trkpt lat="45.96455" lon="4.78179">
        <ele>200</ele>
        <time>2017-05-24T08:48:10Z</time>
      </trkpt>
      <trkpt lat="45.96462" lon="4.78186">
        <ele>200</ele>
        <time>2017-05-24T08:48:12Z</time>
      </trkpt>
      <trkpt lat="45.96466" lon="4.78188">
        <ele>200</ele>
        <time>2017-05-24T08:48:13Z</time>
      </trkpt>
      <trkpt lat="45.96471" lon="4.7819">
        <ele>200</ele>
        <time>2017-05-24T08:48:14Z</time>
      </trkpt>
      <trkpt lat="45.96475" lon="4.78192">
        <ele>200</ele>
        <time>2017-05-24T08:48:15Z</time>
      </trkpt>
      <trkpt lat="45.9648" lon="4.78195">
        <ele>200</ele>
        <time>2017-05-24T08:48:16Z</time>
      </trkpt>
      <trkpt lat="45.96485" lon="4.78197">
        <ele>200</ele>
        <time>2017-05-24T08:48:17Z</time>
      </trkpt>
      <trkpt lat="45.9649" lon="4.78201">
        <ele>200</ele>
        <time>2017-05-24T08:48:18Z</time>
      </trkpt>
      <trkpt lat="45.96495" lon="4.78205">
        <ele>200</ele>
        <time>2017-05-24T08:48:19Z</time>
      </trkpt>
      <trkpt lat="45.965" lon="4.7821">
        <ele>200</ele>
        <time>2017-05-24T08:48:20Z</time>
      </trkpt>
      <trkpt lat="45.96504" lon="4.78216">
        <ele>204</ele>
        <time>2017-05-24T08:48:21Z</time>
      </trkpt>
      <trkpt lat="45.96509" lon="4.78222">
        <ele>204</ele>
        <time>2017-05-24T08:48:22Z</time>
      </trkpt>
      <trkpt lat="45.96513" lon="4.78229">
        <ele>203</ele>
        <time>2017-05-24T08:48:23Z</time>
      </trkpt>
      <trkpt lat="45.96517" lon="4.78236">
        <ele>203</ele>
        <time>2017-05-24T08:48:24Z</time>
      </trkpt>
      <trkpt lat="45.9652" lon="4.78243">
        <ele>203</ele>
        <time>2017-05-24T08:48:25Z</time>
      </trkpt>
      <trkpt lat="45.96524" lon="4.78249">
        <ele>203</ele>
        <time>2017-05-24T08:48:26Z</time>
      </trkpt>
      <trkpt lat="45.96527" lon="4.78255">
        <ele>200</ele>
        <time>2017-05-24T08:48:27Z</time>
      </trkpt>
      <trkpt lat="45.96531" lon="4.78261">
        <ele>200</ele>
        <time>2017-05-24T08:48:28Z</time>
      </trkpt>
      <trkpt lat="45.96534" lon="4.78266">
        <ele>200</ele>
        <time>2017-05-24T08:48:29Z</time>
      </trkpt>
      <trkpt lat="45.96537" lon="4.78272">
        <ele>200</ele>
        <time>2017-05-24T08:48:30Z</time>
      </trkpt>
      <trkpt lat="45.9654" lon="4.78277">
        <ele>200</ele>
        <time>2017-05-24T08:48:31Z</time>
      </trkpt>
      <trkpt lat="45.96544" lon="4.78281">
        <ele>200</ele>
        <time>2017-05-24T08:48:32Z</time>
      </trkpt>
      <trkpt lat="45.96547" lon="4.78286">
        <ele>200</ele>
        <time>2017-05-24T08:48:33Z</time>
      </trkpt>
      <trkpt lat="45.96551" lon="4.7829">
        <ele>200</ele>
        <time>2017-05-24T08:48:34Z</time>
      </trkpt>
      <trkpt lat="45.96554" lon="4.78293">
        <ele>200</ele>
        <time>2017-05-24T08:48:35Z</time>
      </trkpt>
      <trkpt lat="45.96558" lon="4.78297">
        <ele>200</ele>
        <time>2017-05-24T08:48:36Z</time>
      </trkpt>
      <trkpt lat="45.96562" lon="4.78301">
        <ele>200</ele>
        <time>2017-05-24T08:48:37Z</time>
      </trkpt>
      <trkpt lat="45.96568" lon="4.78309">
        <ele>200</ele>
        <time>2017-05-24T08:48:39Z</time>
      </trkpt>
      <trkpt lat="45.96572" lon="4.78313">
        <ele>199</ele>
        <time>2017-05-24T08:48:40Z</time>
      </trkpt>
      <trkpt lat="45.96576" lon="4.78317">
        <ele>199</ele>
        <time>2017-05-24T08:48:41Z</time>
      </trkpt>
      <trkpt lat="45.9658" lon="4.78321">
        <ele>199</ele>
        <time>2017-05-24T08:48:42Z</time>
      </trkpt>
      <trkpt lat="45.96584" lon="4.78326">
        <ele>200</ele>
        <time>2017-05-24T08:48:43Z</time>
      </trkpt>
      <trkpt lat="45.96589" lon="4.7833">
        <ele>200</ele>
        <time>2017-05-24T08:48:44Z</time>
      </trkpt>
      <trkpt lat="45.96594" lon="4.78335">
        <ele>199</ele>
        <time>2017-05-24T08:48:45Z</time>
      </trkpt>
      <trkpt lat="45.96599" lon="4.7834">
        <ele>200</ele>
        <time>2017-05-24T08:48:46Z</time>
      </trkpt>
      <trkpt lat="45.96604" lon="4.78344">
        <ele>200</ele>
        <time>2017-05-24T08:48:47Z</time>
      </trkpt>
      <trkpt lat="45.96609" lon="4.78349">
        <ele>200</ele>
        <time>2017-05-24T08:48:48Z</time>
      </trkpt>
      <trkpt lat="45.96614" lon="4.78353">
        <ele>201</ele>
        <time>2017-05-24T08:48:49Z</time>
      </trkpt>
      <trkpt lat="45.96619" lon="4.78357">
        <ele>201</ele>
        <time>2017-05-24T08:48:50Z</time>
      </trkpt>
      <trkpt lat="45.96623" lon="4.7836">
        <ele>201</ele>
        <time>2017-05-24T08:48:51Z</time>
      </trkpt>
      <trkpt lat="45.96628" lon="4.78364">
        <ele>201</ele>
        <time>2017-05-24T08:48:52Z</time>
      </trkpt>
      <trkpt lat="45.96631" lon="4.78367">
        <ele>201</ele>
        <time>2017-05-24T08:48:53Z</time>
      </trkpt>
      <trkpt lat="45.96635" lon="4.78371">
        <ele>201</ele>
        <time>2017-05-24T08:48:54Z</time>
      </trkpt>
      <trkpt lat="45.96642" lon="4.78378">
        <ele>201</ele>
        <time>2017-05-24T08:48:56Z</time>
      </trkpt>
      <trkpt lat="45.96645" lon="4.78382">
        <ele>201</ele>
        <time>2017-05-24T08:48:57Z</time>
      </trkpt>
      <trkpt lat="45.96652" lon="4.78388">
        <ele>201</ele>
        <time>2017-05-24T08:48:59Z</time>
      </trkpt>
      <trkpt lat="45.96656" lon="4.78392">
        <ele>201</ele>
        <time>2017-05-24T08:49:00Z</time>
      </trkpt>
      <trkpt lat="45.9666" lon="4.78396">
        <ele>201</ele>
        <time>2017-05-24T08:49:01Z</time>
      </trkpt>
      <trkpt lat="45.96664" lon="4.784">
        <ele>201</ele>
        <time>2017-05-24T08:49:02Z</time>
      </trkpt>
      <trkpt lat="45.96669" lon="4.78404">
        <ele>203</ele>
        <time>2017-05-24T08:49:03Z</time>
      </trkpt>
      <trkpt lat="45.96673" lon="4.78408">
        <ele>203</ele>
        <time>2017-05-24T08:49:04Z</time>
      </trkpt>
      <trkpt lat="45.96677" lon="4.78412">
        <ele>203</ele>
        <time>2017-05-24T08:49:05Z</time>
      </trkpt>
      <trkpt lat="45.96682" lon="4.78416">
        <ele>203</ele>
        <time>2017-05-24T08:49:06Z</time>
      </trkpt>
      <trkpt lat="45.96686" lon="4.7842">
        <ele>202</ele>
        <time>2017-05-24T08:49:07Z</time>
      </trkpt>
      <trkpt lat="45.96691" lon="4.78423">
        <ele>202</ele>
        <time>2017-05-24T08:49:08Z</time>
      </trkpt>
      <trkpt lat="45.96695" lon="4.78428">
        <ele>202</ele>
        <time>2017-05-24T08:49:09Z</time>
      </trkpt>
      <trkpt lat="45.96698" lon="4.78432">
        <ele>203</ele>
        <time>2017-05-24T08:49:10Z</time>
      </trkpt>
      <trkpt lat="45.96701" lon="4.78436">
        <ele>203</ele>
        <time>2017-05-24T08:49:11Z</time>
      </trkpt>
      <trkpt lat="45.96705" lon="4.78441">
        <ele>203</ele>
        <time>2017-05-24T08:49:12Z</time>
      </trkpt>
      <trkpt lat="45.96708" lon="4.78446">
        <ele>203</ele>
        <time>2017-05-24T08:49:13Z</time>
      </trkpt>
      <trkpt lat="45.96712" lon="4.7845">
        <ele>203</ele>
        <time>2017-05-24T08:49:14Z</time>
      </trkpt>
      <trkpt lat="45.96716" lon="4.78454">
        <ele>203</ele>
        <time>2017-05-24T08:49:15Z</time>
      </trkpt>
      <trkpt lat="45.9672" lon="4.78458">
        <ele>203</ele>
        <time>2017-05-24T08:49:16Z</time>
      </trkpt>
      <trkpt lat="45.96724" lon="4.78462">
        <ele>203</ele>
        <time>2017-05-24T08:49:17Z</time>
      </trkpt>
      <trkpt lat="45.96729" lon="4.78467">
        <ele>203</ele>
        <time>2017-05-24T08:49:18Z</time>
      </trkpt>
      <trkpt lat="45.96733" lon="4.78471">
        <ele>203</ele>
        <time>2017-05-24T08:49:19Z</time>
      </trkpt>
      <trkpt lat="45.96738" lon="4.78474">
        <ele>203</ele>
        <time>2017-05-24T08:49:20Z</time>
      </trkpt>
      <trkpt lat="45.96742" lon="4.78478">
        <ele>203</ele>
        <time>2017-05-24T08:49:21Z</time>
      </trkpt>
      <trkpt lat="45.96746" lon="4.78481">
        <ele>203</ele>
        <time>2017-05-24T08:49:22Z</time>
      </trkpt>
      <trkpt lat="45.9675" lon="4.78484">
        <ele>205</ele>
        <time>2017-05-24T08:49:23Z</time>
      </trkpt>
      <trkpt lat="45.96754" lon="4.78488">
        <ele>204</ele>
        <time>2017-05-24T08:49:24Z</time>
      </trkpt>
      <trkpt lat="45.96761" lon="4.78495">
        <ele>204</ele>
        <time>2017-05-24T08:49:26Z</time>
      </trkpt>
      <trkpt lat="45.96764" lon="4.78499">
        <ele>204</ele>
        <time>2017-05-24T08:49:27Z</time>
      </trkpt>
      <trkpt lat="45.96767" lon="4.78504">
        <ele>203</ele>
        <time>2017-05-24T08:49:28Z</time>
      </trkpt>
      <trkpt lat="45.9677" lon="4.78509">
        <ele>203</ele>
        <time>2017-05-24T08:49:29Z</time>
      </trkpt>
      <trkpt lat="45.96773" lon="4.78515">
        <ele>203</ele>
        <time>2017-05-24T08:49:30Z</time>
      </trkpt>
      <trkpt lat="45.96777" lon="4.78522">
        <ele>203</ele>
        <time>2017-05-24T08:49:31Z</time>
      </trkpt>
      <trkpt lat="45.96781" lon="4.78527">
        <ele>203</ele>
        <time>2017-05-24T08:49:32Z</time>
      </trkpt>
      <trkpt lat="45.96785" lon="4.78533">
        <ele>203</ele>
        <time>2017-05-24T08:49:33Z</time>
      </trkpt>
      <trkpt lat="45.96789" lon="4.78539">
        <ele>203</ele>
        <time>2017-05-24T08:49:34Z</time>
      </trkpt>
      <trkpt lat="45.96793" lon="4.78544">
        <ele>203</ele>
        <time>2017-05-24T08:49:35Z</time>
      </trkpt>
      <trkpt lat="45.96797" lon="4.7855">
        <ele>203</ele>
        <time>2017-05-24T08:49:36Z</time>
      </trkpt>
      <trkpt lat="45.96801" lon="4.78557">
        <ele>203</ele>
        <time>2017-05-24T08:49:37Z</time>
      </trkpt>
      <trkpt lat="45.96805" lon="4.78563">
        <ele>203</ele>
        <time>2017-05-24T08:49:38Z</time>
      </trkpt>
      <trkpt lat="45.96809" lon="4.78569">
        <ele>203</ele>
        <time>2017-05-24T08:49:39Z</time>
      </trkpt>
      <trkpt lat="45.96812" lon="4.78575">
        <ele>203</ele>
        <time>2017-05-24T08:49:40Z</time>
      </trkpt>
      <trkpt lat="45.96814" lon="4.78579">
        <ele>203</ele>
        <time>2017-05-24T08:49:41Z</time>
      </trkpt>
      <trkpt lat="45.96819" lon="4.78589">
        <ele>202</ele>
        <time>2017-05-24T08:49:43Z</time>
      </trkpt>
      <trkpt lat="45.96821" lon="4.78595">
        <ele>202</ele>
        <time>2017-05-24T08:49:44Z</time>
      </trkpt>
      <trkpt lat="45.96823" lon="4.78601">
        <ele>202</ele>
        <time>2017-05-24T08:49:45Z</time>
      </trkpt>
      <trkpt lat="45.96825" lon="4.78607">
        <ele>202</ele>
        <time>2017-05-24T08:49:46Z</time>
      </trkpt>
      <trkpt lat="45.96827" lon="4.78614">
        <ele>202</ele>
        <time>2017-05-24T08:49:47Z</time>
      </trkpt>
      <trkpt lat="45.96829" lon="4.7862">
        <ele>201</ele>
        <time>2017-05-24T08:49:48Z</time>
      </trkpt>
      <trkpt lat="45.96831" lon="4.78626">
        <ele>201</ele>
        <time>2017-05-24T08:49:49Z</time>
      </trkpt>
      <trkpt lat="45.96833" lon="4.78632">
        <ele>201</ele>
        <time>2017-05-24T08:49:50Z</time>
      </trkpt>
      <trkpt lat="45.96835" lon="4.78638">
        <ele>203</ele>
        <time>2017-05-24T08:49:51Z</time>
      </trkpt>
      <trkpt lat="45.96838" lon="4.78643">
        <ele>203</ele>
        <time>2017-05-24T08:49:52Z</time>
      </trkpt>
      <trkpt lat="45.96843" lon="4.78652">
        <ele>202</ele>
        <time>2017-05-24T08:49:54Z</time>
      </trkpt>
      <trkpt lat="45.96845" lon="4.78656">
        <ele>202</ele>
        <time>2017-05-24T08:49:55Z</time>
      </trkpt>
      <trkpt lat="45.9685" lon="4.78664">
        <ele>202</ele>
        <time>2017-05-24T08:49:57Z</time>
      </trkpt>
      <trkpt lat="45.96853" lon="4.78669">
        <ele>202</ele>
        <time>2017-05-24T08:49:58Z</time>
      </trkpt>
      <trkpt lat="45.96855" lon="4.78675">
        <ele>202</ele>
        <time>2017-05-24T08:49:59Z</time>
      </trkpt>
      <trkpt lat="45.96858" lon="4.78681">
        <ele>202</ele>
        <time>2017-05-24T08:50:00Z</time>
      </trkpt>
      <trkpt lat="45.9686" lon="4.78687">
        <ele>202</ele>
        <time>2017-05-24T08:50:01Z</time>
      </trkpt>
      <trkpt lat="45.96863" lon="4.78693">
        <ele>202</ele>
        <time>2017-05-24T08:50:02Z</time>
      </trkpt>
      <trkpt lat="45.96866" lon="4.787">
        <ele>202</ele>
        <time>2017-05-24T08:50:03Z</time>
      </trkpt>
      <trkpt lat="45.96869" lon="4.78706">
        <ele>202</ele>
        <time>2017-05-24T08:50:04Z</time>
      </trkpt>
      <trkpt lat="45.96873" lon="4.78712">
        <ele>202</ele>
        <time>2017-05-24T08:50:05Z</time>
      </trkpt>
      <trkpt lat="45.96875" lon="4.78719">
        <ele>202</ele>
        <time>2017-05-24T08:50:06Z</time>
      </trkpt>
      <trkpt lat="45.96879" lon="4.78725">
        <ele>202</ele>
        <time>2017-05-24T08:50:07Z</time>
      </trkpt>
      <trkpt lat="45.96882" lon="4.78732">
        <ele>202</ele>
        <time>2017-05-24T08:50:08Z</time>
      </trkpt>
      <trkpt lat="45.96885" lon="4.78738">
        <ele>202</ele>
        <time>2017-05-24T08:50:09Z</time>
      </trkpt>
      <trkpt lat="45.96887" lon="4.78744">
        <ele>202</ele>
        <time>2017-05-24T08:50:10Z</time>
      </trkpt>
      <trkpt lat="45.96891" lon="4.7875">
        <ele>201</ele>
        <time>2017-05-24T08:50:11Z</time>
      </trkpt>
      <trkpt lat="45.96893" lon="4.78756">
        <ele>201</ele>
        <time>2017-05-24T08:50:12Z</time>
      </trkpt>
      <trkpt lat="45.96898" lon="4.78767">
        <ele>201</ele>
        <time>2017-05-24T08:50:14Z</time>
      </trkpt>
      <trkpt lat="45.96901" lon="4.78773">
        <ele>201</ele>
        <time>2017-05-24T08:50:15Z</time>
      </trkpt>
      <trkpt lat="45.96905" lon="4.78783">
        <ele>201</ele>
        <time>2017-05-24T08:50:17Z</time>
      </trkpt>
      <trkpt lat="45.96908" lon="4.78788">
        <ele>201</ele>
        <time>2017-05-24T08:50:18Z</time>
      </trkpt>
      <trkpt lat="45.96911" lon="4.78798">
        <ele>201</ele>
        <time>2017-05-24T08:50:20Z</time>
      </trkpt>
      <trkpt lat="45.96914" lon="4.78803">
        <ele>200</ele>
        <time>2017-05-24T08:50:21Z</time>
      </trkpt>
      <trkpt lat="45.96917" lon="4.78808">
        <ele>202</ele>
        <time>2017-05-24T08:50:22Z</time>
      </trkpt>
      <trkpt lat="45.9692" lon="4.78813">
        <ele>202</ele>
        <time>2017-05-24T08:50:23Z</time>
      </trkpt>
      <trkpt lat="45.96923" lon="4.78819">
        <ele>202</ele>
        <time>2017-05-24T08:50:24Z</time>
      </trkpt>
      <trkpt lat="45.96927" lon="4.78824">
        <ele>202</ele>
        <time>2017-05-24T08:50:25Z</time>
      </trkpt>
      <trkpt lat="45.96931" lon="4.7883">
        <ele>202</ele>
        <time>2017-05-24T08:50:26Z</time>
      </trkpt>
      <trkpt lat="45.96935" lon="4.78835">
        <ele>202</ele>
        <time>2017-05-24T08:50:27Z</time>
      </trkpt>
      <trkpt lat="45.96939" lon="4.7884">
        <ele>202</ele>
        <time>2017-05-24T08:50:28Z</time>
      </trkpt>
      <trkpt lat="45.96943" lon="4.78845">
        <ele>202</ele>
        <time>2017-05-24T08:50:29Z</time>
      </trkpt>
      <trkpt lat="45.96947" lon="4.7885">
        <ele>202</ele>
        <time>2017-05-24T08:50:30Z</time>
      </trkpt>
      <trkpt lat="45.96951" lon="4.78854">
        <ele>203</ele>
        <time>2017-05-24T08:50:31Z</time>
      </trkpt>
      <trkpt lat="45.96955" lon="4.78859">
        <ele>203</ele>
        <time>2017-05-24T08:50:32Z</time>
      </trkpt>
      <trkpt lat="45.96959" lon="4.78863">
        <ele>203</ele>
        <time>2017-05-24T08:50:33Z</time>
      </trkpt>
      <trkpt lat="45.96963" lon="4.78867">
        <ele>203</ele>
        <time>2017-05-24T08:50:34Z</time>
      </trkpt>
      <trkpt lat="45.96967" lon="4.78871">
        <ele>203</ele>
        <time>2017-05-24T08:50:35Z</time>
      </trkpt>
      <trkpt lat="45.96973" lon="4.78879">
        <ele>203</ele>
        <time>2017-05-24T08:50:37Z</time>
      </trkpt>
      <trkpt lat="45.96976" lon="4.78884">
        <ele>203</ele>
        <time>2017-05-24T08:50:38Z</time>
      </trkpt>
      <trkpt lat="45.96979" lon="4.78888">
        <ele>203</ele>
        <time>2017-05-24T08:50:39Z</time>
      </trkpt>
      <trkpt lat="45.96983" lon="4.78892">
        <ele>203</ele>
        <time>2017-05-24T08:50:40Z</time>
      </trkpt>
      <trkpt lat="45.96986" lon="4.78896">
        <ele>203</ele>
        <time>2017-05-24T08:50:41Z</time>
      </trkpt>
      <trkpt lat="45.9699" lon="4.789">
        <ele>203</ele>
        <time>2017-05-24T08:50:42Z</time>
      </trkpt>
      <trkpt lat="45.96993" lon="4.78905">
        <ele>204</ele>
        <time>2017-05-24T08:50:43Z</time>
      </trkpt>
      <trkpt lat="45.96997" lon="4.7891">
        <ele>204</ele>
        <time>2017-05-24T08:50:44Z</time>
      </trkpt>
      <trkpt lat="45.97001" lon="4.78915">
        <ele>204</ele>
        <time>2017-05-24T08:50:45Z</time>
      </trkpt>
      <trkpt lat="45.97005" lon="4.78919">
        <ele>204</ele>
        <time>2017-05-24T08:50:46Z</time>
      </trkpt>
      <trkpt lat="45.97009" lon="4.78924">
        <ele>204</ele>
        <time>2017-05-24T08:50:47Z</time>
      </trkpt>
      <trkpt lat="45.97013" lon="4.78929">
        <ele>205</ele>
        <time>2017-05-24T08:50:48Z</time>
      </trkpt>
      <trkpt lat="45.97017" lon="4.78934">
        <ele>205</ele>
        <time>2017-05-24T08:50:49Z</time>
      </trkpt>
      <trkpt lat="45.9702" lon="4.78939">
        <ele>205</ele>
        <time>2017-05-24T08:50:50Z</time>
      </trkpt>
      <trkpt lat="45.97025" lon="4.78948">
        <ele>205</ele>
        <time>2017-05-24T08:50:52Z</time>
      </trkpt>
      <trkpt lat="45.97028" lon="4.78952">
        <ele>205</ele>
        <time>2017-05-24T08:50:53Z</time>
      </trkpt>
      <trkpt lat="45.97032" lon="4.78961">
        <ele>205</ele>
        <time>2017-05-24T08:50:55Z</time>
      </trkpt>
      <trkpt lat="45.97035" lon="4.78965">
        <ele>205</ele>
        <time>2017-05-24T08:50:56Z</time>
      </trkpt>
      <trkpt lat="45.97039" lon="4.78976">
        <ele>205</ele>
        <time>2017-05-24T08:50:59Z</time>
      </trkpt>
      <trkpt lat="45.97041" lon="4.7898">
        <ele>204</ele>
        <time>2017-05-24T08:51:00Z</time>
      </trkpt>
      <trkpt lat="45.97044" lon="4.78988">
        <ele>204</ele>
        <time>2017-05-24T08:51:02Z</time>
      </trkpt>
      <trkpt lat="45.97046" lon="4.78993">
        <ele>204</ele>
        <time>2017-05-24T08:51:03Z</time>
      </trkpt>
      <trkpt lat="45.97048" lon="4.78999">
        <ele>204</ele>
        <time>2017-05-24T08:51:04Z</time>
      </trkpt>
      <trkpt lat="45.9705" lon="4.79005">
        <ele>203</ele>
        <time>2017-05-24T08:51:05Z</time>
      </trkpt>
      <trkpt lat="45.97052" lon="4.79011">
        <ele>203</ele>
        <time>2017-05-24T08:51:06Z</time>
      </trkpt>
      <trkpt lat="45.97054" lon="4.79018">
        <ele>203</ele>
        <time>2017-05-24T08:51:07Z</time>
      </trkpt>
      <trkpt lat="45.97056" lon="4.79025">
        <ele>203</ele>
        <time>2017-05-24T08:51:08Z</time>
      </trkpt>
      <trkpt lat="45.97058" lon="4.79032">
        <ele>203</ele>
        <time>2017-05-24T08:51:09Z</time>
      </trkpt>
      <trkpt lat="45.9706" lon="4.79039">
        <ele>203</ele>
        <time>2017-05-24T08:51:10Z</time>
      </trkpt>
      <trkpt lat="45.97062" lon="4.79046">
        <ele>203</ele>
        <time>2017-05-24T08:51:11Z</time>
      </trkpt>
      <trkpt lat="45.97064" lon="4.79053">
        <ele>203</ele>
        <time>2017-05-24T08:51:12Z</time>
      </trkpt>
      <trkpt lat="45.97066" lon="4.79061">
        <ele>203</ele>
        <time>2017-05-24T08:51:13Z</time>
      </trkpt>
      <trkpt lat="45.97067" lon="4.79068">
        <ele>203</ele>
        <time>2017-05-24T08:51:14Z</time>
      </trkpt>
      <trkpt lat="45.97069" lon="4.79075">
        <ele>204</ele>
        <time>2017-05-24T08:51:15Z</time>
      </trkpt>
      <trkpt lat="45.97071" lon="4.79082">
        <ele>204</ele>
        <time>2017-05-24T08:51:16Z</time>
      </trkpt>
      <trkpt lat="45.97073" lon="4.79089">
        <ele>204</ele>
        <time>2017-05-24T08:51:17Z</time>
      </trkpt>
      <trkpt lat="45.97075" lon="4.79096">
        <ele>204</ele>
        <time>2017-05-24T08:51:18Z</time>
      </trkpt>
      <trkpt lat="45.97076" lon="4.79102">
        <ele>204</ele>
        <time>2017-05-24T08:51:19Z</time>
      </trkpt>
      <trkpt lat="45.97078" lon="4.79108">
        <ele>204</ele>
        <time>2017-05-24T08:51:20Z</time>
      </trkpt>
      <trkpt lat="45.9708" lon="4.79114">
        <ele>204</ele>
        <time>2017-05-24T08:51:21Z</time>
      </trkpt>
      <trkpt lat="45.97085" lon="4.79124">
        <ele>206</ele>
        <time>2017-05-24T08:51:23Z</time>
      </trkpt>
      <trkpt lat="45.97088" lon="4.7913">
        <ele>206</ele>
        <time>2017-05-24T08:51:24Z</time>
      </trkpt>
      <trkpt lat="45.97092" lon="4.79135">
        <ele>206</ele>
        <time>2017-05-24T08:51:25Z</time>
      </trkpt>
      <trkpt lat="45.97095" lon="4.79141">
        <ele>206</ele>
        <time>2017-05-24T08:51:26Z</time>
      </trkpt>
      <trkpt lat="45.97098" lon="4.79147">
        <ele>206</ele>
        <time>2017-05-24T08:51:27Z</time>
      </trkpt>
      <trkpt lat="45.97101" lon="4.79153">
        <ele>206</ele>
        <time>2017-05-24T08:51:28Z</time>
      </trkpt>
      <trkpt lat="45.97104" lon="4.79158">
        <ele>206</ele>
        <time>2017-05-24T08:51:29Z</time>
      </trkpt>
      <trkpt lat="45.97106" lon="4.79163">
        <ele>206</ele>
        <time>2017-05-24T08:51:30Z</time>
      </trkpt>
      <trkpt lat="45.97111" lon="4.79174">
        <ele>205</ele>
        <time>2017-05-24T08:51:32Z</time>
      </trkpt>
      <trkpt lat="45.97113" lon="4.7918">
        <ele>205</ele>
        <time>2017-05-24T08:51:33Z</time>
      </trkpt>
      <trkpt lat="45.97118" lon="4.7919">
        <ele>206</ele>
        <time>2017-05-24T08:51:35Z</time>
      </trkpt>
      <trkpt lat="45.9712" lon="4.79195">
        <ele>206</ele>
        <time>2017-05-24T08:51:36Z</time>
      </trkpt>
      <trkpt lat="45.97125" lon="4.79206">
        <ele>206</ele>
        <time>2017-05-24T08:51:38Z</time>
      </trkpt>
      <trkpt lat="45.97127" lon="4.79212">
        <ele>205</ele>
        <time>2017-05-24T08:51:39Z</time>
      </trkpt>
      <trkpt lat="45.97129" lon="4.79218">
        <ele>205</ele>
        <time>2017-05-24T08:51:40Z</time>
      </trkpt>
      <trkpt lat="45.97131" lon="4.79223">
        <ele>205</ele>
        <time>2017-05-24T08:51:41Z</time>
      </trkpt>
      <trkpt lat="45.97136" lon="4.79233">
        <ele>205</ele>
        <time>2017-05-24T08:51:43Z</time>
      </trkpt>
      <trkpt lat="45.97138" lon="4.79238">
        <ele>205</ele>
        <time>2017-05-24T08:51:44Z</time>
      </trkpt>
      <trkpt lat="45.97141" lon="4.79247">
        <ele>205</ele>
        <time>2017-05-24T08:51:46Z</time>
      </trkpt>
      <trkpt lat="45.97143" lon="4.79253">
        <ele>204</ele>
        <time>2017-05-24T08:51:47Z</time>
      </trkpt>
      <trkpt lat="45.97146" lon="4.79259">
        <ele>204</ele>
        <time>2017-05-24T08:51:48Z</time>
      </trkpt>
      <trkpt lat="45.97149" lon="4.79265">
        <ele>204</ele>
        <time>2017-05-24T08:51:49Z</time>
      </trkpt>
      <trkpt lat="45.97152" lon="4.79271">
        <ele>204</ele>
        <time>2017-05-24T08:51:50Z</time>
      </trkpt>
      <trkpt lat="45.97154" lon="4.79278">
        <ele>204</ele>
        <time>2017-05-24T08:51:51Z</time>
      </trkpt>
      <trkpt lat="45.97157" lon="4.79285">
        <ele>204</ele>
        <time>2017-05-24T08:51:52Z</time>
      </trkpt>
      <trkpt lat="45.97159" lon="4.79293">
        <ele>204</ele>
        <time>2017-05-24T08:51:53Z</time>
      </trkpt>
      <trkpt lat="45.97162" lon="4.79299">
        <ele>204</ele>
        <time>2017-05-24T08:51:54Z</time>
      </trkpt>
      <trkpt lat="45.97165" lon="4.79305">
        <ele>204</ele>
        <time>2017-05-24T08:51:55Z</time>
      </trkpt>
      <trkpt lat="45.97167" lon="4.79311">
        <ele>207</ele>
        <time>2017-05-24T08:51:56Z</time>
      </trkpt>
      <trkpt lat="45.97169" lon="4.79317">
        <ele>207</ele>
        <time>2017-05-24T08:51:57Z</time>
      </trkpt>
      <trkpt lat="45.97174" lon="4.79327">
        <ele>206</ele>
        <time>2017-05-24T08:51:59Z</time>
      </trkpt>
      <trkpt lat="45.97176" lon="4.79332">
        <ele>206</ele>
        <time>2017-05-24T08:52:00Z</time>
      </trkpt>
      <trkpt lat="45.97181" lon="4.79341">
        <ele>206</ele>
        <time>2017-05-24T08:52:02Z</time>
      </trkpt>
      <trkpt lat="45.97182" lon="4.79345">
        <ele>207</ele>
        <time>2017-05-24T08:52:03Z</time>
      </trkpt>
      <trkpt lat="45.97186" lon="4.79353">
        <ele>207</ele>
        <time>2017-05-24T08:52:05Z</time>
      </trkpt>
      <trkpt lat="45.97187" lon="4.79357">
        <ele>207</ele>
        <time>2017-05-24T08:52:06Z</time>
      </trkpt>
      <trkpt lat="45.97192" lon="4.79367">
        <ele>207</ele>
        <time>2017-05-24T08:52:09Z</time>
      </trkpt>
      <trkpt lat="45.97193" lon="4.79369">
        <ele>207</ele>
        <time>2017-05-24T08:52:10Z</time>
      </trkpt>
      <trkpt lat="45.97194" lon="4.79377">
        <ele>207</ele>
        <time>2017-05-24T08:52:13Z</time>
      </trkpt>
      <trkpt lat="45.97194" lon="4.79377">
        <ele>207</ele>
        <time>2017-05-24T08:52:14Z</time>
      </trkpt>
      <trkpt lat="45.97196" lon="4.79378">
        <ele>207</ele>
        <time>2017-05-24T08:52:50Z</time>
      </trkpt>
      <trkpt lat="45.97198" lon="4.79378">
        <ele>207</ele>
        <time>2017-05-24T08:52:51Z</time>
      </trkpt>
      <trkpt lat="45.97198" lon="4.79379">
        <ele>207</ele>
        <time>2017-05-24T08:53:00Z</time>
      </trkpt>
      <trkpt lat="45.97199" lon="4.79381">
        <ele>207</ele>
        <time>2017-05-24T08:53:01Z</time>
      </trkpt>
      <trkpt lat="45.97201" lon="4.79385">
        <ele>207</ele>
        <time>2017-05-24T08:53:02Z</time>
      </trkpt>
      <trkpt lat="45.97202" lon="4.79392">
        <ele>207</ele>
        <time>2017-05-24T08:53:03Z</time>
      </trkpt>
      <trkpt lat="45.97204" lon="4.79399">
        <ele>208</ele>
        <time>2017-05-24T08:53:04Z</time>
      </trkpt>
      <trkpt lat="45.97206" lon="4.79405">
        <ele>208</ele>
        <time>2017-05-24T08:53:05Z</time>
      </trkpt>
      <trkpt lat="45.97209" lon="4.79411">
        <ele>208</ele>
        <time>2017-05-24T08:53:06Z</time>
      </trkpt>
      <trkpt lat="45.97213" lon="4.7942">
        <ele>208</ele>
        <time>2017-05-24T08:53:08Z</time>
      </trkpt>
      <trkpt lat="45.97215" lon="4.79426">
        <ele>208</ele>
        <time>2017-05-24T08:53:09Z</time>
      </trkpt>
      <trkpt lat="45.97217" lon="4.79433">
        <ele>208</ele>
        <time>2017-05-24T08:53:10Z</time>
      </trkpt>
      <trkpt lat="45.9722" lon="4.79439">
        <ele>208</ele>
        <time>2017-05-24T08:53:11Z</time>
      </trkpt>
      <trkpt lat="45.97223" lon="4.79445">
        <ele>209</ele>
        <time>2017-05-24T08:53:12Z</time>
      </trkpt>
      <trkpt lat="45.97226" lon="4.79452">
        <ele>209</ele>
        <time>2017-05-24T08:53:13Z</time>
      </trkpt>
      <trkpt lat="45.97229" lon="4.79458">
        <ele>209</ele>
        <time>2017-05-24T08:53:14Z</time>
      </trkpt>
      <trkpt lat="45.97231" lon="4.79464">
        <ele>209</ele>
        <time>2017-05-24T08:53:15Z</time>
      </trkpt>
      <trkpt lat="45.97234" lon="4.79476">
        <ele>209</ele>
        <time>2017-05-24T08:53:17Z</time>
      </trkpt>
      <trkpt lat="45.97236" lon="4.79481">
        <ele>209</ele>
        <time>2017-05-24T08:53:18Z</time>
      </trkpt>
      <trkpt lat="45.97237" lon="4.79491">
        <ele>210</ele>
        <time>2017-05-24T08:53:20Z</time>
      </trkpt>
      <trkpt lat="45.97239" lon="4.79496">
        <ele>210</ele>
        <time>2017-05-24T08:53:21Z</time>
      </trkpt>
      <trkpt lat="45.97241" lon="4.79508">
        <ele>210</ele>
        <time>2017-05-24T08:53:23Z</time>
      </trkpt>
      <trkpt lat="45.97243" lon="4.79515">
        <ele>210</ele>
        <time>2017-05-24T08:53:24Z</time>
      </trkpt>
      <trkpt lat="45.97244" lon="4.79522">
        <ele>210</ele>
        <time>2017-05-24T08:53:25Z</time>
      </trkpt>
      <trkpt lat="45.97246" lon="4.79529">
        <ele>210</ele>
        <time>2017-05-24T08:53:26Z</time>
      </trkpt>
      <trkpt lat="45.97248" lon="4.79537">
        <ele>210</ele>
        <time>2017-05-24T08:53:27Z</time>
      </trkpt>
      <trkpt lat="45.97249" lon="4.79545">
        <ele>210</ele>
        <time>2017-05-24T08:53:28Z</time>
      </trkpt>
      <trkpt lat="45.9725" lon="4.79553">
        <ele>210</ele>
        <time>2017-05-24T08:53:29Z</time>
      </trkpt>
      <trkpt lat="45.97251" lon="4.7956">
        <ele>213</ele>
        <time>2017-05-24T08:53:30Z</time>
      </trkpt>
      <trkpt lat="45.97252" lon="4.79567">
        <ele>213</ele>
        <time>2017-05-24T08:53:31Z</time>
      </trkpt>
      <trkpt lat="45.97252" lon="4.79574">
        <ele>212</ele>
        <time>2017-05-24T08:53:32Z</time>
      </trkpt>
      <trkpt lat="45.97252" lon="4.79581">
        <ele>211</ele>
        <time>2017-05-24T08:53:33Z</time>
      </trkpt>
      <trkpt lat="45.97251" lon="4.79588">
        <ele>211</ele>
        <time>2017-05-24T08:53:34Z</time>
      </trkpt>
      <trkpt lat="45.97251" lon="4.79595">
        <ele>212</ele>
        <time>2017-05-24T08:53:35Z</time>
      </trkpt>
      <trkpt lat="45.97251" lon="4.79602">
        <ele>212</ele>
        <time>2017-05-24T08:53:36Z</time>
      </trkpt>
      <trkpt lat="45.97251" lon="4.79609">
        <ele>213</ele>
        <time>2017-05-24T08:53:37Z</time>
      </trkpt>
      <trkpt lat="45.97251" lon="4.79616">
        <ele>213</ele>
        <time>2017-05-24T08:53:38Z</time>
      </trkpt>
      <trkpt lat="45.97251" lon="4.79623">
        <ele>213</ele>
        <time>2017-05-24T08:53:39Z</time>
      </trkpt>
      <trkpt lat="45.97252" lon="4.7963">
        <ele>213</ele>
        <time>2017-05-24T08:53:40Z</time>
      </trkpt>
      <trkpt lat="45.97252" lon="4.79637">
        <ele>212</ele>
        <time>2017-05-24T08:53:41Z</time>
      </trkpt>
      <trkpt lat="45.97253" lon="4.79644">
        <ele>212</ele>
        <time>2017-05-24T08:53:42Z</time>
      </trkpt>
      <trkpt lat="45.97253" lon="4.79656">
        <ele>210</ele>
        <time>2017-05-24T08:53:44Z</time>
      </trkpt>
      <trkpt lat="45.97252" lon="4.79662">
        <ele>209</ele>
        <time>2017-05-24T08:53:45Z</time>
      </trkpt>
      <trkpt lat="45.97251" lon="4.79669">
        <ele>209</ele>
        <time>2017-05-24T08:53:46Z</time>
      </trkpt>
      <trkpt lat="45.97249" lon="4.79675">
        <ele>208</ele>
        <time>2017-05-24T08:53:47Z</time>
      </trkpt>
      <trkpt lat="45.97248" lon="4.79682">
        <ele>208</ele>
        <time>2017-05-24T08:53:48Z</time>
      </trkpt>
      <trkpt lat="45.97247" lon="4.79689">
        <ele>208</ele>
        <time>2017-05-24T08:53:49Z</time>
      </trkpt>
      <trkpt lat="45.97246" lon="4.79695">
        <ele>208</ele>
        <time>2017-05-24T08:53:50Z</time>
      </trkpt>
      <trkpt lat="45.97246" lon="4.79702">
        <ele>208</ele>
        <time>2017-05-24T08:53:51Z</time>
      </trkpt>
      <trkpt lat="45.97244" lon="4.79714">
        <ele>209</ele>
        <time>2017-05-24T08:53:53Z</time>
      </trkpt>
      <trkpt lat="45.97244" lon="4.79721">
        <ele>209</ele>
        <time>2017-05-24T08:53:54Z</time>
      </trkpt>
      <trkpt lat="45.97242" lon="4.79733">
        <ele>209</ele>
        <time>2017-05-24T08:53:56Z</time>
      </trkpt>
      <trkpt lat="45.97241" lon="4.79738">
        <ele>209</ele>
        <time>2017-05-24T08:53:57Z</time>
      </trkpt>
      <trkpt lat="45.9724" lon="4.7975">
        <ele>209</ele>
        <time>2017-05-24T08:53:59Z</time>
      </trkpt>
      <trkpt lat="45.97239" lon="4.79756">
        <ele>209</ele>
        <time>2017-05-24T08:54:00Z</time>
      </trkpt>
      <trkpt lat="45.97239" lon="4.79763">
        <ele>209</ele>
        <time>2017-05-24T08:54:01Z</time>
      </trkpt>
      <trkpt lat="45.97239" lon="4.7977">
        <ele>210</ele>
        <time>2017-05-24T08:54:02Z</time>
      </trkpt>
      <trkpt lat="45.97238" lon="4.79778">
        <ele>210</ele>
        <time>2017-05-24T08:54:03Z</time>
      </trkpt>
      <trkpt lat="45.97238" lon="4.79785">
        <ele>210</ele>
        <time>2017-05-24T08:54:04Z</time>
      </trkpt>
      <trkpt lat="45.97238" lon="4.79792">
        <ele>210</ele>
        <time>2017-05-24T08:54:05Z</time>
      </trkpt>
      <trkpt lat="45.97237" lon="4.798">
        <ele>210</ele>
        <time>2017-05-24T08:54:06Z</time>
      </trkpt>
      <trkpt lat="45.97237" lon="4.79807">
        <ele>210</ele>
        <time>2017-05-24T08:54:07Z</time>
      </trkpt>
      <trkpt lat="45.97236" lon="4.79813">
        <ele>211</ele>
        <time>2017-05-24T08:54:08Z</time>
      </trkpt>
      <trkpt lat="45.97236" lon="4.7982">
        <ele>211</ele>
        <time>2017-05-24T08:54:09Z</time>
      </trkpt>
      <trkpt lat="45.97236" lon="4.79827">
        <ele>211</ele>
        <time>2017-05-24T08:54:10Z</time>
      </trkpt>
      <trkpt lat="45.97236" lon="4.79839">
        <ele>211</ele>
        <time>2017-05-24T08:54:12Z</time>
      </trkpt>
      <trkpt lat="45.97237" lon="4.79846">
        <ele>211</ele>
        <time>2017-05-24T08:54:13Z</time>
      </trkpt>
      <trkpt lat="45.97237" lon="4.79853">
        <ele>211</ele>
        <time>2017-05-24T08:54:14Z</time>
      </trkpt>
      <trkpt lat="45.97239" lon="4.79861">
        <ele>211</ele>
        <time>2017-05-24T08:54:15Z</time>
      </trkpt>
      <trkpt lat="45.97241" lon="4.79868">
        <ele>211</ele>
        <time>2017-05-24T08:54:16Z</time>
      </trkpt>
      <trkpt lat="45.97243" lon="4.79875">
        <ele>211</ele>
        <time>2017-05-24T08:54:17Z</time>
      </trkpt>
      <trkpt lat="45.97246" lon="4.79886">
        <ele>211</ele>
        <time>2017-05-24T08:54:19Z</time>
      </trkpt>
      <trkpt lat="45.97247" lon="4.79891">
        <ele>211</ele>
        <time>2017-05-24T08:54:20Z</time>
      </trkpt>
      <trkpt lat="45.9725" lon="4.79901">
        <ele>211</ele>
        <time>2017-05-24T08:54:23Z</time>
      </trkpt>
      <trkpt lat="45.9725" lon="4.79903">
        <ele>213</ele>
        <time>2017-05-24T08:54:24Z</time>
      </trkpt>
      <trkpt lat="45.9725" lon="4.79915">
        <ele>212</ele>
        <time>2017-05-24T08:54:28Z</time>
      </trkpt>
      <trkpt lat="45.97247" lon="4.79916">
        <ele>212</ele>
        <time>2017-05-24T08:54:29Z</time>
      </trkpt>
      <trkpt lat="45.9724" lon="4.79917">
        <ele>212</ele>
        <time>2017-05-24T08:54:31Z</time>
      </trkpt>
      <trkpt lat="45.97236" lon="4.79918">
        <ele>211</ele>
        <time>2017-05-24T08:54:32Z</time>
      </trkpt>
      <trkpt lat="45.97231" lon="4.7992">
        <ele>211</ele>
        <time>2017-05-24T08:54:33Z</time>
      </trkpt>
      <trkpt lat="45.97227" lon="4.79921">
        <ele>211</ele>
        <time>2017-05-24T08:54:34Z</time>
      </trkpt>
      <trkpt lat="45.97218" lon="4.79923">
        <ele>211</ele>
        <time>2017-05-24T08:54:36Z</time>
      </trkpt>
      <trkpt lat="45.97213" lon="4.79924">
        <ele>211</ele>
        <time>2017-05-24T08:54:37Z</time>
      </trkpt>
      <trkpt lat="45.97208" lon="4.79924">
        <ele>211</ele>
        <time>2017-05-24T08:54:38Z</time>
      </trkpt>
      <trkpt lat="45.97203" lon="4.79925">
        <ele>211</ele>
        <time>2017-05-24T08:54:39Z</time>
      </trkpt>
      <trkpt lat="45.97195" lon="4.79927">
        <ele>211</ele>
        <time>2017-05-24T08:54:41Z</time>
      </trkpt>
      <trkpt lat="45.97191" lon="4.79927">
        <ele>211</ele>
        <time>2017-05-24T08:54:42Z</time>
      </trkpt>
      <trkpt lat="45.97183" lon="4.79929">
        <ele>210</ele>
        <time>2017-05-24T08:54:44Z</time>
      </trkpt>
      <trkpt lat="45.97178" lon="4.7993">
        <ele>210</ele>
        <time>2017-05-24T08:54:45Z</time>
      </trkpt>
      <trkpt lat="45.97173" lon="4.79931">
        <ele>210</ele>
        <time>2017-05-24T08:54:46Z</time>
      </trkpt>
      <trkpt lat="45.97168" lon="4.79932">
        <ele>210</ele>
        <time>2017-05-24T08:54:47Z</time>
      </trkpt>
      <trkpt lat="45.97159" lon="4.79933">
        <ele>210</ele>
        <time>2017-05-24T08:54:49Z</time>
      </trkpt>
      <trkpt lat="45.97154" lon="4.79932">
        <ele>211</ele>
        <time>2017-05-24T08:54:50Z</time>
      </trkpt>
      <trkpt lat="45.97145" lon="4.79933">
        <ele>211</ele>
        <time>2017-05-24T08:54:52Z</time>
      </trkpt>
      <trkpt lat="45.97141" lon="4.79933">
        <ele>211</ele>
        <time>2017-05-24T08:54:53Z</time>
      </trkpt>
      <trkpt lat="45.97137" lon="4.79933">
        <ele>211</ele>
        <time>2017-05-24T08:54:54Z</time>
      </trkpt>
      <trkpt lat="45.97132" lon="4.79935">
        <ele>211</ele>
        <time>2017-05-24T08:54:55Z</time>
      </trkpt>
      <trkpt lat="45.97123" lon="4.79939">
        <ele>211</ele>
        <time>2017-05-24T08:54:57Z</time>
      </trkpt>
      <trkpt lat="45.97119" lon="4.79941">
        <ele>211</ele>
        <time>2017-05-24T08:54:58Z</time>
      </trkpt>
      <trkpt lat="45.97111" lon="4.79945">
        <ele>211</ele>
        <time>2017-05-24T08:55:00Z</time>
      </trkpt>
      <trkpt lat="45.97107" lon="4.79947">
        <ele>211</ele>
        <time>2017-05-24T08:55:01Z</time>
      </trkpt>
      <trkpt lat="45.97099" lon="4.7995">
        <ele>211</ele>
        <time>2017-05-24T08:55:03Z</time>
      </trkpt>
      <trkpt lat="45.97095" lon="4.79952">
        <ele>211</ele>
        <time>2017-05-24T08:55:04Z</time>
      </trkpt>
      <trkpt lat="45.97087" lon="4.79955">
        <ele>211</ele>
        <time>2017-05-24T08:55:06Z</time>
      </trkpt>
      <trkpt lat="45.97083" lon="4.79957">
        <ele>213</ele>
        <time>2017-05-24T08:55:07Z</time>
      </trkpt>
      <trkpt lat="45.97078" lon="4.79958">
        <ele>213</ele>
        <time>2017-05-24T08:55:08Z</time>
      </trkpt>
      <trkpt lat="45.97074" lon="4.79959">
        <ele>213</ele>
        <time>2017-05-24T08:55:09Z</time>
      </trkpt>
      <trkpt lat="45.97066" lon="4.79961">
        <ele>213</ele>
        <time>2017-05-24T08:55:11Z</time>
      </trkpt>
      <trkpt lat="45.97062" lon="4.79961">
        <ele>213</ele>
        <time>2017-05-24T08:55:12Z</time>
      </trkpt>
      <trkpt lat="45.97057" lon="4.79961">
        <ele>213</ele>
        <time>2017-05-24T08:55:13Z</time>
      </trkpt>
      <trkpt lat="45.97052" lon="4.79961">
        <ele>213</ele>
        <time>2017-05-24T08:55:14Z</time>
      </trkpt>
      <trkpt lat="45.97047" lon="4.7996">
        <ele>213</ele>
        <time>2017-05-24T08:55:15Z</time>
      </trkpt>
      <trkpt lat="45.97041" lon="4.79959">
        <ele>213</ele>
        <time>2017-05-24T08:55:16Z</time>
      </trkpt>
      <trkpt lat="45.97036" lon="4.79957">
        <ele>213</ele>
        <time>2017-05-24T08:55:17Z</time>
      </trkpt>
      <trkpt lat="45.97031" lon="4.79956">
        <ele>213</ele>
        <time>2017-05-24T08:55:18Z</time>
      </trkpt>
      <trkpt lat="45.97026" lon="4.79955">
        <ele>213</ele>
        <time>2017-05-24T08:55:19Z</time>
      </trkpt>
      <trkpt lat="45.97021" lon="4.79954">
        <ele>213</ele>
        <time>2017-05-24T08:55:20Z</time>
      </trkpt>
      <trkpt lat="45.97016" lon="4.79954">
        <ele>213</ele>
        <time>2017-05-24T08:55:21Z</time>
      </trkpt>
      <trkpt lat="45.97011" lon="4.79952">
        <ele>213</ele>
        <time>2017-05-24T08:55:22Z</time>
      </trkpt>
      <trkpt lat="45.97006" lon="4.79951">
        <ele>213</ele>
        <time>2017-05-24T08:55:23Z</time>
      </trkpt>
      <trkpt lat="45.97002" lon="4.79951">
        <ele>213</ele>
        <time>2017-05-24T08:55:24Z</time>
      </trkpt>
      <trkpt lat="45.96997" lon="4.79951">
        <ele>213</ele>
        <time>2017-05-24T08:55:25Z</time>
      </trkpt>
      <trkpt lat="45.96992" lon="4.7995">
        <ele>213</ele>
        <time>2017-05-24T08:55:26Z</time>
      </trkpt>
      <trkpt lat="45.96986" lon="4.79949">
        <ele>213</ele>
        <time>2017-05-24T08:55:27Z</time>
      </trkpt>
      <trkpt lat="45.96981" lon="4.79949">
        <ele>213</ele>
        <time>2017-05-24T08:55:28Z</time>
      </trkpt>
      <trkpt lat="45.96976" lon="4.79948">
        <ele>213</ele>
        <time>2017-05-24T08:55:29Z</time>
      </trkpt>
      <trkpt lat="45.96971" lon="4.79947">
        <ele>213</ele>
        <time>2017-05-24T08:55:30Z</time>
      </trkpt>
      <trkpt lat="45.96966" lon="4.79946">
        <ele>213</ele>
        <time>2017-05-24T08:55:31Z</time>
      </trkpt>
      <trkpt lat="45.96961" lon="4.79945">
        <ele>213</ele>
        <time>2017-05-24T08:55:32Z</time>
      </trkpt>
      <trkpt lat="45.96956" lon="4.79944">
        <ele>213</ele>
        <time>2017-05-24T08:55:33Z</time>
      </trkpt>
      <trkpt lat="45.96951" lon="4.79945">
        <ele>213</ele>
        <time>2017-05-24T08:55:34Z</time>
      </trkpt>
      <trkpt lat="45.96945" lon="4.79951">
        <ele>213</ele>
        <time>2017-05-24T08:55:36Z</time>
      </trkpt>
      <trkpt lat="45.96945" lon="4.79956">
        <ele>213</ele>
        <time>2017-05-24T08:55:37Z</time>
      </trkpt>
      <trkpt lat="45.96949" lon="4.79967">
        <ele>213</ele>
        <time>2017-05-24T08:55:39Z</time>
      </trkpt>
      <trkpt lat="45.96951" lon="4.79972">
        <ele>213</ele>
        <time>2017-05-24T08:55:40Z</time>
      </trkpt>
      <trkpt lat="45.96955" lon="4.79977">
        <ele>213</ele>
        <time>2017-05-24T08:55:41Z</time>
      </trkpt>
      <trkpt lat="45.96958" lon="4.79982">
        <ele>213</ele>
        <time>2017-05-24T08:55:42Z</time>
      </trkpt>
      <trkpt lat="45.96961" lon="4.79988">
        <ele>213</ele>
        <time>2017-05-24T08:55:43Z</time>
      </trkpt>
      <trkpt lat="45.96965" lon="4.79994">
        <ele>213</ele>
        <time>2017-05-24T08:55:44Z</time>
      </trkpt>
      <trkpt lat="45.96968" lon="4.79999">
        <ele>213</ele>
        <time>2017-05-24T08:55:45Z</time>
      </trkpt>
      <trkpt lat="45.96971" lon="4.80004">
        <ele>214</ele>
        <time>2017-05-24T08:55:46Z</time>
      </trkpt>
      <trkpt lat="45.96978" lon="4.80012">
        <ele>214</ele>
        <time>2017-05-24T08:55:48Z</time>
      </trkpt>
      <trkpt lat="45.96981" lon="4.80016">
        <ele>214</ele>
        <time>2017-05-24T08:55:49Z</time>
      </trkpt>
      <trkpt lat="45.96986" lon="4.80024">
        <ele>214</ele>
        <time>2017-05-24T08:55:51Z</time>
      </trkpt>
      <trkpt lat="45.96988" lon="4.80028">
        <ele>214</ele>
        <time>2017-05-24T08:55:52Z</time>
      </trkpt>
      <trkpt lat="45.96994" lon="4.80035">
        <ele>214</ele>
        <time>2017-05-24T08:55:54Z</time>
      </trkpt>
      <trkpt lat="45.96997" lon="4.80037">
        <ele>214</ele>
        <time>2017-05-24T08:55:55Z</time>
      </trkpt>
      <trkpt lat="45.97004" lon="4.80042">
        <ele>214</ele>
        <time>2017-05-24T08:55:57Z</time>
      </trkpt>
      <trkpt lat="45.97009" lon="4.80044">
        <ele>214</ele>
        <time>2017-05-24T08:55:58Z</time>
      </trkpt>
      <trkpt lat="45.97016" lon="4.80048">
        <ele>214</ele>
        <time>2017-05-24T08:56:00Z</time>
      </trkpt>
      <trkpt lat="45.97018" lon="4.80051">
        <ele>214</ele>
        <time>2017-05-24T08:56:01Z</time>
      </trkpt>
      <trkpt lat="45.97019" lon="4.80062">
        <ele>215</ele>
        <time>2017-05-24T08:56:03Z</time>
      </trkpt>
      <trkpt lat="45.9702" lon="4.80067">
        <ele>215</ele>
        <time>2017-05-24T08:56:04Z</time>
      </trkpt>
      <trkpt lat="45.97023" lon="4.80079">
        <ele>215</ele>
        <time>2017-05-24T08:56:06Z</time>
      </trkpt>
      <trkpt lat="45.97025" lon="4.80084">
        <ele>216</ele>
        <time>2017-05-24T08:56:07Z</time>
      </trkpt>
      <trkpt lat="45.97031" lon="4.80092">
        <ele>216</ele>
        <time>2017-05-24T08:56:09Z</time>
      </trkpt>
      <trkpt lat="45.97034" lon="4.80096">
        <ele>216</ele>
        <time>2017-05-24T08:56:10Z</time>
      </trkpt>
      <trkpt lat="45.97039" lon="4.80103">
        <ele>216</ele>
        <time>2017-05-24T08:56:12Z</time>
      </trkpt>
      <trkpt lat="45.97041" lon="4.80106">
        <ele>217</ele>
        <time>2017-05-24T08:56:13Z</time>
      </trkpt>
      <trkpt lat="45.97045" lon="4.80113">
        <ele>217</ele>
        <time>2017-05-24T08:56:15Z</time>
      </trkpt>
      <trkpt lat="45.97047" lon="4.80116">
        <ele>217</ele>
        <time>2017-05-24T08:56:16Z</time>
      </trkpt>
      <trkpt lat="45.97052" lon="4.80122">
        <ele>217</ele>
        <time>2017-05-24T08:56:18Z</time>
      </trkpt>
      <trkpt lat="45.97055" lon="4.80126">
        <ele>217</ele>
        <time>2017-05-24T08:56:19Z</time>
      </trkpt>
      <trkpt lat="45.97061" lon="4.80135">
        <ele>217</ele>
        <time>2017-05-24T08:56:21Z</time>
      </trkpt>
      <trkpt lat="45.97064" lon="4.80139">
        <ele>218</ele>
        <time>2017-05-24T08:56:22Z</time>
      </trkpt>
      <trkpt lat="45.97068" lon="4.80144">
        <ele>218</ele>
        <time>2017-05-24T08:56:23Z</time>
      </trkpt>
      <trkpt lat="45.97071" lon="4.80149">
        <ele>218</ele>
        <time>2017-05-24T08:56:24Z</time>
      </trkpt>
      <trkpt lat="45.97075" lon="4.80154">
        <ele>219</ele>
        <time>2017-05-24T08:56:25Z</time>
      </trkpt>
      <trkpt lat="45.97079" lon="4.80159">
        <ele>219</ele>
        <time>2017-05-24T08:56:26Z</time>
      </trkpt>
      <trkpt lat="45.97085" lon="4.80166">
        <ele>220</ele>
        <time>2017-05-24T08:56:28Z</time>
      </trkpt>
      <trkpt lat="45.97088" lon="4.8017">
        <ele>220</ele>
        <time>2017-05-24T08:56:29Z</time>
      </trkpt>
      <trkpt lat="45.97092" lon="4.80177">
        <ele>220</ele>
        <time>2017-05-24T08:56:31Z</time>
      </trkpt>
      <trkpt lat="45.97094" lon="4.80181">
        <ele>220</ele>
        <time>2017-05-24T08:56:32Z</time>
      </trkpt>
      <trkpt lat="45.971" lon="4.80188">
        <ele>220</ele>
        <time>2017-05-24T08:56:34Z</time>
      </trkpt>
      <trkpt lat="45.97102" lon="4.80193">
        <ele>220</ele>
        <time>2017-05-24T08:56:35Z</time>
      </trkpt>
      <trkpt lat="45.97108" lon="4.80201">
        <ele>220</ele>
        <time>2017-05-24T08:56:37Z</time>
      </trkpt>
      <trkpt lat="45.97112" lon="4.80206">
        <ele>220</ele>
        <time>2017-05-24T08:56:38Z</time>
      </trkpt>
      <trkpt lat="45.97115" lon="4.8021">
        <ele>220</ele>
        <time>2017-05-24T08:56:39Z</time>
      </trkpt>
      <trkpt lat="45.97119" lon="4.80214">
        <ele>220</ele>
        <time>2017-05-24T08:56:40Z</time>
      </trkpt>
      <trkpt lat="45.97124" lon="4.80222">
        <ele>220</ele>
        <time>2017-05-24T08:56:42Z</time>
      </trkpt>
      <trkpt lat="45.97126" lon="4.80227">
        <ele>220</ele>
        <time>2017-05-24T08:56:43Z</time>
      </trkpt>
      <trkpt lat="45.9713" lon="4.80236">
        <ele>220</ele>
        <time>2017-05-24T08:56:45Z</time>
      </trkpt>
      <trkpt lat="45.97132" lon="4.80241">
        <ele>220</ele>
        <time>2017-05-24T08:56:46Z</time>
      </trkpt>
      <trkpt lat="45.97135" lon="4.8025">
        <ele>220</ele>
        <time>2017-05-24T08:56:48Z</time>
      </trkpt>
      <trkpt lat="45.97136" lon="4.80254">
        <ele>224</ele>
        <time>2017-05-24T08:56:49Z</time>
      </trkpt>
      <trkpt lat="45.97137" lon="4.80263">
        <ele>224</ele>
        <time>2017-05-24T08:56:51Z</time>
      </trkpt>
      <trkpt lat="45.97138" lon="4.80267">
        <ele>224</ele>
        <time>2017-05-24T08:56:52Z</time>
      </trkpt>
      <trkpt lat="45.97142" lon="4.80278">
        <ele>224</ele>
        <time>2017-05-24T08:56:55Z</time>
      </trkpt>
      <trkpt lat="45.97143" lon="4.80282">
        <ele>224</ele>
        <time>2017-05-24T08:56:56Z</time>
      </trkpt>
      <trkpt lat="45.97147" lon="4.80292">
        <ele>224</ele>
        <time>2017-05-24T08:56:59Z</time>
      </trkpt>
      <trkpt lat="45.97148" lon="4.80296">
        <ele>224</ele>
        <time>2017-05-24T08:57:00Z</time>
      </trkpt>
      <trkpt lat="45.97151" lon="4.80304">
        <ele>224</ele>
        <time>2017-05-24T08:57:02Z</time>
      </trkpt>
      <trkpt lat="45.97153" lon="4.80308">
        <ele>224</ele>
        <time>2017-05-24T08:57:03Z</time>
      </trkpt>
      <trkpt lat="45.97157" lon="4.80317">
        <ele>224</ele>
        <time>2017-05-24T08:57:05Z</time>
      </trkpt>
      <trkpt lat="45.97158" lon="4.80321">
        <ele>224</ele>
        <time>2017-05-24T08:57:06Z</time>
      </trkpt>
      <trkpt lat="45.97162" lon="4.80332">
        <ele>223</ele>
        <time>2017-05-24T08:57:08Z</time>
      </trkpt>
      <trkpt lat="45.97164" lon="4.80337">
        <ele>224</ele>
        <time>2017-05-24T08:57:09Z</time>
      </trkpt>
      <trkpt lat="45.97166" lon="4.80343">
        <ele>225</ele>
        <time>2017-05-24T08:57:10Z</time>
      </trkpt>
      <trkpt lat="45.97168" lon="4.80349">
        <ele>222</ele>
        <time>2017-05-24T08:57:11Z</time>
      </trkpt>
      <trkpt lat="45.97172" lon="4.80358">
        <ele>222</ele>
        <time>2017-05-24T08:57:13Z</time>
      </trkpt>
      <trkpt lat="45.97174" lon="4.80363">
        <ele>222</ele>
        <time>2017-05-24T08:57:14Z</time>
      </trkpt>
      <trkpt lat="45.97176" lon="4.80372">
        <ele>222</ele>
        <time>2017-05-24T08:57:16Z</time>
      </trkpt>
      <trkpt lat="45.97178" lon="4.80377">
        <ele>222</ele>
        <time>2017-05-24T08:57:17Z</time>
      </trkpt>
      <trkpt lat="45.97181" lon="4.80387">
        <ele>222</ele>
        <time>2017-05-24T08:57:19Z</time>
      </trkpt>
      <trkpt lat="45.97183" lon="4.80391">
        <ele>222</ele>
        <time>2017-05-24T08:57:20Z</time>
      </trkpt>
      <trkpt lat="45.97186" lon="4.804">
        <ele>223</ele>
        <time>2017-05-24T08:57:22Z</time>
      </trkpt>
      <trkpt lat="45.97187" lon="4.80406">
        <ele>223</ele>
        <time>2017-05-24T08:57:23Z</time>
      </trkpt>
      <trkpt lat="45.97191" lon="4.80417">
        <ele>223</ele>
        <time>2017-05-24T08:57:25Z</time>
      </trkpt>
      <trkpt lat="45.97193" lon="4.80423">
        <ele>225</ele>
        <time>2017-05-24T08:57:26Z</time>
      </trkpt>
      <trkpt lat="45.97195" lon="4.80429">
        <ele>225</ele>
        <time>2017-05-24T08:57:27Z</time>
      </trkpt>
      <trkpt lat="45.97197" lon="4.80436">
        <ele>225</ele>
        <time>2017-05-24T08:57:28Z</time>
      </trkpt>
      <trkpt lat="45.972" lon="4.80442">
        <ele>225</ele>
        <time>2017-05-24T08:57:29Z</time>
      </trkpt>
      <trkpt lat="45.97202" lon="4.80449">
        <ele>225</ele>
        <time>2017-05-24T08:57:30Z</time>
      </trkpt>
      <trkpt lat="45.97206" lon="4.80459">
        <ele>225</ele>
        <time>2017-05-24T08:57:32Z</time>
      </trkpt>
      <trkpt lat="45.97208" lon="4.80464">
        <ele>225</ele>
        <time>2017-05-24T08:57:33Z</time>
      </trkpt>
      <trkpt lat="45.97211" lon="4.80472">
        <ele>225</ele>
        <time>2017-05-24T08:57:35Z</time>
      </trkpt>
      <trkpt lat="45.97212" lon="4.80477">
        <ele>225</ele>
        <time>2017-05-24T08:57:36Z</time>
      </trkpt>
      <trkpt lat="45.97215" lon="4.80487">
        <ele>225</ele>
        <time>2017-05-24T08:57:38Z</time>
      </trkpt>
      <trkpt lat="45.97217" lon="4.80493">
        <ele>225</ele>
        <time>2017-05-24T08:57:39Z</time>
      </trkpt>
      <trkpt lat="45.9722" lon="4.80504">
        <ele>227</ele>
        <time>2017-05-24T08:57:41Z</time>
      </trkpt>
      <trkpt lat="45.97222" lon="4.80511">
        <ele>227</ele>
        <time>2017-05-24T08:57:42Z</time>
      </trkpt>
      <trkpt lat="45.97224" lon="4.80517">
        <ele>227</ele>
        <time>2017-05-24T08:57:43Z</time>
      </trkpt>
      <trkpt lat="45.97225" lon="4.80523">
        <ele>227</ele>
        <time>2017-05-24T08:57:44Z</time>
      </trkpt>
      <trkpt lat="45.97226" lon="4.8053">
        <ele>227</ele>
        <time>2017-05-24T08:57:45Z</time>
      </trkpt>
      <trkpt lat="45.97227" lon="4.80536">
        <ele>227</ele>
        <time>2017-05-24T08:57:46Z</time>
      </trkpt>
      <trkpt lat="45.97229" lon="4.80542">
        <ele>228</ele>
        <time>2017-05-24T08:57:47Z</time>
      </trkpt>
      <trkpt lat="45.97231" lon="4.80548">
        <ele>228</ele>
        <time>2017-05-24T08:57:48Z</time>
      </trkpt>
      <trkpt lat="45.97232" lon="4.80555">
        <ele>228</ele>
        <time>2017-05-24T08:57:49Z</time>
      </trkpt>
      <trkpt lat="45.97233" lon="4.80561">
        <ele>228</ele>
        <time>2017-05-24T08:57:50Z</time>
      </trkpt>
      <trkpt lat="45.97235" lon="4.80568">
        <ele>228</ele>
        <time>2017-05-24T08:57:51Z</time>
      </trkpt>
      <trkpt lat="45.97236" lon="4.80574">
        <ele>228</ele>
        <time>2017-05-24T08:57:52Z</time>
      </trkpt>
      <trkpt lat="45.97238" lon="4.80585">
        <ele>228</ele>
        <time>2017-05-24T08:57:54Z</time>
      </trkpt>
      <trkpt lat="45.97238" lon="4.8059">
        <ele>228</ele>
        <time>2017-05-24T08:57:55Z</time>
      </trkpt>
      <trkpt lat="45.97239" lon="4.806">
        <ele>228</ele>
        <time>2017-05-24T08:57:57Z</time>
      </trkpt>
      <trkpt lat="45.97239" lon="4.80606">
        <ele>228</ele>
        <time>2017-05-24T08:57:58Z</time>
      </trkpt>
      <trkpt lat="45.97239" lon="4.80616">
        <ele>229</ele>
        <time>2017-05-24T08:58:00Z</time>
      </trkpt>
      <trkpt lat="45.97239" lon="4.80622">
        <ele>229</ele>
        <time>2017-05-24T08:58:01Z</time>
      </trkpt>
      <trkpt lat="45.9724" lon="4.80633">
        <ele>229</ele>
        <time>2017-05-24T08:58:03Z</time>
      </trkpt>
      <trkpt lat="45.97241" lon="4.80638">
        <ele>229</ele>
        <time>2017-05-24T08:58:04Z</time>
      </trkpt>
      <trkpt lat="45.97242" lon="4.8065">
        <ele>229</ele>
        <time>2017-05-24T08:58:06Z</time>
      </trkpt>
      <trkpt lat="45.97242" lon="4.80656">
        <ele>228</ele>
        <time>2017-05-24T08:58:07Z</time>
      </trkpt>
      <trkpt lat="45.97243" lon="4.80668">
        <ele>228</ele>
        <time>2017-05-24T08:58:09Z</time>
      </trkpt>
      <trkpt lat="45.97243" lon="4.80674">
        <ele>228</ele>
        <time>2017-05-24T08:58:10Z</time>
      </trkpt>
      <trkpt lat="45.97244" lon="4.80686">
        <ele>229</ele>
        <time>2017-05-24T08:58:12Z</time>
      </trkpt>
      <trkpt lat="45.97243" lon="4.80692">
        <ele>229</ele>
        <time>2017-05-24T08:58:13Z</time>
      </trkpt>
      <trkpt lat="45.97244" lon="4.80704">
        <ele>229</ele>
        <time>2017-05-24T08:58:15Z</time>
      </trkpt>
      <trkpt lat="45.97244" lon="4.8071">
        <ele>229</ele>
        <time>2017-05-24T08:58:16Z</time>
      </trkpt>
      <trkpt lat="45.97245" lon="4.80722">
        <ele>229</ele>
        <time>2017-05-24T08:58:18Z</time>
      </trkpt>
      <trkpt lat="45.97245" lon="4.80729">
        <ele>229</ele>
        <time>2017-05-24T08:58:19Z</time>
      </trkpt>
      <trkpt lat="45.97245" lon="4.80735">
        <ele>229</ele>
        <time>2017-05-24T08:58:20Z</time>
      </trkpt>
      <trkpt lat="45.97245" lon="4.80742">
        <ele>228</ele>
        <time>2017-05-24T08:58:21Z</time>
      </trkpt>
      <trkpt lat="45.97246" lon="4.80748">
        <ele>228</ele>
        <time>2017-05-24T08:58:22Z</time>
      </trkpt>
      <trkpt lat="45.97246" lon="4.80755">
        <ele>228</ele>
        <time>2017-05-24T08:58:23Z</time>
      </trkpt>
      <trkpt lat="45.97246" lon="4.80767">
        <ele>229</ele>
        <time>2017-05-24T08:58:25Z</time>
      </trkpt>
      <trkpt lat="45.97247" lon="4.80773">
        <ele>229</ele>
        <time>2017-05-24T08:58:26Z</time>
      </trkpt>
      <trkpt lat="45.97246" lon="4.80786">
        <ele>229</ele>
        <time>2017-05-24T08:58:28Z</time>
      </trkpt>
      <trkpt lat="45.97247" lon="4.80792">
        <ele>229</ele>
        <time>2017-05-24T08:58:29Z</time>
      </trkpt>
      <trkpt lat="45.97248" lon="4.80805">
        <ele>228</ele>
        <time>2017-05-24T08:58:31Z</time>
      </trkpt>
      <trkpt lat="45.9725" lon="4.80811">
        <ele>228</ele>
        <time>2017-05-24T08:58:32Z</time>
      </trkpt>
      <trkpt lat="45.97252" lon="4.80817">
        <ele>227</ele>
        <time>2017-05-24T08:58:33Z</time>
      </trkpt>
      <trkpt lat="45.97254" lon="4.80824">
        <ele>227</ele>
        <time>2017-05-24T08:58:34Z</time>
      </trkpt>
      <trkpt lat="45.97256" lon="4.80829">
        <ele>227</ele>
        <time>2017-05-24T08:58:35Z</time>
      </trkpt>
      <trkpt lat="45.97259" lon="4.80834">
        <ele>227</ele>
        <time>2017-05-24T08:58:36Z</time>
      </trkpt>
      <trkpt lat="45.97264" lon="4.80843">
        <ele>227</ele>
        <time>2017-05-24T08:58:38Z</time>
      </trkpt>
      <trkpt lat="45.97267" lon="4.80846">
        <ele>227</ele>
        <time>2017-05-24T08:58:39Z</time>
      </trkpt>
      <trkpt lat="45.97273" lon="4.80851">
        <ele>227</ele>
        <time>2017-05-24T08:58:41Z</time>
      </trkpt>
      <trkpt lat="45.97277" lon="4.80854">
        <ele>227</ele>
        <time>2017-05-24T08:58:42Z</time>
      </trkpt>
      <trkpt lat="45.97281" lon="4.80856">
        <ele>228</ele>
        <time>2017-05-24T08:58:43Z</time>
      </trkpt>
      <trkpt lat="45.97286" lon="4.80857">
        <ele>228</ele>
        <time>2017-05-24T08:58:44Z</time>
      </trkpt>
      <trkpt lat="45.97291" lon="4.80859">
        <ele>228</ele>
        <time>2017-05-24T08:58:45Z</time>
      </trkpt>
      <trkpt lat="45.97296" lon="4.8086">
        <ele>228</ele>
        <time>2017-05-24T08:58:46Z</time>
      </trkpt>
      <trkpt lat="45.97304" lon="4.80862">
        <ele>228</ele>
        <time>2017-05-24T08:58:48Z</time>
      </trkpt>
      <trkpt lat="45.97308" lon="4.80864">
        <ele>228</ele>
        <time>2017-05-24T08:58:49Z</time>
      </trkpt>
      <trkpt lat="45.97315" lon="4.8087">
        <ele>228</ele>
        <time>2017-05-24T08:58:51Z</time>
      </trkpt>
      <trkpt lat="45.97318" lon="4.80873">
        <ele>228</ele>
        <time>2017-05-24T08:58:52Z</time>
      </trkpt>
      <trkpt lat="45.97324" lon="4.8088">
        <ele>228</ele>
        <time>2017-05-24T08:58:54Z</time>
      </trkpt>
      <trkpt lat="45.97327" lon="4.80884">
        <ele>228</ele>
        <time>2017-05-24T08:58:55Z</time>
      </trkpt>
      <trkpt lat="45.9733" lon="4.80889">
        <ele>228</ele>
        <time>2017-05-24T08:58:56Z</time>
      </trkpt>
      <trkpt lat="45.97333" lon="4.80894">
        <ele>229</ele>
        <time>2017-05-24T08:58:57Z</time>
      </trkpt>
      <trkpt lat="45.97337" lon="4.80905">
        <ele>230</ele>
        <time>2017-05-24T08:58:59Z</time>
      </trkpt>
      <trkpt lat="45.97339" lon="4.80911">
        <ele>230</ele>
        <time>2017-05-24T08:59:00Z</time>
      </trkpt>
      <trkpt lat="45.97343" lon="4.80922">
        <ele>231</ele>
        <time>2017-05-24T08:59:02Z</time>
      </trkpt>
      <trkpt lat="45.97344" lon="4.80928">
        <ele>231</ele>
        <time>2017-05-24T08:59:03Z</time>
      </trkpt>
      <trkpt lat="45.97346" lon="4.80941">
        <ele>231</ele>
        <time>2017-05-24T08:59:05Z</time>
      </trkpt>
      <trkpt lat="45.97347" lon="4.80947">
        <ele>231</ele>
        <time>2017-05-24T08:59:06Z</time>
      </trkpt>
      <trkpt lat="45.97349" lon="4.80954">
        <ele>231</ele>
        <time>2017-05-24T08:59:07Z</time>
      </trkpt>
      <trkpt lat="45.9735" lon="4.8096">
        <ele>231</ele>
        <time>2017-05-24T08:59:08Z</time>
      </trkpt>
      <trkpt lat="45.97352" lon="4.80972">
        <ele>232</ele>
        <time>2017-05-24T08:59:10Z</time>
      </trkpt>
      <trkpt lat="45.97353" lon="4.80977">
        <ele>232</ele>
        <time>2017-05-24T08:59:11Z</time>
      </trkpt>
      <trkpt lat="45.97355" lon="4.80987">
        <ele>232</ele>
        <time>2017-05-24T08:59:13Z</time>
      </trkpt>
      <trkpt lat="45.97356" lon="4.80992">
        <ele>232</ele>
        <time>2017-05-24T08:59:14Z</time>
      </trkpt>
      <trkpt lat="45.97357" lon="4.81001">
        <ele>233</ele>
        <time>2017-05-24T08:59:16Z</time>
      </trkpt>
      <trkpt lat="45.97356" lon="4.81007">
        <ele>233</ele>
        <time>2017-05-24T08:59:17Z</time>
      </trkpt>
      <trkpt lat="45.97357" lon="4.81018">
        <ele>233</ele>
        <time>2017-05-24T08:59:19Z</time>
      </trkpt>
      <trkpt lat="45.97358" lon="4.81023">
        <ele>233</ele>
        <time>2017-05-24T08:59:20Z</time>
      </trkpt>
      <trkpt lat="45.9736" lon="4.81034">
        <ele>233</ele>
        <time>2017-05-24T08:59:22Z</time>
      </trkpt>
      <trkpt lat="45.97362" lon="4.8104">
        <ele>233</ele>
        <time>2017-05-24T08:59:23Z</time>
      </trkpt>
      <trkpt lat="45.97365" lon="4.81051">
        <ele>233</ele>
        <time>2017-05-24T08:59:25Z</time>
      </trkpt>
      <trkpt lat="45.97367" lon="4.81057">
        <ele>233</ele>
        <time>2017-05-24T08:59:26Z</time>
      </trkpt>
      <trkpt lat="45.9737" lon="4.81066">
        <ele>233</ele>
        <time>2017-05-24T08:59:28Z</time>
      </trkpt>
      <trkpt lat="45.97372" lon="4.81071">
        <ele>233</ele>
        <time>2017-05-24T08:59:29Z</time>
      </trkpt>
      <trkpt lat="45.97375" lon="4.8108">
        <ele>234</ele>
        <time>2017-05-24T08:59:31Z</time>
      </trkpt>
      <trkpt lat="45.97377" lon="4.81084">
        <ele>235</ele>
        <time>2017-05-24T08:59:32Z</time>
      </trkpt>
      <trkpt lat="45.97381" lon="4.81095">
        <ele>235</ele>
        <time>2017-05-24T08:59:34Z</time>
      </trkpt>
      <trkpt lat="45.97384" lon="4.811">
        <ele>235</ele>
        <time>2017-05-24T08:59:35Z</time>
      </trkpt>
      <trkpt lat="45.97384" lon="4.81107">
        <ele>235</ele>
        <time>2017-05-24T08:59:36Z</time>
      </trkpt>
      <trkpt lat="45.97385" lon="4.81114">
        <ele>235</ele>
        <time>2017-05-24T08:59:37Z</time>
      </trkpt>
      <trkpt lat="45.97385" lon="4.81122">
        <ele>235</ele>
        <time>2017-05-24T08:59:38Z</time>
      </trkpt>
      <trkpt lat="45.97385" lon="4.81128">
        <ele>236</ele>
        <time>2017-05-24T08:59:39Z</time>
      </trkpt>
      <trkpt lat="45.97385" lon="4.81135">
        <ele>236</ele>
        <time>2017-05-24T08:59:40Z</time>
      </trkpt>
      <trkpt lat="45.97386" lon="4.81142">
        <ele>236</ele>
        <time>2017-05-24T08:59:41Z</time>
      </trkpt>
      <trkpt lat="45.97386" lon="4.81153">
        <ele>236</ele>
        <time>2017-05-24T08:59:43Z</time>
      </trkpt>
      <trkpt lat="45.97386" lon="4.81159">
        <ele>236</ele>
        <time>2017-05-24T08:59:44Z</time>
      </trkpt>
      <trkpt lat="45.97386" lon="4.81165">
        <ele>236</ele>
        <time>2017-05-24T08:59:45Z</time>
      </trkpt>
      <trkpt lat="45.97387" lon="4.81172">
        <ele>237</ele>
        <time>2017-05-24T08:59:46Z</time>
      </trkpt>
      <trkpt lat="45.97387" lon="4.81178">
        <ele>237</ele>
        <time>2017-05-24T08:59:47Z</time>
      </trkpt>
      <trkpt lat="45.97388" lon="4.81185">
        <ele>237</ele>
        <time>2017-05-24T08:59:48Z</time>
      </trkpt>
      <trkpt lat="45.97389" lon="4.81197">
        <ele>237</ele>
        <time>2017-05-24T08:59:50Z</time>
      </trkpt>
      <trkpt lat="45.97389" lon="4.81202">
        <ele>237</ele>
        <time>2017-05-24T08:59:51Z</time>
      </trkpt>
      <trkpt lat="45.97389" lon="4.81213">
        <ele>237</ele>
        <time>2017-05-24T08:59:53Z</time>
      </trkpt>
      <trkpt lat="45.97389" lon="4.81218">
        <ele>237</ele>
        <time>2017-05-24T08:59:54Z</time>
      </trkpt>
      <trkpt lat="45.97389" lon="4.81227">
        <ele>237</ele>
        <time>2017-05-24T08:59:56Z</time>
      </trkpt>
      <trkpt lat="45.97388" lon="4.81233">
        <ele>237</ele>
        <time>2017-05-24T08:59:57Z</time>
      </trkpt>
      <trkpt lat="45.97388" lon="4.81243">
        <ele>237</ele>
        <time>2017-05-24T08:59:59Z</time>
      </trkpt>
      <trkpt lat="45.97388" lon="4.81248">
        <ele>237</ele>
        <time>2017-05-24T09:00:00Z</time>
      </trkpt>
      <trkpt lat="45.97386" lon="4.81258">
        <ele>238</ele>
        <time>2017-05-24T09:00:02Z</time>
      </trkpt>
      <trkpt lat="45.97385" lon="4.81263">
        <ele>238</ele>
        <time>2017-05-24T09:00:03Z</time>
      </trkpt>
      <trkpt lat="45.97385" lon="4.81275">
        <ele>238</ele>
        <time>2017-05-24T09:00:05Z</time>
      </trkpt>
      <trkpt lat="45.97384" lon="4.81281">
        <ele>238</ele>
        <time>2017-05-24T09:00:06Z</time>
      </trkpt>
      <trkpt lat="45.97383" lon="4.81287">
        <ele>238</ele>
        <time>2017-05-24T09:00:07Z</time>
      </trkpt>
      <trkpt lat="45.97382" lon="4.81294">
        <ele>238</ele>
        <time>2017-05-24T09:00:08Z</time>
      </trkpt>
      <trkpt lat="45.97381" lon="4.81301">
        <ele>238</ele>
        <time>2017-05-24T09:00:09Z</time>
      </trkpt>
      <trkpt lat="45.9738" lon="4.81308">
        <ele>238</ele>
        <time>2017-05-24T09:00:10Z</time>
      </trkpt>
      <trkpt lat="45.97378" lon="4.8132">
        <ele>238</ele>
        <time>2017-05-24T09:00:12Z</time>
      </trkpt>
      <trkpt lat="45.97378" lon="4.81325">
        <ele>238</ele>
        <time>2017-05-24T09:00:13Z</time>
      </trkpt>
      <trkpt lat="45.97377" lon="4.81333">
        <ele>238</ele>
        <time>2017-05-24T09:00:15Z</time>
      </trkpt>
      <trkpt lat="45.97377" lon="4.81338">
        <ele>239</ele>
        <time>2017-05-24T09:00:16Z</time>
      </trkpt>
      <trkpt lat="45.97377" lon="4.81347">
        <ele>239</ele>
        <time>2017-05-24T09:00:18Z</time>
      </trkpt>
      <trkpt lat="45.97377" lon="4.81352">
        <ele>239</ele>
        <time>2017-05-24T09:00:19Z</time>
      </trkpt>
      <trkpt lat="45.97377" lon="4.81362">
        <ele>239</ele>
        <time>2017-05-24T09:00:21Z</time>
      </trkpt>
      <trkpt lat="45.97378" lon="4.81368">
        <ele>239</ele>
        <time>2017-05-24T09:00:22Z</time>
      </trkpt>
      <trkpt lat="45.97379" lon="4.8138">
        <ele>239</ele>
        <time>2017-05-24T09:00:24Z</time>
      </trkpt>
      <trkpt lat="45.9738" lon="4.81386">
        <ele>239</ele>
        <time>2017-05-24T09:00:25Z</time>
      </trkpt>
      <trkpt lat="45.97382" lon="4.81395">
        <ele>240</ele>
        <time>2017-05-24T09:00:27Z</time>
      </trkpt>
      <trkpt lat="45.97384" lon="4.81399">
        <ele>240</ele>
        <time>2017-05-24T09:00:28Z</time>
      </trkpt>
      <trkpt lat="45.97388" lon="4.8141">
        <ele>240</ele>
        <time>2017-05-24T09:00:31Z</time>
      </trkpt>
      <trkpt lat="45.9739" lon="4.81413">
        <ele>240</ele>
        <time>2017-05-24T09:00:32Z</time>
      </trkpt>
      <trkpt lat="45.97394" lon="4.81423">
        <ele>241</ele>
        <time>2017-05-24T09:00:36Z</time>
      </trkpt>
      <trkpt lat="45.97395" lon="4.81424">
        <ele>241</ele>
        <time>2017-05-24T09:00:37Z</time>
      </trkpt>
      <trkpt lat="45.974" lon="4.81431">
        <ele>241</ele>
        <time>2017-05-24T09:01:54Z</time>
      </trkpt>
      <trkpt lat="45.97402" lon="4.81434">
        <ele>241</ele>
        <time>2017-05-24T09:01:55Z</time>
      </trkpt>
      <trkpt lat="45.97406" lon="4.8144">
        <ele>241</ele>
        <time>2017-05-24T09:01:57Z</time>
      </trkpt>
      <trkpt lat="45.97409" lon="4.81443">
        <ele>241</ele>
        <time>2017-05-24T09:01:58Z</time>
      </trkpt>
      <trkpt lat="45.97414" lon="4.8145">
        <ele>241</ele>
        <time>2017-05-24T09:02:00Z</time>
      </trkpt>
      <trkpt lat="45.97417" lon="4.81454">
        <ele>243</ele>
        <time>2017-05-24T09:02:01Z</time>
      </trkpt>
      <trkpt lat="45.97423" lon="4.81464">
        <ele>243</ele>
        <time>2017-05-24T09:02:03Z</time>
      </trkpt>
      <trkpt lat="45.97425" lon="4.81469">
        <ele>243</ele>
        <time>2017-05-24T09:02:04Z</time>
      </trkpt>
      <trkpt lat="45.97428" lon="4.81478">
        <ele>243</ele>
        <time>2017-05-24T09:02:06Z</time>
      </trkpt>
      <trkpt lat="45.97429" lon="4.81483">
        <ele>243</ele>
        <time>2017-05-24T09:02:07Z</time>
      </trkpt>
      <trkpt lat="45.97431" lon="4.81493">
        <ele>243</ele>
        <time>2017-05-24T09:02:09Z</time>
      </trkpt>
      <trkpt lat="45.97432" lon="4.81497">
        <ele>243</ele>
        <time>2017-05-24T09:02:10Z</time>
      </trkpt>
      <trkpt lat="45.97433" lon="4.81507">
        <ele>244</ele>
        <time>2017-05-24T09:02:12Z</time>
      </trkpt>
      <trkpt lat="45.97433" lon="4.81513">
        <ele>244</ele>
        <time>2017-05-24T09:02:13Z</time>
      </trkpt>
      <trkpt lat="45.97434" lon="4.81522">
        <ele>245</ele>
        <time>2017-05-24T09:02:15Z</time>
      </trkpt>
      <trkpt lat="45.97434" lon="4.81527">
        <ele>245</ele>
        <time>2017-05-24T09:02:16Z</time>
      </trkpt>
      <trkpt lat="45.97434" lon="4.81536">
        <ele>245</ele>
        <time>2017-05-24T09:02:18Z</time>
      </trkpt>
      <trkpt lat="45.97434" lon="4.81541">
        <ele>245</ele>
        <time>2017-05-24T09:02:19Z</time>
      </trkpt>
      <trkpt lat="45.97435" lon="4.81549">
        <ele>246</ele>
        <time>2017-05-24T09:02:21Z</time>
      </trkpt>
      <trkpt lat="45.97435" lon="4.81555">
        <ele>246</ele>
        <time>2017-05-24T09:02:22Z</time>
      </trkpt>
      <trkpt lat="45.97433" lon="4.81567">
        <ele>246</ele>
        <time>2017-05-24T09:02:24Z</time>
      </trkpt>
      <trkpt lat="45.97433" lon="4.81574">
        <ele>246</ele>
        <time>2017-05-24T09:02:25Z</time>
      </trkpt>
      <trkpt lat="45.97432" lon="4.81586">
        <ele>247</ele>
        <time>2017-05-24T09:02:27Z</time>
      </trkpt>
      <trkpt lat="45.97432" lon="4.81592">
        <ele>247</ele>
        <time>2017-05-24T09:02:28Z</time>
      </trkpt>
      <trkpt lat="45.97432" lon="4.81603">
        <ele>247</ele>
        <time>2017-05-24T09:02:30Z</time>
      </trkpt>
      <trkpt lat="45.97432" lon="4.81608">
        <ele>248</ele>
        <time>2017-05-24T09:02:31Z</time>
      </trkpt>
      <trkpt lat="45.97432" lon="4.81618">
        <ele>248</ele>
        <time>2017-05-24T09:02:33Z</time>
      </trkpt>
      <trkpt lat="45.97432" lon="4.81623">
        <ele>248</ele>
        <time>2017-05-24T09:02:34Z</time>
      </trkpt>
      <trkpt lat="45.97432" lon="4.81636">
        <ele>248</ele>
        <time>2017-05-24T09:02:36Z</time>
      </trkpt>
      <trkpt lat="45.97432" lon="4.81642">
        <ele>248</ele>
        <time>2017-05-24T09:02:37Z</time>
      </trkpt>
      <trkpt lat="45.97432" lon="4.81649">
        <ele>248</ele>
        <time>2017-05-24T09:02:38Z</time>
      </trkpt>
      <trkpt lat="45.97432" lon="4.81656">
        <ele>248</ele>
        <time>2017-05-24T09:02:39Z</time>
      </trkpt>
      <trkpt lat="45.97432" lon="4.81663">
        <ele>248</ele>
        <time>2017-05-24T09:02:40Z</time>
      </trkpt>
      <trkpt lat="45.97432" lon="4.8167">
        <ele>249</ele>
        <time>2017-05-24T09:02:41Z</time>
      </trkpt>
      <trkpt lat="45.97433" lon="4.81678">
        <ele>249</ele>
        <time>2017-05-24T09:02:42Z</time>
      </trkpt>
      <trkpt lat="45.97433" lon="4.81685">
        <ele>249</ele>
        <time>2017-05-24T09:02:43Z</time>
      </trkpt>
      <trkpt lat="45.97432" lon="4.81692">
        <ele>250</ele>
        <time>2017-05-24T09:02:44Z</time>
      </trkpt>
      <trkpt lat="45.97432" lon="4.81699">
        <ele>250</ele>
        <time>2017-05-24T09:02:45Z</time>
      </trkpt>
      <trkpt lat="45.97432" lon="4.8171">
        <ele>250</ele>
        <time>2017-05-24T09:02:47Z</time>
      </trkpt>
      <trkpt lat="45.97432" lon="4.81715">
        <ele>250</ele>
        <time>2017-05-24T09:02:48Z</time>
      </trkpt>
      <trkpt lat="45.97432" lon="4.81726">
        <ele>250</ele>
        <time>2017-05-24T09:02:50Z</time>
      </trkpt>
      <trkpt lat="45.97432" lon="4.81732">
        <ele>250</ele>
        <time>2017-05-24T09:02:51Z</time>
      </trkpt>
      <trkpt lat="45.97432" lon="4.81744">
        <ele>250</ele>
        <time>2017-05-24T09:02:53Z</time>
      </trkpt>
      <trkpt lat="45.97432" lon="4.8175">
        <ele>251</ele>
        <time>2017-05-24T09:02:54Z</time>
      </trkpt>
      <trkpt lat="45.97432" lon="4.81763">
        <ele>251</ele>
        <time>2017-05-24T09:02:56Z</time>
      </trkpt>
      <trkpt lat="45.97432" lon="4.81769">
        <ele>251</ele>
        <time>2017-05-24T09:02:57Z</time>
      </trkpt>
      <trkpt lat="45.97432" lon="4.8178">
        <ele>251</ele>
        <time>2017-05-24T09:02:59Z</time>
      </trkpt>
      <trkpt lat="45.97432" lon="4.81786">
        <ele>252</ele>
        <time>2017-05-24T09:03:00Z</time>
      </trkpt>
      <trkpt lat="45.97434" lon="4.81798">
        <ele>252</ele>
        <time>2017-05-24T09:03:02Z</time>
      </trkpt>
      <trkpt lat="45.97434" lon="4.81803">
        <ele>252</ele>
        <time>2017-05-24T09:03:03Z</time>
      </trkpt>
      <trkpt lat="45.97436" lon="4.81813">
        <ele>252</ele>
        <time>2017-05-24T09:03:05Z</time>
      </trkpt>
      <trkpt lat="45.97436" lon="4.81817">
        <ele>252</ele>
        <time>2017-05-24T09:03:06Z</time>
      </trkpt>
      <trkpt lat="45.97438" lon="4.81829">
        <ele>252</ele>
        <time>2017-05-24T09:03:09Z</time>
      </trkpt>
      <trkpt lat="45.97438" lon="4.81835">
        <ele>253</ele>
        <time>2017-05-24T09:03:10Z</time>
      </trkpt>
      <trkpt lat="45.97439" lon="4.81846">
        <ele>253</ele>
        <time>2017-05-24T09:03:12Z</time>
      </trkpt>
      <trkpt lat="45.97439" lon="4.81852">
        <ele>253</ele>
        <time>2017-05-24T09:03:13Z</time>
      </trkpt>
      <trkpt lat="45.9744" lon="4.81863">
        <ele>253</ele>
        <time>2017-05-24T09:03:15Z</time>
      </trkpt>
      <trkpt lat="45.9744" lon="4.81868">
        <ele>253</ele>
        <time>2017-05-24T09:03:16Z</time>
      </trkpt>
      <trkpt lat="45.97442" lon="4.8188">
        <ele>253</ele>
        <time>2017-05-24T09:03:19Z</time>
      </trkpt>
      <trkpt lat="45.97442" lon="4.81884">
        <ele>253</ele>
        <time>2017-05-24T09:03:20Z</time>
      </trkpt>
      <trkpt lat="45.97443" lon="4.81894">
        <ele>253</ele>
        <time>2017-05-24T09:03:22Z</time>
      </trkpt>
      <trkpt lat="45.97444" lon="4.81899">
        <ele>253</ele>
        <time>2017-05-24T09:03:23Z</time>
      </trkpt>
      <trkpt lat="45.97445" lon="4.8191">
        <ele>253</ele>
        <time>2017-05-24T09:03:25Z</time>
      </trkpt>
      <trkpt lat="45.97446" lon="4.81916">
        <ele>253</ele>
        <time>2017-05-24T09:03:26Z</time>
      </trkpt>
      <trkpt lat="45.97447" lon="4.81928">
        <ele>254</ele>
        <time>2017-05-24T09:03:29Z</time>
      </trkpt>
      <trkpt lat="45.97447" lon="4.81932">
        <ele>255</ele>
        <time>2017-05-24T09:03:30Z</time>
      </trkpt>
      <trkpt lat="45.97449" lon="4.81944">
        <ele>255</ele>
        <time>2017-05-24T09:03:34Z</time>
      </trkpt>
      <trkpt lat="45.9745" lon="4.81947">
        <ele>255</ele>
        <time>2017-05-24T09:03:35Z</time>
      </trkpt>
      <trkpt lat="45.97451" lon="4.81957">
        <ele>255</ele>
        <time>2017-05-24T09:03:38Z</time>
      </trkpt>
      <trkpt lat="45.9745" lon="4.8196">
        <ele>255</ele>
        <time>2017-05-24T09:03:39Z</time>
      </trkpt>
      <trkpt lat="45.97451" lon="4.81969">
        <ele>255</ele>
        <time>2017-05-24T09:03:42Z</time>
      </trkpt>
      <trkpt lat="45.97452" lon="4.81973">
        <ele>255</ele>
        <time>2017-05-24T09:03:43Z</time>
      </trkpt>
      <trkpt lat="45.97453" lon="4.81982">
        <ele>255</ele>
        <time>2017-05-24T09:03:45Z</time>
      </trkpt>
      <trkpt lat="45.97454" lon="4.81987">
        <ele>255</ele>
        <time>2017-05-24T09:03:46Z</time>
      </trkpt>
      <trkpt lat="45.97454" lon="4.81997">
        <ele>255</ele>
        <time>2017-05-24T09:03:48Z</time>
      </trkpt>
      <trkpt lat="45.97455" lon="4.82">
        <ele>257</ele>
        <time>2017-05-24T09:03:49Z</time>
      </trkpt>
      <trkpt lat="45.97455" lon="4.82012">
        <ele>257</ele>
        <time>2017-05-24T09:03:53Z</time>
      </trkpt>
      <trkpt lat="45.97456" lon="4.82016">
        <ele>257</ele>
        <time>2017-05-24T09:03:54Z</time>
      </trkpt>
      <trkpt lat="45.97456" lon="4.82024">
        <ele>257</ele>
        <time>2017-05-24T09:03:56Z</time>
      </trkpt>
      <trkpt lat="45.97457" lon="4.82029">
        <ele>257</ele>
        <time>2017-05-24T09:03:57Z</time>
      </trkpt>
      <trkpt lat="45.97458" lon="4.82038">
        <ele>258</ele>
        <time>2017-05-24T09:03:59Z</time>
      </trkpt>
      <trkpt lat="45.97458" lon="4.82042">
        <ele>258</ele>
        <time>2017-05-24T09:04:00Z</time>
      </trkpt>
      <trkpt lat="45.9746" lon="4.82052">
        <ele>258</ele>
        <time>2017-05-24T09:04:03Z</time>
      </trkpt>
      <trkpt lat="45.9746" lon="4.82056">
        <ele>258</ele>
        <time>2017-05-24T09:04:04Z</time>
      </trkpt>
      <trkpt lat="45.9746" lon="4.82068">
        <ele>258</ele>
        <time>2017-05-24T09:04:08Z</time>
      </trkpt>
      <trkpt lat="45.97459" lon="4.82072">
        <ele>258</ele>
        <time>2017-05-24T09:04:09Z</time>
      </trkpt>
      <trkpt lat="45.97458" lon="4.82084">
        <ele>260</ele>
        <time>2017-05-24T09:04:13Z</time>
      </trkpt>
      <trkpt lat="45.97457" lon="4.82087">
        <ele>260</ele>
        <time>2017-05-24T09:04:14Z</time>
      </trkpt>
      <trkpt lat="45.97456" lon="4.82094">
        <ele>260</ele>
        <time>2017-05-24T09:04:16Z</time>
      </trkpt>
      <trkpt lat="45.97455" lon="4.82099">
        <ele>260</ele>
        <time>2017-05-24T09:04:17Z</time>
      </trkpt>
      <trkpt lat="45.97452" lon="4.82109">
        <ele>260</ele>
        <time>2017-05-24T09:04:19Z</time>
      </trkpt>
      <trkpt lat="45.9745" lon="4.82114">
        <ele>260</ele>
        <time>2017-05-24T09:04:20Z</time>
      </trkpt>
      <trkpt lat="45.97445" lon="4.82122">
        <ele>260</ele>
        <time>2017-05-24T09:04:22Z</time>
      </trkpt>
      <trkpt lat="45.97444" lon="4.82125">
        <ele>260</ele>
        <time>2017-05-24T09:04:23Z</time>
      </trkpt>
      <trkpt lat="45.97439" lon="4.82136">
        <ele>261</ele>
        <time>2017-05-24T09:04:26Z</time>
      </trkpt>
      <trkpt lat="45.97437" lon="4.82139">
        <ele>261</ele>
        <time>2017-05-24T09:04:27Z</time>
      </trkpt>
      <trkpt lat="45.9743" lon="4.82147">
        <ele>261</ele>
        <time>2017-05-24T09:04:29Z</time>
      </trkpt>
      <trkpt lat="45.97427" lon="4.82151">
        <ele>261</ele>
        <time>2017-05-24T09:04:30Z</time>
      </trkpt>
      <trkpt lat="45.97422" lon="4.82158">
        <ele>261</ele>
        <time>2017-05-24T09:04:32Z</time>
      </trkpt>
      <trkpt lat="45.9742" lon="4.8216">
        <ele>261</ele>
        <time>2017-05-24T09:04:33Z</time>
      </trkpt>
      <trkpt lat="45.97415" lon="4.82167">
        <ele>261</ele>
        <time>2017-05-24T09:04:35Z</time>
      </trkpt>
      <trkpt lat="45.97413" lon="4.82169">
        <ele>261</ele>
        <time>2017-05-24T09:04:36Z</time>
      </trkpt>
      <trkpt lat="45.97408" lon="4.82176">
        <ele>262</ele>
        <time>2017-05-24T09:04:38Z</time>
      </trkpt>
      <trkpt lat="45.97406" lon="4.82179">
        <ele>262</ele>
        <time>2017-05-24T09:04:39Z</time>
      </trkpt>
      <trkpt lat="45.97399" lon="4.82187">
        <ele>262</ele>
        <time>2017-05-24T09:04:42Z</time>
      </trkpt>
      <trkpt lat="45.97398" lon="4.82189">
        <ele>262</ele>
        <time>2017-05-24T09:04:43Z</time>
      </trkpt>
      <trkpt lat="45.97394" lon="4.82197">
        <ele>262</ele>
        <time>2017-05-24T09:04:45Z</time>
      </trkpt>
      <trkpt lat="45.97392" lon="4.82201">
        <ele>263</ele>
        <time>2017-05-24T09:04:46Z</time>
      </trkpt>
      <trkpt lat="45.97388" lon="4.82211">
        <ele>263</ele>
        <time>2017-05-24T09:04:48Z</time>
      </trkpt>
      <trkpt lat="45.97387" lon="4.82217">
        <ele>263</ele>
        <time>2017-05-24T09:04:49Z</time>
      </trkpt>
      <trkpt lat="45.97384" lon="4.82227">
        <ele>263</ele>
        <time>2017-05-24T09:04:51Z</time>
      </trkpt>
      <trkpt lat="45.97383" lon="4.82232">
        <ele>263</ele>
        <time>2017-05-24T09:04:52Z</time>
      </trkpt>
      <trkpt lat="45.97382" lon="4.82241">
        <ele>263</ele>
        <time>2017-05-24T09:04:54Z</time>
      </trkpt>
      <trkpt lat="45.97382" lon="4.82245">
        <ele>263</ele>
        <time>2017-05-24T09:04:55Z</time>
      </trkpt>
      <trkpt lat="45.97382" lon="4.82254">
        <ele>263</ele>
        <time>2017-05-24T09:04:57Z</time>
      </trkpt>
      <trkpt lat="45.97381" lon="4.82258">
        <ele>263</ele>
        <time>2017-05-24T09:04:58Z</time>
      </trkpt>
      <trkpt lat="45.97381" lon="4.82268">
        <ele>263</ele>
        <time>2017-05-24T09:05:00Z</time>
      </trkpt>
      <trkpt lat="45.97381" lon="4.82273">
        <ele>263</ele>
        <time>2017-05-24T09:05:01Z</time>
      </trkpt>
      <trkpt lat="45.97381" lon="4.82283">
        <ele>263</ele>
        <time>2017-05-24T09:05:03Z</time>
      </trkpt>
      <trkpt lat="45.97381" lon="4.82287">
        <ele>263</ele>
        <time>2017-05-24T09:05:04Z</time>
      </trkpt>
      <trkpt lat="45.9738" lon="4.823">
        <ele>263</ele>
        <time>2017-05-24T09:05:07Z</time>
      </trkpt>
      <trkpt lat="45.97379" lon="4.82304">
        <ele>263</ele>
        <time>2017-05-24T09:05:08Z</time>
      </trkpt>
      <trkpt lat="45.97379" lon="4.82313">
        <ele>263</ele>
        <time>2017-05-24T09:05:10Z</time>
      </trkpt>
      <trkpt lat="45.97379" lon="4.82318">
        <ele>263</ele>
        <time>2017-05-24T09:05:11Z</time>
      </trkpt>
      <trkpt lat="45.97378" lon="4.82327">
        <ele>263</ele>
        <time>2017-05-24T09:05:13Z</time>
      </trkpt>
      <trkpt lat="45.97378" lon="4.82331">
        <ele>263</ele>
        <time>2017-05-24T09:05:14Z</time>
      </trkpt>
      <trkpt lat="45.97378" lon="4.82342">
        <ele>263</ele>
        <time>2017-05-24T09:05:16Z</time>
      </trkpt>
      <trkpt lat="45.97378" lon="4.82347">
        <ele>263</ele>
        <time>2017-05-24T09:05:17Z</time>
      </trkpt>
      <trkpt lat="45.97377" lon="4.82359">
        <ele>263</ele>
        <time>2017-05-24T09:05:19Z</time>
      </trkpt>
      <trkpt lat="45.97377" lon="4.82364">
        <ele>263</ele>
        <time>2017-05-24T09:05:20Z</time>
      </trkpt>
      <trkpt lat="45.97377" lon="4.82375">
        <ele>263</ele>
        <time>2017-05-24T09:05:22Z</time>
      </trkpt>
      <trkpt lat="45.97377" lon="4.82381">
        <ele>263</ele>
        <time>2017-05-24T09:05:23Z</time>
      </trkpt>
      <trkpt lat="45.97377" lon="4.82391">
        <ele>263</ele>
        <time>2017-05-24T09:05:25Z</time>
      </trkpt>
      <trkpt lat="45.97376" lon="4.82397">
        <ele>263</ele>
        <time>2017-05-24T09:05:26Z</time>
      </trkpt>
      <trkpt lat="45.97376" lon="4.82408">
        <ele>263</ele>
        <time>2017-05-24T09:05:28Z</time>
      </trkpt>
      <trkpt lat="45.97376" lon="4.82413">
        <ele>263</ele>
        <time>2017-05-24T09:05:29Z</time>
      </trkpt>
      <trkpt lat="45.97376" lon="4.82424">
        <ele>262</ele>
        <time>2017-05-24T09:05:31Z</time>
      </trkpt>
      <trkpt lat="45.97376" lon="4.8243">
        <ele>262</ele>
        <time>2017-05-24T09:05:32Z</time>
      </trkpt>
      <trkpt lat="45.97377" lon="4.8244">
        <ele>262</ele>
        <time>2017-05-24T09:05:34Z</time>
      </trkpt>
      <trkpt lat="45.97377" lon="4.82445">
        <ele>262</ele>
        <time>2017-05-24T09:05:35Z</time>
      </trkpt>
      <trkpt lat="45.97377" lon="4.82457">
        <ele>262</ele>
        <time>2017-05-24T09:05:37Z</time>
      </trkpt>
      <trkpt lat="45.97377" lon="4.82464">
        <ele>262</ele>
        <time>2017-05-24T09:05:38Z</time>
      </trkpt>
      <trkpt lat="45.97377" lon="4.82476">
        <ele>262</ele>
        <time>2017-05-24T09:05:40Z</time>
      </trkpt>
      <trkpt lat="45.97377" lon="4.82483">
        <ele>262</ele>
        <time>2017-05-24T09:05:41Z</time>
      </trkpt>
      <trkpt lat="45.97378" lon="4.82495">
        <ele>262</ele>
        <time>2017-05-24T09:05:43Z</time>
      </trkpt>
      <trkpt lat="45.97378" lon="4.82501">
        <ele>262</ele>
        <time>2017-05-24T09:05:44Z</time>
      </trkpt>
      <trkpt lat="45.97379" lon="4.82513">
        <ele>262</ele>
        <time>2017-05-24T09:05:46Z</time>
      </trkpt>
      <trkpt lat="45.9738" lon="4.82519">
        <ele>262</ele>
        <time>2017-05-24T09:05:47Z</time>
      </trkpt>
      <trkpt lat="45.97381" lon="4.8253">
        <ele>262</ele>
        <time>2017-05-24T09:05:49Z</time>
      </trkpt>
      <trkpt lat="45.97381" lon="4.82536">
        <ele>262</ele>
        <time>2017-05-24T09:05:50Z</time>
      </trkpt>
      <trkpt lat="45.97383" lon="4.82549">
        <ele>262</ele>
        <time>2017-05-24T09:05:52Z</time>
      </trkpt>
      <trkpt lat="45.97383" lon="4.82555">
        <ele>262</ele>
        <time>2017-05-24T09:05:53Z</time>
      </trkpt>
      <trkpt lat="45.97384" lon="4.82568">
        <ele>262</ele>
        <time>2017-05-24T09:05:55Z</time>
      </trkpt>
      <trkpt lat="45.97385" lon="4.82574">
        <ele>262</ele>
        <time>2017-05-24T09:05:56Z</time>
      </trkpt>
      <trkpt lat="45.97386" lon="4.82585">
        <ele>262</ele>
        <time>2017-05-24T09:05:58Z</time>
      </trkpt>
      <trkpt lat="45.97387" lon="4.82591">
        <ele>262</ele>
        <time>2017-05-24T09:05:59Z</time>
      </trkpt>
      <trkpt lat="45.97389" lon="4.82601">
        <ele>262</ele>
        <time>2017-05-24T09:06:01Z</time>
      </trkpt>
      <trkpt lat="45.97389" lon="4.82606">
        <ele>262</ele>
        <time>2017-05-24T09:06:02Z</time>
      </trkpt>
      <trkpt lat="45.97391" lon="4.82617">
        <ele>262</ele>
        <time>2017-05-24T09:06:04Z</time>
      </trkpt>
      <trkpt lat="45.97391" lon="4.82623">
        <ele>262</ele>
        <time>2017-05-24T09:06:05Z</time>
      </trkpt>
      <trkpt lat="45.97393" lon="4.82636">
        <ele>262</ele>
        <time>2017-05-24T09:06:07Z</time>
      </trkpt>
      <trkpt lat="45.97394" lon="4.82641">
        <ele>262</ele>
        <time>2017-05-24T09:06:08Z</time>
      </trkpt>
      <trkpt lat="45.97395" lon="4.82652">
        <ele>262</ele>
        <time>2017-05-24T09:06:10Z</time>
      </trkpt>
      <trkpt lat="45.97397" lon="4.82657">
        <ele>262</ele>
        <time>2017-05-24T09:06:11Z</time>
      </trkpt>
      <trkpt lat="45.97399" lon="4.82668">
        <ele>263</ele>
        <time>2017-05-24T09:06:13Z</time>
      </trkpt>
      <trkpt lat="45.974" lon="4.82674">
        <ele>263</ele>
        <time>2017-05-24T09:06:14Z</time>
      </trkpt>
      <trkpt lat="45.97401" lon="4.82686">
        <ele>263</ele>
        <time>2017-05-24T09:06:16Z</time>
      </trkpt>
      <trkpt lat="45.97402" lon="4.82692">
        <ele>262</ele>
        <time>2017-05-24T09:06:17Z</time>
      </trkpt>
      <trkpt lat="45.97404" lon="4.82703">
        <ele>262</ele>
        <time>2017-05-24T09:06:19Z</time>
      </trkpt>
      <trkpt lat="45.97405" lon="4.82708">
        <ele>262</ele>
        <time>2017-05-24T09:06:20Z</time>
      </trkpt>
      <trkpt lat="45.97407" lon="4.8272">
        <ele>263</ele>
        <time>2017-05-24T09:06:22Z</time>
      </trkpt>
      <trkpt lat="45.97408" lon="4.82726">
        <ele>263</ele>
        <time>2017-05-24T09:06:23Z</time>
      </trkpt>
      <trkpt lat="45.9741" lon="4.82738">
        <ele>263</ele>
        <time>2017-05-24T09:06:25Z</time>
      </trkpt>
      <trkpt lat="45.97411" lon="4.82743">
        <ele>263</ele>
        <time>2017-05-24T09:06:26Z</time>
      </trkpt>
      <trkpt lat="45.97413" lon="4.82753">
        <ele>263</ele>
        <time>2017-05-24T09:06:28Z</time>
      </trkpt>
      <trkpt lat="45.97413" lon="4.82758">
        <ele>263</ele>
        <time>2017-05-24T09:06:29Z</time>
      </trkpt>
      <trkpt lat="45.97416" lon="4.82768">
        <ele>263</ele>
        <time>2017-05-24T09:06:31Z</time>
      </trkpt>
      <trkpt lat="45.97416" lon="4.82773">
        <ele>264</ele>
        <time>2017-05-24T09:06:32Z</time>
      </trkpt>
      <trkpt lat="45.97418" lon="4.82785">
        <ele>265</ele>
        <time>2017-05-24T09:06:34Z</time>
      </trkpt>
      <trkpt lat="45.97419" lon="4.82791">
        <ele>265</ele>
        <time>2017-05-24T09:06:35Z</time>
      </trkpt>
      <trkpt lat="45.9742" lon="4.82797">
        <ele>265</ele>
        <time>2017-05-24T09:06:36Z</time>
      </trkpt>
      <trkpt lat="45.97421" lon="4.82804">
        <ele>265</ele>
        <time>2017-05-24T09:06:37Z</time>
      </trkpt>
      <trkpt lat="45.97424" lon="4.82816">
        <ele>266</ele>
        <time>2017-05-24T09:06:39Z</time>
      </trkpt>
      <trkpt lat="45.97424" lon="4.82821">
        <ele>266</ele>
        <time>2017-05-24T09:06:40Z</time>
      </trkpt>
      <trkpt lat="45.97426" lon="4.82832">
        <ele>266</ele>
        <time>2017-05-24T09:06:42Z</time>
      </trkpt>
      <trkpt lat="45.97426" lon="4.82836">
        <ele>266</ele>
        <time>2017-05-24T09:06:43Z</time>
      </trkpt>
      <trkpt lat="45.97428" lon="4.82845">
        <ele>267</ele>
        <time>2017-05-24T09:06:45Z</time>
      </trkpt>
      <trkpt lat="45.97429" lon="4.8285">
        <ele>267</ele>
        <time>2017-05-24T09:06:46Z</time>
      </trkpt>
      <trkpt lat="45.97431" lon="4.82862">
        <ele>267</ele>
        <time>2017-05-24T09:06:48Z</time>
      </trkpt>
      <trkpt lat="45.97432" lon="4.82868">
        <ele>267</ele>
        <time>2017-05-24T09:06:49Z</time>
      </trkpt>
      <trkpt lat="45.97434" lon="4.8288">
        <ele>267</ele>
        <time>2017-05-24T09:06:51Z</time>
      </trkpt>
      <trkpt lat="45.97434" lon="4.82884">
        <ele>267</ele>
        <time>2017-05-24T09:06:52Z</time>
      </trkpt>
      <trkpt lat="45.97435" lon="4.82897">
        <ele>267</ele>
        <time>2017-05-24T09:06:55Z</time>
      </trkpt>
      <trkpt lat="45.97436" lon="4.82901">
        <ele>267</ele>
        <time>2017-05-24T09:06:56Z</time>
      </trkpt>
      <trkpt lat="45.97437" lon="4.8291">
        <ele>267</ele>
        <time>2017-05-24T09:06:58Z</time>
      </trkpt>
      <trkpt lat="45.97438" lon="4.82914">
        <ele>267</ele>
        <time>2017-05-24T09:06:59Z</time>
      </trkpt>
      <trkpt lat="45.9744" lon="4.82922">
        <ele>268</ele>
        <time>2017-05-24T09:07:01Z</time>
      </trkpt>
      <trkpt lat="45.97441" lon="4.82926">
        <ele>268</ele>
        <time>2017-05-24T09:07:02Z</time>
      </trkpt>
      <trkpt lat="45.97442" lon="4.82937">
        <ele>268</ele>
        <time>2017-05-24T09:07:04Z</time>
      </trkpt>
      <trkpt lat="45.97443" lon="4.82943">
        <ele>269</ele>
        <time>2017-05-24T09:07:05Z</time>
      </trkpt>
      <trkpt lat="45.97445" lon="4.82955">
        <ele>269</ele>
        <time>2017-05-24T09:07:07Z</time>
      </trkpt>
      <trkpt lat="45.97447" lon="4.82961">
        <ele>269</ele>
        <time>2017-05-24T09:07:08Z</time>
      </trkpt>
      <trkpt lat="45.97449" lon="4.82968">
        <ele>269</ele>
        <time>2017-05-24T09:07:09Z</time>
      </trkpt>
      <trkpt lat="45.9745" lon="4.82974">
        <ele>269</ele>
        <time>2017-05-24T09:07:10Z</time>
      </trkpt>
      <trkpt lat="45.97452" lon="4.82984">
        <ele>269</ele>
        <time>2017-05-24T09:07:12Z</time>
      </trkpt>
      <trkpt lat="45.97453" lon="4.82988">
        <ele>269</ele>
        <time>2017-05-24T09:07:13Z</time>
      </trkpt>
      <trkpt lat="45.97457" lon="4.83">
        <ele>269</ele>
        <time>2017-05-24T09:07:16Z</time>
      </trkpt>
      <trkpt lat="45.97457" lon="4.83003">
        <ele>270</ele>
        <time>2017-05-24T09:07:17Z</time>
      </trkpt>
      <trkpt lat="45.9746" lon="4.83014">
        <ele>270</ele>
        <time>2017-05-24T09:07:20Z</time>
      </trkpt>
      <trkpt lat="45.97461" lon="4.83018">
        <ele>270</ele>
        <time>2017-05-24T09:07:21Z</time>
      </trkpt>
      <trkpt lat="45.97463" lon="4.83026">
        <ele>270</ele>
        <time>2017-05-24T09:07:23Z</time>
      </trkpt>
      <trkpt lat="45.97464" lon="4.83031">
        <ele>271</ele>
        <time>2017-05-24T09:07:24Z</time>
      </trkpt>
      <trkpt lat="45.97467" lon="4.83041">
        <ele>271</ele>
        <time>2017-05-24T09:07:26Z</time>
      </trkpt>
      <trkpt lat="45.97469" lon="4.83047">
        <ele>271</ele>
        <time>2017-05-24T09:07:27Z</time>
      </trkpt>
      <trkpt lat="45.97471" lon="4.83054">
        <ele>271</ele>
        <time>2017-05-24T09:07:28Z</time>
      </trkpt>
      <trkpt lat="45.97472" lon="4.8306">
        <ele>271</ele>
        <time>2017-05-24T09:07:29Z</time>
      </trkpt>
      <trkpt lat="45.97475" lon="4.8307">
        <ele>271</ele>
        <time>2017-05-24T09:07:31Z</time>
      </trkpt>
      <trkpt lat="45.97476" lon="4.83075">
        <ele>271</ele>
        <time>2017-05-24T09:07:32Z</time>
      </trkpt>
      <trkpt lat="45.9748" lon="4.83084">
        <ele>272</ele>
        <time>2017-05-24T09:07:34Z</time>
      </trkpt>
      <trkpt lat="45.97481" lon="4.8309">
        <ele>272</ele>
        <time>2017-05-24T09:07:35Z</time>
      </trkpt>
      <trkpt lat="45.97483" lon="4.83097">
        <ele>272</ele>
        <time>2017-05-24T09:07:36Z</time>
      </trkpt>
      <trkpt lat="45.97485" lon="4.83102">
        <ele>272</ele>
        <time>2017-05-24T09:07:37Z</time>
      </trkpt>
      <trkpt lat="45.97487" lon="4.83112">
        <ele>272</ele>
        <time>2017-05-24T09:07:39Z</time>
      </trkpt>
      <trkpt lat="45.97488" lon="4.83116">
        <ele>272</ele>
        <time>2017-05-24T09:07:40Z</time>
      </trkpt>
      <trkpt lat="45.97491" lon="4.83124">
        <ele>273</ele>
        <time>2017-05-24T09:07:42Z</time>
      </trkpt>
      <trkpt lat="45.97492" lon="4.83129">
        <ele>273</ele>
        <time>2017-05-24T09:07:43Z</time>
      </trkpt>
      <trkpt lat="45.97496" lon="4.83141">
        <ele>273</ele>
        <time>2017-05-24T09:07:45Z</time>
      </trkpt>
      <trkpt lat="45.97498" lon="4.83147">
        <ele>273</ele>
        <time>2017-05-24T09:07:46Z</time>
      </trkpt>
      <trkpt lat="45.97501" lon="4.83159">
        <ele>274</ele>
        <time>2017-05-24T09:07:48Z</time>
      </trkpt>
      <trkpt lat="45.97502" lon="4.83164">
        <ele>274</ele>
        <time>2017-05-24T09:07:49Z</time>
      </trkpt>
      <trkpt lat="45.97505" lon="4.83173">
        <ele>274</ele>
        <time>2017-05-24T09:07:51Z</time>
      </trkpt>
      <trkpt lat="45.97506" lon="4.83177">
        <ele>274</ele>
        <time>2017-05-24T09:07:52Z</time>
      </trkpt>
      <trkpt lat="45.97509" lon="4.83184">
        <ele>275</ele>
        <time>2017-05-24T09:07:54Z</time>
      </trkpt>
      <trkpt lat="45.9751" lon="4.83188">
        <ele>275</ele>
        <time>2017-05-24T09:07:55Z</time>
      </trkpt>
      <trkpt lat="45.97515" lon="4.83199">
        <ele>275</ele>
        <time>2017-05-24T09:07:58Z</time>
      </trkpt>
      <trkpt lat="45.97516" lon="4.83203">
        <ele>275</ele>
        <time>2017-05-24T09:07:59Z</time>
      </trkpt>
      <trkpt lat="45.97519" lon="4.83211">
        <ele>275</ele>
        <time>2017-05-24T09:08:01Z</time>
      </trkpt>
      <trkpt lat="45.9752" lon="4.83216">
        <ele>275</ele>
        <time>2017-05-24T09:08:02Z</time>
      </trkpt>
      <trkpt lat="45.97524" lon="4.83227">
        <ele>275</ele>
        <time>2017-05-24T09:08:04Z</time>
      </trkpt>
      <trkpt lat="45.97525" lon="4.83234">
        <ele>275</ele>
        <time>2017-05-24T09:08:05Z</time>
      </trkpt>
      <trkpt lat="45.97527" lon="4.8324">
        <ele>275</ele>
        <time>2017-05-24T09:08:06Z</time>
      </trkpt>
      <trkpt lat="45.97529" lon="4.83247">
        <ele>275</ele>
        <time>2017-05-24T09:08:07Z</time>
      </trkpt>
      <trkpt lat="45.97531" lon="4.83258">
        <ele>276</ele>
        <time>2017-05-24T09:08:09Z</time>
      </trkpt>
      <trkpt lat="45.97531" lon="4.83263">
        <ele>276</ele>
        <time>2017-05-24T09:08:10Z</time>
      </trkpt>
      <trkpt lat="45.97533" lon="4.83272">
        <ele>276</ele>
        <time>2017-05-24T09:08:12Z</time>
      </trkpt>
      <trkpt lat="45.97533" lon="4.83276">
        <ele>276</ele>
        <time>2017-05-24T09:08:13Z</time>
      </trkpt>
      <trkpt lat="45.97534" lon="4.83285">
        <ele>276</ele>
        <time>2017-05-24T09:08:15Z</time>
      </trkpt>
      <trkpt lat="45.97534" lon="4.8329">
        <ele>276</ele>
        <time>2017-05-24T09:08:16Z</time>
      </trkpt>
      <trkpt lat="45.97535" lon="4.83301">
        <ele>276</ele>
        <time>2017-05-24T09:08:18Z</time>
      </trkpt>
      <trkpt lat="45.97535" lon="4.83307">
        <ele>276</ele>
        <time>2017-05-24T09:08:19Z</time>
      </trkpt>
      <trkpt lat="45.97536" lon="4.83314">
        <ele>276</ele>
        <time>2017-05-24T09:08:20Z</time>
      </trkpt>
      <trkpt lat="45.97536" lon="4.8332">
        <ele>276</ele>
        <time>2017-05-24T09:08:21Z</time>
      </trkpt>
      <trkpt lat="45.97537" lon="4.83332">
        <ele>276</ele>
        <time>2017-05-24T09:08:23Z</time>
      </trkpt>
      <trkpt lat="45.97537" lon="4.83337">
        <ele>277</ele>
        <time>2017-05-24T09:08:24Z</time>
      </trkpt>
      <trkpt lat="45.97537" lon="4.83349">
        <ele>277</ele>
        <time>2017-05-24T09:08:27Z</time>
      </trkpt>
      <trkpt lat="45.97537" lon="4.83353">
        <ele>277</ele>
        <time>2017-05-24T09:08:28Z</time>
      </trkpt>
      <trkpt lat="45.97538" lon="4.83365">
        <ele>277</ele>
        <time>2017-05-24T09:08:31Z</time>
      </trkpt>
      <trkpt lat="45.97538" lon="4.83369">
        <ele>277</ele>
        <time>2017-05-24T09:08:32Z</time>
      </trkpt>
      <trkpt lat="45.97538" lon="4.83381">
        <ele>277</ele>
        <time>2017-05-24T09:08:35Z</time>
      </trkpt>
      <trkpt lat="45.97538" lon="4.83384">
        <ele>277</ele>
        <time>2017-05-24T09:08:36Z</time>
      </trkpt>
      <trkpt lat="45.97538" lon="4.83397">
        <ele>277</ele>
        <time>2017-05-24T09:08:41Z</time>
      </trkpt>
      <trkpt lat="45.97538" lon="4.83397">
        <ele>277</ele>
        <time>2017-05-24T09:08:42Z</time>
      </trkpt>
      <trkpt lat="45.97538" lon="4.83407">
        <ele>277</ele>
        <time>2017-05-24T09:09:56Z</time>
      </trkpt>
      <trkpt lat="45.97538" lon="4.83411">
        <ele>277</ele>
        <time>2017-05-24T09:09:57Z</time>
      </trkpt>
      <trkpt lat="45.97539" lon="4.83422">
        <ele>276</ele>
        <time>2017-05-24T09:09:59Z</time>
      </trkpt>
      <trkpt lat="45.9754" lon="4.83429">
        <ele>276</ele>
        <time>2017-05-24T09:10:00Z</time>
      </trkpt>
      <trkpt lat="45.9754" lon="4.83442">
        <ele>276</ele>
        <time>2017-05-24T09:10:02Z</time>
      </trkpt>
      <trkpt lat="45.97539" lon="4.83448">
        <ele>276</ele>
        <time>2017-05-24T09:10:03Z</time>
      </trkpt>
      <trkpt lat="45.97539" lon="4.83455">
        <ele>276</ele>
        <time>2017-05-24T09:10:04Z</time>
      </trkpt>
      <trkpt lat="45.97539" lon="4.83462">
        <ele>276</ele>
        <time>2017-05-24T09:10:05Z</time>
      </trkpt>
      <trkpt lat="45.97539" lon="4.83469">
        <ele>276</ele>
        <time>2017-05-24T09:10:06Z</time>
      </trkpt>
      <trkpt lat="45.97539" lon="4.83477">
        <ele>276</ele>
        <time>2017-05-24T09:10:07Z</time>
      </trkpt>
      <trkpt lat="45.97538" lon="4.83483">
        <ele>276</ele>
        <time>2017-05-24T09:10:08Z</time>
      </trkpt>
      <trkpt lat="45.97538" lon="4.8349">
        <ele>276</ele>
        <time>2017-05-24T09:10:09Z</time>
      </trkpt>
      <trkpt lat="45.97538" lon="4.83503">
        <ele>276</ele>
        <time>2017-05-24T09:10:11Z</time>
      </trkpt>
      <trkpt lat="45.97538" lon="4.83509">
        <ele>276</ele>
        <time>2017-05-24T09:10:12Z</time>
      </trkpt>
      <trkpt lat="45.97538" lon="4.83516">
        <ele>276</ele>
        <time>2017-05-24T09:10:13Z</time>
      </trkpt>
      <trkpt lat="45.97539" lon="4.83522">
        <ele>276</ele>
        <time>2017-05-24T09:10:14Z</time>
      </trkpt>
      <trkpt lat="45.97539" lon="4.83529">
        <ele>276</ele>
        <time>2017-05-24T09:10:15Z</time>
      </trkpt>
      <trkpt lat="45.97538" lon="4.83536">
        <ele>276</ele>
        <time>2017-05-24T09:10:16Z</time>
      </trkpt>
      <trkpt lat="45.97538" lon="4.83543">
        <ele>276</ele>
        <time>2017-05-24T09:10:17Z</time>
      </trkpt>
      <trkpt lat="45.97538" lon="4.8355">
        <ele>276</ele>
        <time>2017-05-24T09:10:18Z</time>
      </trkpt>
      <trkpt lat="45.97537" lon="4.83563">
        <ele>276</ele>
        <time>2017-05-24T09:10:20Z</time>
      </trkpt>
      <trkpt lat="45.97537" lon="4.8357">
        <ele>276</ele>
        <time>2017-05-24T09:10:21Z</time>
      </trkpt>
      <trkpt lat="45.97536" lon="4.83576">
        <ele>276</ele>
        <time>2017-05-24T09:10:22Z</time>
      </trkpt>
      <trkpt lat="45.97536" lon="4.83583">
        <ele>276</ele>
        <time>2017-05-24T09:10:23Z</time>
      </trkpt>
      <trkpt lat="45.97536" lon="4.8359">
        <ele>277</ele>
        <time>2017-05-24T09:10:24Z</time>
      </trkpt>
      <trkpt lat="45.97536" lon="4.83597">
        <ele>277</ele>
        <time>2017-05-24T09:10:25Z</time>
      </trkpt>
      <trkpt lat="45.97536" lon="4.83604">
        <ele>277</ele>
        <time>2017-05-24T09:10:26Z</time>
      </trkpt>
      <trkpt lat="45.97535" lon="4.83611">
        <ele>277</ele>
        <time>2017-05-24T09:10:27Z</time>
      </trkpt>
      <trkpt lat="45.97535" lon="4.83619">
        <ele>277</ele>
        <time>2017-05-24T09:10:28Z</time>
      </trkpt>
      <trkpt lat="45.97536" lon="4.83626">
        <ele>277</ele>
        <time>2017-05-24T09:10:29Z</time>
      </trkpt>
      <trkpt lat="45.97536" lon="4.83633">
        <ele>277</ele>
        <time>2017-05-24T09:10:30Z</time>
      </trkpt>
      <trkpt lat="45.97536" lon="4.8364">
        <ele>277</ele>
        <time>2017-05-24T09:10:31Z</time>
      </trkpt>
      <trkpt lat="45.97536" lon="4.83647">
        <ele>277</ele>
        <time>2017-05-24T09:10:32Z</time>
      </trkpt>
      <trkpt lat="45.97536" lon="4.83654">
        <ele>277</ele>
        <time>2017-05-24T09:10:33Z</time>
      </trkpt>
      <trkpt lat="45.97537" lon="4.83666">
        <ele>277</ele>
        <time>2017-05-24T09:10:35Z</time>
      </trkpt>
      <trkpt lat="45.97537" lon="4.83673">
        <ele>278</ele>
        <time>2017-05-24T09:10:36Z</time>
      </trkpt>
      <trkpt lat="45.97537" lon="4.83685">
        <ele>278</ele>
        <time>2017-05-24T09:10:38Z</time>
      </trkpt>
      <trkpt lat="45.97536" lon="4.83692">
        <ele>278</ele>
        <time>2017-05-24T09:10:39Z</time>
      </trkpt>
      <trkpt lat="45.97537" lon="4.83699">
        <ele>278</ele>
        <time>2017-05-24T09:10:40Z</time>
      </trkpt>
      <trkpt lat="45.97537" lon="4.83706">
        <ele>278</ele>
        <time>2017-05-24T09:10:41Z</time>
      </trkpt>
      <trkpt lat="45.97538" lon="4.83714">
        <ele>278</ele>
        <time>2017-05-24T09:10:42Z</time>
      </trkpt>
      <trkpt lat="45.97538" lon="4.83722">
        <ele>278</ele>
        <time>2017-05-24T09:10:43Z</time>
      </trkpt>
      <trkpt lat="45.97539" lon="4.8373">
        <ele>278</ele>
        <time>2017-05-24T09:10:44Z</time>
      </trkpt>
      <trkpt lat="45.97539" lon="4.83738">
        <ele>278</ele>
        <time>2017-05-24T09:10:45Z</time>
      </trkpt>
      <trkpt lat="45.9754" lon="4.83746">
        <ele>278</ele>
        <time>2017-05-24T09:10:46Z</time>
      </trkpt>
      <trkpt lat="45.9754" lon="4.83753">
        <ele>279</ele>
        <time>2017-05-24T09:10:47Z</time>
      </trkpt>
      <trkpt lat="45.97541" lon="4.83759">
        <ele>279</ele>
        <time>2017-05-24T09:10:48Z</time>
      </trkpt>
      <trkpt lat="45.97542" lon="4.83766">
        <ele>279</ele>
        <time>2017-05-24T09:10:49Z</time>
      </trkpt>
      <trkpt lat="45.97543" lon="4.83777">
        <ele>278</ele>
        <time>2017-05-24T09:10:51Z</time>
      </trkpt>
      <trkpt lat="45.97543" lon="4.83782">
        <ele>278</ele>
        <time>2017-05-24T09:10:52Z</time>
      </trkpt>
      <trkpt lat="45.97543" lon="4.83793">
        <ele>278</ele>
        <time>2017-05-24T09:10:54Z</time>
      </trkpt>
      <trkpt lat="45.97542" lon="4.838">
        <ele>278</ele>
        <time>2017-05-24T09:10:55Z</time>
      </trkpt>
      <trkpt lat="45.97542" lon="4.83807">
        <ele>279</ele>
        <time>2017-05-24T09:10:56Z</time>
      </trkpt>
      <trkpt lat="45.97542" lon="4.83815">
        <ele>279</ele>
        <time>2017-05-24T09:10:57Z</time>
      </trkpt>
      <trkpt lat="45.97541" lon="4.83823">
        <ele>279</ele>
        <time>2017-05-24T09:10:58Z</time>
      </trkpt>
      <trkpt lat="45.9754" lon="4.83831">
        <ele>279</ele>
        <time>2017-05-24T09:10:59Z</time>
      </trkpt>
      <trkpt lat="45.9754" lon="4.83839">
        <ele>278</ele>
        <time>2017-05-24T09:11:00Z</time>
      </trkpt>
      <trkpt lat="45.97539" lon="4.83847">
        <ele>278</ele>
        <time>2017-05-24T09:11:01Z</time>
      </trkpt>
      <trkpt lat="45.97538" lon="4.83856">
        <ele>278</ele>
        <time>2017-05-24T09:11:02Z</time>
      </trkpt>
      <trkpt lat="45.97537" lon="4.83864">
        <ele>278</ele>
        <time>2017-05-24T09:11:03Z</time>
      </trkpt>
      <trkpt lat="45.97536" lon="4.83871">
        <ele>278</ele>
        <time>2017-05-24T09:11:04Z</time>
      </trkpt>
      <trkpt lat="45.97534" lon="4.83879">
        <ele>278</ele>
        <time>2017-05-24T09:11:05Z</time>
      </trkpt>
      <trkpt lat="45.97533" lon="4.83887">
        <ele>278</ele>
        <time>2017-05-24T09:11:06Z</time>
      </trkpt>
      <trkpt lat="45.97532" lon="4.83894">
        <ele>278</ele>
        <time>2017-05-24T09:11:07Z</time>
      </trkpt>
      <trkpt lat="45.97531" lon="4.83901">
        <ele>278</ele>
        <time>2017-05-24T09:11:08Z</time>
      </trkpt>
      <trkpt lat="45.9753" lon="4.83909">
        <ele>277</ele>
        <time>2017-05-24T09:11:09Z</time>
      </trkpt>
      <trkpt lat="45.97528" lon="4.83917">
        <ele>277</ele>
        <time>2017-05-24T09:11:10Z</time>
      </trkpt>
      <trkpt lat="45.97527" lon="4.83925">
        <ele>277</ele>
        <time>2017-05-24T09:11:11Z</time>
      </trkpt>
      <trkpt lat="45.97526" lon="4.83933">
        <ele>277</ele>
        <time>2017-05-24T09:11:12Z</time>
      </trkpt>
      <trkpt lat="45.97524" lon="4.83942">
        <ele>277</ele>
        <time>2017-05-24T09:11:13Z</time>
      </trkpt>
      <trkpt lat="45.97522" lon="4.8395">
        <ele>277</ele>
        <time>2017-05-24T09:11:14Z</time>
      </trkpt>
      <trkpt lat="45.9752" lon="4.83957">
        <ele>277</ele>
        <time>2017-05-24T09:11:15Z</time>
      </trkpt>
      <trkpt lat="45.97519" lon="4.83965">
        <ele>277</ele>
        <time>2017-05-24T09:11:16Z</time>
      </trkpt>
      <trkpt lat="45.97517" lon="4.83973">
        <ele>277</ele>
        <time>2017-05-24T09:11:17Z</time>
      </trkpt>
      <trkpt lat="45.97515" lon="4.8398">
        <ele>277</ele>
        <time>2017-05-24T09:11:18Z</time>
      </trkpt>
      <trkpt lat="45.97514" lon="4.83988">
        <ele>277</ele>
        <time>2017-05-24T09:11:19Z</time>
      </trkpt>
      <trkpt lat="45.97512" lon="4.83996">
        <ele>277</ele>
        <time>2017-05-24T09:11:20Z</time>
      </trkpt>
      <trkpt lat="45.97511" lon="4.84004">
        <ele>277</ele>
        <time>2017-05-24T09:11:21Z</time>
      </trkpt>
      <trkpt lat="45.97509" lon="4.84011">
        <ele>277</ele>
        <time>2017-05-24T09:11:22Z</time>
      </trkpt>
      <trkpt lat="45.97507" lon="4.84018">
        <ele>277</ele>
        <time>2017-05-24T09:11:23Z</time>
      </trkpt>
      <trkpt lat="45.97505" lon="4.84025">
        <ele>277</ele>
        <time>2017-05-24T09:11:24Z</time>
      </trkpt>
      <trkpt lat="45.97504" lon="4.84032">
        <ele>277</ele>
        <time>2017-05-24T09:11:25Z</time>
      </trkpt>
      <trkpt lat="45.97502" lon="4.84038">
        <ele>277</ele>
        <time>2017-05-24T09:11:26Z</time>
      </trkpt>
      <trkpt lat="45.97501" lon="4.84044">
        <ele>277</ele>
        <time>2017-05-24T09:11:27Z</time>
      </trkpt>
      <trkpt lat="45.97499" lon="4.84051">
        <ele>278</ele>
        <time>2017-05-24T09:11:28Z</time>
      </trkpt>
      <trkpt lat="45.97499" lon="4.84057">
        <ele>278</ele>
        <time>2017-05-24T09:11:29Z</time>
      </trkpt>
      <trkpt lat="45.97497" lon="4.84064">
        <ele>278</ele>
        <time>2017-05-24T09:11:30Z</time>
      </trkpt>
      <trkpt lat="45.97496" lon="4.84072">
        <ele>278</ele>
        <time>2017-05-24T09:11:31Z</time>
      </trkpt>
      <trkpt lat="45.97494" lon="4.8408">
        <ele>278</ele>
        <time>2017-05-24T09:11:32Z</time>
      </trkpt>
      <trkpt lat="45.97492" lon="4.84089">
        <ele>278</ele>
        <time>2017-05-24T09:11:33Z</time>
      </trkpt>
      <trkpt lat="45.97489" lon="4.84098">
        <ele>279</ele>
        <time>2017-05-24T09:11:34Z</time>
      </trkpt>
      <trkpt lat="45.97488" lon="4.84108">
        <ele>279</ele>
        <time>2017-05-24T09:11:35Z</time>
      </trkpt>
      <trkpt lat="45.97486" lon="4.84118">
        <ele>279</ele>
        <time>2017-05-24T09:11:36Z</time>
      </trkpt>
      <trkpt lat="45.97484" lon="4.84127">
        <ele>279</ele>
        <time>2017-05-24T09:11:37Z</time>
      </trkpt>
      <trkpt lat="45.97483" lon="4.84136">
        <ele>279</ele>
        <time>2017-05-24T09:11:38Z</time>
      </trkpt>
      <trkpt lat="45.97481" lon="4.84144">
        <ele>279</ele>
        <time>2017-05-24T09:11:39Z</time>
      </trkpt>
      <trkpt lat="45.9748" lon="4.84153">
        <ele>279</ele>
        <time>2017-05-24T09:11:40Z</time>
      </trkpt>
      <trkpt lat="45.97478" lon="4.84161">
        <ele>279</ele>
        <time>2017-05-24T09:11:41Z</time>
      </trkpt>
      <trkpt lat="45.97477" lon="4.84168">
        <ele>279</ele>
        <time>2017-05-24T09:11:42Z</time>
      </trkpt>
      <trkpt lat="45.97476" lon="4.84176">
        <ele>279</ele>
        <time>2017-05-24T09:11:43Z</time>
      </trkpt>
      <trkpt lat="45.97475" lon="4.84183">
        <ele>279</ele>
        <time>2017-05-24T09:11:44Z</time>
      </trkpt>
      <trkpt lat="45.97474" lon="4.8419">
        <ele>279</ele>
        <time>2017-05-24T09:11:45Z</time>
      </trkpt>
      <trkpt lat="45.97473" lon="4.84197">
        <ele>279</ele>
        <time>2017-05-24T09:11:46Z</time>
      </trkpt>
      <trkpt lat="45.97472" lon="4.84204">
        <ele>279</ele>
        <time>2017-05-24T09:11:47Z</time>
      </trkpt>
      <trkpt lat="45.9747" lon="4.84211">
        <ele>279</ele>
        <time>2017-05-24T09:11:48Z</time>
      </trkpt>
      <trkpt lat="45.97469" lon="4.84217">
        <ele>279</ele>
        <time>2017-05-24T09:11:49Z</time>
      </trkpt>
      <trkpt lat="45.97468" lon="4.8423">
        <ele>279</ele>
        <time>2017-05-24T09:11:51Z</time>
      </trkpt>
      <trkpt lat="45.97467" lon="4.84236">
        <ele>279</ele>
        <time>2017-05-24T09:11:52Z</time>
      </trkpt>
      <trkpt lat="45.97466" lon="4.84242">
        <ele>279</ele>
        <time>2017-05-24T09:11:53Z</time>
      </trkpt>
      <trkpt lat="45.97466" lon="4.84249">
        <ele>279</ele>
        <time>2017-05-24T09:11:54Z</time>
      </trkpt>
      <trkpt lat="45.97465" lon="4.84256">
        <ele>278</ele>
        <time>2017-05-24T09:11:55Z</time>
      </trkpt>
      <trkpt lat="45.97464" lon="4.84262">
        <ele>278</ele>
        <time>2017-05-24T09:11:56Z</time>
      </trkpt>
      <trkpt lat="45.97462" lon="4.84275">
        <ele>278</ele>
        <time>2017-05-24T09:11:58Z</time>
      </trkpt>
      <trkpt lat="45.97462" lon="4.84282">
        <ele>278</ele>
        <time>2017-05-24T09:11:59Z</time>
      </trkpt>
      <trkpt lat="45.97461" lon="4.84289">
        <ele>278</ele>
        <time>2017-05-24T09:12:00Z</time>
      </trkpt>
      <trkpt lat="45.9746" lon="4.84298">
        <ele>278</ele>
        <time>2017-05-24T09:12:01Z</time>
      </trkpt>
      <trkpt lat="45.97459" lon="4.84307">
        <ele>278</ele>
        <time>2017-05-24T09:12:02Z</time>
      </trkpt>
      <trkpt lat="45.97458" lon="4.84315">
        <ele>278</ele>
        <time>2017-05-24T09:12:03Z</time>
      </trkpt>
      <trkpt lat="45.97457" lon="4.84324">
        <ele>278</ele>
        <time>2017-05-24T09:12:04Z</time>
      </trkpt>
      <trkpt lat="45.97456" lon="4.84332">
        <ele>278</ele>
        <time>2017-05-24T09:12:05Z</time>
      </trkpt>
      <trkpt lat="45.97455" lon="4.84341">
        <ele>277</ele>
        <time>2017-05-24T09:12:06Z</time>
      </trkpt>
      <trkpt lat="45.97454" lon="4.84349">
        <ele>277</ele>
        <time>2017-05-24T09:12:07Z</time>
      </trkpt>
      <trkpt lat="45.97453" lon="4.84357">
        <ele>277</ele>
        <time>2017-05-24T09:12:08Z</time>
      </trkpt>
      <trkpt lat="45.97452" lon="4.84365">
        <ele>278</ele>
        <time>2017-05-24T09:12:09Z</time>
      </trkpt>
      <trkpt lat="45.97451" lon="4.84373">
        <ele>278</ele>
        <time>2017-05-24T09:12:10Z</time>
      </trkpt>
      <trkpt lat="45.97451" lon="4.8438">
        <ele>278</ele>
        <time>2017-05-24T09:12:11Z</time>
      </trkpt>
      <trkpt lat="45.9745" lon="4.84388">
        <ele>278</ele>
        <time>2017-05-24T09:12:12Z</time>
      </trkpt>
      <trkpt lat="45.97449" lon="4.84396">
        <ele>278</ele>
        <time>2017-05-24T09:12:13Z</time>
      </trkpt>
      <trkpt lat="45.97449" lon="4.84403">
        <ele>278</ele>
        <time>2017-05-24T09:12:14Z</time>
      </trkpt>
      <trkpt lat="45.97448" lon="4.8441">
        <ele>278</ele>
        <time>2017-05-24T09:12:15Z</time>
      </trkpt>
      <trkpt lat="45.97447" lon="4.84417">
        <ele>278</ele>
        <time>2017-05-24T09:12:16Z</time>
      </trkpt>
      <trkpt lat="45.97446" lon="4.84424">
        <ele>278</ele>
        <time>2017-05-24T09:12:17Z</time>
      </trkpt>
      <trkpt lat="45.97445" lon="4.8443">
        <ele>278</ele>
        <time>2017-05-24T09:12:18Z</time>
      </trkpt>
      <trkpt lat="45.97444" lon="4.84438">
        <ele>278</ele>
        <time>2017-05-24T09:12:19Z</time>
      </trkpt>
      <trkpt lat="45.97443" lon="4.84445">
        <ele>278</ele>
        <time>2017-05-24T09:12:20Z</time>
      </trkpt>
      <trkpt lat="45.97442" lon="4.84453">
        <ele>278</ele>
        <time>2017-05-24T09:12:21Z</time>
      </trkpt>
      <trkpt lat="45.97441" lon="4.84462">
        <ele>277</ele>
        <time>2017-05-24T09:12:22Z</time>
      </trkpt>
      <trkpt lat="45.9744" lon="4.8447">
        <ele>277</ele>
        <time>2017-05-24T09:12:23Z</time>
      </trkpt>
      <trkpt lat="45.97439" lon="4.84478">
        <ele>277</ele>
        <time>2017-05-24T09:12:24Z</time>
      </trkpt>
      <trkpt lat="45.97438" lon="4.84487">
        <ele>277</ele>
        <time>2017-05-24T09:12:25Z</time>
      </trkpt>
      <trkpt lat="45.97437" lon="4.84495">
        <ele>277</ele>
        <time>2017-05-24T09:12:26Z</time>
      </trkpt>
      <trkpt lat="45.97436" lon="4.84502">
        <ele>277</ele>
        <time>2017-05-24T09:12:27Z</time>
      </trkpt>
      <trkpt lat="45.97435" lon="4.8451">
        <ele>277</ele>
        <time>2017-05-24T09:12:28Z</time>
      </trkpt>
      <trkpt lat="45.97433" lon="4.84518">
        <ele>277</ele>
        <time>2017-05-24T09:12:29Z</time>
      </trkpt>
      <trkpt lat="45.97432" lon="4.84526">
        <ele>277</ele>
        <time>2017-05-24T09:12:30Z</time>
      </trkpt>
      <trkpt lat="45.97431" lon="4.84533">
        <ele>277</ele>
        <time>2017-05-24T09:12:31Z</time>
      </trkpt>
      <trkpt lat="45.9743" lon="4.8454">
        <ele>277</ele>
        <time>2017-05-24T09:12:32Z</time>
      </trkpt>
      <trkpt lat="45.97428" lon="4.84547">
        <ele>277</ele>
        <time>2017-05-24T09:12:33Z</time>
      </trkpt>
      <trkpt lat="45.97428" lon="4.84554">
        <ele>277</ele>
        <time>2017-05-24T09:12:34Z</time>
      </trkpt>
      <trkpt lat="45.97427" lon="4.84561">
        <ele>277</ele>
        <time>2017-05-24T09:12:35Z</time>
      </trkpt>
      <trkpt lat="45.97425" lon="4.84569">
        <ele>277</ele>
        <time>2017-05-24T09:12:36Z</time>
      </trkpt>
      <trkpt lat="45.97424" lon="4.84576">
        <ele>277</ele>
        <time>2017-05-24T09:12:37Z</time>
      </trkpt>
      <trkpt lat="45.97423" lon="4.84583">
        <ele>277</ele>
        <time>2017-05-24T09:12:38Z</time>
      </trkpt>
      <trkpt lat="45.97422" lon="4.84591">
        <ele>277</ele>
        <time>2017-05-24T09:12:39Z</time>
      </trkpt>
      <trkpt lat="45.9742" lon="4.84599">
        <ele>277</ele>
        <time>2017-05-24T09:12:40Z</time>
      </trkpt>
      <trkpt lat="45.97419" lon="4.84607">
        <ele>276</ele>
        <time>2017-05-24T09:12:41Z</time>
      </trkpt>
      <trkpt lat="45.97418" lon="4.84614">
        <ele>276</ele>
        <time>2017-05-24T09:12:42Z</time>
      </trkpt>
      <trkpt lat="45.97416" lon="4.84622">
        <ele>278</ele>
        <time>2017-05-24T09:12:43Z</time>
      </trkpt>
      <trkpt lat="45.97415" lon="4.84629">
        <ele>278</ele>
        <time>2017-05-24T09:12:44Z</time>
      </trkpt>
      <trkpt lat="45.97413" lon="4.84637">
        <ele>278</ele>
        <time>2017-05-24T09:12:45Z</time>
      </trkpt>
      <trkpt lat="45.97411" lon="4.84644">
        <ele>278</ele>
        <time>2017-05-24T09:12:46Z</time>
      </trkpt>
      <trkpt lat="45.9741" lon="4.84651">
        <ele>277</ele>
        <time>2017-05-24T09:12:47Z</time>
      </trkpt>
      <trkpt lat="45.97408" lon="4.84658">
        <ele>277</ele>
        <time>2017-05-24T09:12:48Z</time>
      </trkpt>
      <trkpt lat="45.97406" lon="4.84665">
        <ele>277</ele>
        <time>2017-05-24T09:12:49Z</time>
      </trkpt>
      <trkpt lat="45.97405" lon="4.84671">
        <ele>277</ele>
        <time>2017-05-24T09:12:50Z</time>
      </trkpt>
      <trkpt lat="45.97403" lon="4.84678">
        <ele>278</ele>
        <time>2017-05-24T09:12:51Z</time>
      </trkpt>
      <trkpt lat="45.97401" lon="4.84685">
        <ele>278</ele>
        <time>2017-05-24T09:12:52Z</time>
      </trkpt>
      <trkpt lat="45.97399" lon="4.84692">
        <ele>278</ele>
        <time>2017-05-24T09:12:53Z</time>
      </trkpt>
      <trkpt lat="45.97397" lon="4.84699">
        <ele>278</ele>
        <time>2017-05-24T09:12:54Z</time>
      </trkpt>
      <trkpt lat="45.97394" lon="4.84706">
        <ele>278</ele>
        <time>2017-05-24T09:12:55Z</time>
      </trkpt>
      <trkpt lat="45.97392" lon="4.84713">
        <ele>278</ele>
        <time>2017-05-24T09:12:56Z</time>
      </trkpt>
      <trkpt lat="45.9739" lon="4.8472">
        <ele>278</ele>
        <time>2017-05-24T09:12:57Z</time>
      </trkpt>
      <trkpt lat="45.97388" lon="4.84727">
        <ele>278</ele>
        <time>2017-05-24T09:12:58Z</time>
      </trkpt>
      <trkpt lat="45.97386" lon="4.84733">
        <ele>278</ele>
        <time>2017-05-24T09:12:59Z</time>
      </trkpt>
      <trkpt lat="45.97383" lon="4.84739">
        <ele>278</ele>
        <time>2017-05-24T09:13:00Z</time>
      </trkpt>
      <trkpt lat="45.9738" lon="4.84744">
        <ele>278</ele>
        <time>2017-05-24T09:13:01Z</time>
      </trkpt>
      <trkpt lat="45.97377" lon="4.8475">
        <ele>278</ele>
        <time>2017-05-24T09:13:02Z</time>
      </trkpt>
      <trkpt lat="45.97374" lon="4.84757">
        <ele>278</ele>
        <time>2017-05-24T09:13:03Z</time>
      </trkpt>
      <trkpt lat="45.97372" lon="4.84764">
        <ele>278</ele>
        <time>2017-05-24T09:13:04Z</time>
      </trkpt>
      <trkpt lat="45.97369" lon="4.84771">
        <ele>278</ele>
        <time>2017-05-24T09:13:05Z</time>
      </trkpt>
      <trkpt lat="45.97366" lon="4.84779">
        <ele>278</ele>
        <time>2017-05-24T09:13:06Z</time>
      </trkpt>
      <trkpt lat="45.97363" lon="4.84786">
        <ele>278</ele>
        <time>2017-05-24T09:13:07Z</time>
      </trkpt>
      <trkpt lat="45.9736" lon="4.84793">
        <ele>278</ele>
        <time>2017-05-24T09:13:08Z</time>
      </trkpt>
      <trkpt lat="45.97358" lon="4.848">
        <ele>278</ele>
        <time>2017-05-24T09:13:09Z</time>
      </trkpt>
      <trkpt lat="45.97355" lon="4.84808">
        <ele>278</ele>
        <time>2017-05-24T09:13:10Z</time>
      </trkpt>
      <trkpt lat="45.97352" lon="4.84815">
        <ele>278</ele>
        <time>2017-05-24T09:13:11Z</time>
      </trkpt>
      <trkpt lat="45.97349" lon="4.84822">
        <ele>278</ele>
        <time>2017-05-24T09:13:12Z</time>
      </trkpt>
      <trkpt lat="45.97347" lon="4.84829">
        <ele>278</ele>
        <time>2017-05-24T09:13:13Z</time>
      </trkpt>
      <trkpt lat="45.97344" lon="4.84835">
        <ele>277</ele>
        <time>2017-05-24T09:13:14Z</time>
      </trkpt>
      <trkpt lat="45.97341" lon="4.84842">
        <ele>277</ele>
        <time>2017-05-24T09:13:15Z</time>
      </trkpt>
      <trkpt lat="45.97338" lon="4.84848">
        <ele>277</ele>
        <time>2017-05-24T09:13:16Z</time>
      </trkpt>
      <trkpt lat="45.97335" lon="4.84855">
        <ele>277</ele>
        <time>2017-05-24T09:13:17Z</time>
      </trkpt>
      <trkpt lat="45.97332" lon="4.84861">
        <ele>278</ele>
        <time>2017-05-24T09:13:18Z</time>
      </trkpt>
      <trkpt lat="45.97329" lon="4.84867">
        <ele>278</ele>
        <time>2017-05-24T09:13:19Z</time>
      </trkpt>
      <trkpt lat="45.97326" lon="4.84873">
        <ele>278</ele>
        <time>2017-05-24T09:13:20Z</time>
      </trkpt>
      <trkpt lat="45.97323" lon="4.84879">
        <ele>278</ele>
        <time>2017-05-24T09:13:21Z</time>
      </trkpt>
      <trkpt lat="45.97319" lon="4.84884">
        <ele>278</ele>
        <time>2017-05-24T09:13:22Z</time>
      </trkpt>
      <trkpt lat="45.97316" lon="4.8489">
        <ele>278</ele>
        <time>2017-05-24T09:13:23Z</time>
      </trkpt>
      <trkpt lat="45.97312" lon="4.84896">
        <ele>278</ele>
        <time>2017-05-24T09:13:24Z</time>
      </trkpt>
      <trkpt lat="45.97308" lon="4.84903">
        <ele>278</ele>
        <time>2017-05-24T09:13:25Z</time>
      </trkpt>
      <trkpt lat="45.97304" lon="4.84909">
        <ele>278</ele>
        <time>2017-05-24T09:13:26Z</time>
      </trkpt>
      <trkpt lat="45.973" lon="4.84916">
        <ele>278</ele>
        <time>2017-05-24T09:13:27Z</time>
      </trkpt>
      <trkpt lat="45.97295" lon="4.84924">
        <ele>278</ele>
        <time>2017-05-24T09:13:28Z</time>
      </trkpt>
      <trkpt lat="45.97291" lon="4.84931">
        <ele>278</ele>
        <time>2017-05-24T09:13:29Z</time>
      </trkpt>
      <trkpt lat="45.97287" lon="4.84939">
        <ele>278</ele>
        <time>2017-05-24T09:13:30Z</time>
      </trkpt>
      <trkpt lat="45.97282" lon="4.84946">
        <ele>278</ele>
        <time>2017-05-24T09:13:31Z</time>
      </trkpt>
      <trkpt lat="45.97278" lon="4.84953">
        <ele>278</ele>
        <time>2017-05-24T09:13:32Z</time>
      </trkpt>
      <trkpt lat="45.97274" lon="4.8496">
        <ele>278</ele>
        <time>2017-05-24T09:13:33Z</time>
      </trkpt>
      <trkpt lat="45.97271" lon="4.84967">
        <ele>279</ele>
        <time>2017-05-24T09:13:34Z</time>
      </trkpt>
      <trkpt lat="45.97268" lon="4.84974">
        <ele>279</ele>
        <time>2017-05-24T09:13:35Z</time>
      </trkpt>
      <trkpt lat="45.97264" lon="4.8498">
        <ele>279</ele>
        <time>2017-05-24T09:13:36Z</time>
      </trkpt>
      <trkpt lat="45.97261" lon="4.84986">
        <ele>279</ele>
        <time>2017-05-24T09:13:37Z</time>
      </trkpt>
      <trkpt lat="45.97258" lon="4.84992">
        <ele>279</ele>
        <time>2017-05-24T09:13:38Z</time>
      </trkpt>
      <trkpt lat="45.97255" lon="4.84998">
        <ele>279</ele>
        <time>2017-05-24T09:13:39Z</time>
      </trkpt>
      <trkpt lat="45.97252" lon="4.85004">
        <ele>279</ele>
        <time>2017-05-24T09:13:40Z</time>
      </trkpt>
      <trkpt lat="45.97249" lon="4.8501">
        <ele>279</ele>
        <time>2017-05-24T09:13:41Z</time>
      </trkpt>
      <trkpt lat="45.97246" lon="4.85016">
        <ele>279</ele>
        <time>2017-05-24T09:13:42Z</time>
      </trkpt>
      <trkpt lat="45.97244" lon="4.85022">
        <ele>279</ele>
        <time>2017-05-24T09:13:43Z</time>
      </trkpt>
      <trkpt lat="45.97242" lon="4.85028">
        <ele>279</ele>
        <time>2017-05-24T09:13:44Z</time>
      </trkpt>
      <trkpt lat="45.97239" lon="4.85035">
        <ele>279</ele>
        <time>2017-05-24T09:13:45Z</time>
      </trkpt>
      <trkpt lat="45.97236" lon="4.85042">
        <ele>279</ele>
        <time>2017-05-24T09:13:46Z</time>
      </trkpt>
      <trkpt lat="45.97233" lon="4.85049">
        <ele>279</ele>
        <time>2017-05-24T09:13:47Z</time>
      </trkpt>
      <trkpt lat="45.9723" lon="4.85056">
        <ele>279</ele>
        <time>2017-05-24T09:13:48Z</time>
      </trkpt>
      <trkpt lat="45.97226" lon="4.85064">
        <ele>279</ele>
        <time>2017-05-24T09:13:49Z</time>
      </trkpt>
      <trkpt lat="45.97222" lon="4.85072">
        <ele>278</ele>
        <time>2017-05-24T09:13:50Z</time>
      </trkpt>
      <trkpt lat="45.97219" lon="4.8508">
        <ele>278</ele>
        <time>2017-05-24T09:13:51Z</time>
      </trkpt>
      <trkpt lat="45.97215" lon="4.85088">
        <ele>278</ele>
        <time>2017-05-24T09:13:52Z</time>
      </trkpt>
      <trkpt lat="45.97211" lon="4.85097">
        <ele>278</ele>
        <time>2017-05-24T09:13:53Z</time>
      </trkpt>
      <trkpt lat="45.97207" lon="4.85105">
        <ele>278</ele>
        <time>2017-05-24T09:13:54Z</time>
      </trkpt>
      <trkpt lat="45.97203" lon="4.85112">
        <ele>278</ele>
        <time>2017-05-24T09:13:55Z</time>
      </trkpt>
      <trkpt lat="45.972" lon="4.8512">
        <ele>278</ele>
        <time>2017-05-24T09:13:56Z</time>
      </trkpt>
      <trkpt lat="45.97196" lon="4.85128">
        <ele>278</ele>
        <time>2017-05-24T09:13:57Z</time>
      </trkpt>
      <trkpt lat="45.97192" lon="4.85135">
        <ele>278</ele>
        <time>2017-05-24T09:13:58Z</time>
      </trkpt>
      <trkpt lat="45.97189" lon="4.85142">
        <ele>278</ele>
        <time>2017-05-24T09:13:59Z</time>
      </trkpt>
      <trkpt lat="45.97186" lon="4.85149">
        <ele>278</ele>
        <time>2017-05-24T09:14:00Z</time>
      </trkpt>
      <trkpt lat="45.97182" lon="4.85156">
        <ele>278</ele>
        <time>2017-05-24T09:14:01Z</time>
      </trkpt>
      <trkpt lat="45.97179" lon="4.85163">
        <ele>278</ele>
        <time>2017-05-24T09:14:02Z</time>
      </trkpt>
      <trkpt lat="45.97176" lon="4.8517">
        <ele>278</ele>
        <time>2017-05-24T09:14:03Z</time>
      </trkpt>
      <trkpt lat="45.97174" lon="4.85177">
        <ele>278</ele>
        <time>2017-05-24T09:14:04Z</time>
      </trkpt>
      <trkpt lat="45.9717" lon="4.85183">
        <ele>278</ele>
        <time>2017-05-24T09:14:05Z</time>
      </trkpt>
      <trkpt lat="45.97167" lon="4.8519">
        <ele>278</ele>
        <time>2017-05-24T09:14:06Z</time>
      </trkpt>
      <trkpt lat="45.97164" lon="4.85197">
        <ele>279</ele>
        <time>2017-05-24T09:14:07Z</time>
      </trkpt>
      <trkpt lat="45.9716" lon="4.85205">
        <ele>279</ele>
        <time>2017-05-24T09:14:08Z</time>
      </trkpt>
      <trkpt lat="45.97156" lon="4.85213">
        <ele>279</ele>
        <time>2017-05-24T09:14:09Z</time>
      </trkpt>
      <trkpt lat="45.97152" lon="4.85221">
        <ele>279</ele>
        <time>2017-05-24T09:14:10Z</time>
      </trkpt>
      <trkpt lat="45.97148" lon="4.8523">
        <ele>279</ele>
        <time>2017-05-24T09:14:11Z</time>
      </trkpt>
      <trkpt lat="45.97144" lon="4.85238">
        <ele>279</ele>
        <time>2017-05-24T09:14:12Z</time>
      </trkpt>
      <trkpt lat="45.97141" lon="4.85245">
        <ele>279</ele>
        <time>2017-05-24T09:14:13Z</time>
      </trkpt>
      <trkpt lat="45.97137" lon="4.85252">
        <ele>279</ele>
        <time>2017-05-24T09:14:14Z</time>
      </trkpt>
      <trkpt lat="45.97134" lon="4.85259">
        <ele>279</ele>
        <time>2017-05-24T09:14:15Z</time>
      </trkpt>
      <trkpt lat="45.9713" lon="4.85266">
        <ele>279</ele>
        <time>2017-05-24T09:14:16Z</time>
      </trkpt>
      <trkpt lat="45.97127" lon="4.85273">
        <ele>279</ele>
        <time>2017-05-24T09:14:17Z</time>
      </trkpt>
      <trkpt lat="45.97124" lon="4.85279">
        <ele>280</ele>
        <time>2017-05-24T09:14:18Z</time>
      </trkpt>
      <trkpt lat="45.97121" lon="4.85285">
        <ele>280</ele>
        <time>2017-05-24T09:14:19Z</time>
      </trkpt>
      <trkpt lat="45.97119" lon="4.8529">
        <ele>280</ele>
        <time>2017-05-24T09:14:20Z</time>
      </trkpt>
      <trkpt lat="45.97116" lon="4.85296">
        <ele>280</ele>
        <time>2017-05-24T09:14:21Z</time>
      </trkpt>
      <trkpt lat="45.97113" lon="4.85303">
        <ele>280</ele>
        <time>2017-05-24T09:14:22Z</time>
      </trkpt>
      <trkpt lat="45.9711" lon="4.8531">
        <ele>280</ele>
        <time>2017-05-24T09:14:23Z</time>
      </trkpt>
      <trkpt lat="45.97106" lon="4.85317">
        <ele>280</ele>
        <time>2017-05-24T09:14:24Z</time>
      </trkpt>
      <trkpt lat="45.97103" lon="4.85325">
        <ele>280</ele>
        <time>2017-05-24T09:14:25Z</time>
      </trkpt>
      <trkpt lat="45.971" lon="4.85333">
        <ele>280</ele>
        <time>2017-05-24T09:14:26Z</time>
      </trkpt>
      <trkpt lat="45.97097" lon="4.85342">
        <ele>280</ele>
        <time>2017-05-24T09:14:27Z</time>
      </trkpt>
      <trkpt lat="45.97094" lon="4.85351">
        <ele>280</ele>
        <time>2017-05-24T09:14:28Z</time>
      </trkpt>
      <trkpt lat="45.97091" lon="4.85359">
        <ele>280</ele>
        <time>2017-05-24T09:14:29Z</time>
      </trkpt>
      <trkpt lat="45.97088" lon="4.85367">
        <ele>280</ele>
        <time>2017-05-24T09:14:30Z</time>
      </trkpt>
      <trkpt lat="45.97086" lon="4.85375">
        <ele>280</ele>
        <time>2017-05-24T09:14:31Z</time>
      </trkpt>
      <trkpt lat="45.97084" lon="4.85382">
        <ele>280</ele>
        <time>2017-05-24T09:14:32Z</time>
      </trkpt>
      <trkpt lat="45.97081" lon="4.85389">
        <ele>281</ele>
        <time>2017-05-24T09:14:33Z</time>
      </trkpt>
      <trkpt lat="45.97079" lon="4.85395">
        <ele>281</ele>
        <time>2017-05-24T09:14:34Z</time>
      </trkpt>
      <trkpt lat="45.97077" lon="4.85401">
        <ele>281</ele>
        <time>2017-05-24T09:14:35Z</time>
      </trkpt>
      <trkpt lat="45.97075" lon="4.85408">
        <ele>281</ele>
        <time>2017-05-24T09:14:36Z</time>
      </trkpt>
      <trkpt lat="45.97073" lon="4.85414">
        <ele>281</ele>
        <time>2017-05-24T09:14:37Z</time>
      </trkpt>
      <trkpt lat="45.97071" lon="4.85422">
        <ele>281</ele>
        <time>2017-05-24T09:14:38Z</time>
      </trkpt>
      <trkpt lat="45.97069" lon="4.8543">
        <ele>281</ele>
        <time>2017-05-24T09:14:39Z</time>
      </trkpt>
      <trkpt lat="45.97066" lon="4.85438">
        <ele>281</ele>
        <time>2017-05-24T09:14:40Z</time>
      </trkpt>
      <trkpt lat="45.97063" lon="4.85447">
        <ele>281</ele>
        <time>2017-05-24T09:14:41Z</time>
      </trkpt>
      <trkpt lat="45.97061" lon="4.85456">
        <ele>281</ele>
        <time>2017-05-24T09:14:42Z</time>
      </trkpt>
      <trkpt lat="45.97058" lon="4.85464">
        <ele>281</ele>
        <time>2017-05-24T09:14:43Z</time>
      </trkpt>
      <trkpt lat="45.97055" lon="4.85473">
        <ele>281</ele>
        <time>2017-05-24T09:14:44Z</time>
      </trkpt>
      <trkpt lat="45.97052" lon="4.85481">
        <ele>281</ele>
        <time>2017-05-24T09:14:45Z</time>
      </trkpt>
      <trkpt lat="45.97049" lon="4.85489">
        <ele>281</ele>
        <time>2017-05-24T09:14:46Z</time>
      </trkpt>
      <trkpt lat="45.97047" lon="4.85496">
        <ele>281</ele>
        <time>2017-05-24T09:14:47Z</time>
      </trkpt>
      <trkpt lat="45.97045" lon="4.85504">
        <ele>282</ele>
        <time>2017-05-24T09:14:48Z</time>
      </trkpt>
      <trkpt lat="45.97043" lon="4.8551">
        <ele>282</ele>
        <time>2017-05-24T09:14:49Z</time>
      </trkpt>
      <trkpt lat="45.97041" lon="4.85517">
        <ele>282</ele>
        <time>2017-05-24T09:14:50Z</time>
      </trkpt>
      <trkpt lat="45.97039" lon="4.85523">
        <ele>282</ele>
        <time>2017-05-24T09:14:51Z</time>
      </trkpt>
      <trkpt lat="45.97036" lon="4.85529">
        <ele>282</ele>
        <time>2017-05-24T09:14:52Z</time>
      </trkpt>
      <trkpt lat="45.97034" lon="4.85536">
        <ele>282</ele>
        <time>2017-05-24T09:14:53Z</time>
      </trkpt>
      <trkpt lat="45.97032" lon="4.85544">
        <ele>283</ele>
        <time>2017-05-24T09:14:54Z</time>
      </trkpt>
      <trkpt lat="45.9703" lon="4.85552">
        <ele>283</ele>
        <time>2017-05-24T09:14:55Z</time>
      </trkpt>
      <trkpt lat="45.97027" lon="4.8556">
        <ele>283</ele>
        <time>2017-05-24T09:14:56Z</time>
      </trkpt>
      <trkpt lat="45.97025" lon="4.85568">
        <ele>283</ele>
        <time>2017-05-24T09:14:57Z</time>
      </trkpt>
      <trkpt lat="45.97022" lon="4.85577">
        <ele>283</ele>
        <time>2017-05-24T09:14:58Z</time>
      </trkpt>
      <trkpt lat="45.9702" lon="4.85585">
        <ele>284</ele>
        <time>2017-05-24T09:14:59Z</time>
      </trkpt>
      <trkpt lat="45.97018" lon="4.85593">
        <ele>284</ele>
        <time>2017-05-24T09:15:00Z</time>
      </trkpt>
      <trkpt lat="45.97016" lon="4.85601">
        <ele>284</ele>
        <time>2017-05-24T09:15:01Z</time>
      </trkpt>
      <trkpt lat="45.97014" lon="4.85609">
        <ele>284</ele>
        <time>2017-05-24T09:15:02Z</time>
      </trkpt>
      <trkpt lat="45.97012" lon="4.85616">
        <ele>284</ele>
        <time>2017-05-24T09:15:03Z</time>
      </trkpt>
      <trkpt lat="45.9701" lon="4.85623">
        <ele>284</ele>
        <time>2017-05-24T09:15:04Z</time>
      </trkpt>
      <trkpt lat="45.97009" lon="4.85629">
        <ele>284</ele>
        <time>2017-05-24T09:15:05Z</time>
      </trkpt>
      <trkpt lat="45.97006" lon="4.85641">
        <ele>284</ele>
        <time>2017-05-24T09:15:07Z</time>
      </trkpt>
      <trkpt lat="45.97004" lon="4.85647">
        <ele>285</ele>
        <time>2017-05-24T09:15:08Z</time>
      </trkpt>
      <trkpt lat="45.97002" lon="4.85655">
        <ele>285</ele>
        <time>2017-05-24T09:15:09Z</time>
      </trkpt>
      <trkpt lat="45.97" lon="4.85662">
        <ele>285</ele>
        <time>2017-05-24T09:15:10Z</time>
      </trkpt>
      <trkpt lat="45.96998" lon="4.85669">
        <ele>286</ele>
        <time>2017-05-24T09:15:11Z</time>
      </trkpt>
      <trkpt lat="45.96996" lon="4.85678">
        <ele>286</ele>
        <time>2017-05-24T09:15:12Z</time>
      </trkpt>
      <trkpt lat="45.96993" lon="4.85686">
        <ele>285</ele>
        <time>2017-05-24T09:15:13Z</time>
      </trkpt>
      <trkpt lat="45.96991" lon="4.85695">
        <ele>285</ele>
        <time>2017-05-24T09:15:14Z</time>
      </trkpt>
      <trkpt lat="45.96989" lon="4.85704">
        <ele>285</ele>
        <time>2017-05-24T09:15:15Z</time>
      </trkpt>
      <trkpt lat="45.96986" lon="4.85712">
        <ele>285</ele>
        <time>2017-05-24T09:15:16Z</time>
      </trkpt>
      <trkpt lat="45.96984" lon="4.8572">
        <ele>285</ele>
        <time>2017-05-24T09:15:17Z</time>
      </trkpt>
      <trkpt lat="45.96982" lon="4.85728">
        <ele>285</ele>
        <time>2017-05-24T09:15:18Z</time>
      </trkpt>
      <trkpt lat="45.9698" lon="4.85736">
        <ele>285</ele>
        <time>2017-05-24T09:15:19Z</time>
      </trkpt>
      <trkpt lat="45.96978" lon="4.85744">
        <ele>285</ele>
        <time>2017-05-24T09:15:20Z</time>
      </trkpt>
      <trkpt lat="45.96975" lon="4.85752">
        <ele>285</ele>
        <time>2017-05-24T09:15:21Z</time>
      </trkpt>
      <trkpt lat="45.96973" lon="4.8576">
        <ele>285</ele>
        <time>2017-05-24T09:15:22Z</time>
      </trkpt>
      <trkpt lat="45.96971" lon="4.85767">
        <ele>285</ele>
        <time>2017-05-24T09:15:23Z</time>
      </trkpt>
      <trkpt lat="45.96969" lon="4.85775">
        <ele>285</ele>
        <time>2017-05-24T09:15:24Z</time>
      </trkpt>
      <trkpt lat="45.96967" lon="4.85782">
        <ele>285</ele>
        <time>2017-05-24T09:15:25Z</time>
      </trkpt>
      <trkpt lat="45.96966" lon="4.85789">
        <ele>285</ele>
        <time>2017-05-24T09:15:26Z</time>
      </trkpt>
      <trkpt lat="45.96964" lon="4.85796">
        <ele>285</ele>
        <time>2017-05-24T09:15:27Z</time>
      </trkpt>
      <trkpt lat="45.96962" lon="4.85803">
        <ele>285</ele>
        <time>2017-05-24T09:15:28Z</time>
      </trkpt>
      <trkpt lat="45.9696" lon="4.85809">
        <ele>285</ele>
        <time>2017-05-24T09:15:29Z</time>
      </trkpt>
      <trkpt lat="45.96959" lon="4.85815">
        <ele>285</ele>
        <time>2017-05-24T09:15:30Z</time>
      </trkpt>
      <trkpt lat="45.96957" lon="4.85822">
        <ele>285</ele>
        <time>2017-05-24T09:15:31Z</time>
      </trkpt>
      <trkpt lat="45.96955" lon="4.8583">
        <ele>285</ele>
        <time>2017-05-24T09:15:32Z</time>
      </trkpt>
      <trkpt lat="45.96953" lon="4.85838">
        <ele>285</ele>
        <time>2017-05-24T09:15:33Z</time>
      </trkpt>
      <trkpt lat="45.96951" lon="4.85846">
        <ele>285</ele>
        <time>2017-05-24T09:15:34Z</time>
      </trkpt>
      <trkpt lat="45.96949" lon="4.85855">
        <ele>285</ele>
        <time>2017-05-24T09:15:35Z</time>
      </trkpt>
      <trkpt lat="45.96947" lon="4.85864">
        <ele>285</ele>
        <time>2017-05-24T09:15:36Z</time>
      </trkpt>
      <trkpt lat="45.96944" lon="4.85873">
        <ele>285</ele>
        <time>2017-05-24T09:15:37Z</time>
      </trkpt>
      <trkpt lat="45.96942" lon="4.85882">
        <ele>285</ele>
        <time>2017-05-24T09:15:38Z</time>
      </trkpt>
      <trkpt lat="45.96939" lon="4.8589">
        <ele>285</ele>
        <time>2017-05-24T09:15:39Z</time>
      </trkpt>
      <trkpt lat="45.96937" lon="4.85898">
        <ele>285</ele>
        <time>2017-05-24T09:15:40Z</time>
      </trkpt>
      <trkpt lat="45.96935" lon="4.85905">
        <ele>286</ele>
        <time>2017-05-24T09:15:41Z</time>
      </trkpt>
      <trkpt lat="45.96933" lon="4.85912">
        <ele>286</ele>
        <time>2017-05-24T09:15:42Z</time>
      </trkpt>
      <trkpt lat="45.96931" lon="4.85919">
        <ele>286</ele>
        <time>2017-05-24T09:15:43Z</time>
      </trkpt>
      <trkpt lat="45.96929" lon="4.85925">
        <ele>286</ele>
        <time>2017-05-24T09:15:44Z</time>
      </trkpt>
      <trkpt lat="45.96927" lon="4.85931">
        <ele>286</ele>
        <time>2017-05-24T09:15:45Z</time>
      </trkpt>
      <trkpt lat="45.96926" lon="4.85937">
        <ele>286</ele>
        <time>2017-05-24T09:15:46Z</time>
      </trkpt>
      <trkpt lat="45.96924" lon="4.85944">
        <ele>286</ele>
        <time>2017-05-24T09:15:47Z</time>
      </trkpt>
      <trkpt lat="45.96922" lon="4.85951">
        <ele>287</ele>
        <time>2017-05-24T09:15:48Z</time>
      </trkpt>
      <trkpt lat="45.96921" lon="4.85959">
        <ele>287</ele>
        <time>2017-05-24T09:15:49Z</time>
      </trkpt>
      <trkpt lat="45.96919" lon="4.85967">
        <ele>287</ele>
        <time>2017-05-24T09:15:50Z</time>
      </trkpt>
      <trkpt lat="45.96916" lon="4.85976">
        <ele>288</ele>
        <time>2017-05-24T09:15:51Z</time>
      </trkpt>
      <trkpt lat="45.96914" lon="4.85984">
        <ele>288</ele>
        <time>2017-05-24T09:15:52Z</time>
      </trkpt>
      <trkpt lat="45.96912" lon="4.85993">
        <ele>288</ele>
        <time>2017-05-24T09:15:53Z</time>
      </trkpt>
      <trkpt lat="45.9691" lon="4.86002">
        <ele>288</ele>
        <time>2017-05-24T09:15:54Z</time>
      </trkpt>
      <trkpt lat="45.96909" lon="4.86011">
        <ele>288</ele>
        <time>2017-05-24T09:15:55Z</time>
      </trkpt>
      <trkpt lat="45.96907" lon="4.86019">
        <ele>289</ele>
        <time>2017-05-24T09:15:56Z</time>
      </trkpt>
      <trkpt lat="45.96906" lon="4.86027">
        <ele>289</ele>
        <time>2017-05-24T09:15:57Z</time>
      </trkpt>
      <trkpt lat="45.96905" lon="4.86034">
        <ele>289</ele>
        <time>2017-05-24T09:15:58Z</time>
      </trkpt>
      <trkpt lat="45.96904" lon="4.86041">
        <ele>289</ele>
        <time>2017-05-24T09:15:59Z</time>
      </trkpt>
      <trkpt lat="45.96903" lon="4.86048">
        <ele>289</ele>
        <time>2017-05-24T09:16:00Z</time>
      </trkpt>
      <trkpt lat="45.96903" lon="4.86055">
        <ele>289</ele>
        <time>2017-05-24T09:16:01Z</time>
      </trkpt>
      <trkpt lat="45.96903" lon="4.86062">
        <ele>288</ele>
        <time>2017-05-24T09:16:02Z</time>
      </trkpt>
      <trkpt lat="45.96902" lon="4.8607">
        <ele>288</ele>
        <time>2017-05-24T09:16:03Z</time>
      </trkpt>
      <trkpt lat="45.96901" lon="4.86078">
        <ele>288</ele>
        <time>2017-05-24T09:16:04Z</time>
      </trkpt>
      <trkpt lat="45.969" lon="4.86086">
        <ele>288</ele>
        <time>2017-05-24T09:16:05Z</time>
      </trkpt>
      <trkpt lat="45.96899" lon="4.86094">
        <ele>288</ele>
        <time>2017-05-24T09:16:06Z</time>
      </trkpt>
      <trkpt lat="45.96898" lon="4.86102">
        <ele>289</ele>
        <time>2017-05-24T09:16:07Z</time>
      </trkpt>
      <trkpt lat="45.96897" lon="4.86111">
        <ele>289</ele>
        <time>2017-05-24T09:16:08Z</time>
      </trkpt>
      <trkpt lat="45.96896" lon="4.8612">
        <ele>289</ele>
        <time>2017-05-24T09:16:09Z</time>
      </trkpt>
      <trkpt lat="45.96896" lon="4.86128">
        <ele>289</ele>
        <time>2017-05-24T09:16:10Z</time>
      </trkpt>
      <trkpt lat="45.96894" lon="4.86136">
        <ele>289</ele>
        <time>2017-05-24T09:16:11Z</time>
      </trkpt>
      <trkpt lat="45.96894" lon="4.86143">
        <ele>289</ele>
        <time>2017-05-24T09:16:12Z</time>
      </trkpt>
      <trkpt lat="45.96893" lon="4.8615">
        <ele>289</ele>
        <time>2017-05-24T09:16:13Z</time>
      </trkpt>
      <trkpt lat="45.96892" lon="4.86156">
        <ele>289</ele>
        <time>2017-05-24T09:16:14Z</time>
      </trkpt>
      <trkpt lat="45.96891" lon="4.86163">
        <ele>289</ele>
        <time>2017-05-24T09:16:15Z</time>
      </trkpt>
      <trkpt lat="45.9689" lon="4.8617">
        <ele>289</ele>
        <time>2017-05-24T09:16:16Z</time>
      </trkpt>
      <trkpt lat="45.96889" lon="4.86177">
        <ele>289</ele>
        <time>2017-05-24T09:16:17Z</time>
      </trkpt>
      <trkpt lat="45.96888" lon="4.86185">
        <ele>289</ele>
        <time>2017-05-24T09:16:18Z</time>
      </trkpt>
      <trkpt lat="45.96887" lon="4.86193">
        <ele>289</ele>
        <time>2017-05-24T09:16:19Z</time>
      </trkpt>
      <trkpt lat="45.96886" lon="4.862">
        <ele>289</ele>
        <time>2017-05-24T09:16:20Z</time>
      </trkpt>
      <trkpt lat="45.96885" lon="4.86208">
        <ele>289</ele>
        <time>2017-05-24T09:16:21Z</time>
      </trkpt>
      <trkpt lat="45.96884" lon="4.86216">
        <ele>289</ele>
        <time>2017-05-24T09:16:22Z</time>
      </trkpt>
      <trkpt lat="45.96883" lon="4.86223">
        <ele>289</ele>
        <time>2017-05-24T09:16:23Z</time>
      </trkpt>
      <trkpt lat="45.96882" lon="4.8623">
        <ele>289</ele>
        <time>2017-05-24T09:16:24Z</time>
      </trkpt>
      <trkpt lat="45.96881" lon="4.86237">
        <ele>289</ele>
        <time>2017-05-24T09:16:25Z</time>
      </trkpt>
      <trkpt lat="45.96881" lon="4.86244">
        <ele>289</ele>
        <time>2017-05-24T09:16:26Z</time>
      </trkpt>
      <trkpt lat="45.96879" lon="4.86256">
        <ele>288</ele>
        <time>2017-05-24T09:16:28Z</time>
      </trkpt>
      <trkpt lat="45.96878" lon="4.86262">
        <ele>288</ele>
        <time>2017-05-24T09:16:29Z</time>
      </trkpt>
      <trkpt lat="45.96877" lon="4.86273">
        <ele>289</ele>
        <time>2017-05-24T09:16:31Z</time>
      </trkpt>
      <trkpt lat="45.96876" lon="4.86279">
        <ele>289</ele>
        <time>2017-05-24T09:16:32Z</time>
      </trkpt>
      <trkpt lat="45.96875" lon="4.86289">
        <ele>289</ele>
        <time>2017-05-24T09:16:34Z</time>
      </trkpt>
      <trkpt lat="45.96874" lon="4.86294">
        <ele>289</ele>
        <time>2017-05-24T09:16:35Z</time>
      </trkpt>
      <trkpt lat="45.96873" lon="4.86304">
        <ele>289</ele>
        <time>2017-05-24T09:16:37Z</time>
      </trkpt>
      <trkpt lat="45.96872" lon="4.8631">
        <ele>289</ele>
        <time>2017-05-24T09:16:38Z</time>
      </trkpt>
      <trkpt lat="45.9687" lon="4.86321">
        <ele>289</ele>
        <time>2017-05-24T09:16:40Z</time>
      </trkpt>
      <trkpt lat="45.9687" lon="4.86326">
        <ele>289</ele>
        <time>2017-05-24T09:16:41Z</time>
      </trkpt>
      <trkpt lat="45.96868" lon="4.86338">
        <ele>290</ele>
        <time>2017-05-24T09:16:43Z</time>
      </trkpt>
      <trkpt lat="45.96867" lon="4.86343">
        <ele>290</ele>
        <time>2017-05-24T09:16:44Z</time>
      </trkpt>
      <trkpt lat="45.96865" lon="4.86355">
        <ele>290</ele>
        <time>2017-05-24T09:16:46Z</time>
      </trkpt>
      <trkpt lat="45.96864" lon="4.86361">
        <ele>290</ele>
        <time>2017-05-24T09:16:47Z</time>
      </trkpt>
      <trkpt lat="45.96862" lon="4.86372">
        <ele>290</ele>
        <time>2017-05-24T09:16:49Z</time>
      </trkpt>
      <trkpt lat="45.96862" lon="4.86378">
        <ele>290</ele>
        <time>2017-05-24T09:16:50Z</time>
      </trkpt>
      <trkpt lat="45.96861" lon="4.86385">
        <ele>290</ele>
        <time>2017-05-24T09:16:51Z</time>
      </trkpt>
      <trkpt lat="45.9686" lon="4.86393">
        <ele>290</ele>
        <time>2017-05-24T09:16:52Z</time>
      </trkpt>
      <trkpt lat="45.96858" lon="4.86401">
        <ele>290</ele>
        <time>2017-05-24T09:16:53Z</time>
      </trkpt>
      <trkpt lat="45.96857" lon="4.86409">
        <ele>290</ele>
        <time>2017-05-24T09:16:54Z</time>
      </trkpt>
      <trkpt lat="45.96856" lon="4.86418">
        <ele>290</ele>
        <time>2017-05-24T09:16:55Z</time>
      </trkpt>
      <trkpt lat="45.96854" lon="4.86428">
        <ele>290</ele>
        <time>2017-05-24T09:16:56Z</time>
      </trkpt>
      <trkpt lat="45.96853" lon="4.86436">
        <ele>290</ele>
        <time>2017-05-24T09:16:57Z</time>
      </trkpt>
      <trkpt lat="45.96851" lon="4.86445">
        <ele>290</ele>
        <time>2017-05-24T09:16:58Z</time>
      </trkpt>
      <trkpt lat="45.96849" lon="4.86453">
        <ele>289</ele>
        <time>2017-05-24T09:16:59Z</time>
      </trkpt>
      <trkpt lat="45.96847" lon="4.86461">
        <ele>289</ele>
        <time>2017-05-24T09:17:00Z</time>
      </trkpt>
      <trkpt lat="45.96845" lon="4.86469">
        <ele>289</ele>
        <time>2017-05-24T09:17:01Z</time>
      </trkpt>
      <trkpt lat="45.96843" lon="4.86476">
        <ele>289</ele>
        <time>2017-05-24T09:17:02Z</time>
      </trkpt>
      <trkpt lat="45.96841" lon="4.86484">
        <ele>289</ele>
        <time>2017-05-24T09:17:03Z</time>
      </trkpt>
      <trkpt lat="45.96839" lon="4.8649">
        <ele>289</ele>
        <time>2017-05-24T09:17:04Z</time>
      </trkpt>
      <trkpt lat="45.96836" lon="4.86497">
        <ele>289</ele>
        <time>2017-05-24T09:17:05Z</time>
      </trkpt>
      <trkpt lat="45.96834" lon="4.86503">
        <ele>289</ele>
        <time>2017-05-24T09:17:06Z</time>
      </trkpt>
      <trkpt lat="45.96831" lon="4.86509">
        <ele>289</ele>
        <time>2017-05-24T09:17:07Z</time>
      </trkpt>
      <trkpt lat="45.96828" lon="4.86515">
        <ele>289</ele>
        <time>2017-05-24T09:17:08Z</time>
      </trkpt>
      <trkpt lat="45.96825" lon="4.86521">
        <ele>289</ele>
        <time>2017-05-24T09:17:09Z</time>
      </trkpt>
      <trkpt lat="45.96821" lon="4.86527">
        <ele>289</ele>
        <time>2017-05-24T09:17:10Z</time>
      </trkpt>
      <trkpt lat="45.96818" lon="4.86533">
        <ele>290</ele>
        <time>2017-05-24T09:17:11Z</time>
      </trkpt>
      <trkpt lat="45.96815" lon="4.86539">
        <ele>290</ele>
        <time>2017-05-24T09:17:12Z</time>
      </trkpt>
      <trkpt lat="45.96811" lon="4.86545">
        <ele>290</ele>
        <time>2017-05-24T09:17:13Z</time>
      </trkpt>
      <trkpt lat="45.96807" lon="4.86552">
        <ele>290</ele>
        <time>2017-05-24T09:17:14Z</time>
      </trkpt>
      <trkpt lat="45.96803" lon="4.86557">
        <ele>290</ele>
        <time>2017-05-24T09:17:15Z</time>
      </trkpt>
      <trkpt lat="45.968" lon="4.86563">
        <ele>290</ele>
        <time>2017-05-24T09:17:16Z</time>
      </trkpt>
      <trkpt lat="45.96796" lon="4.86568">
        <ele>290</ele>
        <time>2017-05-24T09:17:17Z</time>
      </trkpt>
      <trkpt lat="45.96792" lon="4.86574">
        <ele>290</ele>
        <time>2017-05-24T09:17:18Z</time>
      </trkpt>
      <trkpt lat="45.96788" lon="4.86579">
        <ele>290</ele>
        <time>2017-05-24T09:17:19Z</time>
      </trkpt>
      <trkpt lat="45.96785" lon="4.86584">
        <ele>289</ele>
        <time>2017-05-24T09:17:20Z</time>
      </trkpt>
      <trkpt lat="45.96781" lon="4.86589">
        <ele>289</ele>
        <time>2017-05-24T09:17:21Z</time>
      </trkpt>
      <trkpt lat="45.96777" lon="4.86595">
        <ele>289</ele>
        <time>2017-05-24T09:17:22Z</time>
      </trkpt>
      <trkpt lat="45.96774" lon="4.86601">
        <ele>289</ele>
        <time>2017-05-24T09:17:23Z</time>
      </trkpt>
      <trkpt lat="45.9677" lon="4.86608">
        <ele>289</ele>
        <time>2017-05-24T09:17:24Z</time>
      </trkpt>
      <trkpt lat="45.96766" lon="4.86615">
        <ele>289</ele>
        <time>2017-05-24T09:17:25Z</time>
      </trkpt>
      <trkpt lat="45.96762" lon="4.86621">
        <ele>289</ele>
        <time>2017-05-24T09:17:26Z</time>
      </trkpt>
      <trkpt lat="45.96758" lon="4.86627">
        <ele>290</ele>
        <time>2017-05-24T09:17:27Z</time>
      </trkpt>
      <trkpt lat="45.96755" lon="4.86634">
        <ele>290</ele>
        <time>2017-05-24T09:17:28Z</time>
      </trkpt>
      <trkpt lat="45.96751" lon="4.8664">
        <ele>290</ele>
        <time>2017-05-24T09:17:29Z</time>
      </trkpt>
      <trkpt lat="45.96747" lon="4.86647">
        <ele>290</ele>
        <time>2017-05-24T09:17:30Z</time>
      </trkpt>
      <trkpt lat="45.96743" lon="4.86654">
        <ele>290</ele>
        <time>2017-05-24T09:17:31Z</time>
      </trkpt>
      <trkpt lat="45.9674" lon="4.8666">
        <ele>290</ele>
        <time>2017-05-24T09:17:32Z</time>
      </trkpt>
      <trkpt lat="45.96737" lon="4.86667">
        <ele>290</ele>
        <time>2017-05-24T09:17:33Z</time>
      </trkpt>
      <trkpt lat="45.96733" lon="4.86674">
        <ele>290</ele>
        <time>2017-05-24T09:17:34Z</time>
      </trkpt>
      <trkpt lat="45.96729" lon="4.86681">
        <ele>289</ele>
        <time>2017-05-24T09:17:35Z</time>
      </trkpt>
      <trkpt lat="45.96725" lon="4.86688">
        <ele>289</ele>
        <time>2017-05-24T09:17:36Z</time>
      </trkpt>
      <trkpt lat="45.96721" lon="4.86694">
        <ele>289</ele>
        <time>2017-05-24T09:17:37Z</time>
      </trkpt>
      <trkpt lat="45.96716" lon="4.867">
        <ele>289</ele>
        <time>2017-05-24T09:17:38Z</time>
      </trkpt>
      <trkpt lat="45.96712" lon="4.86707">
        <ele>289</ele>
        <time>2017-05-24T09:17:39Z</time>
      </trkpt>
      <trkpt lat="45.96708" lon="4.86714">
        <ele>289</ele>
        <time>2017-05-24T09:17:40Z</time>
      </trkpt>
      <trkpt lat="45.96704" lon="4.86721">
        <ele>289</ele>
        <time>2017-05-24T09:17:41Z</time>
      </trkpt>
      <trkpt lat="45.96699" lon="4.86729">
        <ele>289</ele>
        <time>2017-05-24T09:17:42Z</time>
      </trkpt>
      <trkpt lat="45.96695" lon="4.86737">
        <ele>289</ele>
        <time>2017-05-24T09:17:43Z</time>
      </trkpt>
      <trkpt lat="45.96691" lon="4.86744">
        <ele>289</ele>
        <time>2017-05-24T09:17:44Z</time>
      </trkpt>
      <trkpt lat="45.96687" lon="4.86751">
        <ele>289</ele>
        <time>2017-05-24T09:17:45Z</time>
      </trkpt>
      <trkpt lat="45.96682" lon="4.86758">
        <ele>289</ele>
        <time>2017-05-24T09:17:46Z</time>
      </trkpt>
      <trkpt lat="45.96678" lon="4.86765">
        <ele>289</ele>
        <time>2017-05-24T09:17:47Z</time>
      </trkpt>
      <trkpt lat="45.96674" lon="4.86772">
        <ele>289</ele>
        <time>2017-05-24T09:17:48Z</time>
      </trkpt>
      <trkpt lat="45.96669" lon="4.86779">
        <ele>289</ele>
        <time>2017-05-24T09:17:49Z</time>
      </trkpt>
      <trkpt lat="45.96665" lon="4.86786">
        <ele>288</ele>
        <time>2017-05-24T09:17:50Z</time>
      </trkpt>
      <trkpt lat="45.96661" lon="4.86793">
        <ele>288</ele>
        <time>2017-05-24T09:17:51Z</time>
      </trkpt>
      <trkpt lat="45.96657" lon="4.86799">
        <ele>288</ele>
        <time>2017-05-24T09:17:52Z</time>
      </trkpt>
      <trkpt lat="45.96653" lon="4.86806">
        <ele>288</ele>
        <time>2017-05-24T09:17:53Z</time>
      </trkpt>
      <trkpt lat="45.96648" lon="4.86813">
        <ele>288</ele>
        <time>2017-05-24T09:17:54Z</time>
      </trkpt>
      <trkpt lat="45.96644" lon="4.8682">
        <ele>288</ele>
        <time>2017-05-24T09:17:55Z</time>
      </trkpt>
      <trkpt lat="45.9664" lon="4.86827">
        <ele>288</ele>
        <time>2017-05-24T09:17:56Z</time>
      </trkpt>
      <trkpt lat="45.96635" lon="4.86833">
        <ele>288</ele>
        <time>2017-05-24T09:17:57Z</time>
      </trkpt>
      <trkpt lat="45.96631" lon="4.8684">
        <ele>287</ele>
        <time>2017-05-24T09:17:58Z</time>
      </trkpt>
      <trkpt lat="45.96627" lon="4.86847">
        <ele>287</ele>
        <time>2017-05-24T09:17:59Z</time>
      </trkpt>
      <trkpt lat="45.96623" lon="4.86854">
        <ele>287</ele>
        <time>2017-05-24T09:18:00Z</time>
      </trkpt>
      <trkpt lat="45.96619" lon="4.86861">
        <ele>287</ele>
        <time>2017-05-24T09:18:01Z</time>
      </trkpt>
      <trkpt lat="45.96615" lon="4.86867">
        <ele>287</ele>
        <time>2017-05-24T09:18:02Z</time>
      </trkpt>
      <trkpt lat="45.96611" lon="4.86874">
        <ele>287</ele>
        <time>2017-05-24T09:18:03Z</time>
      </trkpt>
      <trkpt lat="45.96606" lon="4.8688">
        <ele>287</ele>
        <time>2017-05-24T09:18:04Z</time>
      </trkpt>
      <trkpt lat="45.96602" lon="4.86887">
        <ele>287</ele>
        <time>2017-05-24T09:18:05Z</time>
      </trkpt>
      <trkpt lat="45.96598" lon="4.86894">
        <ele>286</ele>
        <time>2017-05-24T09:18:06Z</time>
      </trkpt>
      <trkpt lat="45.96594" lon="4.86901">
        <ele>286</ele>
        <time>2017-05-24T09:18:07Z</time>
      </trkpt>
      <trkpt lat="45.96589" lon="4.86907">
        <ele>286</ele>
        <time>2017-05-24T09:18:08Z</time>
      </trkpt>
      <trkpt lat="45.96585" lon="4.86914">
        <ele>285</ele>
        <time>2017-05-24T09:18:09Z</time>
      </trkpt>
      <trkpt lat="45.96581" lon="4.86922">
        <ele>285</ele>
        <time>2017-05-24T09:18:10Z</time>
      </trkpt>
      <trkpt lat="45.96577" lon="4.8693">
        <ele>284</ele>
        <time>2017-05-24T09:18:11Z</time>
      </trkpt>
      <trkpt lat="45.96572" lon="4.86937">
        <ele>284</ele>
        <time>2017-05-24T09:18:12Z</time>
      </trkpt>
      <trkpt lat="45.96568" lon="4.86945">
        <ele>284</ele>
        <time>2017-05-24T09:18:13Z</time>
      </trkpt>
      <trkpt lat="45.96563" lon="4.86953">
        <ele>283</ele>
        <time>2017-05-24T09:18:14Z</time>
      </trkpt>
      <trkpt lat="45.9656" lon="4.8696">
        <ele>283</ele>
        <time>2017-05-24T09:18:15Z</time>
      </trkpt>
      <trkpt lat="45.96556" lon="4.86967">
        <ele>283</ele>
        <time>2017-05-24T09:18:16Z</time>
      </trkpt>
      <trkpt lat="45.96552" lon="4.86973">
        <ele>283</ele>
        <time>2017-05-24T09:18:17Z</time>
      </trkpt>
      <trkpt lat="45.96549" lon="4.86978">
        <ele>283</ele>
        <time>2017-05-24T09:18:18Z</time>
      </trkpt>
      <trkpt lat="45.96543" lon="4.86986">
        <ele>283</ele>
        <time>2017-05-24T09:18:20Z</time>
      </trkpt>
      <trkpt lat="45.96542" lon="4.86988">
        <ele>283</ele>
        <time>2017-05-24T09:18:21Z</time>
      </trkpt>
      <trkpt lat="45.96539" lon="4.86996">
        <ele>283</ele>
        <time>2017-05-24T09:18:23Z</time>
      </trkpt>
      <trkpt lat="45.96539" lon="4.87001">
        <ele>283</ele>
        <time>2017-05-24T09:18:24Z</time>
      </trkpt>
      <trkpt lat="45.96541" lon="4.87011">
        <ele>283</ele>
        <time>2017-05-24T09:18:26Z</time>
      </trkpt>
      <trkpt lat="45.96544" lon="4.87016">
        <ele>283</ele>
        <time>2017-05-24T09:18:27Z</time>
      </trkpt>
      <trkpt lat="45.9655" lon="4.87025">
        <ele>283</ele>
        <time>2017-05-24T09:18:30Z</time>
      </trkpt>
      <trkpt lat="45.96551" lon="4.87028">
        <ele>283</ele>
        <time>2017-05-24T09:18:31Z</time>
      </trkpt>
      <trkpt lat="45.96551" lon="4.87029">
        <ele>283</ele>
        <time>2017-05-24T09:18:32Z</time>
      </trkpt>
      <trkpt lat="45.96549" lon="4.87032">
        <ele>283</ele>
        <time>2017-05-24T09:22:16Z</time>
      </trkpt>
      <trkpt lat="45.96548" lon="4.87033">
        <ele>283</ele>
        <time>2017-05-24T09:22:17Z</time>
      </trkpt>
      <trkpt lat="45.96539" lon="4.87032">
        <ele>283</ele>
        <time>2017-05-24T09:22:30Z</time>
      </trkpt>
      <trkpt lat="45.96538" lon="4.87032">
        <ele>283</ele>
        <time>2017-05-24T09:22:31Z</time>
      </trkpt>
      <trkpt lat="45.96531" lon="4.87027">
        <ele>283</ele>
        <time>2017-05-24T09:22:38Z</time>
      </trkpt>
      <trkpt lat="45.9653" lon="4.87027">
        <ele>283</ele>
        <time>2017-05-24T09:22:39Z</time>
      </trkpt>
      <trkpt lat="45.96535" lon="4.87038">
        <ele>283</ele>
        <time>2017-05-24T09:22:53Z</time>
      </trkpt>
      <trkpt lat="45.96535" lon="4.87038">
        <ele>283</ele>
        <time>2017-05-24T09:22:54Z</time>
      </trkpt>
      <trkpt lat="45.96544" lon="4.87039">
        <ele>283</ele>
        <time>2017-05-24T09:24:52Z</time>
      </trkpt>
      <trkpt lat="45.96544" lon="4.87039">
        <ele>283</ele>
        <time>2017-05-24T09:24:53Z</time>
      </trkpt>
      <trkpt lat="45.96552" lon="4.87044">
        <ele>283</ele>
        <time>2017-05-24T09:25:19Z</time>
      </trkpt>
      <trkpt lat="45.96552" lon="4.87047">
        <ele>283</ele>
        <time>2017-05-24T09:25:20Z</time>
      </trkpt>
      <trkpt lat="45.96555" lon="4.87057">
        <ele>283</ele>
        <time>2017-05-24T09:25:24Z</time>
      </trkpt>
      <trkpt lat="45.96555" lon="4.8706">
        <ele>283</ele>
        <time>2017-05-24T09:25:25Z</time>
      </trkpt>
      <trkpt lat="45.96555" lon="4.87072">
        <ele>283</ele>
        <time>2017-05-24T09:25:30Z</time>
      </trkpt>
      <trkpt lat="45.96554" lon="4.87074">
        <ele>283</ele>
        <time>2017-05-24T09:25:31Z</time>
      </trkpt>
      <trkpt lat="45.96546" lon="4.87074">
        <ele>283</ele>
        <time>2017-05-24T09:25:35Z</time>
      </trkpt>
      <trkpt lat="45.96543" lon="4.87074">
        <ele>283</ele>
        <time>2017-05-24T09:25:36Z</time>
      </trkpt>
      <trkpt lat="45.96538" lon="4.87066">
        <ele>283</ele>
        <time>2017-05-24T09:25:40Z</time>
      </trkpt>
      <trkpt lat="45.96536" lon="4.87064">
        <ele>283</ele>
        <time>2017-05-24T09:25:41Z</time>
      </trkpt>
      <trkpt lat="45.96529" lon="4.8706">
        <ele>283</ele>
        <time>2017-05-24T09:25:44Z</time>
      </trkpt>
      <trkpt lat="45.96527" lon="4.87058">
        <ele>283</ele>
        <time>2017-05-24T09:25:45Z</time>
      </trkpt>
      <trkpt lat="45.96524" lon="4.8705">
        <ele>283</ele>
        <time>2017-05-24T09:25:47Z</time>
      </trkpt>
      <trkpt lat="45.96522" lon="4.87046">
        <ele>283</ele>
        <time>2017-05-24T09:25:48Z</time>
      </trkpt>
      <trkpt lat="45.96518" lon="4.87038">
        <ele>283</ele>
        <time>2017-05-24T09:25:51Z</time>
      </trkpt>
      <trkpt lat="45.96515" lon="4.87036">
        <ele>283</ele>
        <time>2017-05-24T09:25:52Z</time>
      </trkpt>
      <trkpt lat="45.9651" lon="4.87036">
        <ele>282</ele>
        <time>2017-05-24T09:25:54Z</time>
      </trkpt>
      <trkpt lat="45.96507" lon="4.87039">
        <ele>282</ele>
        <time>2017-05-24T09:25:55Z</time>
      </trkpt>
      <trkpt lat="45.965" lon="4.87046">
        <ele>281</ele>
        <time>2017-05-24T09:25:57Z</time>
      </trkpt>
      <trkpt lat="45.96496" lon="4.87051">
        <ele>281</ele>
        <time>2017-05-24T09:25:58Z</time>
      </trkpt>
      <trkpt lat="45.96492" lon="4.87056">
        <ele>281</ele>
        <time>2017-05-24T09:25:59Z</time>
      </trkpt>
      <trkpt lat="45.96489" lon="4.8706">
        <ele>281</ele>
        <time>2017-05-24T09:26:00Z</time>
      </trkpt>
      <trkpt lat="45.96485" lon="4.87065">
        <ele>282</ele>
        <time>2017-05-24T09:26:01Z</time>
      </trkpt>
      <trkpt lat="45.96482" lon="4.8707">
        <ele>282</ele>
        <time>2017-05-24T09:26:02Z</time>
      </trkpt>
      <trkpt lat="45.96478" lon="4.87074">
        <ele>282</ele>
        <time>2017-05-24T09:26:03Z</time>
      </trkpt>
      <trkpt lat="45.96474" lon="4.87079">
        <ele>281</ele>
        <time>2017-05-24T09:26:04Z</time>
      </trkpt>
      <trkpt lat="45.96471" lon="4.87084">
        <ele>282</ele>
        <time>2017-05-24T09:26:05Z</time>
      </trkpt>
      <trkpt lat="45.96467" lon="4.87089">
        <ele>282</ele>
        <time>2017-05-24T09:26:06Z</time>
      </trkpt>
      <trkpt lat="45.96463" lon="4.87094">
        <ele>282</ele>
        <time>2017-05-24T09:26:07Z</time>
      </trkpt>
      <trkpt lat="45.9646" lon="4.87098">
        <ele>282</ele>
        <time>2017-05-24T09:26:08Z</time>
      </trkpt>
      <trkpt lat="45.96456" lon="4.87103">
        <ele>281</ele>
        <time>2017-05-24T09:26:09Z</time>
      </trkpt>
      <trkpt lat="45.96452" lon="4.87108">
        <ele>281</ele>
        <time>2017-05-24T09:26:10Z</time>
      </trkpt>
      <trkpt lat="45.96448" lon="4.87112">
        <ele>281</ele>
        <time>2017-05-24T09:26:11Z</time>
      </trkpt>
      <trkpt lat="45.96444" lon="4.87117">
        <ele>281</ele>
        <time>2017-05-24T09:26:12Z</time>
      </trkpt>
      <trkpt lat="45.96441" lon="4.87121">
        <ele>281</ele>
        <time>2017-05-24T09:26:13Z</time>
      </trkpt>
      <trkpt lat="45.96437" lon="4.87126">
        <ele>281</ele>
        <time>2017-05-24T09:26:14Z</time>
      </trkpt>
      <trkpt lat="45.96434" lon="4.87131">
        <ele>281</ele>
        <time>2017-05-24T09:26:15Z</time>
      </trkpt>
      <trkpt lat="45.9643" lon="4.87136">
        <ele>281</ele>
        <time>2017-05-24T09:26:16Z</time>
      </trkpt>
      <trkpt lat="45.96426" lon="4.87141">
        <ele>281</ele>
        <time>2017-05-24T09:26:17Z</time>
      </trkpt>
      <trkpt lat="45.96422" lon="4.87146">
        <ele>281</ele>
        <time>2017-05-24T09:26:18Z</time>
      </trkpt>
      <trkpt lat="45.96418" lon="4.87151">
        <ele>281</ele>
        <time>2017-05-24T09:26:19Z</time>
      </trkpt>
      <trkpt lat="45.96414" lon="4.87157">
        <ele>281</ele>
        <time>2017-05-24T09:26:20Z</time>
      </trkpt>
      <trkpt lat="45.9641" lon="4.87162">
        <ele>281</ele>
        <time>2017-05-24T09:26:21Z</time>
      </trkpt>
      <trkpt lat="45.96407" lon="4.87168">
        <ele>281</ele>
        <time>2017-05-24T09:26:22Z</time>
      </trkpt>
      <trkpt lat="45.96403" lon="4.87173">
        <ele>281</ele>
        <time>2017-05-24T09:26:23Z</time>
      </trkpt>
      <trkpt lat="45.96399" lon="4.87178">
        <ele>282</ele>
        <time>2017-05-24T09:26:24Z</time>
      </trkpt>
      <trkpt lat="45.96395" lon="4.87183">
        <ele>282</ele>
        <time>2017-05-24T09:26:25Z</time>
      </trkpt>
      <trkpt lat="45.96391" lon="4.87188">
        <ele>282</ele>
        <time>2017-05-24T09:26:26Z</time>
      </trkpt>
      <trkpt lat="45.96387" lon="4.87193">
        <ele>282</ele>
        <time>2017-05-24T09:26:27Z</time>
      </trkpt>
      <trkpt lat="45.96384" lon="4.87198">
        <ele>282</ele>
        <time>2017-05-24T09:26:28Z</time>
      </trkpt>
      <trkpt lat="45.9638" lon="4.87203">
        <ele>282</ele>
        <time>2017-05-24T09:26:29Z</time>
      </trkpt>
      <trkpt lat="45.96376" lon="4.87208">
        <ele>282</ele>
        <time>2017-05-24T09:26:30Z</time>
      </trkpt>
      <trkpt lat="45.96372" lon="4.87213">
        <ele>282</ele>
        <time>2017-05-24T09:26:31Z</time>
      </trkpt>
      <trkpt lat="45.96368" lon="4.87218">
        <ele>282</ele>
        <time>2017-05-24T09:26:32Z</time>
      </trkpt>
      <trkpt lat="45.96364" lon="4.87224">
        <ele>282</ele>
        <time>2017-05-24T09:26:33Z</time>
      </trkpt>
      <trkpt lat="45.9636" lon="4.87229">
        <ele>282</ele>
        <time>2017-05-24T09:26:34Z</time>
      </trkpt>
      <trkpt lat="45.96356" lon="4.87235">
        <ele>282</ele>
        <time>2017-05-24T09:26:35Z</time>
      </trkpt>
      <trkpt lat="45.96351" lon="4.87241">
        <ele>282</ele>
        <time>2017-05-24T09:26:36Z</time>
      </trkpt>
      <trkpt lat="45.96347" lon="4.87247">
        <ele>283</ele>
        <time>2017-05-24T09:26:37Z</time>
      </trkpt>
      <trkpt lat="45.96343" lon="4.87252">
        <ele>283</ele>
        <time>2017-05-24T09:26:38Z</time>
      </trkpt>
      <trkpt lat="45.96338" lon="4.87258">
        <ele>283</ele>
        <time>2017-05-24T09:26:39Z</time>
      </trkpt>
      <trkpt lat="45.96334" lon="4.87263">
        <ele>283</ele>
        <time>2017-05-24T09:26:40Z</time>
      </trkpt>
      <trkpt lat="45.9633" lon="4.87268">
        <ele>283</ele>
        <time>2017-05-24T09:26:41Z</time>
      </trkpt>
      <trkpt lat="45.96327" lon="4.87273">
        <ele>283</ele>
        <time>2017-05-24T09:26:42Z</time>
      </trkpt>
      <trkpt lat="45.96323" lon="4.87278">
        <ele>283</ele>
        <time>2017-05-24T09:26:43Z</time>
      </trkpt>
      <trkpt lat="45.96319" lon="4.87283">
        <ele>283</ele>
        <time>2017-05-24T09:26:44Z</time>
      </trkpt>
      <trkpt lat="45.96316" lon="4.87288">
        <ele>283</ele>
        <time>2017-05-24T09:26:45Z</time>
      </trkpt>
      <trkpt lat="45.96312" lon="4.87293">
        <ele>283</ele>
        <time>2017-05-24T09:26:46Z</time>
      </trkpt>
      <trkpt lat="45.96308" lon="4.87298">
        <ele>283</ele>
        <time>2017-05-24T09:26:47Z</time>
      </trkpt>
      <trkpt lat="45.96304" lon="4.87303">
        <ele>283</ele>
        <time>2017-05-24T09:26:48Z</time>
      </trkpt>
      <trkpt lat="45.963" lon="4.87308">
        <ele>283</ele>
        <time>2017-05-24T09:26:49Z</time>
      </trkpt>
      <trkpt lat="45.96296" lon="4.87313">
        <ele>283</ele>
        <time>2017-05-24T09:26:50Z</time>
      </trkpt>
      <trkpt lat="45.96292" lon="4.87318">
        <ele>283</ele>
        <time>2017-05-24T09:26:51Z</time>
      </trkpt>
      <trkpt lat="45.96288" lon="4.87323">
        <ele>283</ele>
        <time>2017-05-24T09:26:52Z</time>
      </trkpt>
      <trkpt lat="45.96284" lon="4.87328">
        <ele>283</ele>
        <time>2017-05-24T09:26:53Z</time>
      </trkpt>
      <trkpt lat="45.96281" lon="4.87332">
        <ele>283</ele>
        <time>2017-05-24T09:26:54Z</time>
      </trkpt>
      <trkpt lat="45.96276" lon="4.87338">
        <ele>283</ele>
        <time>2017-05-24T09:26:55Z</time>
      </trkpt>
      <trkpt lat="45.96272" lon="4.87343">
        <ele>283</ele>
        <time>2017-05-24T09:26:56Z</time>
      </trkpt>
      <trkpt lat="45.96267" lon="4.87349">
        <ele>283</ele>
        <time>2017-05-24T09:26:57Z</time>
      </trkpt>
      <trkpt lat="45.96263" lon="4.87355">
        <ele>283</ele>
        <time>2017-05-24T09:26:58Z</time>
      </trkpt>
      <trkpt lat="45.96258" lon="4.87361">
        <ele>283</ele>
        <time>2017-05-24T09:26:59Z</time>
      </trkpt>
      <trkpt lat="45.96253" lon="4.87367">
        <ele>283</ele>
        <time>2017-05-24T09:27:00Z</time>
      </trkpt>
      <trkpt lat="45.96249" lon="4.87373">
        <ele>283</ele>
        <time>2017-05-24T09:27:01Z</time>
      </trkpt>
      <trkpt lat="45.96244" lon="4.87379">
        <ele>283</ele>
        <time>2017-05-24T09:27:02Z</time>
      </trkpt>
      <trkpt lat="45.96239" lon="4.87385">
        <ele>283</ele>
        <time>2017-05-24T09:27:03Z</time>
      </trkpt>
      <trkpt lat="45.96235" lon="4.87391">
        <ele>283</ele>
        <time>2017-05-24T09:27:04Z</time>
      </trkpt>
      <trkpt lat="45.9623" lon="4.87396">
        <ele>283</ele>
        <time>2017-05-24T09:27:05Z</time>
      </trkpt>
      <trkpt lat="45.96226" lon="4.87401">
        <ele>283</ele>
        <time>2017-05-24T09:27:06Z</time>
      </trkpt>
      <trkpt lat="45.96222" lon="4.87406">
        <ele>283</ele>
        <time>2017-05-24T09:27:07Z</time>
      </trkpt>
      <trkpt lat="45.96217" lon="4.87411">
        <ele>283</ele>
        <time>2017-05-24T09:27:08Z</time>
      </trkpt>
      <trkpt lat="45.96213" lon="4.87416">
        <ele>283</ele>
        <time>2017-05-24T09:27:09Z</time>
      </trkpt>
      <trkpt lat="45.96209" lon="4.87422">
        <ele>284</ele>
        <time>2017-05-24T09:27:10Z</time>
      </trkpt>
      <trkpt lat="45.96204" lon="4.87427">
        <ele>284</ele>
        <time>2017-05-24T09:27:11Z</time>
      </trkpt>
      <trkpt lat="45.962" lon="4.87432">
        <ele>284</ele>
        <time>2017-05-24T09:27:12Z</time>
      </trkpt>
      <trkpt lat="45.96196" lon="4.87437">
        <ele>284</ele>
        <time>2017-05-24T09:27:13Z</time>
      </trkpt>
      <trkpt lat="45.96191" lon="4.87442">
        <ele>284</ele>
        <time>2017-05-24T09:27:14Z</time>
      </trkpt>
      <trkpt lat="45.96187" lon="4.87447">
        <ele>284</ele>
        <time>2017-05-24T09:27:15Z</time>
      </trkpt>
      <trkpt lat="45.96182" lon="4.87453">
        <ele>284</ele>
        <time>2017-05-24T09:27:16Z</time>
      </trkpt>
      <trkpt lat="45.96176" lon="4.87458">
        <ele>284</ele>
        <time>2017-05-24T09:27:17Z</time>
      </trkpt>
      <trkpt lat="45.96171" lon="4.87464">
        <ele>284</ele>
        <time>2017-05-24T09:27:18Z</time>
      </trkpt>
      <trkpt lat="45.96166" lon="4.87471">
        <ele>285</ele>
        <time>2017-05-24T09:27:19Z</time>
      </trkpt>
      <trkpt lat="45.96161" lon="4.87478">
        <ele>285</ele>
        <time>2017-05-24T09:27:20Z</time>
      </trkpt>
      <trkpt lat="45.96155" lon="4.87484">
        <ele>285</ele>
        <time>2017-05-24T09:27:21Z</time>
      </trkpt>
      <trkpt lat="45.9615" lon="4.8749">
        <ele>285</ele>
        <time>2017-05-24T09:27:22Z</time>
      </trkpt>
      <trkpt lat="45.96144" lon="4.87496">
        <ele>285</ele>
        <time>2017-05-24T09:27:23Z</time>
      </trkpt>
      <trkpt lat="45.96139" lon="4.87502">
        <ele>286</ele>
        <time>2017-05-24T09:27:24Z</time>
      </trkpt>
      <trkpt lat="45.96134" lon="4.87507">
        <ele>286</ele>
        <time>2017-05-24T09:27:25Z</time>
      </trkpt>
      <trkpt lat="45.96129" lon="4.87512">
        <ele>286</ele>
        <time>2017-05-24T09:27:26Z</time>
      </trkpt>
      <trkpt lat="45.96125" lon="4.87518">
        <ele>286</ele>
        <time>2017-05-24T09:27:27Z</time>
      </trkpt>
      <trkpt lat="45.96121" lon="4.87522">
        <ele>286</ele>
        <time>2017-05-24T09:27:28Z</time>
      </trkpt>
      <trkpt lat="45.96116" lon="4.87528">
        <ele>287</ele>
        <time>2017-05-24T09:27:29Z</time>
      </trkpt>
      <trkpt lat="45.96112" lon="4.87533">
        <ele>287</ele>
        <time>2017-05-24T09:27:30Z</time>
      </trkpt>
      <trkpt lat="45.96107" lon="4.87539">
        <ele>287</ele>
        <time>2017-05-24T09:27:31Z</time>
      </trkpt>
      <trkpt lat="45.96101" lon="4.87545">
        <ele>287</ele>
        <time>2017-05-24T09:27:32Z</time>
      </trkpt>
      <trkpt lat="45.96096" lon="4.87551">
        <ele>287</ele>
        <time>2017-05-24T09:27:33Z</time>
      </trkpt>
      <trkpt lat="45.96091" lon="4.87556">
        <ele>287</ele>
        <time>2017-05-24T09:27:34Z</time>
      </trkpt>
      <trkpt lat="45.96086" lon="4.87562">
        <ele>287</ele>
        <time>2017-05-24T09:27:35Z</time>
      </trkpt>
      <trkpt lat="45.96081" lon="4.87567">
        <ele>288</ele>
        <time>2017-05-24T09:27:36Z</time>
      </trkpt>
      <trkpt lat="45.96076" lon="4.87572">
        <ele>288</ele>
        <time>2017-05-24T09:27:37Z</time>
      </trkpt>
      <trkpt lat="45.96071" lon="4.87577">
        <ele>288</ele>
        <time>2017-05-24T09:27:38Z</time>
      </trkpt>
      <trkpt lat="45.96067" lon="4.87582">
        <ele>288</ele>
        <time>2017-05-24T09:27:39Z</time>
      </trkpt>
      <trkpt lat="45.96063" lon="4.87587">
        <ele>288</ele>
        <time>2017-05-24T09:27:40Z</time>
      </trkpt>
      <trkpt lat="45.96059" lon="4.87591">
        <ele>288</ele>
        <time>2017-05-24T09:27:41Z</time>
      </trkpt>
      <trkpt lat="45.96055" lon="4.87596">
        <ele>288</ele>
        <time>2017-05-24T09:27:42Z</time>
      </trkpt>
      <trkpt lat="45.96051" lon="4.876">
        <ele>289</ele>
        <time>2017-05-24T09:27:43Z</time>
      </trkpt>
      <trkpt lat="45.96048" lon="4.87604">
        <ele>289</ele>
        <time>2017-05-24T09:27:44Z</time>
      </trkpt>
      <trkpt lat="45.96041" lon="4.87611">
        <ele>289</ele>
        <time>2017-05-24T09:27:46Z</time>
      </trkpt>
      <trkpt lat="45.96037" lon="4.87616">
        <ele>289</ele>
        <time>2017-05-24T09:27:47Z</time>
      </trkpt>
      <trkpt lat="45.96033" lon="4.87621">
        <ele>289</ele>
        <time>2017-05-24T09:27:48Z</time>
      </trkpt>
      <trkpt lat="45.96028" lon="4.87626">
        <ele>289</ele>
        <time>2017-05-24T09:27:49Z</time>
      </trkpt>
      <trkpt lat="45.96024" lon="4.87631">
        <ele>289</ele>
        <time>2017-05-24T09:27:50Z</time>
      </trkpt>
      <trkpt lat="45.96019" lon="4.87637">
        <ele>289</ele>
        <time>2017-05-24T09:27:51Z</time>
      </trkpt>
      <trkpt lat="45.96014" lon="4.87643">
        <ele>289</ele>
        <time>2017-05-24T09:27:52Z</time>
      </trkpt>
      <trkpt lat="45.96009" lon="4.87648">
        <ele>289</ele>
        <time>2017-05-24T09:27:53Z</time>
      </trkpt>
      <trkpt lat="45.96005" lon="4.87654">
        <ele>289</ele>
        <time>2017-05-24T09:27:54Z</time>
      </trkpt>
      <trkpt lat="45.96" lon="4.87659">
        <ele>290</ele>
        <time>2017-05-24T09:27:55Z</time>
      </trkpt>
      <trkpt lat="45.95996" lon="4.87664">
        <ele>290</ele>
        <time>2017-05-24T09:27:56Z</time>
      </trkpt>
      <trkpt lat="45.95992" lon="4.87668">
        <ele>290</ele>
        <time>2017-05-24T09:27:57Z</time>
      </trkpt>
      <trkpt lat="45.95987" lon="4.87673">
        <ele>289</ele>
        <time>2017-05-24T09:27:58Z</time>
      </trkpt>
      <trkpt lat="45.95983" lon="4.87677">
        <ele>289</ele>
        <time>2017-05-24T09:27:59Z</time>
      </trkpt>
      <trkpt lat="45.95979" lon="4.87681">
        <ele>289</ele>
        <time>2017-05-24T09:28:00Z</time>
      </trkpt>
      <trkpt lat="45.95976" lon="4.87686">
        <ele>289</ele>
        <time>2017-05-24T09:28:01Z</time>
      </trkpt>
      <trkpt lat="45.95969" lon="4.87694">
        <ele>289</ele>
        <time>2017-05-24T09:28:03Z</time>
      </trkpt>
      <trkpt lat="45.95966" lon="4.87698">
        <ele>289</ele>
        <time>2017-05-24T09:28:04Z</time>
      </trkpt>
      <trkpt lat="45.95962" lon="4.87702">
        <ele>289</ele>
        <time>2017-05-24T09:28:05Z</time>
      </trkpt>
      <trkpt lat="45.95958" lon="4.87707">
        <ele>289</ele>
        <time>2017-05-24T09:28:06Z</time>
      </trkpt>
      <trkpt lat="45.95954" lon="4.87712">
        <ele>289</ele>
        <time>2017-05-24T09:28:07Z</time>
      </trkpt>
      <trkpt lat="45.9595" lon="4.87718">
        <ele>289</ele>
        <time>2017-05-24T09:28:08Z</time>
      </trkpt>
      <trkpt lat="45.95946" lon="4.87724">
        <ele>289</ele>
        <time>2017-05-24T09:28:09Z</time>
      </trkpt>
      <trkpt lat="45.95942" lon="4.8773">
        <ele>289</ele>
        <time>2017-05-24T09:28:10Z</time>
      </trkpt>
      <trkpt lat="45.95937" lon="4.87736">
        <ele>288</ele>
        <time>2017-05-24T09:28:11Z</time>
      </trkpt>
      <trkpt lat="45.95933" lon="4.87743">
        <ele>288</ele>
        <time>2017-05-24T09:28:12Z</time>
      </trkpt>
      <trkpt lat="45.95929" lon="4.87749">
        <ele>288</ele>
        <time>2017-05-24T09:28:13Z</time>
      </trkpt>
      <trkpt lat="45.95924" lon="4.87755">
        <ele>288</ele>
        <time>2017-05-24T09:28:14Z</time>
      </trkpt>
      <trkpt lat="45.9592" lon="4.87762">
        <ele>288</ele>
        <time>2017-05-24T09:28:15Z</time>
      </trkpt>
      <trkpt lat="45.95916" lon="4.87768">
        <ele>288</ele>
        <time>2017-05-24T09:28:16Z</time>
      </trkpt>
      <trkpt lat="45.95912" lon="4.87775">
        <ele>288</ele>
        <time>2017-05-24T09:28:17Z</time>
      </trkpt>
      <trkpt lat="45.95908" lon="4.87782">
        <ele>288</ele>
        <time>2017-05-24T09:28:18Z</time>
      </trkpt>
      <trkpt lat="45.95904" lon="4.87789">
        <ele>288</ele>
        <time>2017-05-24T09:28:19Z</time>
      </trkpt>
      <trkpt lat="45.95899" lon="4.87796">
        <ele>288</ele>
        <time>2017-05-24T09:28:20Z</time>
      </trkpt>
      <trkpt lat="45.95895" lon="4.87803">
        <ele>288</ele>
        <time>2017-05-24T09:28:21Z</time>
      </trkpt>
      <trkpt lat="45.95891" lon="4.87809">
        <ele>288</ele>
        <time>2017-05-24T09:28:22Z</time>
      </trkpt>
      <trkpt lat="45.95886" lon="4.87815">
        <ele>288</ele>
        <time>2017-05-24T09:28:23Z</time>
      </trkpt>
      <trkpt lat="45.95881" lon="4.87821">
        <ele>288</ele>
        <time>2017-05-24T09:28:24Z</time>
      </trkpt>
      <trkpt lat="45.95875" lon="4.87826">
        <ele>288</ele>
        <time>2017-05-24T09:28:25Z</time>
      </trkpt>
      <trkpt lat="45.9587" lon="4.8783">
        <ele>288</ele>
        <time>2017-05-24T09:28:26Z</time>
      </trkpt>
      <trkpt lat="45.95865" lon="4.87833">
        <ele>288</ele>
        <time>2017-05-24T09:28:27Z</time>
      </trkpt>
      <trkpt lat="45.9586" lon="4.87835">
        <ele>289</ele>
        <time>2017-05-24T09:28:28Z</time>
      </trkpt>
      <trkpt lat="45.95856" lon="4.87837">
        <ele>289</ele>
        <time>2017-05-24T09:28:29Z</time>
      </trkpt>
      <trkpt lat="45.95851" lon="4.87838">
        <ele>289</ele>
        <time>2017-05-24T09:28:30Z</time>
      </trkpt>
      <trkpt lat="45.95845" lon="4.8784">
        <ele>288</ele>
        <time>2017-05-24T09:28:32Z</time>
      </trkpt>
      <trkpt lat="45.95842" lon="4.87841">
        <ele>288</ele>
        <time>2017-05-24T09:28:33Z</time>
      </trkpt>
      <trkpt lat="45.95836" lon="4.87842">
        <ele>288</ele>
        <time>2017-05-24T09:28:35Z</time>
      </trkpt>
      <trkpt lat="45.95833" lon="4.87844">
        <ele>287</ele>
        <time>2017-05-24T09:28:36Z</time>
      </trkpt>
      <trkpt lat="45.95829" lon="4.87846">
        <ele>287</ele>
        <time>2017-05-24T09:28:37Z</time>
      </trkpt>
      <trkpt lat="45.95825" lon="4.8785">
        <ele>287</ele>
        <time>2017-05-24T09:28:38Z</time>
      </trkpt>
      <trkpt lat="45.95821" lon="4.87856">
        <ele>287</ele>
        <time>2017-05-24T09:28:39Z</time>
      </trkpt>
      <trkpt lat="45.95816" lon="4.87861">
        <ele>287</ele>
        <time>2017-05-24T09:28:40Z</time>
      </trkpt>
      <trkpt lat="45.95812" lon="4.87867">
        <ele>287</ele>
        <time>2017-05-24T09:28:41Z</time>
      </trkpt>
      <trkpt lat="45.95807" lon="4.87872">
        <ele>287</ele>
        <time>2017-05-24T09:28:42Z</time>
      </trkpt>
      <trkpt lat="45.95802" lon="4.87877">
        <ele>287</ele>
        <time>2017-05-24T09:28:43Z</time>
      </trkpt>
      <trkpt lat="45.95796" lon="4.87882">
        <ele>286</ele>
        <time>2017-05-24T09:28:44Z</time>
      </trkpt>
      <trkpt lat="45.95791" lon="4.87887">
        <ele>286</ele>
        <time>2017-05-24T09:28:45Z</time>
      </trkpt>
      <trkpt lat="45.95785" lon="4.87891">
        <ele>286</ele>
        <time>2017-05-24T09:28:46Z</time>
      </trkpt>
      <trkpt lat="45.95779" lon="4.87896">
        <ele>286</ele>
        <time>2017-05-24T09:28:47Z</time>
      </trkpt>
      <trkpt lat="45.95773" lon="4.879">
        <ele>286</ele>
        <time>2017-05-24T09:28:48Z</time>
      </trkpt>
      <trkpt lat="45.95766" lon="4.87905">
        <ele>286</ele>
        <time>2017-05-24T09:28:49Z</time>
      </trkpt>
      <trkpt lat="45.95759" lon="4.8791">
        <ele>285</ele>
        <time>2017-05-24T09:28:50Z</time>
      </trkpt>
      <trkpt lat="45.95753" lon="4.87915">
        <ele>285</ele>
        <time>2017-05-24T09:28:51Z</time>
      </trkpt>
      <trkpt lat="45.95746" lon="4.87921">
        <ele>285</ele>
        <time>2017-05-24T09:28:52Z</time>
      </trkpt>
      <trkpt lat="45.95739" lon="4.87926">
        <ele>284</ele>
        <time>2017-05-24T09:28:53Z</time>
      </trkpt>
      <trkpt lat="45.95731" lon="4.87932">
        <ele>284</ele>
        <time>2017-05-24T09:28:54Z</time>
      </trkpt>
      <trkpt lat="45.95724" lon="4.87938">
        <ele>283</ele>
        <time>2017-05-24T09:28:55Z</time>
      </trkpt>
      <trkpt lat="45.95717" lon="4.87944">
        <ele>283</ele>
        <time>2017-05-24T09:28:56Z</time>
      </trkpt>
      <trkpt lat="45.9571" lon="4.87951">
        <ele>283</ele>
        <time>2017-05-24T09:28:57Z</time>
      </trkpt>
      <trkpt lat="45.95702" lon="4.87959">
        <ele>283</ele>
        <time>2017-05-24T09:28:58Z</time>
      </trkpt>
      <trkpt lat="45.95695" lon="4.87966">
        <ele>282</ele>
        <time>2017-05-24T09:28:59Z</time>
      </trkpt>
      <trkpt lat="45.95687" lon="4.87973">
        <ele>282</ele>
        <time>2017-05-24T09:29:00Z</time>
      </trkpt>
      <trkpt lat="45.95679" lon="4.8798">
        <ele>282</ele>
        <time>2017-05-24T09:29:01Z</time>
      </trkpt>
      <trkpt lat="45.95671" lon="4.87988">
        <ele>282</ele>
        <time>2017-05-24T09:29:02Z</time>
      </trkpt>
      <trkpt lat="45.95663" lon="4.87995">
        <ele>280</ele>
        <time>2017-05-24T09:29:03Z</time>
      </trkpt>
      <trkpt lat="45.95655" lon="4.88003">
        <ele>280</ele>
        <time>2017-05-24T09:29:04Z</time>
      </trkpt>
      <trkpt lat="45.95646" lon="4.8801">
        <ele>279</ele>
        <time>2017-05-24T09:29:05Z</time>
      </trkpt>
      <trkpt lat="45.95638" lon="4.88018">
        <ele>279</ele>
        <time>2017-05-24T09:29:06Z</time>
      </trkpt>
      <trkpt lat="45.9563" lon="4.88025">
        <ele>279</ele>
        <time>2017-05-24T09:29:07Z</time>
      </trkpt>
      <trkpt lat="45.95621" lon="4.88033">
        <ele>278</ele>
        <time>2017-05-24T09:29:08Z</time>
      </trkpt>
      <trkpt lat="45.95613" lon="4.88041">
        <ele>278</ele>
        <time>2017-05-24T09:29:09Z</time>
      </trkpt>
      <trkpt lat="45.95604" lon="4.88048">
        <ele>278</ele>
        <time>2017-05-24T09:29:10Z</time>
      </trkpt>
      <trkpt lat="45.95596" lon="4.88056">
        <ele>278</ele>
        <time>2017-05-24T09:29:11Z</time>
      </trkpt>
      <trkpt lat="45.95588" lon="4.88063">
        <ele>278</ele>
        <time>2017-05-24T09:29:12Z</time>
      </trkpt>
      <trkpt lat="45.9558" lon="4.8807">
        <ele>276</ele>
        <time>2017-05-24T09:29:13Z</time>
      </trkpt>
      <trkpt lat="45.95571" lon="4.88077">
        <ele>276</ele>
        <time>2017-05-24T09:29:14Z</time>
      </trkpt>
      <trkpt lat="45.95562" lon="4.88083">
        <ele>276</ele>
        <time>2017-05-24T09:29:15Z</time>
      </trkpt>
      <trkpt lat="45.95553" lon="4.88088">
        <ele>277</ele>
        <time>2017-05-24T09:29:16Z</time>
      </trkpt>
      <trkpt lat="45.95544" lon="4.88093">
        <ele>277</ele>
        <time>2017-05-24T09:29:17Z</time>
      </trkpt>
      <trkpt lat="45.95535" lon="4.88097">
        <ele>277</ele>
        <time>2017-05-24T09:29:18Z</time>
      </trkpt>
      <trkpt lat="45.95526" lon="4.88101">
        <ele>277</ele>
        <time>2017-05-24T09:29:19Z</time>
      </trkpt>
      <trkpt lat="45.95517" lon="4.88105">
        <ele>276</ele>
        <time>2017-05-24T09:29:20Z</time>
      </trkpt>
      <trkpt lat="45.95508" lon="4.88109">
        <ele>276</ele>
        <time>2017-05-24T09:29:21Z</time>
      </trkpt>
      <trkpt lat="45.95499" lon="4.88113">
        <ele>276</ele>
        <time>2017-05-24T09:29:22Z</time>
      </trkpt>
      <trkpt lat="45.95491" lon="4.88117">
        <ele>276</ele>
        <time>2017-05-24T09:29:23Z</time>
      </trkpt>
      <trkpt lat="45.95482" lon="4.8812">
        <ele>276</ele>
        <time>2017-05-24T09:29:24Z</time>
      </trkpt>
      <trkpt lat="45.95473" lon="4.88124">
        <ele>276</ele>
        <time>2017-05-24T09:29:25Z</time>
      </trkpt>
      <trkpt lat="45.95465" lon="4.88128">
        <ele>276</ele>
        <time>2017-05-24T09:29:26Z</time>
      </trkpt>
      <trkpt lat="45.95457" lon="4.88132">
        <ele>276</ele>
        <time>2017-05-24T09:29:27Z</time>
      </trkpt>
      <trkpt lat="45.95448" lon="4.88136">
        <ele>276</ele>
        <time>2017-05-24T09:29:28Z</time>
      </trkpt>
      <trkpt lat="45.9544" lon="4.8814">
        <ele>276</ele>
        <time>2017-05-24T09:29:29Z</time>
      </trkpt>
      <trkpt lat="45.95432" lon="4.88144">
        <ele>276</ele>
        <time>2017-05-24T09:29:30Z</time>
      </trkpt>
      <trkpt lat="45.95424" lon="4.88148">
        <ele>276</ele>
        <time>2017-05-24T09:29:31Z</time>
      </trkpt>
      <trkpt lat="45.95416" lon="4.88151">
        <ele>276</ele>
        <time>2017-05-24T09:29:32Z</time>
      </trkpt>
      <trkpt lat="45.95408" lon="4.88154">
        <ele>276</ele>
        <time>2017-05-24T09:29:33Z</time>
      </trkpt>
      <trkpt lat="45.954" lon="4.88156">
        <ele>276</ele>
        <time>2017-05-24T09:29:34Z</time>
      </trkpt>
      <trkpt lat="45.95393" lon="4.88158">
        <ele>276</ele>
        <time>2017-05-24T09:29:35Z</time>
      </trkpt>
      <trkpt lat="45.95385" lon="4.88161">
        <ele>276</ele>
        <time>2017-05-24T09:29:36Z</time>
      </trkpt>
      <trkpt lat="45.95378" lon="4.88163">
        <ele>276</ele>
        <time>2017-05-24T09:29:37Z</time>
      </trkpt>
      <trkpt lat="45.9537" lon="4.88165">
        <ele>276</ele>
        <time>2017-05-24T09:29:38Z</time>
      </trkpt>
      <trkpt lat="45.95363" lon="4.88167">
        <ele>278</ele>
        <time>2017-05-24T09:29:39Z</time>
      </trkpt>
      <trkpt lat="45.95355" lon="4.88168">
        <ele>278</ele>
        <time>2017-05-24T09:29:40Z</time>
      </trkpt>
      <trkpt lat="45.95348" lon="4.88169">
        <ele>278</ele>
        <time>2017-05-24T09:29:41Z</time>
      </trkpt>
      <trkpt lat="45.95341" lon="4.88169">
        <ele>278</ele>
        <time>2017-05-24T09:29:42Z</time>
      </trkpt>
      <trkpt lat="45.95334" lon="4.8817">
        <ele>278</ele>
        <time>2017-05-24T09:29:43Z</time>
      </trkpt>
      <trkpt lat="45.95327" lon="4.8817">
        <ele>279</ele>
        <time>2017-05-24T09:29:44Z</time>
      </trkpt>
      <trkpt lat="45.95321" lon="4.8817">
        <ele>279</ele>
        <time>2017-05-24T09:29:45Z</time>
      </trkpt>
      <trkpt lat="45.95315" lon="4.8817">
        <ele>280</ele>
        <time>2017-05-24T09:29:46Z</time>
      </trkpt>
      <trkpt lat="45.9531" lon="4.88169">
        <ele>280</ele>
        <time>2017-05-24T09:29:47Z</time>
      </trkpt>
      <trkpt lat="45.95305" lon="4.88168">
        <ele>280</ele>
        <time>2017-05-24T09:29:48Z</time>
      </trkpt>
      <trkpt lat="45.95299" lon="4.88167">
        <ele>281</ele>
        <time>2017-05-24T09:29:49Z</time>
      </trkpt>
      <trkpt lat="45.95293" lon="4.88166">
        <ele>279</ele>
        <time>2017-05-24T09:29:50Z</time>
      </trkpt>
      <trkpt lat="45.95288" lon="4.88166">
        <ele>279</ele>
        <time>2017-05-24T09:29:51Z</time>
      </trkpt>
      <trkpt lat="45.95282" lon="4.88165">
        <ele>279</ele>
        <time>2017-05-24T09:29:52Z</time>
      </trkpt>
      <trkpt lat="45.95276" lon="4.88165">
        <ele>279</ele>
        <time>2017-05-24T09:29:53Z</time>
      </trkpt>
      <trkpt lat="45.9527" lon="4.88164">
        <ele>280</ele>
        <time>2017-05-24T09:29:54Z</time>
      </trkpt>
      <trkpt lat="45.95263" lon="4.88164">
        <ele>280</ele>
        <time>2017-05-24T09:29:55Z</time>
      </trkpt>
      <trkpt lat="45.95257" lon="4.88164">
        <ele>280</ele>
        <time>2017-05-24T09:29:56Z</time>
      </trkpt>
      <trkpt lat="45.95251" lon="4.88164">
        <ele>281</ele>
        <time>2017-05-24T09:29:57Z</time>
      </trkpt>
      <trkpt lat="45.95245" lon="4.88164">
        <ele>281</ele>
        <time>2017-05-24T09:29:58Z</time>
      </trkpt>
      <trkpt lat="45.95238" lon="4.88164">
        <ele>281</ele>
        <time>2017-05-24T09:29:59Z</time>
      </trkpt>
      <trkpt lat="45.95232" lon="4.88165">
        <ele>282</ele>
        <time>2017-05-24T09:30:00Z</time>
      </trkpt>
      <trkpt lat="45.95226" lon="4.88165">
        <ele>282</ele>
        <time>2017-05-24T09:30:01Z</time>
      </trkpt>
      <trkpt lat="45.95219" lon="4.88165">
        <ele>282</ele>
        <time>2017-05-24T09:30:02Z</time>
      </trkpt>
      <trkpt lat="45.95213" lon="4.88166">
        <ele>282</ele>
        <time>2017-05-24T09:30:03Z</time>
      </trkpt>
      <trkpt lat="45.95207" lon="4.88166">
        <ele>282</ele>
        <time>2017-05-24T09:30:04Z</time>
      </trkpt>
      <trkpt lat="45.95202" lon="4.88166">
        <ele>282</ele>
        <time>2017-05-24T09:30:05Z</time>
      </trkpt>
      <trkpt lat="45.95197" lon="4.88166">
        <ele>283</ele>
        <time>2017-05-24T09:30:06Z</time>
      </trkpt>
      <trkpt lat="45.95192" lon="4.88167">
        <ele>283</ele>
        <time>2017-05-24T09:30:07Z</time>
      </trkpt>
      <trkpt lat="45.95184" lon="4.88168">
        <ele>285</ele>
        <time>2017-05-24T09:30:09Z</time>
      </trkpt>
      <trkpt lat="45.9518" lon="4.88168">
        <ele>285</ele>
        <time>2017-05-24T09:30:10Z</time>
      </trkpt>
      <trkpt lat="45.95172" lon="4.88165">
        <ele>284</ele>
        <time>2017-05-24T09:30:13Z</time>
      </trkpt>
      <trkpt lat="45.95171" lon="4.88162">
        <ele>284</ele>
        <time>2017-05-24T09:30:14Z</time>
      </trkpt>
      <trkpt lat="45.95172" lon="4.88153">
        <ele>284</ele>
        <time>2017-05-24T09:30:16Z</time>
      </trkpt>
      <trkpt lat="45.95173" lon="4.88149">
        <ele>283</ele>
        <time>2017-05-24T09:30:17Z</time>
      </trkpt>
      <trkpt lat="45.95175" lon="4.88139">
        <ele>283</ele>
        <time>2017-05-24T09:30:19Z</time>
      </trkpt>
      <trkpt lat="45.95176" lon="4.88134">
        <ele>283</ele>
        <time>2017-05-24T09:30:20Z</time>
      </trkpt>
      <trkpt lat="45.95177" lon="4.88128">
        <ele>282</ele>
        <time>2017-05-24T09:30:21Z</time>
      </trkpt>
      <trkpt lat="45.95178" lon="4.88121">
        <ele>282</ele>
        <time>2017-05-24T09:30:22Z</time>
      </trkpt>
      <trkpt lat="45.95179" lon="4.88114">
        <ele>282</ele>
        <time>2017-05-24T09:30:23Z</time>
      </trkpt>
      <trkpt lat="45.95181" lon="4.88106">
        <ele>282</ele>
        <time>2017-05-24T09:30:24Z</time>
      </trkpt>
      <trkpt lat="45.95183" lon="4.88098">
        <ele>282</ele>
        <time>2017-05-24T09:30:25Z</time>
      </trkpt>
      <trkpt lat="45.95185" lon="4.88089">
        <ele>282</ele>
        <time>2017-05-24T09:30:26Z</time>
      </trkpt>
      <trkpt lat="45.95187" lon="4.8808">
        <ele>281</ele>
        <time>2017-05-24T09:30:27Z</time>
      </trkpt>
      <trkpt lat="45.95189" lon="4.88071">
        <ele>281</ele>
        <time>2017-05-24T09:30:28Z</time>
      </trkpt>
      <trkpt lat="45.95191" lon="4.88063">
        <ele>281</ele>
        <time>2017-05-24T09:30:29Z</time>
      </trkpt>
      <trkpt lat="45.95194" lon="4.88055">
        <ele>281</ele>
        <time>2017-05-24T09:30:30Z</time>
      </trkpt>
      <trkpt lat="45.95197" lon="4.88048">
        <ele>281</ele>
        <time>2017-05-24T09:30:31Z</time>
      </trkpt>
      <trkpt lat="45.952" lon="4.88041">
        <ele>281</ele>
        <time>2017-05-24T09:30:32Z</time>
      </trkpt>
      <trkpt lat="45.95204" lon="4.88036">
        <ele>281</ele>
        <time>2017-05-24T09:30:33Z</time>
      </trkpt>
      <trkpt lat="45.95207" lon="4.88031">
        <ele>281</ele>
        <time>2017-05-24T09:30:34Z</time>
      </trkpt>
      <trkpt lat="45.9521" lon="4.88026">
        <ele>281</ele>
        <time>2017-05-24T09:30:35Z</time>
      </trkpt>
      <trkpt lat="45.95214" lon="4.88021">
        <ele>281</ele>
        <time>2017-05-24T09:30:36Z</time>
      </trkpt>
      <trkpt lat="45.95218" lon="4.88015">
        <ele>281</ele>
        <time>2017-05-24T09:30:37Z</time>
      </trkpt>
      <trkpt lat="45.95221" lon="4.8801">
        <ele>281</ele>
        <time>2017-05-24T09:30:38Z</time>
      </trkpt>
      <trkpt lat="45.95225" lon="4.88005">
        <ele>281</ele>
        <time>2017-05-24T09:30:39Z</time>
      </trkpt>
      <trkpt lat="45.95229" lon="4.88">
        <ele>281</ele>
        <time>2017-05-24T09:30:40Z</time>
      </trkpt>
      <trkpt lat="45.95233" lon="4.87995">
        <ele>281</ele>
        <time>2017-05-24T09:30:41Z</time>
      </trkpt>
      <trkpt lat="45.95236" lon="4.8799">
        <ele>281</ele>
        <time>2017-05-24T09:30:42Z</time>
      </trkpt>
      <trkpt lat="45.9524" lon="4.87985">
        <ele>281</ele>
        <time>2017-05-24T09:30:43Z</time>
      </trkpt>
      <trkpt lat="45.95243" lon="4.8798">
        <ele>281</ele>
        <time>2017-05-24T09:30:44Z</time>
      </trkpt>
      <trkpt lat="45.95247" lon="4.87974">
        <ele>282</ele>
        <time>2017-05-24T09:30:45Z</time>
      </trkpt>
      <trkpt lat="45.9525" lon="4.87968">
        <ele>280</ele>
        <time>2017-05-24T09:30:46Z</time>
      </trkpt>
      <trkpt lat="45.95254" lon="4.87962">
        <ele>280</ele>
        <time>2017-05-24T09:30:47Z</time>
      </trkpt>
      <trkpt lat="45.95257" lon="4.87955">
        <ele>280</ele>
        <time>2017-05-24T09:30:48Z</time>
      </trkpt>
      <trkpt lat="45.9526" lon="4.87948">
        <ele>280</ele>
        <time>2017-05-24T09:30:49Z</time>
      </trkpt>
      <trkpt lat="45.95262" lon="4.8794">
        <ele>280</ele>
        <time>2017-05-24T09:30:50Z</time>
      </trkpt>
      <trkpt lat="45.95263" lon="4.87933">
        <ele>281</ele>
        <time>2017-05-24T09:30:51Z</time>
      </trkpt>
      <trkpt lat="45.95264" lon="4.87925">
        <ele>281</ele>
        <time>2017-05-24T09:30:52Z</time>
      </trkpt>
      <trkpt lat="45.95263" lon="4.87917">
        <ele>281</ele>
        <time>2017-05-24T09:30:53Z</time>
      </trkpt>
      <trkpt lat="45.95263" lon="4.87909">
        <ele>281</ele>
        <time>2017-05-24T09:30:54Z</time>
      </trkpt>
      <trkpt lat="45.95262" lon="4.87901">
        <ele>281</ele>
        <time>2017-05-24T09:30:55Z</time>
      </trkpt>
      <trkpt lat="45.95261" lon="4.87894">
        <ele>281</ele>
        <time>2017-05-24T09:30:56Z</time>
      </trkpt>
      <trkpt lat="45.95259" lon="4.87887">
        <ele>281</ele>
        <time>2017-05-24T09:30:57Z</time>
      </trkpt>
      <trkpt lat="45.95257" lon="4.8788">
        <ele>281</ele>
        <time>2017-05-24T09:30:58Z</time>
      </trkpt>
      <trkpt lat="45.95255" lon="4.87873">
        <ele>281</ele>
        <time>2017-05-24T09:30:59Z</time>
      </trkpt>
      <trkpt lat="45.95253" lon="4.87867">
        <ele>281</ele>
        <time>2017-05-24T09:31:00Z</time>
      </trkpt>
      <trkpt lat="45.95251" lon="4.8786">
        <ele>281</ele>
        <time>2017-05-24T09:31:01Z</time>
      </trkpt>
      <trkpt lat="45.9525" lon="4.87854">
        <ele>283</ele>
        <time>2017-05-24T09:31:02Z</time>
      </trkpt>
      <trkpt lat="45.95249" lon="4.87847">
        <ele>283</ele>
        <time>2017-05-24T09:31:03Z</time>
      </trkpt>
      <trkpt lat="45.95247" lon="4.87839">
        <ele>282</ele>
        <time>2017-05-24T09:31:04Z</time>
      </trkpt>
      <trkpt lat="45.95247" lon="4.87831">
        <ele>282</ele>
        <time>2017-05-24T09:31:05Z</time>
      </trkpt>
      <trkpt lat="45.95246" lon="4.87823">
        <ele>282</ele>
        <time>2017-05-24T09:31:06Z</time>
      </trkpt>
      <trkpt lat="45.95245" lon="4.87814">
        <ele>282</ele>
        <time>2017-05-24T09:31:07Z</time>
      </trkpt>
      <trkpt lat="45.95244" lon="4.87806">
        <ele>282</ele>
        <time>2017-05-24T09:31:08Z</time>
      </trkpt>
      <trkpt lat="45.95243" lon="4.87797">
        <ele>282</ele>
        <time>2017-05-24T09:31:09Z</time>
      </trkpt>
      <trkpt lat="45.95241" lon="4.87789">
        <ele>282</ele>
        <time>2017-05-24T09:31:10Z</time>
      </trkpt>
      <trkpt lat="45.95239" lon="4.8778">
        <ele>282</ele>
        <time>2017-05-24T09:31:11Z</time>
      </trkpt>
      <trkpt lat="45.95238" lon="4.87771">
        <ele>282</ele>
        <time>2017-05-24T09:31:12Z</time>
      </trkpt>
      <trkpt lat="45.95236" lon="4.87763">
        <ele>281</ele>
        <time>2017-05-24T09:31:13Z</time>
      </trkpt>
      <trkpt lat="45.95234" lon="4.87754">
        <ele>281</ele>
        <time>2017-05-24T09:31:14Z</time>
      </trkpt>
      <trkpt lat="45.95232" lon="4.87746">
        <ele>280</ele>
        <time>2017-05-24T09:31:15Z</time>
      </trkpt>
      <trkpt lat="45.9523" lon="4.87737">
        <ele>280</ele>
        <time>2017-05-24T09:31:16Z</time>
      </trkpt>
      <trkpt lat="45.95228" lon="4.87728">
        <ele>280</ele>
        <time>2017-05-24T09:31:17Z</time>
      </trkpt>
      <trkpt lat="45.95226" lon="4.87719">
        <ele>279</ele>
        <time>2017-05-24T09:31:18Z</time>
      </trkpt>
      <trkpt lat="45.95224" lon="4.8771">
        <ele>279</ele>
        <time>2017-05-24T09:31:19Z</time>
      </trkpt>
      <trkpt lat="45.95223" lon="4.87701">
        <ele>279</ele>
        <time>2017-05-24T09:31:20Z</time>
      </trkpt>
      <trkpt lat="45.95221" lon="4.87691">
        <ele>279</ele>
        <time>2017-05-24T09:31:21Z</time>
      </trkpt>
      <trkpt lat="45.9522" lon="4.87681">
        <ele>279</ele>
        <time>2017-05-24T09:31:22Z</time>
      </trkpt>
      <trkpt lat="45.95218" lon="4.87671">
        <ele>278</ele>
        <time>2017-05-24T09:31:23Z</time>
      </trkpt>
      <trkpt lat="45.95217" lon="4.87661">
        <ele>276</ele>
        <time>2017-05-24T09:31:24Z</time>
      </trkpt>
      <trkpt lat="45.95215" lon="4.87651">
        <ele>276</ele>
        <time>2017-05-24T09:31:25Z</time>
      </trkpt>
      <trkpt lat="45.95214" lon="4.87641">
        <ele>276</ele>
        <time>2017-05-24T09:31:26Z</time>
      </trkpt>
      <trkpt lat="45.95212" lon="4.8763">
        <ele>276</ele>
        <time>2017-05-24T09:31:27Z</time>
      </trkpt>
      <trkpt lat="45.95211" lon="4.87619">
        <ele>276</ele>
        <time>2017-05-24T09:31:28Z</time>
      </trkpt>
      <trkpt lat="45.9521" lon="4.87607">
        <ele>276</ele>
        <time>2017-05-24T09:31:29Z</time>
      </trkpt>
      <trkpt lat="45.95209" lon="4.87595">
        <ele>276</ele>
        <time>2017-05-24T09:31:30Z</time>
      </trkpt>
      <trkpt lat="45.95209" lon="4.87583">
        <ele>274</ele>
        <time>2017-05-24T09:31:31Z</time>
      </trkpt>
      <trkpt lat="45.95208" lon="4.87571">
        <ele>274</ele>
        <time>2017-05-24T09:31:32Z</time>
      </trkpt>
      <trkpt lat="45.95207" lon="4.87559">
        <ele>274</ele>
        <time>2017-05-24T09:31:33Z</time>
      </trkpt>
      <trkpt lat="45.95206" lon="4.87546">
        <ele>274</ele>
        <time>2017-05-24T09:31:34Z</time>
      </trkpt>
      <trkpt lat="45.95203" lon="4.87534">
        <ele>274</ele>
        <time>2017-05-24T09:31:35Z</time>
      </trkpt>
      <trkpt lat="45.95201" lon="4.87522">
        <ele>274</ele>
        <time>2017-05-24T09:31:36Z</time>
      </trkpt>
      <trkpt lat="45.95198" lon="4.8751">
        <ele>273</ele>
        <time>2017-05-24T09:31:37Z</time>
      </trkpt>
      <trkpt lat="45.95195" lon="4.87498">
        <ele>272</ele>
        <time>2017-05-24T09:31:38Z</time>
      </trkpt>
      <trkpt lat="45.95192" lon="4.87487">
        <ele>272</ele>
        <time>2017-05-24T09:31:39Z</time>
      </trkpt>
      <trkpt lat="45.9519" lon="4.87476">
        <ele>272</ele>
        <time>2017-05-24T09:31:40Z</time>
      </trkpt>
      <trkpt lat="45.95187" lon="4.87465">
        <ele>272</ele>
        <time>2017-05-24T09:31:41Z</time>
      </trkpt>
      <trkpt lat="45.95185" lon="4.87455">
        <ele>272</ele>
        <time>2017-05-24T09:31:42Z</time>
      </trkpt>
      <trkpt lat="45.95182" lon="4.87445">
        <ele>272</ele>
        <time>2017-05-24T09:31:43Z</time>
      </trkpt>
      <trkpt lat="45.9518" lon="4.87435">
        <ele>271</ele>
        <time>2017-05-24T09:31:44Z</time>
      </trkpt>
      <trkpt lat="45.95177" lon="4.87425">
        <ele>271</ele>
        <time>2017-05-24T09:31:45Z</time>
      </trkpt>
      <trkpt lat="45.95175" lon="4.87417">
        <ele>271</ele>
        <time>2017-05-24T09:31:46Z</time>
      </trkpt>
      <trkpt lat="45.95174" lon="4.87408">
        <ele>271</ele>
        <time>2017-05-24T09:31:47Z</time>
      </trkpt>
      <trkpt lat="45.95172" lon="4.874">
        <ele>271</ele>
        <time>2017-05-24T09:31:48Z</time>
      </trkpt>
      <trkpt lat="45.9517" lon="4.87392">
        <ele>271</ele>
        <time>2017-05-24T09:31:49Z</time>
      </trkpt>
      <trkpt lat="45.95168" lon="4.87384">
        <ele>271</ele>
        <time>2017-05-24T09:31:50Z</time>
      </trkpt>
      <trkpt lat="45.95167" lon="4.87376">
        <ele>272</ele>
        <time>2017-05-24T09:31:51Z</time>
      </trkpt>
      <trkpt lat="45.95165" lon="4.87369">
        <ele>272</ele>
        <time>2017-05-24T09:31:52Z</time>
      </trkpt>
      <trkpt lat="45.95163" lon="4.87361">
        <ele>272</ele>
        <time>2017-05-24T09:31:53Z</time>
      </trkpt>
      <trkpt lat="45.95161" lon="4.87353">
        <ele>272</ele>
        <time>2017-05-24T09:31:54Z</time>
      </trkpt>
      <trkpt lat="45.95159" lon="4.87345">
        <ele>272</ele>
        <time>2017-05-24T09:31:55Z</time>
      </trkpt>
      <trkpt lat="45.95158" lon="4.87336">
        <ele>272</ele>
        <time>2017-05-24T09:31:56Z</time>
      </trkpt>
      <trkpt lat="45.95156" lon="4.87328">
        <ele>272</ele>
        <time>2017-05-24T09:31:57Z</time>
      </trkpt>
      <trkpt lat="45.95153" lon="4.87319">
        <ele>273</ele>
        <time>2017-05-24T09:31:58Z</time>
      </trkpt>
      <trkpt lat="45.95152" lon="4.8731">
        <ele>273</ele>
        <time>2017-05-24T09:31:59Z</time>
      </trkpt>
      <trkpt lat="45.95149" lon="4.87301">
        <ele>274</ele>
        <time>2017-05-24T09:32:00Z</time>
      </trkpt>
      <trkpt lat="45.95148" lon="4.87292">
        <ele>274</ele>
        <time>2017-05-24T09:32:01Z</time>
      </trkpt>
      <trkpt lat="45.95145" lon="4.87282">
        <ele>274</ele>
        <time>2017-05-24T09:32:02Z</time>
      </trkpt>
      <trkpt lat="45.95143" lon="4.87273">
        <ele>274</ele>
        <time>2017-05-24T09:32:03Z</time>
      </trkpt>
      <trkpt lat="45.95141" lon="4.87265">
        <ele>274</ele>
        <time>2017-05-24T09:32:04Z</time>
      </trkpt>
      <trkpt lat="45.95139" lon="4.87256">
        <ele>274</ele>
        <time>2017-05-24T09:32:05Z</time>
      </trkpt>
      <trkpt lat="45.95137" lon="4.87247">
        <ele>275</ele>
        <time>2017-05-24T09:32:06Z</time>
      </trkpt>
      <trkpt lat="45.95135" lon="4.87238">
        <ele>276</ele>
        <time>2017-05-24T09:32:07Z</time>
      </trkpt>
      <trkpt lat="45.95133" lon="4.87229">
        <ele>276</ele>
        <time>2017-05-24T09:32:08Z</time>
      </trkpt>
      <trkpt lat="45.95131" lon="4.8722">
        <ele>276</ele>
        <time>2017-05-24T09:32:09Z</time>
      </trkpt>
      <trkpt lat="45.95129" lon="4.87211">
        <ele>276</ele>
        <time>2017-05-24T09:32:10Z</time>
      </trkpt>
      <trkpt lat="45.95127" lon="4.87202">
        <ele>276</ele>
        <time>2017-05-24T09:32:11Z</time>
      </trkpt>
      <trkpt lat="45.95125" lon="4.87193">
        <ele>276</ele>
        <time>2017-05-24T09:32:12Z</time>
      </trkpt>
      <trkpt lat="45.95124" lon="4.87185">
        <ele>276</ele>
        <time>2017-05-24T09:32:13Z</time>
      </trkpt>
      <trkpt lat="45.95122" lon="4.87176">
        <ele>276</ele>
        <time>2017-05-24T09:32:14Z</time>
      </trkpt>
      <trkpt lat="45.95121" lon="4.87167">
        <ele>277</ele>
        <time>2017-05-24T09:32:15Z</time>
      </trkpt>
      <trkpt lat="45.95119" lon="4.87158">
        <ele>277</ele>
        <time>2017-05-24T09:32:16Z</time>
      </trkpt>
      <trkpt lat="45.95117" lon="4.87149">
        <ele>277</ele>
        <time>2017-05-24T09:32:17Z</time>
      </trkpt>
      <trkpt lat="45.95114" lon="4.8714">
        <ele>277</ele>
        <time>2017-05-24T09:32:18Z</time>
      </trkpt>
      <trkpt lat="45.95112" lon="4.8713">
        <ele>277</ele>
        <time>2017-05-24T09:32:19Z</time>
      </trkpt>
      <trkpt lat="45.9511" lon="4.87121">
        <ele>277</ele>
        <time>2017-05-24T09:32:20Z</time>
      </trkpt>
      <trkpt lat="45.95109" lon="4.87112">
        <ele>277</ele>
        <time>2017-05-24T09:32:21Z</time>
      </trkpt>
      <trkpt lat="45.95106" lon="4.87103">
        <ele>277</ele>
        <time>2017-05-24T09:32:22Z</time>
      </trkpt>
      <trkpt lat="45.95104" lon="4.87095">
        <ele>277</ele>
        <time>2017-05-24T09:32:23Z</time>
      </trkpt>
      <trkpt lat="45.95102" lon="4.87088">
        <ele>277</ele>
        <time>2017-05-24T09:32:24Z</time>
      </trkpt>
      <trkpt lat="45.95099" lon="4.87081">
        <ele>277</ele>
        <time>2017-05-24T09:32:25Z</time>
      </trkpt>
      <trkpt lat="45.95097" lon="4.87074">
        <ele>277</ele>
        <time>2017-05-24T09:32:26Z</time>
      </trkpt>
      <trkpt lat="45.95093" lon="4.87067">
        <ele>277</ele>
        <time>2017-05-24T09:32:27Z</time>
      </trkpt>
      <trkpt lat="45.9509" lon="4.87061">
        <ele>277</ele>
        <time>2017-05-24T09:32:28Z</time>
      </trkpt>
      <trkpt lat="45.95087" lon="4.87055">
        <ele>277</ele>
        <time>2017-05-24T09:32:29Z</time>
      </trkpt>
      <trkpt lat="45.95085" lon="4.87048">
        <ele>277</ele>
        <time>2017-05-24T09:32:30Z</time>
      </trkpt>
      <trkpt lat="45.95082" lon="4.87041">
        <ele>277</ele>
        <time>2017-05-24T09:32:31Z</time>
      </trkpt>
      <trkpt lat="45.95079" lon="4.87033">
        <ele>277</ele>
        <time>2017-05-24T09:32:32Z</time>
      </trkpt>
      <trkpt lat="45.95075" lon="4.87026">
        <ele>277</ele>
        <time>2017-05-24T09:32:33Z</time>
      </trkpt>
      <trkpt lat="45.95071" lon="4.87019">
        <ele>277</ele>
        <time>2017-05-24T09:32:34Z</time>
      </trkpt>
      <trkpt lat="45.95067" lon="4.87012">
        <ele>277</ele>
        <time>2017-05-24T09:32:35Z</time>
      </trkpt>
      <trkpt lat="45.95063" lon="4.87004">
        <ele>277</ele>
        <time>2017-05-24T09:32:36Z</time>
      </trkpt>
      <trkpt lat="45.9506" lon="4.86997">
        <ele>276</ele>
        <time>2017-05-24T09:32:37Z</time>
      </trkpt>
      <trkpt lat="45.95056" lon="4.86989">
        <ele>276</ele>
        <time>2017-05-24T09:32:38Z</time>
      </trkpt>
      <trkpt lat="45.95053" lon="4.86981">
        <ele>276</ele>
        <time>2017-05-24T09:32:39Z</time>
      </trkpt>
      <trkpt lat="45.9505" lon="4.86972">
        <ele>276</ele>
        <time>2017-05-24T09:32:40Z</time>
      </trkpt>
      <trkpt lat="45.95047" lon="4.86964">
        <ele>276</ele>
        <time>2017-05-24T09:32:41Z</time>
      </trkpt>
      <trkpt lat="45.95045" lon="4.86956">
        <ele>276</ele>
        <time>2017-05-24T09:32:42Z</time>
      </trkpt>
      <trkpt lat="45.95042" lon="4.86948">
        <ele>276</ele>
        <time>2017-05-24T09:32:43Z</time>
      </trkpt>
      <trkpt lat="45.95039" lon="4.8694">
        <ele>276</ele>
        <time>2017-05-24T09:32:44Z</time>
      </trkpt>
      <trkpt lat="45.95036" lon="4.86932">
        <ele>276</ele>
        <time>2017-05-24T09:32:45Z</time>
      </trkpt>
      <trkpt lat="45.95033" lon="4.86924">
        <ele>276</ele>
        <time>2017-05-24T09:32:46Z</time>
      </trkpt>
      <trkpt lat="45.9503" lon="4.86916">
        <ele>275</ele>
        <time>2017-05-24T09:32:47Z</time>
      </trkpt>
      <trkpt lat="45.95028" lon="4.86908">
        <ele>275</ele>
        <time>2017-05-24T09:32:48Z</time>
      </trkpt>
      <trkpt lat="45.95026" lon="4.869">
        <ele>275</ele>
        <time>2017-05-24T09:32:49Z</time>
      </trkpt>
      <trkpt lat="45.95023" lon="4.86892">
        <ele>275</ele>
        <time>2017-05-24T09:32:50Z</time>
      </trkpt>
      <trkpt lat="45.95021" lon="4.86885">
        <ele>275</ele>
        <time>2017-05-24T09:32:51Z</time>
      </trkpt>
      <trkpt lat="45.95018" lon="4.86877">
        <ele>275</ele>
        <time>2017-05-24T09:32:52Z</time>
      </trkpt>
      <trkpt lat="45.95016" lon="4.8687">
        <ele>275</ele>
        <time>2017-05-24T09:32:53Z</time>
      </trkpt>
      <trkpt lat="45.95013" lon="4.86862">
        <ele>275</ele>
        <time>2017-05-24T09:32:54Z</time>
      </trkpt>
      <trkpt lat="45.95011" lon="4.86855">
        <ele>275</ele>
        <time>2017-05-24T09:32:55Z</time>
      </trkpt>
      <trkpt lat="45.95008" lon="4.86848">
        <ele>275</ele>
        <time>2017-05-24T09:32:56Z</time>
      </trkpt>
      <trkpt lat="45.95005" lon="4.8684">
        <ele>276</ele>
        <time>2017-05-24T09:32:57Z</time>
      </trkpt>
      <trkpt lat="45.95001" lon="4.86832">
        <ele>276</ele>
        <time>2017-05-24T09:32:58Z</time>
      </trkpt>
      <trkpt lat="45.94998" lon="4.86824">
        <ele>276</ele>
        <time>2017-05-24T09:32:59Z</time>
      </trkpt>
      <trkpt lat="45.94994" lon="4.86815">
        <ele>276</ele>
        <time>2017-05-24T09:33:00Z</time>
      </trkpt>
      <trkpt lat="45.9499" lon="4.86807">
        <ele>276</ele>
        <time>2017-05-24T09:33:01Z</time>
      </trkpt>
      <trkpt lat="45.94987" lon="4.86799">
        <ele>276</ele>
        <time>2017-05-24T09:33:02Z</time>
      </trkpt>
      <trkpt lat="45.94982" lon="4.86792">
        <ele>276</ele>
        <time>2017-05-24T09:33:03Z</time>
      </trkpt>
      <trkpt lat="45.94978" lon="4.86785">
        <ele>275</ele>
        <time>2017-05-24T09:33:04Z</time>
      </trkpt>
      <trkpt lat="45.94974" lon="4.86778">
        <ele>275</ele>
        <time>2017-05-24T09:33:05Z</time>
      </trkpt>
      <trkpt lat="45.94971" lon="4.86771">
        <ele>275</ele>
        <time>2017-05-24T09:33:06Z</time>
      </trkpt>
      <trkpt lat="45.94967" lon="4.86764">
        <ele>275</ele>
        <time>2017-05-24T09:33:07Z</time>
      </trkpt>
      <trkpt lat="45.94963" lon="4.86757">
        <ele>275</ele>
        <time>2017-05-24T09:33:08Z</time>
      </trkpt>
      <trkpt lat="45.9496" lon="4.8675">
        <ele>275</ele>
        <time>2017-05-24T09:33:09Z</time>
      </trkpt>
      <trkpt lat="45.94956" lon="4.86742">
        <ele>275</ele>
        <time>2017-05-24T09:33:10Z</time>
      </trkpt>
      <trkpt lat="45.94953" lon="4.86735">
        <ele>275</ele>
        <time>2017-05-24T09:33:11Z</time>
      </trkpt>
      <trkpt lat="45.9495" lon="4.86728">
        <ele>275</ele>
        <time>2017-05-24T09:33:12Z</time>
      </trkpt>
      <trkpt lat="45.94948" lon="4.86721">
        <ele>275</ele>
        <time>2017-05-24T09:33:13Z</time>
      </trkpt>
      <trkpt lat="45.94945" lon="4.86713">
        <ele>275</ele>
        <time>2017-05-24T09:33:14Z</time>
      </trkpt>
      <trkpt lat="45.94944" lon="4.86705">
        <ele>275</ele>
        <time>2017-05-24T09:33:15Z</time>
      </trkpt>
      <trkpt lat="45.94943" lon="4.86698">
        <ele>276</ele>
        <time>2017-05-24T09:33:16Z</time>
      </trkpt>
      <trkpt lat="45.94942" lon="4.8669">
        <ele>276</ele>
        <time>2017-05-24T09:33:17Z</time>
      </trkpt>
      <trkpt lat="45.94941" lon="4.86683">
        <ele>276</ele>
        <time>2017-05-24T09:33:18Z</time>
      </trkpt>
      <trkpt lat="45.9494" lon="4.86674">
        <ele>276</ele>
        <time>2017-05-24T09:33:19Z</time>
      </trkpt>
      <trkpt lat="45.94941" lon="4.86665">
        <ele>276</ele>
        <time>2017-05-24T09:33:20Z</time>
      </trkpt>
      <trkpt lat="45.94942" lon="4.86657">
        <ele>276</ele>
        <time>2017-05-24T09:33:21Z</time>
      </trkpt>
      <trkpt lat="45.94944" lon="4.86648">
        <ele>276</ele>
        <time>2017-05-24T09:33:22Z</time>
      </trkpt>
      <trkpt lat="45.94947" lon="4.86641">
        <ele>276</ele>
        <time>2017-05-24T09:33:23Z</time>
      </trkpt>
      <trkpt lat="45.94951" lon="4.86634">
        <ele>276</ele>
        <time>2017-05-24T09:33:24Z</time>
      </trkpt>
      <trkpt lat="45.94955" lon="4.86628">
        <ele>276</ele>
        <time>2017-05-24T09:33:25Z</time>
      </trkpt>
      <trkpt lat="45.94961" lon="4.86623">
        <ele>275</ele>
        <time>2017-05-24T09:33:26Z</time>
      </trkpt>
      <trkpt lat="45.94967" lon="4.8662">
        <ele>275</ele>
        <time>2017-05-24T09:33:27Z</time>
      </trkpt>
      <trkpt lat="45.94972" lon="4.86619">
        <ele>275</ele>
        <time>2017-05-24T09:33:28Z</time>
      </trkpt>
      <trkpt lat="45.94978" lon="4.86618">
        <ele>275</ele>
        <time>2017-05-24T09:33:29Z</time>
      </trkpt>
      <trkpt lat="45.94983" lon="4.86617">
        <ele>275</ele>
        <time>2017-05-24T09:33:30Z</time>
      </trkpt>
      <trkpt lat="45.94989" lon="4.86617">
        <ele>275</ele>
        <time>2017-05-24T09:33:31Z</time>
      </trkpt>
      <trkpt lat="45.94994" lon="4.86616">
        <ele>275</ele>
        <time>2017-05-24T09:33:32Z</time>
      </trkpt>
      <trkpt lat="45.94999" lon="4.86615">
        <ele>275</ele>
        <time>2017-05-24T09:33:33Z</time>
      </trkpt>
      <trkpt lat="45.95004" lon="4.86615">
        <ele>273</ele>
        <time>2017-05-24T09:33:34Z</time>
      </trkpt>
      <trkpt lat="45.95009" lon="4.86614">
        <ele>273</ele>
        <time>2017-05-24T09:33:35Z</time>
      </trkpt>
      <trkpt lat="45.95014" lon="4.86615">
        <ele>273</ele>
        <time>2017-05-24T09:33:36Z</time>
      </trkpt>
      <trkpt lat="45.95019" lon="4.86614">
        <ele>273</ele>
        <time>2017-05-24T09:33:37Z</time>
      </trkpt>
      <trkpt lat="45.95024" lon="4.86613">
        <ele>273</ele>
        <time>2017-05-24T09:33:38Z</time>
      </trkpt>
      <trkpt lat="45.95028" lon="4.86612">
        <ele>273</ele>
        <time>2017-05-24T09:33:39Z</time>
      </trkpt>
      <trkpt lat="45.95033" lon="4.86611">
        <ele>273</ele>
        <time>2017-05-24T09:33:40Z</time>
      </trkpt>
      <trkpt lat="45.95037" lon="4.8661">
        <ele>273</ele>
        <time>2017-05-24T09:33:41Z</time>
      </trkpt>
      <trkpt lat="45.95042" lon="4.86609">
        <ele>273</ele>
        <time>2017-05-24T09:33:42Z</time>
      </trkpt>
      <trkpt lat="45.95047" lon="4.86607">
        <ele>272</ele>
        <time>2017-05-24T09:33:43Z</time>
      </trkpt>
      <trkpt lat="45.95052" lon="4.86605">
        <ele>272</ele>
        <time>2017-05-24T09:33:44Z</time>
      </trkpt>
      <trkpt lat="45.95057" lon="4.86603">
        <ele>272</ele>
        <time>2017-05-24T09:33:45Z</time>
      </trkpt>
      <trkpt lat="45.95062" lon="4.86601">
        <ele>272</ele>
        <time>2017-05-24T09:33:46Z</time>
      </trkpt>
      <trkpt lat="45.95067" lon="4.86599">
        <ele>272</ele>
        <time>2017-05-24T09:33:47Z</time>
      </trkpt>
      <trkpt lat="45.95073" lon="4.86598">
        <ele>272</ele>
        <time>2017-05-24T09:33:48Z</time>
      </trkpt>
      <trkpt lat="45.95078" lon="4.86597">
        <ele>272</ele>
        <time>2017-05-24T09:33:49Z</time>
      </trkpt>
      <trkpt lat="45.95083" lon="4.86596">
        <ele>272</ele>
        <time>2017-05-24T09:33:50Z</time>
      </trkpt>
      <trkpt lat="45.95088" lon="4.86594">
        <ele>271</ele>
        <time>2017-05-24T09:33:51Z</time>
      </trkpt>
      <trkpt lat="45.95092" lon="4.86594">
        <ele>271</ele>
        <time>2017-05-24T09:33:52Z</time>
      </trkpt>
      <trkpt lat="45.95097" lon="4.86593">
        <ele>271</ele>
        <time>2017-05-24T09:33:53Z</time>
      </trkpt>
      <trkpt lat="45.95102" lon="4.86592">
        <ele>271</ele>
        <time>2017-05-24T09:33:54Z</time>
      </trkpt>
      <trkpt lat="45.95107" lon="4.86591">
        <ele>271</ele>
        <time>2017-05-24T09:33:55Z</time>
      </trkpt>
      <trkpt lat="45.95111" lon="4.86591">
        <ele>271</ele>
        <time>2017-05-24T09:33:56Z</time>
      </trkpt>
      <trkpt lat="45.95116" lon="4.8659">
        <ele>270</ele>
        <time>2017-05-24T09:33:57Z</time>
      </trkpt>
      <trkpt lat="45.95121" lon="4.86589">
        <ele>270</ele>
        <time>2017-05-24T09:33:58Z</time>
      </trkpt>
      <trkpt lat="45.95127" lon="4.86587">
        <ele>270</ele>
        <time>2017-05-24T09:33:59Z</time>
      </trkpt>
      <trkpt lat="45.95132" lon="4.86586">
        <ele>270</ele>
        <time>2017-05-24T09:34:00Z</time>
      </trkpt>
      <trkpt lat="45.95137" lon="4.86586">
        <ele>270</ele>
        <time>2017-05-24T09:34:01Z</time>
      </trkpt>
      <trkpt lat="45.95142" lon="4.86585">
        <ele>270</ele>
        <time>2017-05-24T09:34:02Z</time>
      </trkpt>
      <trkpt lat="45.95147" lon="4.86585">
        <ele>270</ele>
        <time>2017-05-24T09:34:03Z</time>
      </trkpt>
      <trkpt lat="45.95153" lon="4.86584">
        <ele>270</ele>
        <time>2017-05-24T09:34:04Z</time>
      </trkpt>
      <trkpt lat="45.95159" lon="4.86584">
        <ele>269</ele>
        <time>2017-05-24T09:34:05Z</time>
      </trkpt>
      <trkpt lat="45.95165" lon="4.86583">
        <ele>269</ele>
        <time>2017-05-24T09:34:06Z</time>
      </trkpt>
      <trkpt lat="45.95171" lon="4.86583">
        <ele>269</ele>
        <time>2017-05-24T09:34:07Z</time>
      </trkpt>
      <trkpt lat="45.95176" lon="4.86582">
        <ele>269</ele>
        <time>2017-05-24T09:34:08Z</time>
      </trkpt>
      <trkpt lat="45.95182" lon="4.86582">
        <ele>269</ele>
        <time>2017-05-24T09:34:09Z</time>
      </trkpt>
      <trkpt lat="45.95188" lon="4.86581">
        <ele>269</ele>
        <time>2017-05-24T09:34:10Z</time>
      </trkpt>
      <trkpt lat="45.95193" lon="4.86581">
        <ele>269</ele>
        <time>2017-05-24T09:34:11Z</time>
      </trkpt>
      <trkpt lat="45.95199" lon="4.86581">
        <ele>268</ele>
        <time>2017-05-24T09:34:12Z</time>
      </trkpt>
      <trkpt lat="45.95205" lon="4.8658">
        <ele>268</ele>
        <time>2017-05-24T09:34:13Z</time>
      </trkpt>
      <trkpt lat="45.95211" lon="4.86581">
        <ele>268</ele>
        <time>2017-05-24T09:34:14Z</time>
      </trkpt>
      <trkpt lat="45.95216" lon="4.86582">
        <ele>268</ele>
        <time>2017-05-24T09:34:15Z</time>
      </trkpt>
      <trkpt lat="45.95223" lon="4.86583">
        <ele>268</ele>
        <time>2017-05-24T09:34:16Z</time>
      </trkpt>
      <trkpt lat="45.95229" lon="4.86585">
        <ele>269</ele>
        <time>2017-05-24T09:34:17Z</time>
      </trkpt>
      <trkpt lat="45.95236" lon="4.86586">
        <ele>269</ele>
        <time>2017-05-24T09:34:18Z</time>
      </trkpt>
      <trkpt lat="45.95242" lon="4.86587">
        <ele>268</ele>
        <time>2017-05-24T09:34:19Z</time>
      </trkpt>
      <trkpt lat="45.95248" lon="4.86586">
        <ele>268</ele>
        <time>2017-05-24T09:34:20Z</time>
      </trkpt>
      <trkpt lat="45.95253" lon="4.86585">
        <ele>268</ele>
        <time>2017-05-24T09:34:21Z</time>
      </trkpt>
      <trkpt lat="45.95257" lon="4.86584">
        <ele>268</ele>
        <time>2017-05-24T09:34:22Z</time>
      </trkpt>
      <trkpt lat="45.95265" lon="4.86577">
        <ele>267</ele>
        <time>2017-05-24T09:34:25Z</time>
      </trkpt>
      <trkpt lat="45.95266" lon="4.86573">
        <ele>267</ele>
        <time>2017-05-24T09:34:26Z</time>
      </trkpt>
      <trkpt lat="45.95264" lon="4.86563">
        <ele>267</ele>
        <time>2017-05-24T09:34:28Z</time>
      </trkpt>
      <trkpt lat="45.95261" lon="4.86558">
        <ele>267</ele>
        <time>2017-05-24T09:34:29Z</time>
      </trkpt>
      <trkpt lat="45.95257" lon="4.86553">
        <ele>267</ele>
        <time>2017-05-24T09:34:30Z</time>
      </trkpt>
      <trkpt lat="45.95253" lon="4.86549">
        <ele>267</ele>
        <time>2017-05-24T09:34:31Z</time>
      </trkpt>
      <trkpt lat="45.95248" lon="4.86545">
        <ele>268</ele>
        <time>2017-05-24T09:34:32Z</time>
      </trkpt>
      <trkpt lat="45.95245" lon="4.86538">
        <ele>268</ele>
        <time>2017-05-24T09:34:33Z</time>
      </trkpt>
      <trkpt lat="45.9524" lon="4.86532">
        <ele>268</ele>
        <time>2017-05-24T09:34:34Z</time>
      </trkpt>
      <trkpt lat="45.95235" lon="4.86527">
        <ele>268</ele>
        <time>2017-05-24T09:34:35Z</time>
      </trkpt>
      <trkpt lat="45.95231" lon="4.86523">
        <ele>268</ele>
        <time>2017-05-24T09:34:36Z</time>
      </trkpt>
      <trkpt lat="45.95227" lon="4.86517">
        <ele>268</ele>
        <time>2017-05-24T09:34:37Z</time>
      </trkpt>
      <trkpt lat="45.95222" lon="4.86512">
        <ele>268</ele>
        <time>2017-05-24T09:34:38Z</time>
      </trkpt>
      <trkpt lat="45.95217" lon="4.86506">
        <ele>268</ele>
        <time>2017-05-24T09:34:39Z</time>
      </trkpt>
      <trkpt lat="45.95212" lon="4.86501">
        <ele>268</ele>
        <time>2017-05-24T09:34:40Z</time>
      </trkpt>
      <trkpt lat="45.95207" lon="4.86495">
        <ele>268</ele>
        <time>2017-05-24T09:34:41Z</time>
      </trkpt>
      <trkpt lat="45.95202" lon="4.86488">
        <ele>268</ele>
        <time>2017-05-24T09:34:42Z</time>
      </trkpt>
      <trkpt lat="45.95196" lon="4.86482">
        <ele>268</ele>
        <time>2017-05-24T09:34:43Z</time>
      </trkpt>
      <trkpt lat="45.95191" lon="4.86476">
        <ele>268</ele>
        <time>2017-05-24T09:34:44Z</time>
      </trkpt>
      <trkpt lat="45.95186" lon="4.8647">
        <ele>268</ele>
        <time>2017-05-24T09:34:45Z</time>
      </trkpt>
      <trkpt lat="45.95181" lon="4.86464">
        <ele>268</ele>
        <time>2017-05-24T09:34:46Z</time>
      </trkpt>
      <trkpt lat="45.95176" lon="4.86458">
        <ele>268</ele>
        <time>2017-05-24T09:34:47Z</time>
      </trkpt>
      <trkpt lat="45.95172" lon="4.86452">
        <ele>268</ele>
        <time>2017-05-24T09:34:48Z</time>
      </trkpt>
      <trkpt lat="45.95168" lon="4.86448">
        <ele>268</ele>
        <time>2017-05-24T09:34:49Z</time>
      </trkpt>
      <trkpt lat="45.95164" lon="4.86443">
        <ele>268</ele>
        <time>2017-05-24T09:34:50Z</time>
      </trkpt>
      <trkpt lat="45.9516" lon="4.86439">
        <ele>268</ele>
        <time>2017-05-24T09:34:51Z</time>
      </trkpt>
      <trkpt lat="45.95156" lon="4.86434">
        <ele>268</ele>
        <time>2017-05-24T09:34:52Z</time>
      </trkpt>
      <trkpt lat="45.95152" lon="4.8643">
        <ele>268</ele>
        <time>2017-05-24T09:34:53Z</time>
      </trkpt>
      <trkpt lat="45.95148" lon="4.86425">
        <ele>268</ele>
        <time>2017-05-24T09:34:54Z</time>
      </trkpt>
      <trkpt lat="45.95143" lon="4.8642">
        <ele>268</ele>
        <time>2017-05-24T09:34:55Z</time>
      </trkpt>
      <trkpt lat="45.95138" lon="4.86414">
        <ele>268</ele>
        <time>2017-05-24T09:34:56Z</time>
      </trkpt>
      <trkpt lat="45.95133" lon="4.86407">
        <ele>268</ele>
        <time>2017-05-24T09:34:57Z</time>
      </trkpt>
      <trkpt lat="45.95128" lon="4.86401">
        <ele>268</ele>
        <time>2017-05-24T09:34:58Z</time>
      </trkpt>
      <trkpt lat="45.95123" lon="4.86394">
        <ele>269</ele>
        <time>2017-05-24T09:34:59Z</time>
      </trkpt>
      <trkpt lat="45.95118" lon="4.86388">
        <ele>269</ele>
        <time>2017-05-24T09:35:00Z</time>
      </trkpt>
      <trkpt lat="45.95113" lon="4.86382">
        <ele>269</ele>
        <time>2017-05-24T09:35:01Z</time>
      </trkpt>
      <trkpt lat="45.95108" lon="4.86376">
        <ele>269</ele>
        <time>2017-05-24T09:35:02Z</time>
      </trkpt>
      <trkpt lat="45.95104" lon="4.8637">
        <ele>269</ele>
        <time>2017-05-24T09:35:03Z</time>
      </trkpt>
      <trkpt lat="45.95099" lon="4.86365">
        <ele>269</ele>
        <time>2017-05-24T09:35:04Z</time>
      </trkpt>
      <trkpt lat="45.95095" lon="4.8636">
        <ele>269</ele>
        <time>2017-05-24T09:35:05Z</time>
      </trkpt>
      <trkpt lat="45.95091" lon="4.86354">
        <ele>269</ele>
        <time>2017-05-24T09:35:06Z</time>
      </trkpt>
      <trkpt lat="45.95087" lon="4.86349">
        <ele>269</ele>
        <time>2017-05-24T09:35:07Z</time>
      </trkpt>
      <trkpt lat="45.95082" lon="4.86344">
        <ele>270</ele>
        <time>2017-05-24T09:35:08Z</time>
      </trkpt>
      <trkpt lat="45.95078" lon="4.86339">
        <ele>270</ele>
        <time>2017-05-24T09:35:09Z</time>
      </trkpt>
      <trkpt lat="45.95073" lon="4.86334">
        <ele>270</ele>
        <time>2017-05-24T09:35:10Z</time>
      </trkpt>
      <trkpt lat="45.95068" lon="4.86328">
        <ele>270</ele>
        <time>2017-05-24T09:35:11Z</time>
      </trkpt>
      <trkpt lat="45.95062" lon="4.86322">
        <ele>270</ele>
        <time>2017-05-24T09:35:12Z</time>
      </trkpt>
      <trkpt lat="45.95057" lon="4.86316">
        <ele>271</ele>
        <time>2017-05-24T09:35:13Z</time>
      </trkpt>
      <trkpt lat="45.95052" lon="4.86309">
        <ele>271</ele>
        <time>2017-05-24T09:35:14Z</time>
      </trkpt>
      <trkpt lat="45.95046" lon="4.86302">
        <ele>271</ele>
        <time>2017-05-24T09:35:15Z</time>
      </trkpt>
      <trkpt lat="45.95041" lon="4.86296">
        <ele>271</ele>
        <time>2017-05-24T09:35:16Z</time>
      </trkpt>
      <trkpt lat="45.95036" lon="4.86289">
        <ele>271</ele>
        <time>2017-05-24T09:35:17Z</time>
      </trkpt>
      <trkpt lat="45.95032" lon="4.86284">
        <ele>271</ele>
        <time>2017-05-24T09:35:18Z</time>
      </trkpt>
      <trkpt lat="45.95028" lon="4.86278">
        <ele>271</ele>
        <time>2017-05-24T09:35:19Z</time>
      </trkpt>
      <trkpt lat="45.95024" lon="4.86272">
        <ele>271</ele>
        <time>2017-05-24T09:35:20Z</time>
      </trkpt>
      <trkpt lat="45.9502" lon="4.86268">
        <ele>271</ele>
        <time>2017-05-24T09:35:21Z</time>
      </trkpt>
      <trkpt lat="45.95017" lon="4.86263">
        <ele>271</ele>
        <time>2017-05-24T09:35:22Z</time>
      </trkpt>
      <trkpt lat="45.95012" lon="4.86258">
        <ele>272</ele>
        <time>2017-05-24T09:35:23Z</time>
      </trkpt>
      <trkpt lat="45.95008" lon="4.86252">
        <ele>272</ele>
        <time>2017-05-24T09:35:24Z</time>
      </trkpt>
      <trkpt lat="45.95003" lon="4.86247">
        <ele>272</ele>
        <time>2017-05-24T09:35:25Z</time>
      </trkpt>
      <trkpt lat="45.94998" lon="4.86242">
        <ele>272</ele>
        <time>2017-05-24T09:35:26Z</time>
      </trkpt>
      <trkpt lat="45.94993" lon="4.86236">
        <ele>272</ele>
        <time>2017-05-24T09:35:27Z</time>
      </trkpt>
      <trkpt lat="45.94988" lon="4.8623">
        <ele>272</ele>
        <time>2017-05-24T09:35:28Z</time>
      </trkpt>
      <trkpt lat="45.94983" lon="4.86223">
        <ele>272</ele>
        <time>2017-05-24T09:35:29Z</time>
      </trkpt>
      <trkpt lat="45.94978" lon="4.86217">
        <ele>272</ele>
        <time>2017-05-24T09:35:30Z</time>
      </trkpt>
      <trkpt lat="45.94973" lon="4.86211">
        <ele>272</ele>
        <time>2017-05-24T09:35:31Z</time>
      </trkpt>
      <trkpt lat="45.94969" lon="4.86205">
        <ele>272</ele>
        <time>2017-05-24T09:35:32Z</time>
      </trkpt>
      <trkpt lat="45.94964" lon="4.862">
        <ele>272</ele>
        <time>2017-05-24T09:35:33Z</time>
      </trkpt>
      <trkpt lat="45.94959" lon="4.86194">
        <ele>272</ele>
        <time>2017-05-24T09:35:34Z</time>
      </trkpt>
      <trkpt lat="45.94955" lon="4.86189">
        <ele>273</ele>
        <time>2017-05-24T09:35:35Z</time>
      </trkpt>
      <trkpt lat="45.94951" lon="4.86184">
        <ele>273</ele>
        <time>2017-05-24T09:35:36Z</time>
      </trkpt>
      <trkpt lat="45.94948" lon="4.86179">
        <ele>273</ele>
        <time>2017-05-24T09:35:37Z</time>
      </trkpt>
      <trkpt lat="45.94944" lon="4.86175">
        <ele>273</ele>
        <time>2017-05-24T09:35:38Z</time>
      </trkpt>
      <trkpt lat="45.9494" lon="4.86171">
        <ele>273</ele>
        <time>2017-05-24T09:35:39Z</time>
      </trkpt>
      <trkpt lat="45.94937" lon="4.86167">
        <ele>273</ele>
        <time>2017-05-24T09:35:40Z</time>
      </trkpt>
      <trkpt lat="45.94933" lon="4.86161">
        <ele>273</ele>
        <time>2017-05-24T09:35:41Z</time>
      </trkpt>
      <trkpt lat="45.94929" lon="4.86156">
        <ele>273</ele>
        <time>2017-05-24T09:35:42Z</time>
      </trkpt>
      <trkpt lat="45.94925" lon="4.8615">
        <ele>273</ele>
        <time>2017-05-24T09:35:43Z</time>
      </trkpt>
      <trkpt lat="45.94921" lon="4.86144">
        <ele>273</ele>
        <time>2017-05-24T09:35:44Z</time>
      </trkpt>
      <trkpt lat="45.94917" lon="4.86137">
        <ele>273</ele>
        <time>2017-05-24T09:35:45Z</time>
      </trkpt>
      <trkpt lat="45.94913" lon="4.8613">
        <ele>274</ele>
        <time>2017-05-24T09:35:46Z</time>
      </trkpt>
      <trkpt lat="45.94909" lon="4.86123">
        <ele>274</ele>
        <time>2017-05-24T09:35:47Z</time>
      </trkpt>
      <trkpt lat="45.94905" lon="4.86115">
        <ele>274</ele>
        <time>2017-05-24T09:35:48Z</time>
      </trkpt>
      <trkpt lat="45.94902" lon="4.86108">
        <ele>274</ele>
        <time>2017-05-24T09:35:49Z</time>
      </trkpt>
      <trkpt lat="45.94899" lon="4.86101">
        <ele>274</ele>
        <time>2017-05-24T09:35:50Z</time>
      </trkpt>
      <trkpt lat="45.94897" lon="4.86094">
        <ele>274</ele>
        <time>2017-05-24T09:35:51Z</time>
      </trkpt>
      <trkpt lat="45.94895" lon="4.86088">
        <ele>274</ele>
        <time>2017-05-24T09:35:52Z</time>
      </trkpt>
      <trkpt lat="45.94892" lon="4.86082">
        <ele>274</ele>
        <time>2017-05-24T09:35:53Z</time>
      </trkpt>
      <trkpt lat="45.9489" lon="4.86075">
        <ele>274</ele>
        <time>2017-05-24T09:35:54Z</time>
      </trkpt>
      <trkpt lat="45.94888" lon="4.86068">
        <ele>274</ele>
        <time>2017-05-24T09:35:55Z</time>
      </trkpt>
      <trkpt lat="45.94886" lon="4.86061">
        <ele>274</ele>
        <time>2017-05-24T09:35:56Z</time>
      </trkpt>
      <trkpt lat="45.94884" lon="4.86053">
        <ele>274</ele>
        <time>2017-05-24T09:35:57Z</time>
      </trkpt>
      <trkpt lat="45.94882" lon="4.86045">
        <ele>274</ele>
        <time>2017-05-24T09:35:58Z</time>
      </trkpt>
      <trkpt lat="45.9488" lon="4.86036">
        <ele>274</ele>
        <time>2017-05-24T09:35:59Z</time>
      </trkpt>
      <trkpt lat="45.94878" lon="4.86028">
        <ele>274</ele>
        <time>2017-05-24T09:36:00Z</time>
      </trkpt>
      <trkpt lat="45.94876" lon="4.8602">
        <ele>274</ele>
        <time>2017-05-24T09:36:01Z</time>
      </trkpt>
      <trkpt lat="45.94874" lon="4.86013">
        <ele>274</ele>
        <time>2017-05-24T09:36:02Z</time>
      </trkpt>
      <trkpt lat="45.94873" lon="4.86006">
        <ele>274</ele>
        <time>2017-05-24T09:36:03Z</time>
      </trkpt>
      <trkpt lat="45.94871" lon="4.85999">
        <ele>275</ele>
        <time>2017-05-24T09:36:04Z</time>
      </trkpt>
      <trkpt lat="45.94869" lon="4.85993">
        <ele>275</ele>
        <time>2017-05-24T09:36:05Z</time>
      </trkpt>
      <trkpt lat="45.94867" lon="4.85987">
        <ele>275</ele>
        <time>2017-05-24T09:36:06Z</time>
      </trkpt>
      <trkpt lat="45.94866" lon="4.85981">
        <ele>275</ele>
        <time>2017-05-24T09:36:07Z</time>
      </trkpt>
      <trkpt lat="45.94864" lon="4.85974">
        <ele>275</ele>
        <time>2017-05-24T09:36:08Z</time>
      </trkpt>
      <trkpt lat="45.94862" lon="4.85967">
        <ele>275</ele>
        <time>2017-05-24T09:36:09Z</time>
      </trkpt>
      <trkpt lat="45.9486" lon="4.85961">
        <ele>275</ele>
        <time>2017-05-24T09:36:10Z</time>
      </trkpt>
      <trkpt lat="45.94859" lon="4.85955">
        <ele>275</ele>
        <time>2017-05-24T09:36:11Z</time>
      </trkpt>
      <trkpt lat="45.94857" lon="4.85949">
        <ele>275</ele>
        <time>2017-05-24T09:36:12Z</time>
      </trkpt>
      <trkpt lat="45.94855" lon="4.85942">
        <ele>275</ele>
        <time>2017-05-24T09:36:13Z</time>
      </trkpt>
      <trkpt lat="45.94853" lon="4.85935">
        <ele>275</ele>
        <time>2017-05-24T09:36:14Z</time>
      </trkpt>
      <trkpt lat="45.94851" lon="4.85928">
        <ele>275</ele>
        <time>2017-05-24T09:36:15Z</time>
      </trkpt>
      <trkpt lat="45.94849" lon="4.85921">
        <ele>275</ele>
        <time>2017-05-24T09:36:16Z</time>
      </trkpt>
      <trkpt lat="45.94848" lon="4.85913">
        <ele>275</ele>
        <time>2017-05-24T09:36:17Z</time>
      </trkpt>
      <trkpt lat="45.94846" lon="4.85905">
        <ele>275</ele>
        <time>2017-05-24T09:36:18Z</time>
      </trkpt>
      <trkpt lat="45.94844" lon="4.85897">
        <ele>276</ele>
        <time>2017-05-24T09:36:19Z</time>
      </trkpt>
      <trkpt lat="45.94842" lon="4.85889">
        <ele>276</ele>
        <time>2017-05-24T09:36:20Z</time>
      </trkpt>
      <trkpt lat="45.94841" lon="4.85882">
        <ele>276</ele>
        <time>2017-05-24T09:36:21Z</time>
      </trkpt>
      <trkpt lat="45.94839" lon="4.85875">
        <ele>276</ele>
        <time>2017-05-24T09:36:22Z</time>
      </trkpt>
      <trkpt lat="45.94838" lon="4.85868">
        <ele>276</ele>
        <time>2017-05-24T09:36:23Z</time>
      </trkpt>
      <trkpt lat="45.94834" lon="4.85856">
        <ele>276</ele>
        <time>2017-05-24T09:36:25Z</time>
      </trkpt>
      <trkpt lat="45.94833" lon="4.8585">
        <ele>277</ele>
        <time>2017-05-24T09:36:26Z</time>
      </trkpt>
      <trkpt lat="45.94831" lon="4.85843">
        <ele>277</ele>
        <time>2017-05-24T09:36:27Z</time>
      </trkpt>
      <trkpt lat="45.9483" lon="4.85837">
        <ele>277</ele>
        <time>2017-05-24T09:36:28Z</time>
      </trkpt>
      <trkpt lat="45.94828" lon="4.85829">
        <ele>277</ele>
        <time>2017-05-24T09:36:29Z</time>
      </trkpt>
      <trkpt lat="45.94826" lon="4.85822">
        <ele>278</ele>
        <time>2017-05-24T09:36:30Z</time>
      </trkpt>
      <trkpt lat="45.94824" lon="4.85814">
        <ele>278</ele>
        <time>2017-05-24T09:36:31Z</time>
      </trkpt>
      <trkpt lat="45.94821" lon="4.85806">
        <ele>278</ele>
        <time>2017-05-24T09:36:32Z</time>
      </trkpt>
      <trkpt lat="45.94819" lon="4.85797">
        <ele>278</ele>
        <time>2017-05-24T09:36:33Z</time>
      </trkpt>
      <trkpt lat="45.94817" lon="4.85789">
        <ele>278</ele>
        <time>2017-05-24T09:36:34Z</time>
      </trkpt>
      <trkpt lat="45.94814" lon="4.85781">
        <ele>278</ele>
        <time>2017-05-24T09:36:35Z</time>
      </trkpt>
      <trkpt lat="45.94812" lon="4.85774">
        <ele>278</ele>
        <time>2017-05-24T09:36:36Z</time>
      </trkpt>
      <trkpt lat="45.9481" lon="4.85767">
        <ele>278</ele>
        <time>2017-05-24T09:36:37Z</time>
      </trkpt>
      <trkpt lat="45.94808" lon="4.8576">
        <ele>278</ele>
        <time>2017-05-24T09:36:38Z</time>
      </trkpt>
      <trkpt lat="45.94806" lon="4.85754">
        <ele>278</ele>
        <time>2017-05-24T09:36:39Z</time>
      </trkpt>
      <trkpt lat="45.94804" lon="4.85748">
        <ele>279</ele>
        <time>2017-05-24T09:36:40Z</time>
      </trkpt>
      <trkpt lat="45.94802" lon="4.85742">
        <ele>279</ele>
        <time>2017-05-24T09:36:41Z</time>
      </trkpt>
      <trkpt lat="45.94801" lon="4.85735">
        <ele>280</ele>
        <time>2017-05-24T09:36:42Z</time>
      </trkpt>
      <trkpt lat="45.94799" lon="4.85728">
        <ele>280</ele>
        <time>2017-05-24T09:36:43Z</time>
      </trkpt>
      <trkpt lat="45.94797" lon="4.85721">
        <ele>280</ele>
        <time>2017-05-24T09:36:44Z</time>
      </trkpt>
      <trkpt lat="45.94795" lon="4.85714">
        <ele>280</ele>
        <time>2017-05-24T09:36:45Z</time>
      </trkpt>
      <trkpt lat="45.94793" lon="4.85706">
        <ele>280</ele>
        <time>2017-05-24T09:36:46Z</time>
      </trkpt>
      <trkpt lat="45.94792" lon="4.85699">
        <ele>280</ele>
        <time>2017-05-24T09:36:47Z</time>
      </trkpt>
      <trkpt lat="45.9479" lon="4.85693">
        <ele>280</ele>
        <time>2017-05-24T09:36:48Z</time>
      </trkpt>
      <trkpt lat="45.94788" lon="4.85686">
        <ele>280</ele>
        <time>2017-05-24T09:36:49Z</time>
      </trkpt>
      <trkpt lat="45.94787" lon="4.8568">
        <ele>280</ele>
        <time>2017-05-24T09:36:50Z</time>
      </trkpt>
      <trkpt lat="45.94785" lon="4.85674">
        <ele>280</ele>
        <time>2017-05-24T09:36:51Z</time>
      </trkpt>
      <trkpt lat="45.94783" lon="4.85668">
        <ele>280</ele>
        <time>2017-05-24T09:36:52Z</time>
      </trkpt>
      <trkpt lat="45.94781" lon="4.85662">
        <ele>281</ele>
        <time>2017-05-24T09:36:53Z</time>
      </trkpt>
      <trkpt lat="45.94779" lon="4.85655">
        <ele>281</ele>
        <time>2017-05-24T09:36:54Z</time>
      </trkpt>
      <trkpt lat="45.94777" lon="4.85648">
        <ele>281</ele>
        <time>2017-05-24T09:36:55Z</time>
      </trkpt>
      <trkpt lat="45.94775" lon="4.8564">
        <ele>281</ele>
        <time>2017-05-24T09:36:56Z</time>
      </trkpt>
      <trkpt lat="45.94773" lon="4.85633">
        <ele>280</ele>
        <time>2017-05-24T09:36:57Z</time>
      </trkpt>
      <trkpt lat="45.94772" lon="4.85625">
        <ele>280</ele>
        <time>2017-05-24T09:36:58Z</time>
      </trkpt>
      <trkpt lat="45.9477" lon="4.85617">
        <ele>280</ele>
        <time>2017-05-24T09:36:59Z</time>
      </trkpt>
      <trkpt lat="45.94769" lon="4.85608">
        <ele>280</ele>
        <time>2017-05-24T09:37:00Z</time>
      </trkpt>
      <trkpt lat="45.94767" lon="4.856">
        <ele>280</ele>
        <time>2017-05-24T09:37:01Z</time>
      </trkpt>
      <trkpt lat="45.94765" lon="4.85591">
        <ele>280</ele>
        <time>2017-05-24T09:37:02Z</time>
      </trkpt>
      <trkpt lat="45.94763" lon="4.85582">
        <ele>279</ele>
        <time>2017-05-24T09:37:03Z</time>
      </trkpt>
      <trkpt lat="45.94761" lon="4.85572">
        <ele>279</ele>
        <time>2017-05-24T09:37:04Z</time>
      </trkpt>
      <trkpt lat="45.94759" lon="4.85562">
        <ele>278</ele>
        <time>2017-05-24T09:37:05Z</time>
      </trkpt>
      <trkpt lat="45.94757" lon="4.85552">
        <ele>278</ele>
        <time>2017-05-24T09:37:06Z</time>
      </trkpt>
      <trkpt lat="45.94756" lon="4.85541">
        <ele>278</ele>
        <time>2017-05-24T09:37:07Z</time>
      </trkpt>
      <trkpt lat="45.94755" lon="4.8553">
        <ele>278</ele>
        <time>2017-05-24T09:37:08Z</time>
      </trkpt>
      <trkpt lat="45.94753" lon="4.85518">
        <ele>277</ele>
        <time>2017-05-24T09:37:09Z</time>
      </trkpt>
      <trkpt lat="45.94752" lon="4.85506">
        <ele>277</ele>
        <time>2017-05-24T09:37:10Z</time>
      </trkpt>
      <trkpt lat="45.9475" lon="4.85494">
        <ele>276</ele>
        <time>2017-05-24T09:37:11Z</time>
      </trkpt>
      <trkpt lat="45.94749" lon="4.85482">
        <ele>275</ele>
        <time>2017-05-24T09:37:12Z</time>
      </trkpt>
      <trkpt lat="45.94747" lon="4.8547">
        <ele>274</ele>
        <time>2017-05-24T09:37:13Z</time>
      </trkpt>
      <trkpt lat="45.94745" lon="4.85457">
        <ele>274</ele>
        <time>2017-05-24T09:37:14Z</time>
      </trkpt>
      <trkpt lat="45.94744" lon="4.85444">
        <ele>274</ele>
        <time>2017-05-24T09:37:15Z</time>
      </trkpt>
      <trkpt lat="45.94742" lon="4.85431">
        <ele>273</ele>
        <time>2017-05-24T09:37:16Z</time>
      </trkpt>
      <trkpt lat="45.94741" lon="4.85418">
        <ele>273</ele>
        <time>2017-05-24T09:37:17Z</time>
      </trkpt>
      <trkpt lat="45.9474" lon="4.85405">
        <ele>272</ele>
        <time>2017-05-24T09:37:18Z</time>
      </trkpt>
      <trkpt lat="45.94739" lon="4.85393">
        <ele>272</ele>
        <time>2017-05-24T09:37:19Z</time>
      </trkpt>
      <trkpt lat="45.94738" lon="4.8538">
        <ele>271</ele>
        <time>2017-05-24T09:37:20Z</time>
      </trkpt>
      <trkpt lat="45.94736" lon="4.85368">
        <ele>271</ele>
        <time>2017-05-24T09:37:21Z</time>
      </trkpt>
      <trkpt lat="45.94735" lon="4.85356">
        <ele>271</ele>
        <time>2017-05-24T09:37:22Z</time>
      </trkpt>
      <trkpt lat="45.94734" lon="4.85345">
        <ele>271</ele>
        <time>2017-05-24T09:37:23Z</time>
      </trkpt>
      <trkpt lat="45.94733" lon="4.85334">
        <ele>271</ele>
        <time>2017-05-24T09:37:24Z</time>
      </trkpt>
      <trkpt lat="45.94731" lon="4.85323">
        <ele>270</ele>
        <time>2017-05-24T09:37:25Z</time>
      </trkpt>
      <trkpt lat="45.9473" lon="4.85312">
        <ele>270</ele>
        <time>2017-05-24T09:37:26Z</time>
      </trkpt>
      <trkpt lat="45.94729" lon="4.85301">
        <ele>270</ele>
        <time>2017-05-24T09:37:27Z</time>
      </trkpt>
      <trkpt lat="45.94727" lon="4.85291">
        <ele>269</ele>
        <time>2017-05-24T09:37:28Z</time>
      </trkpt>
      <trkpt lat="45.94726" lon="4.85281">
        <ele>269</ele>
        <time>2017-05-24T09:37:29Z</time>
      </trkpt>
      <trkpt lat="45.94725" lon="4.85271">
        <ele>269</ele>
        <time>2017-05-24T09:37:30Z</time>
      </trkpt>
      <trkpt lat="45.94724" lon="4.85261">
        <ele>269</ele>
        <time>2017-05-24T09:37:31Z</time>
      </trkpt>
      <trkpt lat="45.94723" lon="4.85252">
        <ele>269</ele>
        <time>2017-05-24T09:37:32Z</time>
      </trkpt>
      <trkpt lat="45.94722" lon="4.85243">
        <ele>269</ele>
        <time>2017-05-24T09:37:33Z</time>
      </trkpt>
      <trkpt lat="45.94721" lon="4.85233">
        <ele>269</ele>
        <time>2017-05-24T09:37:34Z</time>
      </trkpt>
      <trkpt lat="45.9472" lon="4.85225">
        <ele>269</ele>
        <time>2017-05-24T09:37:35Z</time>
      </trkpt>
      <trkpt lat="45.94719" lon="4.85216">
        <ele>269</ele>
        <time>2017-05-24T09:37:36Z</time>
      </trkpt>
      <trkpt lat="45.94718" lon="4.85207">
        <ele>269</ele>
        <time>2017-05-24T09:37:37Z</time>
      </trkpt>
      <trkpt lat="45.94717" lon="4.85198">
        <ele>269</ele>
        <time>2017-05-24T09:37:38Z</time>
      </trkpt>
      <trkpt lat="45.94716" lon="4.85189">
        <ele>269</ele>
        <time>2017-05-24T09:37:39Z</time>
      </trkpt>
      <trkpt lat="45.94715" lon="4.8518">
        <ele>269</ele>
        <time>2017-05-24T09:37:40Z</time>
      </trkpt>
      <trkpt lat="45.94714" lon="4.8517">
        <ele>269</ele>
        <time>2017-05-24T09:37:41Z</time>
      </trkpt>
      <trkpt lat="45.94713" lon="4.8516">
        <ele>269</ele>
        <time>2017-05-24T09:37:42Z</time>
      </trkpt>
      <trkpt lat="45.94712" lon="4.85151">
        <ele>269</ele>
        <time>2017-05-24T09:37:43Z</time>
      </trkpt>
      <trkpt lat="45.94711" lon="4.85141">
        <ele>269</ele>
        <time>2017-05-24T09:37:44Z</time>
      </trkpt>
      <trkpt lat="45.9471" lon="4.85132">
        <ele>269</ele>
        <time>2017-05-24T09:37:45Z</time>
      </trkpt>
      <trkpt lat="45.94709" lon="4.85122">
        <ele>269</ele>
        <time>2017-05-24T09:37:46Z</time>
      </trkpt>
      <trkpt lat="45.94707" lon="4.85112">
        <ele>269</ele>
        <time>2017-05-24T09:37:47Z</time>
      </trkpt>
      <trkpt lat="45.94706" lon="4.85102">
        <ele>269</ele>
        <time>2017-05-24T09:37:48Z</time>
      </trkpt>
      <trkpt lat="45.94705" lon="4.85092">
        <ele>269</ele>
        <time>2017-05-24T09:37:49Z</time>
      </trkpt>
      <trkpt lat="45.94704" lon="4.85082">
        <ele>269</ele>
        <time>2017-05-24T09:37:50Z</time>
      </trkpt>
      <trkpt lat="45.94703" lon="4.85071">
        <ele>269</ele>
        <time>2017-05-24T09:37:51Z</time>
      </trkpt>
      <trkpt lat="45.94702" lon="4.85061">
        <ele>269</ele>
        <time>2017-05-24T09:37:52Z</time>
      </trkpt>
      <trkpt lat="45.94701" lon="4.8505">
        <ele>269</ele>
        <time>2017-05-24T09:37:53Z</time>
      </trkpt>
      <trkpt lat="45.947" lon="4.8504">
        <ele>269</ele>
        <time>2017-05-24T09:37:54Z</time>
      </trkpt>
      <trkpt lat="45.94699" lon="4.85029">
        <ele>269</ele>
        <time>2017-05-24T09:37:55Z</time>
      </trkpt>
      <trkpt lat="45.94698" lon="4.85018">
        <ele>269</ele>
        <time>2017-05-24T09:37:56Z</time>
      </trkpt>
      <trkpt lat="45.94697" lon="4.85009">
        <ele>269</ele>
        <time>2017-05-24T09:37:57Z</time>
      </trkpt>
      <trkpt lat="45.94696" lon="4.84999">
        <ele>269</ele>
        <time>2017-05-24T09:37:58Z</time>
      </trkpt>
      <trkpt lat="45.94695" lon="4.8499">
        <ele>269</ele>
        <time>2017-05-24T09:37:59Z</time>
      </trkpt>
      <trkpt lat="45.94694" lon="4.84981">
        <ele>269</ele>
        <time>2017-05-24T09:38:00Z</time>
      </trkpt>
      <trkpt lat="45.94693" lon="4.84972">
        <ele>269</ele>
        <time>2017-05-24T09:38:01Z</time>
      </trkpt>
      <trkpt lat="45.94692" lon="4.84963">
        <ele>269</ele>
        <time>2017-05-24T09:38:02Z</time>
      </trkpt>
      <trkpt lat="45.94692" lon="4.84955">
        <ele>269</ele>
        <time>2017-05-24T09:38:03Z</time>
      </trkpt>
      <trkpt lat="45.94691" lon="4.84947">
        <ele>269</ele>
        <time>2017-05-24T09:38:04Z</time>
      </trkpt>
      <trkpt lat="45.9469" lon="4.84938">
        <ele>269</ele>
        <time>2017-05-24T09:38:05Z</time>
      </trkpt>
      <trkpt lat="45.94689" lon="4.84929">
        <ele>269</ele>
        <time>2017-05-24T09:38:06Z</time>
      </trkpt>
      <trkpt lat="45.94687" lon="4.84919">
        <ele>269</ele>
        <time>2017-05-24T09:38:07Z</time>
      </trkpt>
      <trkpt lat="45.94686" lon="4.84909">
        <ele>269</ele>
        <time>2017-05-24T09:38:08Z</time>
      </trkpt>
      <trkpt lat="45.94685" lon="4.84898">
        <ele>268</ele>
        <time>2017-05-24T09:38:09Z</time>
      </trkpt>
      <trkpt lat="45.94684" lon="4.84888">
        <ele>268</ele>
        <time>2017-05-24T09:38:10Z</time>
      </trkpt>
      <trkpt lat="45.94683" lon="4.84877">
        <ele>268</ele>
        <time>2017-05-24T09:38:11Z</time>
      </trkpt>
      <trkpt lat="45.94682" lon="4.84867">
        <ele>268</ele>
        <time>2017-05-24T09:38:12Z</time>
      </trkpt>
      <trkpt lat="45.94681" lon="4.84857">
        <ele>268</ele>
        <time>2017-05-24T09:38:13Z</time>
      </trkpt>
      <trkpt lat="45.9468" lon="4.84847">
        <ele>268</ele>
        <time>2017-05-24T09:38:14Z</time>
      </trkpt>
      <trkpt lat="45.9468" lon="4.84837">
        <ele>268</ele>
        <time>2017-05-24T09:38:15Z</time>
      </trkpt>
      <trkpt lat="45.94679" lon="4.84828">
        <ele>268</ele>
        <time>2017-05-24T09:38:16Z</time>
      </trkpt>
      <trkpt lat="45.94678" lon="4.84819">
        <ele>268</ele>
        <time>2017-05-24T09:38:17Z</time>
      </trkpt>
      <trkpt lat="45.94677" lon="4.84811">
        <ele>268</ele>
        <time>2017-05-24T09:38:18Z</time>
      </trkpt>
      <trkpt lat="45.94677" lon="4.84802">
        <ele>268</ele>
        <time>2017-05-24T09:38:19Z</time>
      </trkpt>
      <trkpt lat="45.94677" lon="4.84794">
        <ele>268</ele>
        <time>2017-05-24T09:38:20Z</time>
      </trkpt>
      <trkpt lat="45.94676" lon="4.84786">
        <ele>269</ele>
        <time>2017-05-24T09:38:21Z</time>
      </trkpt>
      <trkpt lat="45.94675" lon="4.84777">
        <ele>269</ele>
        <time>2017-05-24T09:38:22Z</time>
      </trkpt>
      <trkpt lat="45.94674" lon="4.84768">
        <ele>269</ele>
        <time>2017-05-24T09:38:23Z</time>
      </trkpt>
      <trkpt lat="45.94674" lon="4.84759">
        <ele>269</ele>
        <time>2017-05-24T09:38:24Z</time>
      </trkpt>
      <trkpt lat="45.94673" lon="4.84749">
        <ele>269</ele>
        <time>2017-05-24T09:38:25Z</time>
      </trkpt>
      <trkpt lat="45.94673" lon="4.84738">
        <ele>269</ele>
        <time>2017-05-24T09:38:26Z</time>
      </trkpt>
      <trkpt lat="45.94673" lon="4.84728">
        <ele>269</ele>
        <time>2017-05-24T09:38:27Z</time>
      </trkpt>
      <trkpt lat="45.94672" lon="4.84717">
        <ele>269</ele>
        <time>2017-05-24T09:38:28Z</time>
      </trkpt>
      <trkpt lat="45.94672" lon="4.84707">
        <ele>269</ele>
        <time>2017-05-24T09:38:29Z</time>
      </trkpt>
      <trkpt lat="45.94671" lon="4.84697">
        <ele>269</ele>
        <time>2017-05-24T09:38:30Z</time>
      </trkpt>
      <trkpt lat="45.94671" lon="4.84687">
        <ele>269</ele>
        <time>2017-05-24T09:38:31Z</time>
      </trkpt>
      <trkpt lat="45.94671" lon="4.84677">
        <ele>269</ele>
        <time>2017-05-24T09:38:32Z</time>
      </trkpt>
      <trkpt lat="45.94671" lon="4.84668">
        <ele>269</ele>
        <time>2017-05-24T09:38:33Z</time>
      </trkpt>
      <trkpt lat="45.94671" lon="4.84659">
        <ele>269</ele>
        <time>2017-05-24T09:38:34Z</time>
      </trkpt>
      <trkpt lat="45.94671" lon="4.8465">
        <ele>268</ele>
        <time>2017-05-24T09:38:35Z</time>
      </trkpt>
      <trkpt lat="45.9467" lon="4.84641">
        <ele>268</ele>
        <time>2017-05-24T09:38:36Z</time>
      </trkpt>
      <trkpt lat="45.9467" lon="4.84633">
        <ele>268</ele>
        <time>2017-05-24T09:38:37Z</time>
      </trkpt>
      <trkpt lat="45.94669" lon="4.84625">
        <ele>268</ele>
        <time>2017-05-24T09:38:38Z</time>
      </trkpt>
      <trkpt lat="45.94669" lon="4.84617">
        <ele>268</ele>
        <time>2017-05-24T09:38:39Z</time>
      </trkpt>
      <trkpt lat="45.94668" lon="4.84609">
        <ele>268</ele>
        <time>2017-05-24T09:38:40Z</time>
      </trkpt>
      <trkpt lat="45.94667" lon="4.84602">
        <ele>268</ele>
        <time>2017-05-24T09:38:41Z</time>
      </trkpt>
      <trkpt lat="45.94667" lon="4.84596">
        <ele>268</ele>
        <time>2017-05-24T09:38:42Z</time>
      </trkpt>
      <trkpt lat="45.94667" lon="4.84589">
        <ele>268</ele>
        <time>2017-05-24T09:38:43Z</time>
      </trkpt>
      <trkpt lat="45.94667" lon="4.84581">
        <ele>268</ele>
        <time>2017-05-24T09:38:44Z</time>
      </trkpt>
      <trkpt lat="45.94666" lon="4.84573">
        <ele>268</ele>
        <time>2017-05-24T09:38:45Z</time>
      </trkpt>
      <trkpt lat="45.94666" lon="4.84564">
        <ele>268</ele>
        <time>2017-05-24T09:38:46Z</time>
      </trkpt>
      <trkpt lat="45.94665" lon="4.84555">
        <ele>268</ele>
        <time>2017-05-24T09:38:47Z</time>
      </trkpt>
      <trkpt lat="45.94664" lon="4.84546">
        <ele>268</ele>
        <time>2017-05-24T09:38:48Z</time>
      </trkpt>
      <trkpt lat="45.94663" lon="4.84535">
        <ele>268</ele>
        <time>2017-05-24T09:38:49Z</time>
      </trkpt>
      <trkpt lat="45.94662" lon="4.84525">
        <ele>268</ele>
        <time>2017-05-24T09:38:50Z</time>
      </trkpt>
      <trkpt lat="45.94662" lon="4.84515">
        <ele>268</ele>
        <time>2017-05-24T09:38:51Z</time>
      </trkpt>
      <trkpt lat="45.94661" lon="4.84505">
        <ele>268</ele>
        <time>2017-05-24T09:38:52Z</time>
      </trkpt>
      <trkpt lat="45.9466" lon="4.84495">
        <ele>268</ele>
        <time>2017-05-24T09:38:53Z</time>
      </trkpt>
      <trkpt lat="45.94659" lon="4.84486">
        <ele>268</ele>
        <time>2017-05-24T09:38:54Z</time>
      </trkpt>
      <trkpt lat="45.94658" lon="4.84477">
        <ele>268</ele>
        <time>2017-05-24T09:38:55Z</time>
      </trkpt>
      <trkpt lat="45.94657" lon="4.84469">
        <ele>268</ele>
        <time>2017-05-24T09:38:56Z</time>
      </trkpt>
      <trkpt lat="45.94656" lon="4.84461">
        <ele>268</ele>
        <time>2017-05-24T09:38:57Z</time>
      </trkpt>
      <trkpt lat="45.94655" lon="4.84453">
        <ele>268</ele>
        <time>2017-05-24T09:38:58Z</time>
      </trkpt>
      <trkpt lat="45.94654" lon="4.84445">
        <ele>268</ele>
        <time>2017-05-24T09:38:59Z</time>
      </trkpt>
      <trkpt lat="45.94654" lon="4.84438">
        <ele>268</ele>
        <time>2017-05-24T09:39:00Z</time>
      </trkpt>
      <trkpt lat="45.94653" lon="4.8443">
        <ele>268</ele>
        <time>2017-05-24T09:39:01Z</time>
      </trkpt>
      <trkpt lat="45.94653" lon="4.84423">
        <ele>268</ele>
        <time>2017-05-24T09:39:02Z</time>
      </trkpt>
      <trkpt lat="45.94652" lon="4.84415">
        <ele>268</ele>
        <time>2017-05-24T09:39:03Z</time>
      </trkpt>
      <trkpt lat="45.94651" lon="4.84408">
        <ele>268</ele>
        <time>2017-05-24T09:39:04Z</time>
      </trkpt>
      <trkpt lat="45.9465" lon="4.84401">
        <ele>268</ele>
        <time>2017-05-24T09:39:05Z</time>
      </trkpt>
      <trkpt lat="45.94649" lon="4.84394">
        <ele>268</ele>
        <time>2017-05-24T09:39:06Z</time>
      </trkpt>
      <trkpt lat="45.94648" lon="4.84386">
        <ele>268</ele>
        <time>2017-05-24T09:39:07Z</time>
      </trkpt>
      <trkpt lat="45.94647" lon="4.84378">
        <ele>268</ele>
        <time>2017-05-24T09:39:08Z</time>
      </trkpt>
      <trkpt lat="45.94646" lon="4.8437">
        <ele>268</ele>
        <time>2017-05-24T09:39:09Z</time>
      </trkpt>
      <trkpt lat="45.94644" lon="4.84361">
        <ele>268</ele>
        <time>2017-05-24T09:39:10Z</time>
      </trkpt>
      <trkpt lat="45.94643" lon="4.84351">
        <ele>268</ele>
        <time>2017-05-24T09:39:11Z</time>
      </trkpt>
      <trkpt lat="45.94641" lon="4.84342">
        <ele>268</ele>
        <time>2017-05-24T09:39:12Z</time>
      </trkpt>
      <trkpt lat="45.9464" lon="4.84332">
        <ele>268</ele>
        <time>2017-05-24T09:39:13Z</time>
      </trkpt>
      <trkpt lat="45.94639" lon="4.84323">
        <ele>269</ele>
        <time>2017-05-24T09:39:14Z</time>
      </trkpt>
      <trkpt lat="45.94638" lon="4.84313">
        <ele>269</ele>
        <time>2017-05-24T09:39:15Z</time>
      </trkpt>
      <trkpt lat="45.94637" lon="4.84304">
        <ele>269</ele>
        <time>2017-05-24T09:39:16Z</time>
      </trkpt>
      <trkpt lat="45.94636" lon="4.84294">
        <ele>269</ele>
        <time>2017-05-24T09:39:17Z</time>
      </trkpt>
      <trkpt lat="45.94635" lon="4.84285">
        <ele>269</ele>
        <time>2017-05-24T09:39:18Z</time>
      </trkpt>
      <trkpt lat="45.94634" lon="4.84275">
        <ele>269</ele>
        <time>2017-05-24T09:39:19Z</time>
      </trkpt>
      <trkpt lat="45.94633" lon="4.84267">
        <ele>269</ele>
        <time>2017-05-24T09:39:20Z</time>
      </trkpt>
      <trkpt lat="45.94632" lon="4.84258">
        <ele>269</ele>
        <time>2017-05-24T09:39:21Z</time>
      </trkpt>
      <trkpt lat="45.94631" lon="4.84249">
        <ele>269</ele>
        <time>2017-05-24T09:39:22Z</time>
      </trkpt>
      <trkpt lat="45.9463" lon="4.84241">
        <ele>269</ele>
        <time>2017-05-24T09:39:23Z</time>
      </trkpt>
      <trkpt lat="45.94628" lon="4.84233">
        <ele>269</ele>
        <time>2017-05-24T09:39:24Z</time>
      </trkpt>
      <trkpt lat="45.94627" lon="4.84225">
        <ele>269</ele>
        <time>2017-05-24T09:39:25Z</time>
      </trkpt>
      <trkpt lat="45.94626" lon="4.84217">
        <ele>269</ele>
        <time>2017-05-24T09:39:26Z</time>
      </trkpt>
      <trkpt lat="45.94625" lon="4.84209">
        <ele>269</ele>
        <time>2017-05-24T09:39:27Z</time>
      </trkpt>
      <trkpt lat="45.94624" lon="4.84201">
        <ele>269</ele>
        <time>2017-05-24T09:39:28Z</time>
      </trkpt>
      <trkpt lat="45.94623" lon="4.84192">
        <ele>269</ele>
        <time>2017-05-24T09:39:29Z</time>
      </trkpt>
      <trkpt lat="45.94622" lon="4.84182">
        <ele>269</ele>
        <time>2017-05-24T09:39:30Z</time>
      </trkpt>
      <trkpt lat="45.9462" lon="4.84172">
        <ele>269</ele>
        <time>2017-05-24T09:39:31Z</time>
      </trkpt>
      <trkpt lat="45.94618" lon="4.84161">
        <ele>269</ele>
        <time>2017-05-24T09:39:32Z</time>
      </trkpt>
      <trkpt lat="45.94617" lon="4.84151">
        <ele>269</ele>
        <time>2017-05-24T09:39:33Z</time>
      </trkpt>
      <trkpt lat="45.94615" lon="4.84141">
        <ele>269</ele>
        <time>2017-05-24T09:39:34Z</time>
      </trkpt>
      <trkpt lat="45.94614" lon="4.84131">
        <ele>269</ele>
        <time>2017-05-24T09:39:35Z</time>
      </trkpt>
      <trkpt lat="45.94612" lon="4.84122">
        <ele>269</ele>
        <time>2017-05-24T09:39:36Z</time>
      </trkpt>
      <trkpt lat="45.9461" lon="4.84113">
        <ele>269</ele>
        <time>2017-05-24T09:39:37Z</time>
      </trkpt>
      <trkpt lat="45.94609" lon="4.84104">
        <ele>269</ele>
        <time>2017-05-24T09:39:38Z</time>
      </trkpt>
      <trkpt lat="45.94608" lon="4.84096">
        <ele>269</ele>
        <time>2017-05-24T09:39:39Z</time>
      </trkpt>
      <trkpt lat="45.94606" lon="4.84087">
        <ele>269</ele>
        <time>2017-05-24T09:39:40Z</time>
      </trkpt>
      <trkpt lat="45.94605" lon="4.84079">
        <ele>269</ele>
        <time>2017-05-24T09:39:41Z</time>
      </trkpt>
      <trkpt lat="45.94604" lon="4.84072">
        <ele>269</ele>
        <time>2017-05-24T09:39:42Z</time>
      </trkpt>
      <trkpt lat="45.94602" lon="4.84064">
        <ele>269</ele>
        <time>2017-05-24T09:39:43Z</time>
      </trkpt>
      <trkpt lat="45.94601" lon="4.84056">
        <ele>269</ele>
        <time>2017-05-24T09:39:44Z</time>
      </trkpt>
      <trkpt lat="45.946" lon="4.84048">
        <ele>269</ele>
        <time>2017-05-24T09:39:45Z</time>
      </trkpt>
      <trkpt lat="45.94598" lon="4.8404">
        <ele>269</ele>
        <time>2017-05-24T09:39:46Z</time>
      </trkpt>
      <trkpt lat="45.94596" lon="4.84031">
        <ele>269</ele>
        <time>2017-05-24T09:39:47Z</time>
      </trkpt>
      <trkpt lat="45.94595" lon="4.84021">
        <ele>269</ele>
        <time>2017-05-24T09:39:48Z</time>
      </trkpt>
      <trkpt lat="45.94593" lon="4.84011">
        <ele>269</ele>
        <time>2017-05-24T09:39:49Z</time>
      </trkpt>
      <trkpt lat="45.94591" lon="4.84001">
        <ele>269</ele>
        <time>2017-05-24T09:39:50Z</time>
      </trkpt>
      <trkpt lat="45.9459" lon="4.83991">
        <ele>269</ele>
        <time>2017-05-24T09:39:51Z</time>
      </trkpt>
      <trkpt lat="45.94588" lon="4.8398">
        <ele>268</ele>
        <time>2017-05-24T09:39:52Z</time>
      </trkpt>
      <trkpt lat="45.94587" lon="4.8397">
        <ele>268</ele>
        <time>2017-05-24T09:39:53Z</time>
      </trkpt>
      <trkpt lat="45.94585" lon="4.83959">
        <ele>268</ele>
        <time>2017-05-24T09:39:54Z</time>
      </trkpt>
      <trkpt lat="45.94583" lon="4.83949">
        <ele>269</ele>
        <time>2017-05-24T09:39:55Z</time>
      </trkpt>
      <trkpt lat="45.94581" lon="4.83938">
        <ele>269</ele>
        <time>2017-05-24T09:39:56Z</time>
      </trkpt>
      <trkpt lat="45.9458" lon="4.83927">
        <ele>268</ele>
        <time>2017-05-24T09:39:57Z</time>
      </trkpt>
      <trkpt lat="45.94578" lon="4.83915">
        <ele>268</ele>
        <time>2017-05-24T09:39:58Z</time>
      </trkpt>
      <trkpt lat="45.94576" lon="4.83904">
        <ele>268</ele>
        <time>2017-05-24T09:39:59Z</time>
      </trkpt>
      <trkpt lat="45.94574" lon="4.83892">
        <ele>267</ele>
        <time>2017-05-24T09:40:00Z</time>
      </trkpt>
      <trkpt lat="45.94572" lon="4.83879">
        <ele>267</ele>
        <time>2017-05-24T09:40:01Z</time>
      </trkpt>
      <trkpt lat="45.9457" lon="4.83867">
        <ele>267</ele>
        <time>2017-05-24T09:40:02Z</time>
      </trkpt>
      <trkpt lat="45.94568" lon="4.83854">
        <ele>266</ele>
        <time>2017-05-24T09:40:03Z</time>
      </trkpt>
      <trkpt lat="45.94566" lon="4.83842">
        <ele>266</ele>
        <time>2017-05-24T09:40:04Z</time>
      </trkpt>
      <trkpt lat="45.94564" lon="4.8383">
        <ele>265</ele>
        <time>2017-05-24T09:40:05Z</time>
      </trkpt>
      <trkpt lat="45.94563" lon="4.83817">
        <ele>264</ele>
        <time>2017-05-24T09:40:06Z</time>
      </trkpt>
      <trkpt lat="45.94561" lon="4.83805">
        <ele>264</ele>
        <time>2017-05-24T09:40:07Z</time>
      </trkpt>
      <trkpt lat="45.94559" lon="4.83793">
        <ele>264</ele>
        <time>2017-05-24T09:40:08Z</time>
      </trkpt>
      <trkpt lat="45.94557" lon="4.83781">
        <ele>264</ele>
        <time>2017-05-24T09:40:09Z</time>
      </trkpt>
      <trkpt lat="45.94555" lon="4.83769">
        <ele>263</ele>
        <time>2017-05-24T09:40:10Z</time>
      </trkpt>
      <trkpt lat="45.94553" lon="4.83758">
        <ele>263</ele>
        <time>2017-05-24T09:40:11Z</time>
      </trkpt>
      <trkpt lat="45.94551" lon="4.83746">
        <ele>262</ele>
        <time>2017-05-24T09:40:12Z</time>
      </trkpt>
      <trkpt lat="45.9455" lon="4.83735">
        <ele>262</ele>
        <time>2017-05-24T09:40:13Z</time>
      </trkpt>
      <trkpt lat="45.94548" lon="4.83724">
        <ele>262</ele>
        <time>2017-05-24T09:40:14Z</time>
      </trkpt>
      <trkpt lat="45.94546" lon="4.83714">
        <ele>262</ele>
        <time>2017-05-24T09:40:15Z</time>
      </trkpt>
      <trkpt lat="45.94544" lon="4.83703">
        <ele>262</ele>
        <time>2017-05-24T09:40:16Z</time>
      </trkpt>
      <trkpt lat="45.94542" lon="4.83692">
        <ele>262</ele>
        <time>2017-05-24T09:40:17Z</time>
      </trkpt>
      <trkpt lat="45.9454" lon="4.83682">
        <ele>262</ele>
        <time>2017-05-24T09:40:18Z</time>
      </trkpt>
      <trkpt lat="45.94538" lon="4.83672">
        <ele>262</ele>
        <time>2017-05-24T09:40:19Z</time>
      </trkpt>
      <trkpt lat="45.94537" lon="4.83662">
        <ele>261</ele>
        <time>2017-05-24T09:40:20Z</time>
      </trkpt>
      <trkpt lat="45.94536" lon="4.83652">
        <ele>261</ele>
        <time>2017-05-24T09:40:21Z</time>
      </trkpt>
      <trkpt lat="45.94534" lon="4.83643">
        <ele>261</ele>
        <time>2017-05-24T09:40:22Z</time>
      </trkpt>
      <trkpt lat="45.94533" lon="4.83634">
        <ele>261</ele>
        <time>2017-05-24T09:40:23Z</time>
      </trkpt>
      <trkpt lat="45.94532" lon="4.83626">
        <ele>261</ele>
        <time>2017-05-24T09:40:24Z</time>
      </trkpt>
      <trkpt lat="45.94531" lon="4.83618">
        <ele>261</ele>
        <time>2017-05-24T09:40:25Z</time>
      </trkpt>
      <trkpt lat="45.94529" lon="4.83611">
        <ele>261</ele>
        <time>2017-05-24T09:40:26Z</time>
      </trkpt>
      <trkpt lat="45.94528" lon="4.83603">
        <ele>261</ele>
        <time>2017-05-24T09:40:27Z</time>
      </trkpt>
      <trkpt lat="45.94526" lon="4.83596">
        <ele>261</ele>
        <time>2017-05-24T09:40:28Z</time>
      </trkpt>
      <trkpt lat="45.94524" lon="4.83589">
        <ele>261</ele>
        <time>2017-05-24T09:40:29Z</time>
      </trkpt>
      <trkpt lat="45.94522" lon="4.83582">
        <ele>261</ele>
        <time>2017-05-24T09:40:30Z</time>
      </trkpt>
      <trkpt lat="45.94519" lon="4.83574">
        <ele>261</ele>
        <time>2017-05-24T09:40:31Z</time>
      </trkpt>
      <trkpt lat="45.94516" lon="4.83566">
        <ele>261</ele>
        <time>2017-05-24T09:40:32Z</time>
      </trkpt>
      <trkpt lat="45.94513" lon="4.83557">
        <ele>261</ele>
        <time>2017-05-24T09:40:33Z</time>
      </trkpt>
      <trkpt lat="45.94508" lon="4.83549">
        <ele>261</ele>
        <time>2017-05-24T09:40:34Z</time>
      </trkpt>
      <trkpt lat="45.94504" lon="4.83541">
        <ele>262</ele>
        <time>2017-05-24T09:40:35Z</time>
      </trkpt>
      <trkpt lat="45.94499" lon="4.83533">
        <ele>262</ele>
        <time>2017-05-24T09:40:36Z</time>
      </trkpt>
      <trkpt lat="45.94494" lon="4.83525">
        <ele>262</ele>
        <time>2017-05-24T09:40:37Z</time>
      </trkpt>
      <trkpt lat="45.94489" lon="4.83517">
        <ele>262</ele>
        <time>2017-05-24T09:40:38Z</time>
      </trkpt>
      <trkpt lat="45.94484" lon="4.83509">
        <ele>262</ele>
        <time>2017-05-24T09:40:39Z</time>
      </trkpt>
      <trkpt lat="45.94479" lon="4.83502">
        <ele>262</ele>
        <time>2017-05-24T09:40:40Z</time>
      </trkpt>
      <trkpt lat="45.94475" lon="4.83495">
        <ele>263</ele>
        <time>2017-05-24T09:40:41Z</time>
      </trkpt>
      <trkpt lat="45.9447" lon="4.83488">
        <ele>263</ele>
        <time>2017-05-24T09:40:42Z</time>
      </trkpt>
      <trkpt lat="45.94467" lon="4.8348">
        <ele>263</ele>
        <time>2017-05-24T09:40:43Z</time>
      </trkpt>
      <trkpt lat="45.94463" lon="4.83473">
        <ele>263</ele>
        <time>2017-05-24T09:40:44Z</time>
      </trkpt>
      <trkpt lat="45.94459" lon="4.83467">
        <ele>263</ele>
        <time>2017-05-24T09:40:45Z</time>
      </trkpt>
      <trkpt lat="45.94455" lon="4.8346">
        <ele>263</ele>
        <time>2017-05-24T09:40:46Z</time>
      </trkpt>
      <trkpt lat="45.94451" lon="4.83452">
        <ele>263</ele>
        <time>2017-05-24T09:40:47Z</time>
      </trkpt>
      <trkpt lat="45.94446" lon="4.83444">
        <ele>263</ele>
        <time>2017-05-24T09:40:48Z</time>
      </trkpt>
      <trkpt lat="45.94442" lon="4.83436">
        <ele>263</ele>
        <time>2017-05-24T09:40:49Z</time>
      </trkpt>
      <trkpt lat="45.94438" lon="4.83428">
        <ele>264</ele>
        <time>2017-05-24T09:40:50Z</time>
      </trkpt>
      <trkpt lat="45.94434" lon="4.83419">
        <ele>264</ele>
        <time>2017-05-24T09:40:51Z</time>
      </trkpt>
      <trkpt lat="45.9443" lon="4.8341">
        <ele>264</ele>
        <time>2017-05-24T09:40:52Z</time>
      </trkpt>
      <trkpt lat="45.94426" lon="4.83402">
        <ele>264</ele>
        <time>2017-05-24T09:40:53Z</time>
      </trkpt>
      <trkpt lat="45.94422" lon="4.83393">
        <ele>264</ele>
        <time>2017-05-24T09:40:54Z</time>
      </trkpt>
      <trkpt lat="45.94418" lon="4.83385">
        <ele>264</ele>
        <time>2017-05-24T09:40:55Z</time>
      </trkpt>
      <trkpt lat="45.94415" lon="4.83377">
        <ele>264</ele>
        <time>2017-05-24T09:40:56Z</time>
      </trkpt>
      <trkpt lat="45.94411" lon="4.83369">
        <ele>264</ele>
        <time>2017-05-24T09:40:57Z</time>
      </trkpt>
      <trkpt lat="45.94408" lon="4.83361">
        <ele>264</ele>
        <time>2017-05-24T09:40:58Z</time>
      </trkpt>
      <trkpt lat="45.94405" lon="4.83353">
        <ele>263</ele>
        <time>2017-05-24T09:40:59Z</time>
      </trkpt>
      <trkpt lat="45.94402" lon="4.83346">
        <ele>263</ele>
        <time>2017-05-24T09:41:00Z</time>
      </trkpt>
      <trkpt lat="45.94399" lon="4.83339">
        <ele>263</ele>
        <time>2017-05-24T09:41:01Z</time>
      </trkpt>
      <trkpt lat="45.94396" lon="4.83332">
        <ele>264</ele>
        <time>2017-05-24T09:41:02Z</time>
      </trkpt>
      <trkpt lat="45.94394" lon="4.83324">
        <ele>264</ele>
        <time>2017-05-24T09:41:03Z</time>
      </trkpt>
      <trkpt lat="45.94391" lon="4.83317">
        <ele>264</ele>
        <time>2017-05-24T09:41:04Z</time>
      </trkpt>
      <trkpt lat="45.94389" lon="4.83309">
        <ele>264</ele>
        <time>2017-05-24T09:41:05Z</time>
      </trkpt>
      <trkpt lat="45.94386" lon="4.83302">
        <ele>264</ele>
        <time>2017-05-24T09:41:06Z</time>
      </trkpt>
      <trkpt lat="45.94383" lon="4.83295">
        <ele>264</ele>
        <time>2017-05-24T09:41:07Z</time>
      </trkpt>
      <trkpt lat="45.94381" lon="4.83287">
        <ele>264</ele>
        <time>2017-05-24T09:41:08Z</time>
      </trkpt>
      <trkpt lat="45.94379" lon="4.8328">
        <ele>264</ele>
        <time>2017-05-24T09:41:09Z</time>
      </trkpt>
      <trkpt lat="45.94377" lon="4.83274">
        <ele>264</ele>
        <time>2017-05-24T09:41:10Z</time>
      </trkpt>
      <trkpt lat="45.94374" lon="4.83266">
        <ele>264</ele>
        <time>2017-05-24T09:41:11Z</time>
      </trkpt>
      <trkpt lat="45.94371" lon="4.83259">
        <ele>265</ele>
        <time>2017-05-24T09:41:12Z</time>
      </trkpt>
      <trkpt lat="45.94368" lon="4.83251">
        <ele>265</ele>
        <time>2017-05-24T09:41:13Z</time>
      </trkpt>
      <trkpt lat="45.94365" lon="4.83243">
        <ele>265</ele>
        <time>2017-05-24T09:41:14Z</time>
      </trkpt>
      <trkpt lat="45.94362" lon="4.83235">
        <ele>265</ele>
        <time>2017-05-24T09:41:15Z</time>
      </trkpt>
      <trkpt lat="45.94359" lon="4.83226">
        <ele>266</ele>
        <time>2017-05-24T09:41:16Z</time>
      </trkpt>
      <trkpt lat="45.94356" lon="4.83218">
        <ele>266</ele>
        <time>2017-05-24T09:41:17Z</time>
      </trkpt>
      <trkpt lat="45.94354" lon="4.83211">
        <ele>266</ele>
        <time>2017-05-24T09:41:18Z</time>
      </trkpt>
      <trkpt lat="45.94351" lon="4.83203">
        <ele>266</ele>
        <time>2017-05-24T09:41:19Z</time>
      </trkpt>
      <trkpt lat="45.94349" lon="4.83196">
        <ele>266</ele>
        <time>2017-05-24T09:41:20Z</time>
      </trkpt>
      <trkpt lat="45.94346" lon="4.83189">
        <ele>266</ele>
        <time>2017-05-24T09:41:21Z</time>
      </trkpt>
      <trkpt lat="45.94344" lon="4.83183">
        <ele>266</ele>
        <time>2017-05-24T09:41:22Z</time>
      </trkpt>
      <trkpt lat="45.94341" lon="4.83176">
        <ele>266</ele>
        <time>2017-05-24T09:41:23Z</time>
      </trkpt>
      <trkpt lat="45.94339" lon="4.83169">
        <ele>266</ele>
        <time>2017-05-24T09:41:24Z</time>
      </trkpt>
      <trkpt lat="45.94336" lon="4.83162">
        <ele>266</ele>
        <time>2017-05-24T09:41:25Z</time>
      </trkpt>
      <trkpt lat="45.94334" lon="4.83155">
        <ele>266</ele>
        <time>2017-05-24T09:41:26Z</time>
      </trkpt>
      <trkpt lat="45.94332" lon="4.83148">
        <ele>266</ele>
        <time>2017-05-24T09:41:27Z</time>
      </trkpt>
      <trkpt lat="45.9433" lon="4.83141">
        <ele>266</ele>
        <time>2017-05-24T09:41:28Z</time>
      </trkpt>
      <trkpt lat="45.94327" lon="4.83134">
        <ele>266</ele>
        <time>2017-05-24T09:41:29Z</time>
      </trkpt>
      <trkpt lat="45.94325" lon="4.83127">
        <ele>266</ele>
        <time>2017-05-24T09:41:30Z</time>
      </trkpt>
      <trkpt lat="45.94323" lon="4.8312">
        <ele>266</ele>
        <time>2017-05-24T09:41:31Z</time>
      </trkpt>
      <trkpt lat="45.94321" lon="4.83113">
        <ele>266</ele>
        <time>2017-05-24T09:41:32Z</time>
      </trkpt>
      <trkpt lat="45.94319" lon="4.83106">
        <ele>266</ele>
        <time>2017-05-24T09:41:33Z</time>
      </trkpt>
      <trkpt lat="45.94317" lon="4.831">
        <ele>266</ele>
        <time>2017-05-24T09:41:34Z</time>
      </trkpt>
      <trkpt lat="45.94315" lon="4.83094">
        <ele>266</ele>
        <time>2017-05-24T09:41:35Z</time>
      </trkpt>
      <trkpt lat="45.94313" lon="4.83087">
        <ele>266</ele>
        <time>2017-05-24T09:41:36Z</time>
      </trkpt>
      <trkpt lat="45.94311" lon="4.83081">
        <ele>266</ele>
        <time>2017-05-24T09:41:37Z</time>
      </trkpt>
      <trkpt lat="45.94309" lon="4.83074">
        <ele>266</ele>
        <time>2017-05-24T09:41:38Z</time>
      </trkpt>
      <trkpt lat="45.94307" lon="4.83067">
        <ele>266</ele>
        <time>2017-05-24T09:41:39Z</time>
      </trkpt>
      <trkpt lat="45.94306" lon="4.8306">
        <ele>266</ele>
        <time>2017-05-24T09:41:40Z</time>
      </trkpt>
      <trkpt lat="45.94304" lon="4.83054">
        <ele>266</ele>
        <time>2017-05-24T09:41:41Z</time>
      </trkpt>
      <trkpt lat="45.94302" lon="4.83047">
        <ele>266</ele>
        <time>2017-05-24T09:41:42Z</time>
      </trkpt>
      <trkpt lat="45.94301" lon="4.8304">
        <ele>266</ele>
        <time>2017-05-24T09:41:43Z</time>
      </trkpt>
      <trkpt lat="45.94299" lon="4.83033">
        <ele>266</ele>
        <time>2017-05-24T09:41:44Z</time>
      </trkpt>
      <trkpt lat="45.94298" lon="4.83026">
        <ele>266</ele>
        <time>2017-05-24T09:41:45Z</time>
      </trkpt>
      <trkpt lat="45.94297" lon="4.83019">
        <ele>266</ele>
        <time>2017-05-24T09:41:46Z</time>
      </trkpt>
      <trkpt lat="45.94295" lon="4.83013">
        <ele>266</ele>
        <time>2017-05-24T09:41:47Z</time>
      </trkpt>
      <trkpt lat="45.94294" lon="4.83006">
        <ele>266</ele>
        <time>2017-05-24T09:41:48Z</time>
      </trkpt>
      <trkpt lat="45.94292" lon="4.82999">
        <ele>265</ele>
        <time>2017-05-24T09:41:49Z</time>
      </trkpt>
      <trkpt lat="45.94291" lon="4.82992">
        <ele>265</ele>
        <time>2017-05-24T09:41:50Z</time>
      </trkpt>
      <trkpt lat="45.94289" lon="4.82985">
        <ele>265</ele>
        <time>2017-05-24T09:41:51Z</time>
      </trkpt>
      <trkpt lat="45.94287" lon="4.82978">
        <ele>265</ele>
        <time>2017-05-24T09:41:52Z</time>
      </trkpt>
      <trkpt lat="45.94285" lon="4.82971">
        <ele>265</ele>
        <time>2017-05-24T09:41:53Z</time>
      </trkpt>
      <trkpt lat="45.94282" lon="4.82965">
        <ele>265</ele>
        <time>2017-05-24T09:41:54Z</time>
      </trkpt>
      <trkpt lat="45.94279" lon="4.82953">
        <ele>265</ele>
        <time>2017-05-24T09:41:56Z</time>
      </trkpt>
      <trkpt lat="45.9428" lon="4.82947">
        <ele>265</ele>
        <time>2017-05-24T09:41:57Z</time>
      </trkpt>
      <trkpt lat="45.94281" lon="4.8294">
        <ele>265</ele>
        <time>2017-05-24T09:41:58Z</time>
      </trkpt>
      <trkpt lat="45.94283" lon="4.82933">
        <ele>265</ele>
        <time>2017-05-24T09:41:59Z</time>
      </trkpt>
      <trkpt lat="45.94284" lon="4.82925">
        <ele>265</ele>
        <time>2017-05-24T09:42:00Z</time>
      </trkpt>
      <trkpt lat="45.94286" lon="4.82916">
        <ele>265</ele>
        <time>2017-05-24T09:42:01Z</time>
      </trkpt>
      <trkpt lat="45.94287" lon="4.82908">
        <ele>265</ele>
        <time>2017-05-24T09:42:02Z</time>
      </trkpt>
      <trkpt lat="45.94289" lon="4.82898">
        <ele>265</ele>
        <time>2017-05-24T09:42:03Z</time>
      </trkpt>
      <trkpt lat="45.94289" lon="4.82889">
        <ele>265</ele>
        <time>2017-05-24T09:42:04Z</time>
      </trkpt>
      <trkpt lat="45.9429" lon="4.82879">
        <ele>265</ele>
        <time>2017-05-24T09:42:05Z</time>
      </trkpt>
      <trkpt lat="45.94291" lon="4.82868">
        <ele>265</ele>
        <time>2017-05-24T09:42:06Z</time>
      </trkpt>
      <trkpt lat="45.94291" lon="4.82857">
        <ele>265</ele>
        <time>2017-05-24T09:42:07Z</time>
      </trkpt>
      <trkpt lat="45.94291" lon="4.82847">
        <ele>265</ele>
        <time>2017-05-24T09:42:08Z</time>
      </trkpt>
      <trkpt lat="45.94291" lon="4.82836">
        <ele>265</ele>
        <time>2017-05-24T09:42:09Z</time>
      </trkpt>
      <trkpt lat="45.94292" lon="4.82826">
        <ele>265</ele>
        <time>2017-05-24T09:42:10Z</time>
      </trkpt>
      <trkpt lat="45.94292" lon="4.82816">
        <ele>265</ele>
        <time>2017-05-24T09:42:11Z</time>
      </trkpt>
      <trkpt lat="45.94292" lon="4.82807">
        <ele>265</ele>
        <time>2017-05-24T09:42:12Z</time>
      </trkpt>
      <trkpt lat="45.94293" lon="4.82797">
        <ele>265</ele>
        <time>2017-05-24T09:42:13Z</time>
      </trkpt>
      <trkpt lat="45.94293" lon="4.82788">
        <ele>265</ele>
        <time>2017-05-24T09:42:14Z</time>
      </trkpt>
      <trkpt lat="45.94293" lon="4.82779">
        <ele>265</ele>
        <time>2017-05-24T09:42:15Z</time>
      </trkpt>
      <trkpt lat="45.94293" lon="4.8277">
        <ele>265</ele>
        <time>2017-05-24T09:42:16Z</time>
      </trkpt>
      <trkpt lat="45.94293" lon="4.82761">
        <ele>265</ele>
        <time>2017-05-24T09:42:17Z</time>
      </trkpt>
      <trkpt lat="45.94293" lon="4.82752">
        <ele>265</ele>
        <time>2017-05-24T09:42:18Z</time>
      </trkpt>
      <trkpt lat="45.94292" lon="4.82743">
        <ele>265</ele>
        <time>2017-05-24T09:42:19Z</time>
      </trkpt>
      <trkpt lat="45.94292" lon="4.82733">
        <ele>265</ele>
        <time>2017-05-24T09:42:20Z</time>
      </trkpt>
      <trkpt lat="45.94292" lon="4.82723">
        <ele>265</ele>
        <time>2017-05-24T09:42:21Z</time>
      </trkpt>
      <trkpt lat="45.94293" lon="4.82714">
        <ele>265</ele>
        <time>2017-05-24T09:42:22Z</time>
      </trkpt>
      <trkpt lat="45.94293" lon="4.82704">
        <ele>265</ele>
        <time>2017-05-24T09:42:23Z</time>
      </trkpt>
      <trkpt lat="45.94293" lon="4.82694">
        <ele>265</ele>
        <time>2017-05-24T09:42:24Z</time>
      </trkpt>
      <trkpt lat="45.94293" lon="4.82684">
        <ele>265</ele>
        <time>2017-05-24T09:42:25Z</time>
      </trkpt>
      <trkpt lat="45.94293" lon="4.82675">
        <ele>265</ele>
        <time>2017-05-24T09:42:26Z</time>
      </trkpt>
      <trkpt lat="45.94292" lon="4.82666">
        <ele>265</ele>
        <time>2017-05-24T09:42:27Z</time>
      </trkpt>
      <trkpt lat="45.94292" lon="4.82657">
        <ele>265</ele>
        <time>2017-05-24T09:42:28Z</time>
      </trkpt>
      <trkpt lat="45.94293" lon="4.82648">
        <ele>265</ele>
        <time>2017-05-24T09:42:29Z</time>
      </trkpt>
      <trkpt lat="45.94293" lon="4.82639">
        <ele>265</ele>
        <time>2017-05-24T09:42:30Z</time>
      </trkpt>
      <trkpt lat="45.94293" lon="4.82629">
        <ele>265</ele>
        <time>2017-05-24T09:42:31Z</time>
      </trkpt>
      <trkpt lat="45.94294" lon="4.8262">
        <ele>265</ele>
        <time>2017-05-24T09:42:32Z</time>
      </trkpt>
      <trkpt lat="45.94294" lon="4.8261">
        <ele>265</ele>
        <time>2017-05-24T09:42:33Z</time>
      </trkpt>
      <trkpt lat="45.94294" lon="4.826">
        <ele>265</ele>
        <time>2017-05-24T09:42:34Z</time>
      </trkpt>
      <trkpt lat="45.94295" lon="4.8259">
        <ele>265</ele>
        <time>2017-05-24T09:42:35Z</time>
      </trkpt>
      <trkpt lat="45.94295" lon="4.8258">
        <ele>264</ele>
        <time>2017-05-24T09:42:36Z</time>
      </trkpt>
      <trkpt lat="45.94295" lon="4.82571">
        <ele>264</ele>
        <time>2017-05-24T09:42:37Z</time>
      </trkpt>
      <trkpt lat="45.94294" lon="4.82562">
        <ele>264</ele>
        <time>2017-05-24T09:42:38Z</time>
      </trkpt>
      <trkpt lat="45.94294" lon="4.82553">
        <ele>264</ele>
        <time>2017-05-24T09:42:39Z</time>
      </trkpt>
      <trkpt lat="45.94294" lon="4.82544">
        <ele>264</ele>
        <time>2017-05-24T09:42:40Z</time>
      </trkpt>
      <trkpt lat="45.94295" lon="4.82535">
        <ele>264</ele>
        <time>2017-05-24T09:42:41Z</time>
      </trkpt>
      <trkpt lat="45.94295" lon="4.82527">
        <ele>264</ele>
        <time>2017-05-24T09:42:42Z</time>
      </trkpt>
      <trkpt lat="45.94295" lon="4.82518">
        <ele>264</ele>
        <time>2017-05-24T09:42:43Z</time>
      </trkpt>
      <trkpt lat="45.94295" lon="4.82509">
        <ele>264</ele>
        <time>2017-05-24T09:42:44Z</time>
      </trkpt>
      <trkpt lat="45.94294" lon="4.825">
        <ele>264</ele>
        <time>2017-05-24T09:42:45Z</time>
      </trkpt>
      <trkpt lat="45.94294" lon="4.82491">
        <ele>264</ele>
        <time>2017-05-24T09:42:46Z</time>
      </trkpt>
      <trkpt lat="45.94294" lon="4.82482">
        <ele>264</ele>
        <time>2017-05-24T09:42:47Z</time>
      </trkpt>
      <trkpt lat="45.94293" lon="4.82472">
        <ele>264</ele>
        <time>2017-05-24T09:42:48Z</time>
      </trkpt>
      <trkpt lat="45.94293" lon="4.82462">
        <ele>264</ele>
        <time>2017-05-24T09:42:49Z</time>
      </trkpt>
      <trkpt lat="45.94293" lon="4.82452">
        <ele>264</ele>
        <time>2017-05-24T09:42:50Z</time>
      </trkpt>
      <trkpt lat="45.94292" lon="4.82441">
        <ele>264</ele>
        <time>2017-05-24T09:42:51Z</time>
      </trkpt>
      <trkpt lat="45.94292" lon="4.82431">
        <ele>264</ele>
        <time>2017-05-24T09:42:52Z</time>
      </trkpt>
      <trkpt lat="45.94291" lon="4.82421">
        <ele>264</ele>
        <time>2017-05-24T09:42:53Z</time>
      </trkpt>
      <trkpt lat="45.9429" lon="4.82411">
        <ele>264</ele>
        <time>2017-05-24T09:42:54Z</time>
      </trkpt>
      <trkpt lat="45.9429" lon="4.82401">
        <ele>264</ele>
        <time>2017-05-24T09:42:55Z</time>
      </trkpt>
      <trkpt lat="45.9429" lon="4.82391">
        <ele>264</ele>
        <time>2017-05-24T09:42:56Z</time>
      </trkpt>
      <trkpt lat="45.94289" lon="4.82381">
        <ele>264</ele>
        <time>2017-05-24T09:42:57Z</time>
      </trkpt>
      <trkpt lat="45.94289" lon="4.82372">
        <ele>264</ele>
        <time>2017-05-24T09:42:58Z</time>
      </trkpt>
      <trkpt lat="45.94289" lon="4.82362">
        <ele>264</ele>
        <time>2017-05-24T09:42:59Z</time>
      </trkpt>
      <trkpt lat="45.94288" lon="4.82352">
        <ele>264</ele>
        <time>2017-05-24T09:43:00Z</time>
      </trkpt>
      <trkpt lat="45.94288" lon="4.82343">
        <ele>264</ele>
        <time>2017-05-24T09:43:01Z</time>
      </trkpt>
      <trkpt lat="45.94287" lon="4.82333">
        <ele>265</ele>
        <time>2017-05-24T09:43:02Z</time>
      </trkpt>
      <trkpt lat="45.94287" lon="4.82324">
        <ele>265</ele>
        <time>2017-05-24T09:43:03Z</time>
      </trkpt>
      <trkpt lat="45.94286" lon="4.82315">
        <ele>265</ele>
        <time>2017-05-24T09:43:04Z</time>
      </trkpt>
      <trkpt lat="45.94286" lon="4.82305">
        <ele>265</ele>
        <time>2017-05-24T09:43:05Z</time>
      </trkpt>
      <trkpt lat="45.94286" lon="4.82296">
        <ele>265</ele>
        <time>2017-05-24T09:43:06Z</time>
      </trkpt>
      <trkpt lat="45.94285" lon="4.82287">
        <ele>265</ele>
        <time>2017-05-24T09:43:07Z</time>
      </trkpt>
      <trkpt lat="45.94285" lon="4.82278">
        <ele>265</ele>
        <time>2017-05-24T09:43:08Z</time>
      </trkpt>
      <trkpt lat="45.94284" lon="4.82269">
        <ele>265</ele>
        <time>2017-05-24T09:43:09Z</time>
      </trkpt>
      <trkpt lat="45.94284" lon="4.82259">
        <ele>265</ele>
        <time>2017-05-24T09:43:10Z</time>
      </trkpt>
      <trkpt lat="45.94283" lon="4.82249">
        <ele>264</ele>
        <time>2017-05-24T09:43:11Z</time>
      </trkpt>
      <trkpt lat="45.94283" lon="4.8224">
        <ele>264</ele>
        <time>2017-05-24T09:43:12Z</time>
      </trkpt>
      <trkpt lat="45.94283" lon="4.8223">
        <ele>264</ele>
        <time>2017-05-24T09:43:13Z</time>
      </trkpt>
      <trkpt lat="45.94282" lon="4.82221">
        <ele>264</ele>
        <time>2017-05-24T09:43:14Z</time>
      </trkpt>
      <trkpt lat="45.94281" lon="4.82212">
        <ele>264</ele>
        <time>2017-05-24T09:43:15Z</time>
      </trkpt>
      <trkpt lat="45.9428" lon="4.82203">
        <ele>264</ele>
        <time>2017-05-24T09:43:16Z</time>
      </trkpt>
      <trkpt lat="45.94279" lon="4.82194">
        <ele>264</ele>
        <time>2017-05-24T09:43:17Z</time>
      </trkpt>
      <trkpt lat="45.94277" lon="4.82186">
        <ele>264</ele>
        <time>2017-05-24T09:43:18Z</time>
      </trkpt>
      <trkpt lat="45.94275" lon="4.82177">
        <ele>264</ele>
        <time>2017-05-24T09:43:19Z</time>
      </trkpt>
      <trkpt lat="45.94274" lon="4.82168">
        <ele>264</ele>
        <time>2017-05-24T09:43:20Z</time>
      </trkpt>
      <trkpt lat="45.94272" lon="4.82159">
        <ele>263</ele>
        <time>2017-05-24T09:43:21Z</time>
      </trkpt>
      <trkpt lat="45.9427" lon="4.82149">
        <ele>263</ele>
        <time>2017-05-24T09:43:22Z</time>
      </trkpt>
      <trkpt lat="45.94268" lon="4.82141">
        <ele>263</ele>
        <time>2017-05-24T09:43:23Z</time>
      </trkpt>
      <trkpt lat="45.94266" lon="4.82132">
        <ele>263</ele>
        <time>2017-05-24T09:43:24Z</time>
      </trkpt>
      <trkpt lat="45.94264" lon="4.82123">
        <ele>263</ele>
        <time>2017-05-24T09:43:25Z</time>
      </trkpt>
      <trkpt lat="45.94262" lon="4.82115">
        <ele>263</ele>
        <time>2017-05-24T09:43:26Z</time>
      </trkpt>
      <trkpt lat="45.9426" lon="4.82107">
        <ele>263</ele>
        <time>2017-05-24T09:43:27Z</time>
      </trkpt>
      <trkpt lat="45.94258" lon="4.82099">
        <ele>262</ele>
        <time>2017-05-24T09:43:28Z</time>
      </trkpt>
      <trkpt lat="45.94257" lon="4.82091">
        <ele>262</ele>
        <time>2017-05-24T09:43:29Z</time>
      </trkpt>
      <trkpt lat="45.94255" lon="4.82083">
        <ele>262</ele>
        <time>2017-05-24T09:43:30Z</time>
      </trkpt>
      <trkpt lat="45.94254" lon="4.82075">
        <ele>262</ele>
        <time>2017-05-24T09:43:31Z</time>
      </trkpt>
      <trkpt lat="45.94252" lon="4.82067">
        <ele>262</ele>
        <time>2017-05-24T09:43:32Z</time>
      </trkpt>
      <trkpt lat="45.9425" lon="4.82059">
        <ele>262</ele>
        <time>2017-05-24T09:43:33Z</time>
      </trkpt>
      <trkpt lat="45.94249" lon="4.8205">
        <ele>263</ele>
        <time>2017-05-24T09:43:34Z</time>
      </trkpt>
      <trkpt lat="45.94247" lon="4.8204">
        <ele>263</ele>
        <time>2017-05-24T09:43:35Z</time>
      </trkpt>
      <trkpt lat="45.94244" lon="4.8203">
        <ele>263</ele>
        <time>2017-05-24T09:43:36Z</time>
      </trkpt>
      <trkpt lat="45.94242" lon="4.8202">
        <ele>263</ele>
        <time>2017-05-24T09:43:37Z</time>
      </trkpt>
      <trkpt lat="45.9424" lon="4.8201">
        <ele>263</ele>
        <time>2017-05-24T09:43:38Z</time>
      </trkpt>
      <trkpt lat="45.94238" lon="4.82">
        <ele>263</ele>
        <time>2017-05-24T09:43:39Z</time>
      </trkpt>
      <trkpt lat="45.94236" lon="4.8199">
        <ele>263</ele>
        <time>2017-05-24T09:43:40Z</time>
      </trkpt>
      <trkpt lat="45.94234" lon="4.8198">
        <ele>263</ele>
        <time>2017-05-24T09:43:41Z</time>
      </trkpt>
      <trkpt lat="45.94232" lon="4.8197">
        <ele>264</ele>
        <time>2017-05-24T09:43:42Z</time>
      </trkpt>
      <trkpt lat="45.9423" lon="4.81961">
        <ele>264</ele>
        <time>2017-05-24T09:43:43Z</time>
      </trkpt>
      <trkpt lat="45.94228" lon="4.81952">
        <ele>264</ele>
        <time>2017-05-24T09:43:44Z</time>
      </trkpt>
      <trkpt lat="45.94227" lon="4.81943">
        <ele>264</ele>
        <time>2017-05-24T09:43:45Z</time>
      </trkpt>
      <trkpt lat="45.94225" lon="4.81935">
        <ele>264</ele>
        <time>2017-05-24T09:43:46Z</time>
      </trkpt>
      <trkpt lat="45.94223" lon="4.81927">
        <ele>264</ele>
        <time>2017-05-24T09:43:47Z</time>
      </trkpt>
      <trkpt lat="45.94222" lon="4.81919">
        <ele>264</ele>
        <time>2017-05-24T09:43:48Z</time>
      </trkpt>
      <trkpt lat="45.9422" lon="4.81911">
        <ele>264</ele>
        <time>2017-05-24T09:43:49Z</time>
      </trkpt>
      <trkpt lat="45.94218" lon="4.81902">
        <ele>265</ele>
        <time>2017-05-24T09:43:50Z</time>
      </trkpt>
      <trkpt lat="45.94217" lon="4.81894">
        <ele>265</ele>
        <time>2017-05-24T09:43:51Z</time>
      </trkpt>
      <trkpt lat="45.94216" lon="4.81885">
        <ele>265</ele>
        <time>2017-05-24T09:43:52Z</time>
      </trkpt>
      <trkpt lat="45.94214" lon="4.81876">
        <ele>265</ele>
        <time>2017-05-24T09:43:53Z</time>
      </trkpt>
      <trkpt lat="45.94212" lon="4.81866">
        <ele>265</ele>
        <time>2017-05-24T09:43:54Z</time>
      </trkpt>
      <trkpt lat="45.9421" lon="4.81858">
        <ele>265</ele>
        <time>2017-05-24T09:43:55Z</time>
      </trkpt>
      <trkpt lat="45.94208" lon="4.81849">
        <ele>265</ele>
        <time>2017-05-24T09:43:56Z</time>
      </trkpt>
      <trkpt lat="45.94206" lon="4.8184">
        <ele>266</ele>
        <time>2017-05-24T09:43:57Z</time>
      </trkpt>
      <trkpt lat="45.94205" lon="4.81832">
        <ele>266</ele>
        <time>2017-05-24T09:43:58Z</time>
      </trkpt>
      <trkpt lat="45.94204" lon="4.81823">
        <ele>266</ele>
        <time>2017-05-24T09:43:59Z</time>
      </trkpt>
      <trkpt lat="45.94203" lon="4.81815">
        <ele>266</ele>
        <time>2017-05-24T09:44:00Z</time>
      </trkpt>
      <trkpt lat="45.94203" lon="4.81806">
        <ele>266</ele>
        <time>2017-05-24T09:44:01Z</time>
      </trkpt>
      <trkpt lat="45.94204" lon="4.81797">
        <ele>266</ele>
        <time>2017-05-24T09:44:02Z</time>
      </trkpt>
      <trkpt lat="45.94205" lon="4.81789">
        <ele>266</ele>
        <time>2017-05-24T09:44:03Z</time>
      </trkpt>
      <trkpt lat="45.94207" lon="4.81781">
        <ele>265</ele>
        <time>2017-05-24T09:44:04Z</time>
      </trkpt>
      <trkpt lat="45.94209" lon="4.81774">
        <ele>265</ele>
        <time>2017-05-24T09:44:05Z</time>
      </trkpt>
      <trkpt lat="45.94211" lon="4.81767">
        <ele>265</ele>
        <time>2017-05-24T09:44:06Z</time>
      </trkpt>
      <trkpt lat="45.94213" lon="4.81761">
        <ele>265</ele>
        <time>2017-05-24T09:44:07Z</time>
      </trkpt>
      <trkpt lat="45.94216" lon="4.81755">
        <ele>265</ele>
        <time>2017-05-24T09:44:08Z</time>
      </trkpt>
      <trkpt lat="45.94218" lon="4.81748">
        <ele>265</ele>
        <time>2017-05-24T09:44:09Z</time>
      </trkpt>
      <trkpt lat="45.94219" lon="4.81741">
        <ele>265</ele>
        <time>2017-05-24T09:44:10Z</time>
      </trkpt>
      <trkpt lat="45.9422" lon="4.81732">
        <ele>265</ele>
        <time>2017-05-24T09:44:11Z</time>
      </trkpt>
      <trkpt lat="45.94218" lon="4.81724">
        <ele>266</ele>
        <time>2017-05-24T09:44:12Z</time>
      </trkpt>
      <trkpt lat="45.94215" lon="4.81717">
        <ele>266</ele>
        <time>2017-05-24T09:44:13Z</time>
      </trkpt>
      <trkpt lat="45.94211" lon="4.81711">
        <ele>266</ele>
        <time>2017-05-24T09:44:14Z</time>
      </trkpt>
      <trkpt lat="45.94207" lon="4.81707">
        <ele>266</ele>
        <time>2017-05-24T09:44:15Z</time>
      </trkpt>
      <trkpt lat="45.94202" lon="4.81704">
        <ele>266</ele>
        <time>2017-05-24T09:44:16Z</time>
      </trkpt>
      <trkpt lat="45.94196" lon="4.81701">
        <ele>267</ele>
        <time>2017-05-24T09:44:17Z</time>
      </trkpt>
      <trkpt lat="45.94191" lon="4.81696">
        <ele>267</ele>
        <time>2017-05-24T09:44:18Z</time>
      </trkpt>
      <trkpt lat="45.94186" lon="4.8169">
        <ele>267</ele>
        <time>2017-05-24T09:44:19Z</time>
      </trkpt>
      <trkpt lat="45.94182" lon="4.81682">
        <ele>267</ele>
        <time>2017-05-24T09:44:20Z</time>
      </trkpt>
      <trkpt lat="45.94179" lon="4.81672">
        <ele>268</ele>
        <time>2017-05-24T09:44:21Z</time>
      </trkpt>
      <trkpt lat="45.94175" lon="4.81661">
        <ele>268</ele>
        <time>2017-05-24T09:44:22Z</time>
      </trkpt>
      <trkpt lat="45.94171" lon="4.81648">
        <ele>268</ele>
        <time>2017-05-24T09:44:23Z</time>
      </trkpt>
      <trkpt lat="45.94168" lon="4.81635">
        <ele>268</ele>
        <time>2017-05-24T09:44:24Z</time>
      </trkpt>
      <trkpt lat="45.94165" lon="4.81622">
        <ele>268</ele>
        <time>2017-05-24T09:44:25Z</time>
      </trkpt>
      <trkpt lat="45.94162" lon="4.8161">
        <ele>267</ele>
        <time>2017-05-24T09:44:26Z</time>
      </trkpt>
      <trkpt lat="45.94159" lon="4.81597">
        <ele>267</ele>
        <time>2017-05-24T09:44:27Z</time>
      </trkpt>
      <trkpt lat="45.94156" lon="4.81582">
        <ele>266</ele>
        <time>2017-05-24T09:44:28Z</time>
      </trkpt>
      <trkpt lat="45.94153" lon="4.81569">
        <ele>265</ele>
        <time>2017-05-24T09:44:29Z</time>
      </trkpt>
      <trkpt lat="45.94151" lon="4.81555">
        <ele>264</ele>
        <time>2017-05-24T09:44:30Z</time>
      </trkpt>
      <trkpt lat="45.9415" lon="4.81541">
        <ele>264</ele>
        <time>2017-05-24T09:44:31Z</time>
      </trkpt>
      <trkpt lat="45.94148" lon="4.81526">
        <ele>263</ele>
        <time>2017-05-24T09:44:32Z</time>
      </trkpt>
      <trkpt lat="45.94147" lon="4.81511">
        <ele>263</ele>
        <time>2017-05-24T09:44:33Z</time>
      </trkpt>
      <trkpt lat="45.94147" lon="4.81496">
        <ele>259</ele>
        <time>2017-05-24T09:44:34Z</time>
      </trkpt>
      <trkpt lat="45.94149" lon="4.81479">
        <ele>258</ele>
        <time>2017-05-24T09:44:35Z</time>
      </trkpt>
      <trkpt lat="45.94152" lon="4.81463">
        <ele>257</ele>
        <time>2017-05-24T09:44:36Z</time>
      </trkpt>
      <trkpt lat="45.94154" lon="4.81447">
        <ele>256</ele>
        <time>2017-05-24T09:44:37Z</time>
      </trkpt>
      <trkpt lat="45.94155" lon="4.81432">
        <ele>256</ele>
        <time>2017-05-24T09:44:38Z</time>
      </trkpt>
      <trkpt lat="45.94157" lon="4.81416">
        <ele>254</ele>
        <time>2017-05-24T09:44:39Z</time>
      </trkpt>
      <trkpt lat="45.94159" lon="4.814">
        <ele>252</ele>
        <time>2017-05-24T09:44:40Z</time>
      </trkpt>
      <trkpt lat="45.94161" lon="4.81384">
        <ele>251</ele>
        <time>2017-05-24T09:44:41Z</time>
      </trkpt>
      <trkpt lat="45.94162" lon="4.81367">
        <ele>251</ele>
        <time>2017-05-24T09:44:42Z</time>
      </trkpt>
      <trkpt lat="45.94162" lon="4.81351">
        <ele>251</ele>
        <time>2017-05-24T09:44:43Z</time>
      </trkpt>
      <trkpt lat="45.94163" lon="4.81335">
        <ele>252</ele>
        <time>2017-05-24T09:44:44Z</time>
      </trkpt>
      <trkpt lat="45.94164" lon="4.81318">
        <ele>249</ele>
        <time>2017-05-24T09:44:45Z</time>
      </trkpt>
      <trkpt lat="45.94164" lon="4.81299">
        <ele>247</ele>
        <time>2017-05-24T09:44:46Z</time>
      </trkpt>
      <trkpt lat="45.94163" lon="4.81282">
        <ele>247</ele>
        <time>2017-05-24T09:44:47Z</time>
      </trkpt>
      <trkpt lat="45.94161" lon="4.81265">
        <ele>248</ele>
        <time>2017-05-24T09:44:48Z</time>
      </trkpt>
      <trkpt lat="45.94157" lon="4.81247">
        <ele>248</ele>
        <time>2017-05-24T09:44:49Z</time>
      </trkpt>
      <trkpt lat="45.94154" lon="4.81229">
        <ele>245</ele>
        <time>2017-05-24T09:44:50Z</time>
      </trkpt>
      <trkpt lat="45.94149" lon="4.81212">
        <ele>244</ele>
        <time>2017-05-24T09:44:51Z</time>
      </trkpt>
      <trkpt lat="45.94144" lon="4.81195">
        <ele>244</ele>
        <time>2017-05-24T09:44:52Z</time>
      </trkpt>
      <trkpt lat="45.94138" lon="4.81179">
        <ele>244</ele>
        <time>2017-05-24T09:44:53Z</time>
      </trkpt>
      <trkpt lat="45.94133" lon="4.81163">
        <ele>243</ele>
        <time>2017-05-24T09:44:54Z</time>
      </trkpt>
      <trkpt lat="45.94127" lon="4.81149">
        <ele>243</ele>
        <time>2017-05-24T09:44:55Z</time>
      </trkpt>
      <trkpt lat="45.9412" lon="4.81135">
        <ele>243</ele>
        <time>2017-05-24T09:44:56Z</time>
      </trkpt>
      <trkpt lat="45.94113" lon="4.81122">
        <ele>242</ele>
        <time>2017-05-24T09:44:57Z</time>
      </trkpt>
      <trkpt lat="45.94107" lon="4.81109">
        <ele>242</ele>
        <time>2017-05-24T09:44:58Z</time>
      </trkpt>
      <trkpt lat="45.94099" lon="4.81097">
        <ele>241</ele>
        <time>2017-05-24T09:44:59Z</time>
      </trkpt>
      <trkpt lat="45.94092" lon="4.81084">
        <ele>239</ele>
        <time>2017-05-24T09:45:00Z</time>
      </trkpt>
      <trkpt lat="45.94086" lon="4.81069">
        <ele>241</ele>
        <time>2017-05-24T09:45:01Z</time>
      </trkpt>
      <trkpt lat="45.9408" lon="4.81054">
        <ele>233</ele>
        <time>2017-05-24T09:45:02Z</time>
      </trkpt>
      <trkpt lat="45.94075" lon="4.81039">
        <ele>233</ele>
        <time>2017-05-24T09:45:03Z</time>
      </trkpt>
      <trkpt lat="45.94071" lon="4.81022">
        <ele>234</ele>
        <time>2017-05-24T09:45:04Z</time>
      </trkpt>
      <trkpt lat="45.94068" lon="4.81007">
        <ele>235</ele>
        <time>2017-05-24T09:45:05Z</time>
      </trkpt>
      <trkpt lat="45.94065" lon="4.80991">
        <ele>234</ele>
        <time>2017-05-24T09:45:06Z</time>
      </trkpt>
      <trkpt lat="45.94063" lon="4.80974">
        <ele>232</ele>
        <time>2017-05-24T09:45:07Z</time>
      </trkpt>
      <trkpt lat="45.94061" lon="4.80957">
        <ele>232</ele>
        <time>2017-05-24T09:45:08Z</time>
      </trkpt>
      <trkpt lat="45.94058" lon="4.80939">
        <ele>232</ele>
        <time>2017-05-24T09:45:09Z</time>
      </trkpt>
      <trkpt lat="45.94057" lon="4.80922">
        <ele>232</ele>
        <time>2017-05-24T09:45:10Z</time>
      </trkpt>
      <trkpt lat="45.94054" lon="4.80905">
        <ele>231</ele>
        <time>2017-05-24T09:45:11Z</time>
      </trkpt>
      <trkpt lat="45.94053" lon="4.80886">
        <ele>230</ele>
        <time>2017-05-24T09:45:12Z</time>
      </trkpt>
      <trkpt lat="45.94051" lon="4.80869">
        <ele>230</ele>
        <time>2017-05-24T09:45:13Z</time>
      </trkpt>
      <trkpt lat="45.94048" lon="4.80852">
        <ele>230</ele>
        <time>2017-05-24T09:45:14Z</time>
      </trkpt>
      <trkpt lat="45.94046" lon="4.80835">
        <ele>229</ele>
        <time>2017-05-24T09:45:15Z</time>
      </trkpt>
      <trkpt lat="45.94044" lon="4.80818">
        <ele>229</ele>
        <time>2017-05-24T09:45:16Z</time>
      </trkpt>
      <trkpt lat="45.94042" lon="4.80801">
        <ele>228</ele>
        <time>2017-05-24T09:45:17Z</time>
      </trkpt>
      <trkpt lat="45.9404" lon="4.80784">
        <ele>228</ele>
        <time>2017-05-24T09:45:18Z</time>
      </trkpt>
      <trkpt lat="45.94038" lon="4.80767">
        <ele>227</ele>
        <time>2017-05-24T09:45:19Z</time>
      </trkpt>
      <trkpt lat="45.94037" lon="4.8075">
        <ele>226</ele>
        <time>2017-05-24T09:45:20Z</time>
      </trkpt>
      <trkpt lat="45.94035" lon="4.80732">
        <ele>226</ele>
        <time>2017-05-24T09:45:21Z</time>
      </trkpt>
      <trkpt lat="45.94032" lon="4.80715">
        <ele>226</ele>
        <time>2017-05-24T09:45:22Z</time>
      </trkpt>
      <trkpt lat="45.94031" lon="4.80698">
        <ele>225</ele>
        <time>2017-05-24T09:45:23Z</time>
      </trkpt>
      <trkpt lat="45.94029" lon="4.80681">
        <ele>224</ele>
        <time>2017-05-24T09:45:24Z</time>
      </trkpt>
      <trkpt lat="45.94029" lon="4.80664">
        <ele>224</ele>
        <time>2017-05-24T09:45:25Z</time>
      </trkpt>
      <trkpt lat="45.94028" lon="4.80647">
        <ele>224</ele>
        <time>2017-05-24T09:45:26Z</time>
      </trkpt>
      <trkpt lat="45.94027" lon="4.8063">
        <ele>225</ele>
        <time>2017-05-24T09:45:27Z</time>
      </trkpt>
      <trkpt lat="45.94026" lon="4.80613">
        <ele>225</ele>
        <time>2017-05-24T09:45:28Z</time>
      </trkpt>
      <trkpt lat="45.94025" lon="4.80595">
        <ele>224</ele>
        <time>2017-05-24T09:45:29Z</time>
      </trkpt>
      <trkpt lat="45.94024" lon="4.80578">
        <ele>224</ele>
        <time>2017-05-24T09:45:30Z</time>
      </trkpt>
      <trkpt lat="45.94023" lon="4.80561">
        <ele>224</ele>
        <time>2017-05-24T09:45:31Z</time>
      </trkpt>
      <trkpt lat="45.94022" lon="4.80544">
        <ele>225</ele>
        <time>2017-05-24T09:45:32Z</time>
      </trkpt>
      <trkpt lat="45.94022" lon="4.80526">
        <ele>225</ele>
        <time>2017-05-24T09:45:33Z</time>
      </trkpt>
      <trkpt lat="45.94021" lon="4.80509">
        <ele>224</ele>
        <time>2017-05-24T09:45:34Z</time>
      </trkpt>
      <trkpt lat="45.94021" lon="4.80491">
        <ele>223</ele>
        <time>2017-05-24T09:45:35Z</time>
      </trkpt>
      <trkpt lat="45.9402" lon="4.80475">
        <ele>223</ele>
        <time>2017-05-24T09:45:36Z</time>
      </trkpt>
      <trkpt lat="45.94018" lon="4.80458">
        <ele>223</ele>
        <time>2017-05-24T09:45:37Z</time>
      </trkpt>
      <trkpt lat="45.94016" lon="4.80442">
        <ele>222</ele>
        <time>2017-05-24T09:45:38Z</time>
      </trkpt>
      <trkpt lat="45.94014" lon="4.80425">
        <ele>220</ele>
        <time>2017-05-24T09:45:39Z</time>
      </trkpt>
      <trkpt lat="45.9401" lon="4.80409">
        <ele>217</ele>
        <time>2017-05-24T09:45:40Z</time>
      </trkpt>
      <trkpt lat="45.94005" lon="4.80394">
        <ele>217</ele>
        <time>2017-05-24T09:45:41Z</time>
      </trkpt>
      <trkpt lat="45.94001" lon="4.80378">
        <ele>216</ele>
        <time>2017-05-24T09:45:42Z</time>
      </trkpt>
      <trkpt lat="45.93998" lon="4.80361">
        <ele>207</ele>
        <time>2017-05-24T09:45:43Z</time>
      </trkpt>
      <trkpt lat="45.93995" lon="4.80343">
        <ele>206</ele>
        <time>2017-05-24T09:45:44Z</time>
      </trkpt>
      <trkpt lat="45.93993" lon="4.80327">
        <ele>205</ele>
        <time>2017-05-24T09:45:45Z</time>
      </trkpt>
      <trkpt lat="45.93989" lon="4.80312">
        <ele>203</ele>
        <time>2017-05-24T09:45:46Z</time>
      </trkpt>
      <trkpt lat="45.93984" lon="4.80296">
        <ele>203</ele>
        <time>2017-05-24T09:45:47Z</time>
      </trkpt>
      <trkpt lat="45.93979" lon="4.80281">
        <ele>203</ele>
        <time>2017-05-24T09:45:48Z</time>
      </trkpt>
      <trkpt lat="45.93975" lon="4.80266">
        <ele>203</ele>
        <time>2017-05-24T09:45:49Z</time>
      </trkpt>
      <trkpt lat="45.9397" lon="4.8025">
        <ele>202</ele>
        <time>2017-05-24T09:45:50Z</time>
      </trkpt>
      <trkpt lat="45.93966" lon="4.80236">
        <ele>205</ele>
        <time>2017-05-24T09:45:51Z</time>
      </trkpt>
      <trkpt lat="45.93962" lon="4.80222">
        <ele>205</ele>
        <time>2017-05-24T09:45:52Z</time>
      </trkpt>
      <trkpt lat="45.93959" lon="4.80208">
        <ele>205</ele>
        <time>2017-05-24T09:45:53Z</time>
      </trkpt>
      <trkpt lat="45.93956" lon="4.80194">
        <ele>206</ele>
        <time>2017-05-24T09:45:54Z</time>
      </trkpt>
      <trkpt lat="45.93953" lon="4.80179">
        <ele>206</ele>
        <time>2017-05-24T09:45:55Z</time>
      </trkpt>
      <trkpt lat="45.9395" lon="4.80165">
        <ele>208</ele>
        <time>2017-05-24T09:45:56Z</time>
      </trkpt>
      <trkpt lat="45.93948" lon="4.80152">
        <ele>208</ele>
        <time>2017-05-24T09:45:57Z</time>
      </trkpt>
      <trkpt lat="45.93946" lon="4.80138">
        <ele>209</ele>
        <time>2017-05-24T09:45:58Z</time>
      </trkpt>
      <trkpt lat="45.93945" lon="4.80124">
        <ele>209</ele>
        <time>2017-05-24T09:45:59Z</time>
      </trkpt>
      <trkpt lat="45.93944" lon="4.80111">
        <ele>209</ele>
        <time>2017-05-24T09:46:00Z</time>
      </trkpt>
      <trkpt lat="45.93943" lon="4.80098">
        <ele>208</ele>
        <time>2017-05-24T09:46:01Z</time>
      </trkpt>
      <trkpt lat="45.93942" lon="4.80085">
        <ele>208</ele>
        <time>2017-05-24T09:46:02Z</time>
      </trkpt>
      <trkpt lat="45.93942" lon="4.80074">
        <ele>208</ele>
        <time>2017-05-24T09:46:03Z</time>
      </trkpt>
      <trkpt lat="45.93942" lon="4.80062">
        <ele>208</ele>
        <time>2017-05-24T09:46:04Z</time>
      </trkpt>
      <trkpt lat="45.93943" lon="4.8005">
        <ele>208</ele>
        <time>2017-05-24T09:46:05Z</time>
      </trkpt>
      <trkpt lat="45.93944" lon="4.80039">
        <ele>207</ele>
        <time>2017-05-24T09:46:06Z</time>
      </trkpt>
      <trkpt lat="45.93945" lon="4.80027">
        <ele>207</ele>
        <time>2017-05-24T09:46:07Z</time>
      </trkpt>
      <trkpt lat="45.93945" lon="4.80018">
        <ele>207</ele>
        <time>2017-05-24T09:46:08Z</time>
      </trkpt>
      <trkpt lat="45.93946" lon="4.80007">
        <ele>206</ele>
        <time>2017-05-24T09:46:09Z</time>
      </trkpt>
      <trkpt lat="45.93947" lon="4.79996">
        <ele>205</ele>
        <time>2017-05-24T09:46:10Z</time>
      </trkpt>
      <trkpt lat="45.93948" lon="4.79986">
        <ele>205</ele>
        <time>2017-05-24T09:46:11Z</time>
      </trkpt>
      <trkpt lat="45.9395" lon="4.79975">
        <ele>205</ele>
        <time>2017-05-24T09:46:12Z</time>
      </trkpt>
      <trkpt lat="45.93951" lon="4.79965">
        <ele>205</ele>
        <time>2017-05-24T09:46:13Z</time>
      </trkpt>
      <trkpt lat="45.93952" lon="4.79956">
        <ele>205</ele>
        <time>2017-05-24T09:46:14Z</time>
      </trkpt>
      <trkpt lat="45.93953" lon="4.79946">
        <ele>205</ele>
        <time>2017-05-24T09:46:15Z</time>
      </trkpt>
      <trkpt lat="45.93954" lon="4.79937">
        <ele>205</ele>
        <time>2017-05-24T09:46:16Z</time>
      </trkpt>
      <trkpt lat="45.93956" lon="4.79928">
        <ele>205</ele>
        <time>2017-05-24T09:46:17Z</time>
      </trkpt>
      <trkpt lat="45.93957" lon="4.79919">
        <ele>205</ele>
        <time>2017-05-24T09:46:18Z</time>
      </trkpt>
      <trkpt lat="45.93957" lon="4.79911">
        <ele>205</ele>
        <time>2017-05-24T09:46:19Z</time>
      </trkpt>
      <trkpt lat="45.93958" lon="4.79903">
        <ele>206</ele>
        <time>2017-05-24T09:46:20Z</time>
      </trkpt>
      <trkpt lat="45.93959" lon="4.79894">
        <ele>206</ele>
        <time>2017-05-24T09:46:21Z</time>
      </trkpt>
      <trkpt lat="45.93961" lon="4.79885">
        <ele>206</ele>
        <time>2017-05-24T09:46:22Z</time>
      </trkpt>
      <trkpt lat="45.93962" lon="4.79877">
        <ele>206</ele>
        <time>2017-05-24T09:46:23Z</time>
      </trkpt>
      <trkpt lat="45.93964" lon="4.79868">
        <ele>206</ele>
        <time>2017-05-24T09:46:24Z</time>
      </trkpt>
      <trkpt lat="45.93965" lon="4.79859">
        <ele>206</ele>
        <time>2017-05-24T09:46:25Z</time>
      </trkpt>
      <trkpt lat="45.93966" lon="4.79849">
        <ele>206</ele>
        <time>2017-05-24T09:46:26Z</time>
      </trkpt>
      <trkpt lat="45.93967" lon="4.79839">
        <ele>206</ele>
        <time>2017-05-24T09:46:27Z</time>
      </trkpt>
      <trkpt lat="45.93968" lon="4.7983">
        <ele>207</ele>
        <time>2017-05-24T09:46:28Z</time>
      </trkpt>
      <trkpt lat="45.9397" lon="4.79819">
        <ele>207</ele>
        <time>2017-05-24T09:46:29Z</time>
      </trkpt>
      <trkpt lat="45.93972" lon="4.79808">
        <ele>207</ele>
        <time>2017-05-24T09:46:30Z</time>
      </trkpt>
      <trkpt lat="45.93973" lon="4.79798">
        <ele>206</ele>
        <time>2017-05-24T09:46:31Z</time>
      </trkpt>
      <trkpt lat="45.93974" lon="4.79788">
        <ele>206</ele>
        <time>2017-05-24T09:46:32Z</time>
      </trkpt>
      <trkpt lat="45.93974" lon="4.79778">
        <ele>206</ele>
        <time>2017-05-24T09:46:33Z</time>
      </trkpt>
      <trkpt lat="45.93973" lon="4.79768">
        <ele>206</ele>
        <time>2017-05-24T09:46:34Z</time>
      </trkpt>
      <trkpt lat="45.93973" lon="4.79759">
        <ele>206</ele>
        <time>2017-05-24T09:46:35Z</time>
      </trkpt>
      <trkpt lat="45.93973" lon="4.79749">
        <ele>207</ele>
        <time>2017-05-24T09:46:36Z</time>
      </trkpt>
      <trkpt lat="45.93972" lon="4.79741">
        <ele>207</ele>
        <time>2017-05-24T09:46:37Z</time>
      </trkpt>
      <trkpt lat="45.93971" lon="4.79734">
        <ele>207</ele>
        <time>2017-05-24T09:46:38Z</time>
      </trkpt>
      <trkpt lat="45.93971" lon="4.79726">
        <ele>207</ele>
        <time>2017-05-24T09:46:39Z</time>
      </trkpt>
      <trkpt lat="45.9397" lon="4.79718">
        <ele>207</ele>
        <time>2017-05-24T09:46:40Z</time>
      </trkpt>
      <trkpt lat="45.93969" lon="4.79711">
        <ele>207</ele>
        <time>2017-05-24T09:46:41Z</time>
      </trkpt>
      <trkpt lat="45.93968" lon="4.79703">
        <ele>207</ele>
        <time>2017-05-24T09:46:42Z</time>
      </trkpt>
      <trkpt lat="45.93968" lon="4.79696">
        <ele>207</ele>
        <time>2017-05-24T09:46:43Z</time>
      </trkpt>
      <trkpt lat="45.93967" lon="4.79688">
        <ele>207</ele>
        <time>2017-05-24T09:46:44Z</time>
      </trkpt>
      <trkpt lat="45.93966" lon="4.7968">
        <ele>207</ele>
        <time>2017-05-24T09:46:45Z</time>
      </trkpt>
      <trkpt lat="45.93966" lon="4.79672">
        <ele>207</ele>
        <time>2017-05-24T09:46:46Z</time>
      </trkpt>
      <trkpt lat="45.93965" lon="4.79664">
        <ele>207</ele>
        <time>2017-05-24T09:46:47Z</time>
      </trkpt>
      <trkpt lat="45.93964" lon="4.79656">
        <ele>207</ele>
        <time>2017-05-24T09:46:48Z</time>
      </trkpt>
      <trkpt lat="45.93963" lon="4.79648">
        <ele>207</ele>
        <time>2017-05-24T09:46:49Z</time>
      </trkpt>
      <trkpt lat="45.93962" lon="4.7964">
        <ele>207</ele>
        <time>2017-05-24T09:46:50Z</time>
      </trkpt>
      <trkpt lat="45.93961" lon="4.79632">
        <ele>207</ele>
        <time>2017-05-24T09:46:51Z</time>
      </trkpt>
      <trkpt lat="45.93961" lon="4.79624">
        <ele>207</ele>
        <time>2017-05-24T09:46:52Z</time>
      </trkpt>
      <trkpt lat="45.9396" lon="4.79617">
        <ele>207</ele>
        <time>2017-05-24T09:46:53Z</time>
      </trkpt>
      <trkpt lat="45.93959" lon="4.79609">
        <ele>207</ele>
        <time>2017-05-24T09:46:54Z</time>
      </trkpt>
      <trkpt lat="45.93958" lon="4.79601">
        <ele>207</ele>
        <time>2017-05-24T09:46:55Z</time>
      </trkpt>
      <trkpt lat="45.93957" lon="4.79592">
        <ele>207</ele>
        <time>2017-05-24T09:46:56Z</time>
      </trkpt>
      <trkpt lat="45.93957" lon="4.79584">
        <ele>206</ele>
        <time>2017-05-24T09:46:57Z</time>
      </trkpt>
      <trkpt lat="45.93956" lon="4.79575">
        <ele>205</ele>
        <time>2017-05-24T09:46:58Z</time>
      </trkpt>
      <trkpt lat="45.93955" lon="4.79567">
        <ele>205</ele>
        <time>2017-05-24T09:46:59Z</time>
      </trkpt>
      <trkpt lat="45.93955" lon="4.79558">
        <ele>205</ele>
        <time>2017-05-24T09:47:00Z</time>
      </trkpt>
      <trkpt lat="45.93954" lon="4.79549">
        <ele>205</ele>
        <time>2017-05-24T09:47:01Z</time>
      </trkpt>
      <trkpt lat="45.93953" lon="4.79541">
        <ele>205</ele>
        <time>2017-05-24T09:47:02Z</time>
      </trkpt>
      <trkpt lat="45.93953" lon="4.79532">
        <ele>204</ele>
        <time>2017-05-24T09:47:03Z</time>
      </trkpt>
      <trkpt lat="45.93953" lon="4.79523">
        <ele>204</ele>
        <time>2017-05-24T09:47:04Z</time>
      </trkpt>
      <trkpt lat="45.93953" lon="4.79513">
        <ele>204</ele>
        <time>2017-05-24T09:47:05Z</time>
      </trkpt>
      <trkpt lat="45.93953" lon="4.79503">
        <ele>204</ele>
        <time>2017-05-24T09:47:06Z</time>
      </trkpt>
      <trkpt lat="45.93953" lon="4.79493">
        <ele>203</ele>
        <time>2017-05-24T09:47:07Z</time>
      </trkpt>
      <trkpt lat="45.93954" lon="4.79482">
        <ele>203</ele>
        <time>2017-05-24T09:47:08Z</time>
      </trkpt>
      <trkpt lat="45.93954" lon="4.79471">
        <ele>203</ele>
        <time>2017-05-24T09:47:09Z</time>
      </trkpt>
      <trkpt lat="45.93954" lon="4.7946">
        <ele>203</ele>
        <time>2017-05-24T09:47:10Z</time>
      </trkpt>
      <trkpt lat="45.93954" lon="4.7945">
        <ele>203</ele>
        <time>2017-05-24T09:47:11Z</time>
      </trkpt>
      <trkpt lat="45.93954" lon="4.79439">
        <ele>202</ele>
        <time>2017-05-24T09:47:12Z</time>
      </trkpt>
      <trkpt lat="45.93954" lon="4.79429">
        <ele>202</ele>
        <time>2017-05-24T09:47:13Z</time>
      </trkpt>
      <trkpt lat="45.93955" lon="4.79418">
        <ele>202</ele>
        <time>2017-05-24T09:47:14Z</time>
      </trkpt>
      <trkpt lat="45.93955" lon="4.79406">
        <ele>201</ele>
        <time>2017-05-24T09:47:15Z</time>
      </trkpt>
      <trkpt lat="45.93956" lon="4.79394">
        <ele>201</ele>
        <time>2017-05-24T09:47:16Z</time>
      </trkpt>
      <trkpt lat="45.93956" lon="4.79382">
        <ele>201</ele>
        <time>2017-05-24T09:47:17Z</time>
      </trkpt>
      <trkpt lat="45.93956" lon="4.7937">
        <ele>201</ele>
        <time>2017-05-24T09:47:18Z</time>
      </trkpt>
      <trkpt lat="45.93956" lon="4.79358">
        <ele>201</ele>
        <time>2017-05-24T09:47:19Z</time>
      </trkpt>
      <trkpt lat="45.93956" lon="4.79348">
        <ele>201</ele>
        <time>2017-05-24T09:47:20Z</time>
      </trkpt>
      <trkpt lat="45.93956" lon="4.79337">
        <ele>200</ele>
        <time>2017-05-24T09:47:21Z</time>
      </trkpt>
      <trkpt lat="45.93956" lon="4.79327">
        <ele>199</ele>
        <time>2017-05-24T09:47:22Z</time>
      </trkpt>
      <trkpt lat="45.93955" lon="4.79319">
        <ele>199</ele>
        <time>2017-05-24T09:47:23Z</time>
      </trkpt>
      <trkpt lat="45.93954" lon="4.79308">
        <ele>199</ele>
        <time>2017-05-24T09:47:24Z</time>
      </trkpt>
      <trkpt lat="45.93954" lon="4.79298">
        <ele>198</ele>
        <time>2017-05-24T09:47:25Z</time>
      </trkpt>
      <trkpt lat="45.93954" lon="4.79288">
        <ele>198</ele>
        <time>2017-05-24T09:47:26Z</time>
      </trkpt>
      <trkpt lat="45.93954" lon="4.79278">
        <ele>198</ele>
        <time>2017-05-24T09:47:27Z</time>
      </trkpt>
      <trkpt lat="45.93954" lon="4.79268">
        <ele>198</ele>
        <time>2017-05-24T09:47:28Z</time>
      </trkpt>
      <trkpt lat="45.93954" lon="4.79258">
        <ele>198</ele>
        <time>2017-05-24T09:47:29Z</time>
      </trkpt>
      <trkpt lat="45.93954" lon="4.79248">
        <ele>197</ele>
        <time>2017-05-24T09:47:30Z</time>
      </trkpt>
      <trkpt lat="45.93953" lon="4.79238">
        <ele>197</ele>
        <time>2017-05-24T09:47:31Z</time>
      </trkpt>
      <trkpt lat="45.93953" lon="4.79229">
        <ele>197</ele>
        <time>2017-05-24T09:47:32Z</time>
      </trkpt>
      <trkpt lat="45.93952" lon="4.79218">
        <ele>197</ele>
        <time>2017-05-24T09:47:33Z</time>
      </trkpt>
      <trkpt lat="45.93952" lon="4.79207">
        <ele>197</ele>
        <time>2017-05-24T09:47:34Z</time>
      </trkpt>
      <trkpt lat="45.93952" lon="4.79197">
        <ele>197</ele>
        <time>2017-05-24T09:47:35Z</time>
      </trkpt>
      <trkpt lat="45.93952" lon="4.79187">
        <ele>197</ele>
        <time>2017-05-24T09:47:36Z</time>
      </trkpt>
      <trkpt lat="45.93952" lon="4.79176">
        <ele>197</ele>
        <time>2017-05-24T09:47:37Z</time>
      </trkpt>
      <trkpt lat="45.93953" lon="4.79164">
        <ele>197</ele>
        <time>2017-05-24T09:47:38Z</time>
      </trkpt>
      <trkpt lat="45.93952" lon="4.79154">
        <ele>197</ele>
        <time>2017-05-24T09:47:39Z</time>
      </trkpt>
      <trkpt lat="45.93951" lon="4.79143">
        <ele>197</ele>
        <time>2017-05-24T09:47:40Z</time>
      </trkpt>
      <trkpt lat="45.9395" lon="4.79133">
        <ele>197</ele>
        <time>2017-05-24T09:47:41Z</time>
      </trkpt>
      <trkpt lat="45.9395" lon="4.79122">
        <ele>197</ele>
        <time>2017-05-24T09:47:42Z</time>
      </trkpt>
      <trkpt lat="45.93949" lon="4.79111">
        <ele>197</ele>
        <time>2017-05-24T09:47:43Z</time>
      </trkpt>
      <trkpt lat="45.93949" lon="4.79101">
        <ele>196</ele>
        <time>2017-05-24T09:47:44Z</time>
      </trkpt>
      <trkpt lat="45.93948" lon="4.79089">
        <ele>196</ele>
        <time>2017-05-24T09:47:45Z</time>
      </trkpt>
      <trkpt lat="45.93948" lon="4.79078">
        <ele>196</ele>
        <time>2017-05-24T09:47:46Z</time>
      </trkpt>
      <trkpt lat="45.93947" lon="4.79067">
        <ele>196</ele>
        <time>2017-05-24T09:47:47Z</time>
      </trkpt>
      <trkpt lat="45.93946" lon="4.79056">
        <ele>196</ele>
        <time>2017-05-24T09:47:48Z</time>
      </trkpt>
      <trkpt lat="45.93946" lon="4.79045">
        <ele>196</ele>
        <time>2017-05-24T09:47:49Z</time>
      </trkpt>
      <trkpt lat="45.93946" lon="4.79033">
        <ele>195</ele>
        <time>2017-05-24T09:47:50Z</time>
      </trkpt>
      <trkpt lat="45.93945" lon="4.79023">
        <ele>195</ele>
        <time>2017-05-24T09:47:51Z</time>
      </trkpt>
      <trkpt lat="45.93945" lon="4.79011">
        <ele>195</ele>
        <time>2017-05-24T09:47:52Z</time>
      </trkpt>
      <trkpt lat="45.93945" lon="4.79001">
        <ele>195</ele>
        <time>2017-05-24T09:47:53Z</time>
      </trkpt>
      <trkpt lat="45.93944" lon="4.7899">
        <ele>194</ele>
        <time>2017-05-24T09:47:54Z</time>
      </trkpt>
      <trkpt lat="45.93944" lon="4.7898">
        <ele>194</ele>
        <time>2017-05-24T09:47:55Z</time>
      </trkpt>
      <trkpt lat="45.93943" lon="4.78971">
        <ele>194</ele>
        <time>2017-05-24T09:47:56Z</time>
      </trkpt>
      <trkpt lat="45.93942" lon="4.78961">
        <ele>194</ele>
        <time>2017-05-24T09:47:57Z</time>
      </trkpt>
      <trkpt lat="45.93942" lon="4.78951">
        <ele>194</ele>
        <time>2017-05-24T09:47:58Z</time>
      </trkpt>
      <trkpt lat="45.93942" lon="4.78941">
        <ele>194</ele>
        <time>2017-05-24T09:47:59Z</time>
      </trkpt>
      <trkpt lat="45.93942" lon="4.78931">
        <ele>193</ele>
        <time>2017-05-24T09:48:00Z</time>
      </trkpt>
      <trkpt lat="45.93942" lon="4.78921">
        <ele>193</ele>
        <time>2017-05-24T09:48:01Z</time>
      </trkpt>
      <trkpt lat="45.93941" lon="4.78911">
        <ele>193</ele>
        <time>2017-05-24T09:48:02Z</time>
      </trkpt>
      <trkpt lat="45.93941" lon="4.78901">
        <ele>193</ele>
        <time>2017-05-24T09:48:03Z</time>
      </trkpt>
      <trkpt lat="45.93941" lon="4.78891">
        <ele>193</ele>
        <time>2017-05-24T09:48:04Z</time>
      </trkpt>
      <trkpt lat="45.9394" lon="4.78881">
        <ele>194</ele>
        <time>2017-05-24T09:48:05Z</time>
      </trkpt>
      <trkpt lat="45.9394" lon="4.78872">
        <ele>194</ele>
        <time>2017-05-24T09:48:06Z</time>
      </trkpt>
      <trkpt lat="45.93939" lon="4.78862">
        <ele>194</ele>
        <time>2017-05-24T09:48:07Z</time>
      </trkpt>
      <trkpt lat="45.93939" lon="4.78854">
        <ele>194</ele>
        <time>2017-05-24T09:48:08Z</time>
      </trkpt>
      <trkpt lat="45.93938" lon="4.78844">
        <ele>193</ele>
        <time>2017-05-24T09:48:09Z</time>
      </trkpt>
      <trkpt lat="45.93938" lon="4.78835">
        <ele>193</ele>
        <time>2017-05-24T09:48:10Z</time>
      </trkpt>
      <trkpt lat="45.93937" lon="4.78826">
        <ele>193</ele>
        <time>2017-05-24T09:48:11Z</time>
      </trkpt>
      <trkpt lat="45.93937" lon="4.78817">
        <ele>194</ele>
        <time>2017-05-24T09:48:12Z</time>
      </trkpt>
      <trkpt lat="45.93937" lon="4.78808">
        <ele>194</ele>
        <time>2017-05-24T09:48:13Z</time>
      </trkpt>
      <trkpt lat="45.93937" lon="4.788">
        <ele>194</ele>
        <time>2017-05-24T09:48:14Z</time>
      </trkpt>
      <trkpt lat="45.93937" lon="4.78792">
        <ele>194</ele>
        <time>2017-05-24T09:48:15Z</time>
      </trkpt>
      <trkpt lat="45.93937" lon="4.78785">
        <ele>194</ele>
        <time>2017-05-24T09:48:16Z</time>
      </trkpt>
      <trkpt lat="45.93937" lon="4.78777">
        <ele>194</ele>
        <time>2017-05-24T09:48:17Z</time>
      </trkpt>
      <trkpt lat="45.93937" lon="4.78769">
        <ele>193</ele>
        <time>2017-05-24T09:48:18Z</time>
      </trkpt>
      <trkpt lat="45.93937" lon="4.78761">
        <ele>193</ele>
        <time>2017-05-24T09:48:19Z</time>
      </trkpt>
      <trkpt lat="45.93937" lon="4.78754">
        <ele>193</ele>
        <time>2017-05-24T09:48:20Z</time>
      </trkpt>
      <trkpt lat="45.93938" lon="4.78745">
        <ele>193</ele>
        <time>2017-05-24T09:48:21Z</time>
      </trkpt>
      <trkpt lat="45.93937" lon="4.78736">
        <ele>193</ele>
        <time>2017-05-24T09:48:22Z</time>
      </trkpt>
      <trkpt lat="45.93937" lon="4.78728">
        <ele>194</ele>
        <time>2017-05-24T09:48:23Z</time>
      </trkpt>
      <trkpt lat="45.93937" lon="4.78719">
        <ele>194</ele>
        <time>2017-05-24T09:48:24Z</time>
      </trkpt>
      <trkpt lat="45.93937" lon="4.78712">
        <ele>194</ele>
        <time>2017-05-24T09:48:25Z</time>
      </trkpt>
      <trkpt lat="45.93937" lon="4.78703">
        <ele>194</ele>
        <time>2017-05-24T09:48:26Z</time>
      </trkpt>
      <trkpt lat="45.93938" lon="4.78695">
        <ele>194</ele>
        <time>2017-05-24T09:48:27Z</time>
      </trkpt>
      <trkpt lat="45.93938" lon="4.78687">
        <ele>194</ele>
        <time>2017-05-24T09:48:28Z</time>
      </trkpt>
      <trkpt lat="45.93937" lon="4.78678">
        <ele>193</ele>
        <time>2017-05-24T09:48:29Z</time>
      </trkpt>
      <trkpt lat="45.93937" lon="4.7867">
        <ele>193</ele>
        <time>2017-05-24T09:48:30Z</time>
      </trkpt>
      <trkpt lat="45.93937" lon="4.78662">
        <ele>194</ele>
        <time>2017-05-24T09:48:31Z</time>
      </trkpt>
      <trkpt lat="45.93936" lon="4.78654">
        <ele>194</ele>
        <time>2017-05-24T09:48:32Z</time>
      </trkpt>
      <trkpt lat="45.93936" lon="4.78646">
        <ele>195</ele>
        <time>2017-05-24T09:48:33Z</time>
      </trkpt>
      <trkpt lat="45.93937" lon="4.78639">
        <ele>195</ele>
        <time>2017-05-24T09:48:34Z</time>
      </trkpt>
      <trkpt lat="45.93937" lon="4.78631">
        <ele>195</ele>
        <time>2017-05-24T09:48:35Z</time>
      </trkpt>
      <trkpt lat="45.93937" lon="4.78624">
        <ele>195</ele>
        <time>2017-05-24T09:48:36Z</time>
      </trkpt>
      <trkpt lat="45.93937" lon="4.78618">
        <ele>196</ele>
        <time>2017-05-24T09:48:37Z</time>
      </trkpt>
      <trkpt lat="45.93936" lon="4.78605">
        <ele>196</ele>
        <time>2017-05-24T09:48:39Z</time>
      </trkpt>
      <trkpt lat="45.93936" lon="4.78597">
        <ele>195</ele>
        <time>2017-05-24T09:48:40Z</time>
      </trkpt>
      <trkpt lat="45.93937" lon="4.7859">
        <ele>195</ele>
        <time>2017-05-24T09:48:41Z</time>
      </trkpt>
      <trkpt lat="45.93937" lon="4.78584">
        <ele>195</ele>
        <time>2017-05-24T09:48:42Z</time>
      </trkpt>
      <trkpt lat="45.93937" lon="4.78573">
        <ele>196</ele>
        <time>2017-05-24T09:48:44Z</time>
      </trkpt>
      <trkpt lat="45.93936" lon="4.78569">
        <ele>196</ele>
        <time>2017-05-24T09:48:45Z</time>
      </trkpt>
      <trkpt lat="45.93934" lon="4.78557">
        <ele>197</ele>
        <time>2017-05-24T09:48:48Z</time>
      </trkpt>
      <trkpt lat="45.93934" lon="4.78553">
        <ele>197</ele>
        <time>2017-05-24T09:48:49Z</time>
      </trkpt>
      <trkpt lat="45.93934" lon="4.78543">
        <ele>197</ele>
        <time>2017-05-24T09:48:51Z</time>
      </trkpt>
      <trkpt lat="45.93935" lon="4.78537">
        <ele>197</ele>
        <time>2017-05-24T09:48:52Z</time>
      </trkpt>
      <trkpt lat="45.93935" lon="4.78531">
        <ele>197</ele>
        <time>2017-05-24T09:48:53Z</time>
      </trkpt>
      <trkpt lat="45.93936" lon="4.78524">
        <ele>197</ele>
        <time>2017-05-24T09:48:54Z</time>
      </trkpt>
      <trkpt lat="45.93937" lon="4.78517">
        <ele>197</ele>
        <time>2017-05-24T09:48:55Z</time>
      </trkpt>
      <trkpt lat="45.93937" lon="4.78511">
        <ele>197</ele>
        <time>2017-05-24T09:48:56Z</time>
      </trkpt>
      <trkpt lat="45.93938" lon="4.785">
        <ele>197</ele>
        <time>2017-05-24T09:48:58Z</time>
      </trkpt>
      <trkpt lat="45.93939" lon="4.78495">
        <ele>197</ele>
        <time>2017-05-24T09:48:59Z</time>
      </trkpt>
      <trkpt lat="45.93941" lon="4.78484">
        <ele>197</ele>
        <time>2017-05-24T09:49:01Z</time>
      </trkpt>
      <trkpt lat="45.93941" lon="4.78478">
        <ele>197</ele>
        <time>2017-05-24T09:49:02Z</time>
      </trkpt>
      <trkpt lat="45.93942" lon="4.78466">
        <ele>197</ele>
        <time>2017-05-24T09:49:04Z</time>
      </trkpt>
      <trkpt lat="45.93943" lon="4.7846">
        <ele>197</ele>
        <time>2017-05-24T09:49:05Z</time>
      </trkpt>
      <trkpt lat="45.93944" lon="4.78453">
        <ele>197</ele>
        <time>2017-05-24T09:49:06Z</time>
      </trkpt>
      <trkpt lat="45.93946" lon="4.78446">
        <ele>197</ele>
        <time>2017-05-24T09:49:07Z</time>
      </trkpt>
      <trkpt lat="45.93948" lon="4.78434">
        <ele>197</ele>
        <time>2017-05-24T09:49:09Z</time>
      </trkpt>
      <trkpt lat="45.93949" lon="4.78428">
        <ele>197</ele>
        <time>2017-05-24T09:49:10Z</time>
      </trkpt>
      <trkpt lat="45.9395" lon="4.78421">
        <ele>197</ele>
        <time>2017-05-24T09:49:11Z</time>
      </trkpt>
      <trkpt lat="45.93951" lon="4.78414">
        <ele>196</ele>
        <time>2017-05-24T09:49:12Z</time>
      </trkpt>
      <trkpt lat="45.93952" lon="4.78408">
        <ele>196</ele>
        <time>2017-05-24T09:49:13Z</time>
      </trkpt>
      <trkpt lat="45.93952" lon="4.78401">
        <ele>196</ele>
        <time>2017-05-24T09:49:14Z</time>
      </trkpt>
      <trkpt lat="45.93953" lon="4.78395">
        <ele>196</ele>
        <time>2017-05-24T09:49:15Z</time>
      </trkpt>
      <trkpt lat="45.93953" lon="4.78388">
        <ele>196</ele>
        <time>2017-05-24T09:49:16Z</time>
      </trkpt>
      <trkpt lat="45.93954" lon="4.78381">
        <ele>196</ele>
        <time>2017-05-24T09:49:17Z</time>
      </trkpt>
      <trkpt lat="45.93955" lon="4.78374">
        <ele>196</ele>
        <time>2017-05-24T09:49:18Z</time>
      </trkpt>
      <trkpt lat="45.93956" lon="4.78363">
        <ele>196</ele>
        <time>2017-05-24T09:49:20Z</time>
      </trkpt>
      <trkpt lat="45.93957" lon="4.78357">
        <ele>196</ele>
        <time>2017-05-24T09:49:21Z</time>
      </trkpt>
      <trkpt lat="45.9396" lon="4.78345">
        <ele>196</ele>
        <time>2017-05-24T09:49:23Z</time>
      </trkpt>
      <trkpt lat="45.9396" lon="4.7834">
        <ele>196</ele>
        <time>2017-05-24T09:49:24Z</time>
      </trkpt>
      <trkpt lat="45.93961" lon="4.7833">
        <ele>195</ele>
        <time>2017-05-24T09:49:26Z</time>
      </trkpt>
      <trkpt lat="45.93962" lon="4.78325">
        <ele>196</ele>
        <time>2017-05-24T09:49:27Z</time>
      </trkpt>
      <trkpt lat="45.93963" lon="4.78314">
        <ele>196</ele>
        <time>2017-05-24T09:49:29Z</time>
      </trkpt>
      <trkpt lat="45.93964" lon="4.78308">
        <ele>196</ele>
        <time>2017-05-24T09:49:30Z</time>
      </trkpt>
      <trkpt lat="45.93965" lon="4.78298">
        <ele>195</ele>
        <time>2017-05-24T09:49:32Z</time>
      </trkpt>
      <trkpt lat="45.93966" lon="4.78292">
        <ele>195</ele>
        <time>2017-05-24T09:49:33Z</time>
      </trkpt>
      <trkpt lat="45.93967" lon="4.7828">
        <ele>195</ele>
        <time>2017-05-24T09:49:35Z</time>
      </trkpt>
      <trkpt lat="45.93968" lon="4.78273">
        <ele>196</ele>
        <time>2017-05-24T09:49:36Z</time>
      </trkpt>
      <trkpt lat="45.93969" lon="4.78267">
        <ele>196</ele>
        <time>2017-05-24T09:49:37Z</time>
      </trkpt>
      <trkpt lat="45.9397" lon="4.78261">
        <ele>196</ele>
        <time>2017-05-24T09:49:38Z</time>
      </trkpt>
      <trkpt lat="45.93971" lon="4.78254">
        <ele>196</ele>
        <time>2017-05-24T09:49:39Z</time>
      </trkpt>
      <trkpt lat="45.93972" lon="4.78247">
        <ele>196</ele>
        <time>2017-05-24T09:49:40Z</time>
      </trkpt>
      <trkpt lat="45.93974" lon="4.7824">
        <ele>196</ele>
        <time>2017-05-24T09:49:41Z</time>
      </trkpt>
      <trkpt lat="45.93974" lon="4.78231">
        <ele>196</ele>
        <time>2017-05-24T09:49:42Z</time>
      </trkpt>
      <trkpt lat="45.93974" lon="4.78223">
        <ele>196</ele>
        <time>2017-05-24T09:49:43Z</time>
      </trkpt>
      <trkpt lat="45.93975" lon="4.78216">
        <ele>196</ele>
        <time>2017-05-24T09:49:44Z</time>
      </trkpt>
      <trkpt lat="45.93975" lon="4.78209">
        <ele>197</ele>
        <time>2017-05-24T09:49:45Z</time>
      </trkpt>
      <trkpt lat="45.93976" lon="4.78203">
        <ele>197</ele>
        <time>2017-05-24T09:49:46Z</time>
      </trkpt>
      <trkpt lat="45.93978" lon="4.78192">
        <ele>197</ele>
        <time>2017-05-24T09:49:48Z</time>
      </trkpt>
      <trkpt lat="45.9398" lon="4.78187">
        <ele>197</ele>
        <time>2017-05-24T09:49:49Z</time>
      </trkpt>
      <trkpt lat="45.93984" lon="4.78176">
        <ele>198</ele>
        <time>2017-05-24T09:49:52Z</time>
      </trkpt>
      <trkpt lat="45.93985" lon="4.78174">
        <ele>198</ele>
        <time>2017-05-24T09:49:53Z</time>
      </trkpt>
      <trkpt lat="45.93988" lon="4.78165">
        <ele>199</ele>
        <time>2017-05-24T09:49:55Z</time>
      </trkpt>
      <trkpt lat="45.93988" lon="4.78161">
        <ele>199</ele>
        <time>2017-05-24T09:49:56Z</time>
      </trkpt>
      <trkpt lat="45.93989" lon="4.78151">
        <ele>198</ele>
        <time>2017-05-24T09:49:58Z</time>
      </trkpt>
      <trkpt lat="45.9399" lon="4.78146">
        <ele>198</ele>
        <time>2017-05-24T09:49:59Z</time>
      </trkpt>
      <trkpt lat="45.93991" lon="4.78136">
        <ele>197</ele>
        <time>2017-05-24T09:50:01Z</time>
      </trkpt>
      <trkpt lat="45.93993" lon="4.7813">
        <ele>197</ele>
        <time>2017-05-24T09:50:02Z</time>
      </trkpt>
      <trkpt lat="45.93994" lon="4.78124">
        <ele>197</ele>
        <time>2017-05-24T09:50:03Z</time>
      </trkpt>
      <trkpt lat="45.93996" lon="4.78118">
        <ele>197</ele>
        <time>2017-05-24T09:50:04Z</time>
      </trkpt>
      <trkpt lat="45.93997" lon="4.78111">
        <ele>197</ele>
        <time>2017-05-24T09:50:05Z</time>
      </trkpt>
      <trkpt lat="45.93998" lon="4.78105">
        <ele>197</ele>
        <time>2017-05-24T09:50:06Z</time>
      </trkpt>
      <trkpt lat="45.93999" lon="4.78098">
        <ele>198</ele>
        <time>2017-05-24T09:50:07Z</time>
      </trkpt>
      <trkpt lat="45.94" lon="4.78092">
        <ele>198</ele>
        <time>2017-05-24T09:50:08Z</time>
      </trkpt>
      <trkpt lat="45.94001" lon="4.78085">
        <ele>199</ele>
        <time>2017-05-24T09:50:09Z</time>
      </trkpt>
      <trkpt lat="45.94002" lon="4.78079">
        <ele>200</ele>
        <time>2017-05-24T09:50:10Z</time>
      </trkpt>
      <trkpt lat="45.94003" lon="4.78072">
        <ele>200</ele>
        <time>2017-05-24T09:50:11Z</time>
      </trkpt>
      <trkpt lat="45.94004" lon="4.78065">
        <ele>201</ele>
        <time>2017-05-24T09:50:12Z</time>
      </trkpt>
      <trkpt lat="45.94007" lon="4.78059">
        <ele>201</ele>
        <time>2017-05-24T09:50:13Z</time>
      </trkpt>
      <trkpt lat="45.9401" lon="4.78052">
        <ele>201</ele>
        <time>2017-05-24T09:50:14Z</time>
      </trkpt>
      <trkpt lat="45.94012" lon="4.78046">
        <ele>201</ele>
        <time>2017-05-24T09:50:15Z</time>
      </trkpt>
      <trkpt lat="45.94014" lon="4.7804">
        <ele>201</ele>
        <time>2017-05-24T09:50:16Z</time>
      </trkpt>
      <trkpt lat="45.94016" lon="4.78027">
        <ele>201</ele>
        <time>2017-05-24T09:50:18Z</time>
      </trkpt>
      <trkpt lat="45.94016" lon="4.78021">
        <ele>201</ele>
        <time>2017-05-24T09:50:19Z</time>
      </trkpt>
      <trkpt lat="45.94017" lon="4.78014">
        <ele>200</ele>
        <time>2017-05-24T09:50:20Z</time>
      </trkpt>
      <trkpt lat="45.94018" lon="4.78008">
        <ele>200</ele>
        <time>2017-05-24T09:50:21Z</time>
      </trkpt>
      <trkpt lat="45.94019" lon="4.78001">
        <ele>200</ele>
        <time>2017-05-24T09:50:22Z</time>
      </trkpt>
      <trkpt lat="45.9402" lon="4.77994">
        <ele>199</ele>
        <time>2017-05-24T09:50:23Z</time>
      </trkpt>
      <trkpt lat="45.94021" lon="4.77987">
        <ele>200</ele>
        <time>2017-05-24T09:50:24Z</time>
      </trkpt>
      <trkpt lat="45.94022" lon="4.7798">
        <ele>200</ele>
        <time>2017-05-24T09:50:25Z</time>
      </trkpt>
      <trkpt lat="45.94023" lon="4.77972">
        <ele>200</ele>
        <time>2017-05-24T09:50:26Z</time>
      </trkpt>
      <trkpt lat="45.94024" lon="4.77966">
        <ele>200</ele>
        <time>2017-05-24T09:50:27Z</time>
      </trkpt>
      <trkpt lat="45.94027" lon="4.77954">
        <ele>200</ele>
        <time>2017-05-24T09:50:29Z</time>
      </trkpt>
      <trkpt lat="45.94029" lon="4.77948">
        <ele>200</ele>
        <time>2017-05-24T09:50:30Z</time>
      </trkpt>
      <trkpt lat="45.94031" lon="4.77941">
        <ele>200</ele>
        <time>2017-05-24T09:50:31Z</time>
      </trkpt>
      <trkpt lat="45.94032" lon="4.77935">
        <ele>200</ele>
        <time>2017-05-24T09:50:32Z</time>
      </trkpt>
      <trkpt lat="45.94032" lon="4.77928">
        <ele>200</ele>
        <time>2017-05-24T09:50:33Z</time>
      </trkpt>
      <trkpt lat="45.9403" lon="4.77922">
        <ele>200</ele>
        <time>2017-05-24T09:50:34Z</time>
      </trkpt>
      <trkpt lat="45.94027" lon="4.77911">
        <ele>198</ele>
        <time>2017-05-24T09:50:36Z</time>
      </trkpt>
      <trkpt lat="45.94023" lon="4.77909">
        <ele>198</ele>
        <time>2017-05-24T09:50:37Z</time>
      </trkpt>
      <trkpt lat="45.9401" lon="4.77917">
        <ele>196</ele>
        <time>2017-05-24T09:50:38Z</time>
      </trkpt>
      <trkpt lat="45.94002" lon="4.77922">
        <ele>195</ele>
        <time>2017-05-24T09:50:39Z</time>
      </trkpt>
      <trkpt lat="45.93996" lon="4.77926">
        <ele>193</ele>
        <time>2017-05-24T09:50:40Z</time>
      </trkpt>
      <trkpt lat="45.93991" lon="4.77929">
        <ele>192</ele>
        <time>2017-05-24T09:50:41Z</time>
      </trkpt>
      <trkpt lat="45.93985" lon="4.77933">
        <ele>192</ele>
        <time>2017-05-24T09:50:42Z</time>
      </trkpt>
      <trkpt lat="45.93978" lon="4.77941">
        <ele>191</ele>
        <time>2017-05-24T09:50:44Z</time>
      </trkpt>
      <trkpt lat="45.93975" lon="4.77943">
        <ele>191</ele>
        <time>2017-05-24T09:50:45Z</time>
      </trkpt>
      <trkpt lat="45.93971" lon="4.77946">
        <ele>191</ele>
        <time>2017-05-24T09:50:46Z</time>
      </trkpt>
      <trkpt lat="45.93967" lon="4.77949">
        <ele>190</ele>
        <time>2017-05-24T09:50:47Z</time>
      </trkpt>
      <trkpt lat="45.93961" lon="4.77953">
        <ele>190</ele>
        <time>2017-05-24T09:50:48Z</time>
      </trkpt>
      <trkpt lat="45.93955" lon="4.77957">
        <ele>190</ele>
        <time>2017-05-24T09:50:49Z</time>
      </trkpt>
      <trkpt lat="45.9395" lon="4.7796">
        <ele>189</ele>
        <time>2017-05-24T09:50:50Z</time>
      </trkpt>
      <trkpt lat="45.93944" lon="4.77963">
        <ele>189</ele>
        <time>2017-05-24T09:50:51Z</time>
      </trkpt>
      <trkpt lat="45.93939" lon="4.77966">
        <ele>189</ele>
        <time>2017-05-24T09:50:52Z</time>
      </trkpt>
      <trkpt lat="45.93932" lon="4.7797">
        <ele>189</ele>
        <time>2017-05-24T09:50:53Z</time>
      </trkpt>
      <trkpt lat="45.93927" lon="4.77973">
        <ele>188</ele>
        <time>2017-05-24T09:50:54Z</time>
      </trkpt>
      <trkpt lat="45.93921" lon="4.77977">
        <ele>188</ele>
        <time>2017-05-24T09:50:55Z</time>
      </trkpt>
      <trkpt lat="45.93914" lon="4.77982">
        <ele>183</ele>
        <time>2017-05-24T09:50:56Z</time>
      </trkpt>
      <trkpt lat="45.93908" lon="4.77986">
        <ele>183</ele>
        <time>2017-05-24T09:50:57Z</time>
      </trkpt>
      <trkpt lat="45.93903" lon="4.77991">
        <ele>183</ele>
        <time>2017-05-24T09:50:58Z</time>
      </trkpt>
      <trkpt lat="45.93899" lon="4.77995">
        <ele>182</ele>
        <time>2017-05-24T09:50:59Z</time>
      </trkpt>
      <trkpt lat="45.93895" lon="4.77999">
        <ele>182</ele>
        <time>2017-05-24T09:51:00Z</time>
      </trkpt>
      <trkpt lat="45.93891" lon="4.78004">
        <ele>184</ele>
        <time>2017-05-24T09:51:01Z</time>
      </trkpt>
      <trkpt lat="45.93887" lon="4.78008">
        <ele>184</ele>
        <time>2017-05-24T09:51:02Z</time>
      </trkpt>
      <trkpt lat="45.93883" lon="4.78011">
        <ele>184</ele>
        <time>2017-05-24T09:51:03Z</time>
      </trkpt>
      <trkpt lat="45.93878" lon="4.78013">
        <ele>184</ele>
        <time>2017-05-24T09:51:04Z</time>
      </trkpt>
      <trkpt lat="45.93873" lon="4.78011">
        <ele>183</ele>
        <time>2017-05-24T09:51:05Z</time>
      </trkpt>
      <trkpt lat="45.93869" lon="4.78007">
        <ele>183</ele>
        <time>2017-05-24T09:51:06Z</time>
      </trkpt>
      <trkpt lat="45.93865" lon="4.78001">
        <ele>183</ele>
        <time>2017-05-24T09:51:07Z</time>
      </trkpt>
      <trkpt lat="45.9386" lon="4.77997">
        <ele>179</ele>
        <time>2017-05-24T09:51:08Z</time>
      </trkpt>
      <trkpt lat="45.93855" lon="4.77994">
        <ele>179</ele>
        <time>2017-05-24T09:51:09Z</time>
      </trkpt>
      <trkpt lat="45.9385" lon="4.7799">
        <ele>179</ele>
        <time>2017-05-24T09:51:10Z</time>
      </trkpt>
      <trkpt lat="45.93845" lon="4.77985">
        <ele>179</ele>
        <time>2017-05-24T09:51:11Z</time>
      </trkpt>
      <trkpt lat="45.9384" lon="4.77981">
        <ele>178</ele>
        <time>2017-05-24T09:51:12Z</time>
      </trkpt>
      <trkpt lat="45.93836" lon="4.77976">
        <ele>178</ele>
        <time>2017-05-24T09:51:13Z</time>
      </trkpt>
      <trkpt lat="45.93833" lon="4.77972">
        <ele>172</ele>
        <time>2017-05-24T09:51:14Z</time>
      </trkpt>
      <trkpt lat="45.93829" lon="4.77967">
        <ele>171</ele>
        <time>2017-05-24T09:51:15Z</time>
      </trkpt>
      <trkpt lat="45.93824" lon="4.77959">
        <ele>170</ele>
        <time>2017-05-24T09:51:17Z</time>
      </trkpt>
      <trkpt lat="45.9382" lon="4.77955">
        <ele>170</ele>
        <time>2017-05-24T09:51:18Z</time>
      </trkpt>
      <trkpt lat="45.93817" lon="4.77951">
        <ele>170</ele>
        <time>2017-05-24T09:51:19Z</time>
      </trkpt>
      <trkpt lat="45.93813" lon="4.77947">
        <ele>169</ele>
        <time>2017-05-24T09:51:20Z</time>
      </trkpt>
      <trkpt lat="45.93809" lon="4.77943">
        <ele>169</ele>
        <time>2017-05-24T09:51:21Z</time>
      </trkpt>
      <trkpt lat="45.93806" lon="4.77938">
        <ele>169</ele>
        <time>2017-05-24T09:51:22Z</time>
      </trkpt>
      <trkpt lat="45.93802" lon="4.77933">
        <ele>168</ele>
        <time>2017-05-24T09:51:23Z</time>
      </trkpt>
      <trkpt lat="45.93798" lon="4.77929">
        <ele>168</ele>
        <time>2017-05-24T09:51:24Z</time>
      </trkpt>
      <trkpt lat="45.93794" lon="4.77923">
        <ele>168</ele>
        <time>2017-05-24T09:51:25Z</time>
      </trkpt>
      <trkpt lat="45.9379" lon="4.77918">
        <ele>168</ele>
        <time>2017-05-24T09:51:26Z</time>
      </trkpt>
      <trkpt lat="45.93786" lon="4.77913">
        <ele>166</ele>
        <time>2017-05-24T09:51:27Z</time>
      </trkpt>
      <trkpt lat="45.93783" lon="4.77908">
        <ele>166</ele>
        <time>2017-05-24T09:51:28Z</time>
      </trkpt>
      <trkpt lat="45.9378" lon="4.77903">
        <ele>166</ele>
        <time>2017-05-24T09:51:29Z</time>
      </trkpt>
      <trkpt lat="45.93777" lon="4.77898">
        <ele>166</ele>
        <time>2017-05-24T09:51:30Z</time>
      </trkpt>
      <trkpt lat="45.9377" lon="4.7789">
        <ele>166</ele>
        <time>2017-05-24T09:51:32Z</time>
      </trkpt>
      <trkpt lat="45.93767" lon="4.77886">
        <ele>166</ele>
        <time>2017-05-24T09:51:33Z</time>
      </trkpt>
      <trkpt lat="45.9376" lon="4.77878">
        <ele>166</ele>
        <time>2017-05-24T09:51:35Z</time>
      </trkpt>
      <trkpt lat="45.93757" lon="4.77873">
        <ele>166</ele>
        <time>2017-05-24T09:51:36Z</time>
      </trkpt>
      <trkpt lat="45.93753" lon="4.77869">
        <ele>166</ele>
        <time>2017-05-24T09:51:37Z</time>
      </trkpt>
      <trkpt lat="45.93749" lon="4.77864">
        <ele>167</ele>
        <time>2017-05-24T09:51:38Z</time>
      </trkpt>
      <trkpt lat="45.93745" lon="4.77859">
        <ele>167</ele>
        <time>2017-05-24T09:51:39Z</time>
      </trkpt>
      <trkpt lat="45.93741" lon="4.77854">
        <ele>167</ele>
        <time>2017-05-24T09:51:40Z</time>
      </trkpt>
      <trkpt lat="45.93737" lon="4.77848">
        <ele>167</ele>
        <time>2017-05-24T09:51:41Z</time>
      </trkpt>
      <trkpt lat="45.93733" lon="4.77843">
        <ele>167</ele>
        <time>2017-05-24T09:51:42Z</time>
      </trkpt>
      <trkpt lat="45.93729" lon="4.77839">
        <ele>167</ele>
        <time>2017-05-24T09:51:43Z</time>
      </trkpt>
      <trkpt lat="45.93725" lon="4.77834">
        <ele>167</ele>
        <time>2017-05-24T09:51:44Z</time>
      </trkpt>
      <trkpt lat="45.93721" lon="4.77829">
        <ele>168</ele>
        <time>2017-05-24T09:51:45Z</time>
      </trkpt>
      <trkpt lat="45.93717" lon="4.77824">
        <ele>169</ele>
        <time>2017-05-24T09:51:46Z</time>
      </trkpt>
      <trkpt lat="45.93713" lon="4.77819">
        <ele>169</ele>
        <time>2017-05-24T09:51:47Z</time>
      </trkpt>
      <trkpt lat="45.93709" lon="4.77812">
        <ele>169</ele>
        <time>2017-05-24T09:51:48Z</time>
      </trkpt>
      <trkpt lat="45.93705" lon="4.77806">
        <ele>169</ele>
        <time>2017-05-24T09:51:49Z</time>
      </trkpt>
      <trkpt lat="45.93701" lon="4.778">
        <ele>169</ele>
        <time>2017-05-24T09:51:50Z</time>
      </trkpt>
      <trkpt lat="45.93696" lon="4.77794">
        <ele>169</ele>
        <time>2017-05-24T09:51:51Z</time>
      </trkpt>
      <trkpt lat="45.93691" lon="4.77788">
        <ele>170</ele>
        <time>2017-05-24T09:51:52Z</time>
      </trkpt>
      <trkpt lat="45.93686" lon="4.77782">
        <ele>170</ele>
        <time>2017-05-24T09:51:53Z</time>
      </trkpt>
      <trkpt lat="45.93682" lon="4.77775">
        <ele>170</ele>
        <time>2017-05-24T09:51:54Z</time>
      </trkpt>
      <trkpt lat="45.93677" lon="4.77768">
        <ele>170</ele>
        <time>2017-05-24T09:51:55Z</time>
      </trkpt>
      <trkpt lat="45.93672" lon="4.7776">
        <ele>170</ele>
        <time>2017-05-24T09:51:56Z</time>
      </trkpt>
      <trkpt lat="45.93667" lon="4.77752">
        <ele>171</ele>
        <time>2017-05-24T09:51:57Z</time>
      </trkpt>
      <trkpt lat="45.93662" lon="4.77744">
        <ele>171</ele>
        <time>2017-05-24T09:51:58Z</time>
      </trkpt>
      <trkpt lat="45.93657" lon="4.77735">
        <ele>170</ele>
        <time>2017-05-24T09:51:59Z</time>
      </trkpt>
      <trkpt lat="45.93652" lon="4.77727">
        <ele>170</ele>
        <time>2017-05-24T09:52:00Z</time>
      </trkpt>
      <trkpt lat="45.93647" lon="4.77718">
        <ele>170</ele>
        <time>2017-05-24T09:52:01Z</time>
      </trkpt>
      <trkpt lat="45.93642" lon="4.77708">
        <ele>170</ele>
        <time>2017-05-24T09:52:02Z</time>
      </trkpt>
      <trkpt lat="45.93636" lon="4.77698">
        <ele>169</ele>
        <time>2017-05-24T09:52:03Z</time>
      </trkpt>
      <trkpt lat="45.93631" lon="4.77688">
        <ele>169</ele>
        <time>2017-05-24T09:52:04Z</time>
      </trkpt>
      <trkpt lat="45.93626" lon="4.77677">
        <ele>169</ele>
        <time>2017-05-24T09:52:05Z</time>
      </trkpt>
      <trkpt lat="45.93621" lon="4.77667">
        <ele>169</ele>
        <time>2017-05-24T09:52:06Z</time>
      </trkpt>
      <trkpt lat="45.93617" lon="4.77657">
        <ele>169</ele>
        <time>2017-05-24T09:52:07Z</time>
      </trkpt>
      <trkpt lat="45.93612" lon="4.77646">
        <ele>169</ele>
        <time>2017-05-24T09:52:08Z</time>
      </trkpt>
      <trkpt lat="45.93608" lon="4.77636">
        <ele>169</ele>
        <time>2017-05-24T09:52:09Z</time>
      </trkpt>
      <trkpt lat="45.93604" lon="4.77626">
        <ele>169</ele>
        <time>2017-05-24T09:52:10Z</time>
      </trkpt>
      <trkpt lat="45.93601" lon="4.77616">
        <ele>170</ele>
        <time>2017-05-24T09:52:11Z</time>
      </trkpt>
      <trkpt lat="45.93597" lon="4.77605">
        <ele>170</ele>
        <time>2017-05-24T09:52:12Z</time>
      </trkpt>
      <trkpt lat="45.93594" lon="4.77596">
        <ele>170</ele>
        <time>2017-05-24T09:52:13Z</time>
      </trkpt>
      <trkpt lat="45.93591" lon="4.77586">
        <ele>170</ele>
        <time>2017-05-24T09:52:14Z</time>
      </trkpt>
      <trkpt lat="45.93588" lon="4.77577">
        <ele>170</ele>
        <time>2017-05-24T09:52:15Z</time>
      </trkpt>
      <trkpt lat="45.93585" lon="4.77567">
        <ele>170</ele>
        <time>2017-05-24T09:52:16Z</time>
      </trkpt>
      <trkpt lat="45.93582" lon="4.77558">
        <ele>169</ele>
        <time>2017-05-24T09:52:17Z</time>
      </trkpt>
      <trkpt lat="45.9358" lon="4.7755">
        <ele>169</ele>
        <time>2017-05-24T09:52:18Z</time>
      </trkpt>
      <trkpt lat="45.93578" lon="4.77542">
        <ele>169</ele>
        <time>2017-05-24T09:52:19Z</time>
      </trkpt>
      <trkpt lat="45.93576" lon="4.77533">
        <ele>169</ele>
        <time>2017-05-24T09:52:20Z</time>
      </trkpt>
      <trkpt lat="45.93573" lon="4.77525">
        <ele>169</ele>
        <time>2017-05-24T09:52:21Z</time>
      </trkpt>
      <trkpt lat="45.93571" lon="4.77517">
        <ele>169</ele>
        <time>2017-05-24T09:52:22Z</time>
      </trkpt>
      <trkpt lat="45.93569" lon="4.77509">
        <ele>169</ele>
        <time>2017-05-24T09:52:23Z</time>
      </trkpt>
      <trkpt lat="45.93568" lon="4.77502">
        <ele>169</ele>
        <time>2017-05-24T09:52:24Z</time>
      </trkpt>
      <trkpt lat="45.93566" lon="4.77494">
        <ele>169</ele>
        <time>2017-05-24T09:52:25Z</time>
      </trkpt>
      <trkpt lat="45.93564" lon="4.77487">
        <ele>169</ele>
        <time>2017-05-24T09:52:26Z</time>
      </trkpt>
      <trkpt lat="45.93563" lon="4.7748">
        <ele>169</ele>
        <time>2017-05-24T09:52:27Z</time>
      </trkpt>
      <trkpt lat="45.93561" lon="4.77472">
        <ele>169</ele>
        <time>2017-05-24T09:52:28Z</time>
      </trkpt>
      <trkpt lat="45.93559" lon="4.77465">
        <ele>169</ele>
        <time>2017-05-24T09:52:29Z</time>
      </trkpt>
      <trkpt lat="45.93558" lon="4.77457">
        <ele>169</ele>
        <time>2017-05-24T09:52:30Z</time>
      </trkpt>
      <trkpt lat="45.93556" lon="4.77449">
        <ele>169</ele>
        <time>2017-05-24T09:52:31Z</time>
      </trkpt>
      <trkpt lat="45.93553" lon="4.77442">
        <ele>169</ele>
        <time>2017-05-24T09:52:32Z</time>
      </trkpt>
      <trkpt lat="45.93552" lon="4.77434">
        <ele>169</ele>
        <time>2017-05-24T09:52:33Z</time>
      </trkpt>
      <trkpt lat="45.9355" lon="4.77427">
        <ele>170</ele>
        <time>2017-05-24T09:52:34Z</time>
      </trkpt>
      <trkpt lat="45.93548" lon="4.77419">
        <ele>170</ele>
        <time>2017-05-24T09:52:35Z</time>
      </trkpt>
      <trkpt lat="45.93546" lon="4.77411">
        <ele>170</ele>
        <time>2017-05-24T09:52:36Z</time>
      </trkpt>
      <trkpt lat="45.93545" lon="4.77403">
        <ele>170</ele>
        <time>2017-05-24T09:52:37Z</time>
      </trkpt>
      <trkpt lat="45.93543" lon="4.77394">
        <ele>170</ele>
        <time>2017-05-24T09:52:38Z</time>
      </trkpt>
      <trkpt lat="45.93541" lon="4.77386">
        <ele>170</ele>
        <time>2017-05-24T09:52:39Z</time>
      </trkpt>
      <trkpt lat="45.93539" lon="4.77377">
        <ele>170</ele>
        <time>2017-05-24T09:52:40Z</time>
      </trkpt>
      <trkpt lat="45.93537" lon="4.77368">
        <ele>170</ele>
        <time>2017-05-24T09:52:41Z</time>
      </trkpt>
      <trkpt lat="45.93536" lon="4.77359">
        <ele>170</ele>
        <time>2017-05-24T09:52:42Z</time>
      </trkpt>
      <trkpt lat="45.93534" lon="4.7735">
        <ele>170</ele>
        <time>2017-05-24T09:52:43Z</time>
      </trkpt>
      <trkpt lat="45.93531" lon="4.7734">
        <ele>170</ele>
        <time>2017-05-24T09:52:44Z</time>
      </trkpt>
      <trkpt lat="45.93529" lon="4.77331">
        <ele>170</ele>
        <time>2017-05-24T09:52:45Z</time>
      </trkpt>
      <trkpt lat="45.93528" lon="4.77322">
        <ele>170</ele>
        <time>2017-05-24T09:52:46Z</time>
      </trkpt>
      <trkpt lat="45.93526" lon="4.77313">
        <ele>170</ele>
        <time>2017-05-24T09:52:47Z</time>
      </trkpt>
      <trkpt lat="45.93524" lon="4.77304">
        <ele>170</ele>
        <time>2017-05-24T09:52:48Z</time>
      </trkpt>
      <trkpt lat="45.93521" lon="4.77296">
        <ele>170</ele>
        <time>2017-05-24T09:52:49Z</time>
      </trkpt>
      <trkpt lat="45.9352" lon="4.77287">
        <ele>170</ele>
        <time>2017-05-24T09:52:50Z</time>
      </trkpt>
      <trkpt lat="45.93518" lon="4.77279">
        <ele>170</ele>
        <time>2017-05-24T09:52:51Z</time>
      </trkpt>
      <trkpt lat="45.93516" lon="4.77272">
        <ele>170</ele>
        <time>2017-05-24T09:52:52Z</time>
      </trkpt>
      <trkpt lat="45.93514" lon="4.77264">
        <ele>170</ele>
        <time>2017-05-24T09:52:53Z</time>
      </trkpt>
      <trkpt lat="45.93512" lon="4.77256">
        <ele>170</ele>
        <time>2017-05-24T09:52:54Z</time>
      </trkpt>
      <trkpt lat="45.9351" lon="4.77249">
        <ele>169</ele>
        <time>2017-05-24T09:52:55Z</time>
      </trkpt>
      <trkpt lat="45.93509" lon="4.77241">
        <ele>169</ele>
        <time>2017-05-24T09:52:56Z</time>
      </trkpt>
      <trkpt lat="45.93507" lon="4.77232">
        <ele>169</ele>
        <time>2017-05-24T09:52:57Z</time>
      </trkpt>
      <trkpt lat="45.93505" lon="4.77223">
        <ele>169</ele>
        <time>2017-05-24T09:52:58Z</time>
      </trkpt>
      <trkpt lat="45.93503" lon="4.77215">
        <ele>169</ele>
        <time>2017-05-24T09:52:59Z</time>
      </trkpt>
      <trkpt lat="45.93501" lon="4.77206">
        <ele>169</ele>
        <time>2017-05-24T09:53:00Z</time>
      </trkpt>
      <trkpt lat="45.93499" lon="4.77198">
        <ele>169</ele>
        <time>2017-05-24T09:53:01Z</time>
      </trkpt>
      <trkpt lat="45.93497" lon="4.7719">
        <ele>169</ele>
        <time>2017-05-24T09:53:02Z</time>
      </trkpt>
      <trkpt lat="45.93495" lon="4.77182">
        <ele>169</ele>
        <time>2017-05-24T09:53:03Z</time>
      </trkpt>
      <trkpt lat="45.93494" lon="4.77174">
        <ele>169</ele>
        <time>2017-05-24T09:53:04Z</time>
      </trkpt>
      <trkpt lat="45.93492" lon="4.77167">
        <ele>169</ele>
        <time>2017-05-24T09:53:05Z</time>
      </trkpt>
      <trkpt lat="45.93491" lon="4.7716">
        <ele>169</ele>
        <time>2017-05-24T09:53:06Z</time>
      </trkpt>
      <trkpt lat="45.93489" lon="4.77153">
        <ele>169</ele>
        <time>2017-05-24T09:53:07Z</time>
      </trkpt>
      <trkpt lat="45.93488" lon="4.77146">
        <ele>169</ele>
        <time>2017-05-24T09:53:08Z</time>
      </trkpt>
      <trkpt lat="45.93486" lon="4.77138">
        <ele>169</ele>
        <time>2017-05-24T09:53:09Z</time>
      </trkpt>
      <trkpt lat="45.93484" lon="4.7713">
        <ele>169</ele>
        <time>2017-05-24T09:53:10Z</time>
      </trkpt>
      <trkpt lat="45.93483" lon="4.77122">
        <ele>169</ele>
        <time>2017-05-24T09:53:11Z</time>
      </trkpt>
      <trkpt lat="45.93481" lon="4.77113">
        <ele>169</ele>
        <time>2017-05-24T09:53:12Z</time>
      </trkpt>
      <trkpt lat="45.9348" lon="4.77105">
        <ele>169</ele>
        <time>2017-05-24T09:53:13Z</time>
      </trkpt>
      <trkpt lat="45.93478" lon="4.77096">
        <ele>169</ele>
        <time>2017-05-24T09:53:14Z</time>
      </trkpt>
      <trkpt lat="45.93477" lon="4.77088">
        <ele>169</ele>
        <time>2017-05-24T09:53:15Z</time>
      </trkpt>
      <trkpt lat="45.93476" lon="4.7708">
        <ele>170</ele>
        <time>2017-05-24T09:53:16Z</time>
      </trkpt>
      <trkpt lat="45.93474" lon="4.77072">
        <ele>170</ele>
        <time>2017-05-24T09:53:17Z</time>
      </trkpt>
      <trkpt lat="45.93472" lon="4.77064">
        <ele>170</ele>
        <time>2017-05-24T09:53:18Z</time>
      </trkpt>
      <trkpt lat="45.93471" lon="4.77056">
        <ele>170</ele>
        <time>2017-05-24T09:53:19Z</time>
      </trkpt>
      <trkpt lat="45.93469" lon="4.77049">
        <ele>170</ele>
        <time>2017-05-24T09:53:20Z</time>
      </trkpt>
      <trkpt lat="45.93468" lon="4.77041">
        <ele>170</ele>
        <time>2017-05-24T09:53:21Z</time>
      </trkpt>
      <trkpt lat="45.93467" lon="4.77033">
        <ele>170</ele>
        <time>2017-05-24T09:53:22Z</time>
      </trkpt>
      <trkpt lat="45.93466" lon="4.77024">
        <ele>170</ele>
        <time>2017-05-24T09:53:23Z</time>
      </trkpt>
      <trkpt lat="45.93465" lon="4.77017">
        <ele>170</ele>
        <time>2017-05-24T09:53:24Z</time>
      </trkpt>
      <trkpt lat="45.93464" lon="4.77009">
        <ele>170</ele>
        <time>2017-05-24T09:53:25Z</time>
      </trkpt>
      <trkpt lat="45.93462" lon="4.77">
        <ele>170</ele>
        <time>2017-05-24T09:53:26Z</time>
      </trkpt>
      <trkpt lat="45.93461" lon="4.76992">
        <ele>170</ele>
        <time>2017-05-24T09:53:27Z</time>
      </trkpt>
      <trkpt lat="45.9346" lon="4.76984">
        <ele>170</ele>
        <time>2017-05-24T09:53:28Z</time>
      </trkpt>
      <trkpt lat="45.93459" lon="4.76975">
        <ele>170</ele>
        <time>2017-05-24T09:53:29Z</time>
      </trkpt>
      <trkpt lat="45.93458" lon="4.76967">
        <ele>170</ele>
        <time>2017-05-24T09:53:30Z</time>
      </trkpt>
      <trkpt lat="45.93456" lon="4.76958">
        <ele>170</ele>
        <time>2017-05-24T09:53:31Z</time>
      </trkpt>
      <trkpt lat="45.93455" lon="4.7695">
        <ele>170</ele>
        <time>2017-05-24T09:53:32Z</time>
      </trkpt>
      <trkpt lat="45.93454" lon="4.76943">
        <ele>170</ele>
        <time>2017-05-24T09:53:33Z</time>
      </trkpt>
      <trkpt lat="45.93453" lon="4.76935">
        <ele>170</ele>
        <time>2017-05-24T09:53:34Z</time>
      </trkpt>
      <trkpt lat="45.93452" lon="4.76928">
        <ele>170</ele>
        <time>2017-05-24T09:53:35Z</time>
      </trkpt>
      <trkpt lat="45.9345" lon="4.76921">
        <ele>170</ele>
        <time>2017-05-24T09:53:36Z</time>
      </trkpt>
      <trkpt lat="45.93448" lon="4.76913">
        <ele>170</ele>
        <time>2017-05-24T09:53:37Z</time>
      </trkpt>
      <trkpt lat="45.93446" lon="4.76904">
        <ele>170</ele>
        <time>2017-05-24T09:53:38Z</time>
      </trkpt>
      <trkpt lat="45.93444" lon="4.76895">
        <ele>170</ele>
        <time>2017-05-24T09:53:39Z</time>
      </trkpt>
      <trkpt lat="45.93441" lon="4.76886">
        <ele>170</ele>
        <time>2017-05-24T09:53:40Z</time>
      </trkpt>
      <trkpt lat="45.93438" lon="4.76877">
        <ele>171</ele>
        <time>2017-05-24T09:53:41Z</time>
      </trkpt>
      <trkpt lat="45.93435" lon="4.76869">
        <ele>171</ele>
        <time>2017-05-24T09:53:42Z</time>
      </trkpt>
      <trkpt lat="45.93432" lon="4.76861">
        <ele>171</ele>
        <time>2017-05-24T09:53:43Z</time>
      </trkpt>
      <trkpt lat="45.93428" lon="4.76853">
        <ele>171</ele>
        <time>2017-05-24T09:53:44Z</time>
      </trkpt>
      <trkpt lat="45.93425" lon="4.76846">
        <ele>171</ele>
        <time>2017-05-24T09:53:45Z</time>
      </trkpt>
      <trkpt lat="45.93421" lon="4.76839">
        <ele>172</ele>
        <time>2017-05-24T09:53:46Z</time>
      </trkpt>
      <trkpt lat="45.93418" lon="4.76832">
        <ele>172</ele>
        <time>2017-05-24T09:53:47Z</time>
      </trkpt>
      <trkpt lat="45.93414" lon="4.76826">
        <ele>172</ele>
        <time>2017-05-24T09:53:48Z</time>
      </trkpt>
      <trkpt lat="45.9341" lon="4.7682">
        <ele>172</ele>
        <time>2017-05-24T09:53:49Z</time>
      </trkpt>
      <trkpt lat="45.93406" lon="4.76814">
        <ele>172</ele>
        <time>2017-05-24T09:53:50Z</time>
      </trkpt>
      <trkpt lat="45.93403" lon="4.76809">
        <ele>172</ele>
        <time>2017-05-24T09:53:51Z</time>
      </trkpt>
      <trkpt lat="45.93399" lon="4.76804">
        <ele>172</ele>
        <time>2017-05-24T09:53:52Z</time>
      </trkpt>
      <trkpt lat="45.93395" lon="4.76799">
        <ele>172</ele>
        <time>2017-05-24T09:53:53Z</time>
      </trkpt>
      <trkpt lat="45.93391" lon="4.76794">
        <ele>172</ele>
        <time>2017-05-24T09:53:54Z</time>
      </trkpt>
      <trkpt lat="45.93386" lon="4.7679">
        <ele>172</ele>
        <time>2017-05-24T09:53:55Z</time>
      </trkpt>
      <trkpt lat="45.93381" lon="4.76785">
        <ele>172</ele>
        <time>2017-05-24T09:53:56Z</time>
      </trkpt>
      <trkpt lat="45.93377" lon="4.76779">
        <ele>172</ele>
        <time>2017-05-24T09:53:57Z</time>
      </trkpt>
      <trkpt lat="45.93372" lon="4.76774">
        <ele>172</ele>
        <time>2017-05-24T09:53:58Z</time>
      </trkpt>
      <trkpt lat="45.93367" lon="4.7677">
        <ele>172</ele>
        <time>2017-05-24T09:53:59Z</time>
      </trkpt>
      <trkpt lat="45.93362" lon="4.76765">
        <ele>172</ele>
        <time>2017-05-24T09:54:00Z</time>
      </trkpt>
      <trkpt lat="45.93357" lon="4.76761">
        <ele>172</ele>
        <time>2017-05-24T09:54:01Z</time>
      </trkpt>
      <trkpt lat="45.93352" lon="4.76756">
        <ele>172</ele>
        <time>2017-05-24T09:54:02Z</time>
      </trkpt>
      <trkpt lat="45.93347" lon="4.76752">
        <ele>172</ele>
        <time>2017-05-24T09:54:03Z</time>
      </trkpt>
      <trkpt lat="45.93343" lon="4.76747">
        <ele>173</ele>
        <time>2017-05-24T09:54:04Z</time>
      </trkpt>
      <trkpt lat="45.93338" lon="4.76742">
        <ele>173</ele>
        <time>2017-05-24T09:54:05Z</time>
      </trkpt>
      <trkpt lat="45.93333" lon="4.76737">
        <ele>172</ele>
        <time>2017-05-24T09:54:06Z</time>
      </trkpt>
      <trkpt lat="45.93328" lon="4.76732">
        <ele>172</ele>
        <time>2017-05-24T09:54:07Z</time>
      </trkpt>
      <trkpt lat="45.93323" lon="4.76727">
        <ele>172</ele>
        <time>2017-05-24T09:54:08Z</time>
      </trkpt>
      <trkpt lat="45.93318" lon="4.76722">
        <ele>172</ele>
        <time>2017-05-24T09:54:09Z</time>
      </trkpt>
      <trkpt lat="45.93312" lon="4.76717">
        <ele>172</ele>
        <time>2017-05-24T09:54:10Z</time>
      </trkpt>
      <trkpt lat="45.93307" lon="4.76712">
        <ele>172</ele>
        <time>2017-05-24T09:54:11Z</time>
      </trkpt>
      <trkpt lat="45.93302" lon="4.76707">
        <ele>172</ele>
        <time>2017-05-24T09:54:12Z</time>
      </trkpt>
      <trkpt lat="45.93298" lon="4.76702">
        <ele>172</ele>
        <time>2017-05-24T09:54:13Z</time>
      </trkpt>
      <trkpt lat="45.93294" lon="4.76697">
        <ele>172</ele>
        <time>2017-05-24T09:54:14Z</time>
      </trkpt>
      <trkpt lat="45.93289" lon="4.76692">
        <ele>172</ele>
        <time>2017-05-24T09:54:15Z</time>
      </trkpt>
      <trkpt lat="45.93284" lon="4.76688">
        <ele>172</ele>
        <time>2017-05-24T09:54:16Z</time>
      </trkpt>
      <trkpt lat="45.93279" lon="4.76682">
        <ele>172</ele>
        <time>2017-05-24T09:54:17Z</time>
      </trkpt>
      <trkpt lat="45.93273" lon="4.76676">
        <ele>172</ele>
        <time>2017-05-24T09:54:18Z</time>
      </trkpt>
      <trkpt lat="45.93268" lon="4.76671">
        <ele>172</ele>
        <time>2017-05-24T09:54:19Z</time>
      </trkpt>
      <trkpt lat="45.93262" lon="4.76665">
        <ele>171</ele>
        <time>2017-05-24T09:54:20Z</time>
      </trkpt>
      <trkpt lat="45.93258" lon="4.7666">
        <ele>171</ele>
        <time>2017-05-24T09:54:21Z</time>
      </trkpt>
      <trkpt lat="45.93253" lon="4.76654">
        <ele>171</ele>
        <time>2017-05-24T09:54:22Z</time>
      </trkpt>
      <trkpt lat="45.93248" lon="4.76649">
        <ele>171</ele>
        <time>2017-05-24T09:54:23Z</time>
      </trkpt>
      <trkpt lat="45.93243" lon="4.76645">
        <ele>171</ele>
        <time>2017-05-24T09:54:24Z</time>
      </trkpt>
      <trkpt lat="45.93238" lon="4.7664">
        <ele>171</ele>
        <time>2017-05-24T09:54:25Z</time>
      </trkpt>
      <trkpt lat="45.93234" lon="4.76636">
        <ele>171</ele>
        <time>2017-05-24T09:54:26Z</time>
      </trkpt>
      <trkpt lat="45.93229" lon="4.76631">
        <ele>170</ele>
        <time>2017-05-24T09:54:27Z</time>
      </trkpt>
      <trkpt lat="45.93224" lon="4.76626">
        <ele>170</ele>
        <time>2017-05-24T09:54:28Z</time>
      </trkpt>
      <trkpt lat="45.93219" lon="4.76621">
        <ele>170</ele>
        <time>2017-05-24T09:54:29Z</time>
      </trkpt>
      <trkpt lat="45.93215" lon="4.76616">
        <ele>170</ele>
        <time>2017-05-24T09:54:30Z</time>
      </trkpt>
      <trkpt lat="45.9321" lon="4.76611">
        <ele>170</ele>
        <time>2017-05-24T09:54:31Z</time>
      </trkpt>
      <trkpt lat="45.93205" lon="4.76606">
        <ele>170</ele>
        <time>2017-05-24T09:54:32Z</time>
      </trkpt>
      <trkpt lat="45.93199" lon="4.766">
        <ele>170</ele>
        <time>2017-05-24T09:54:33Z</time>
      </trkpt>
      <trkpt lat="45.93194" lon="4.76595">
        <ele>170</ele>
        <time>2017-05-24T09:54:34Z</time>
      </trkpt>
      <trkpt lat="45.93188" lon="4.7659">
        <ele>170</ele>
        <time>2017-05-24T09:54:35Z</time>
      </trkpt>
      <trkpt lat="45.93183" lon="4.76584">
        <ele>171</ele>
        <time>2017-05-24T09:54:36Z</time>
      </trkpt>
      <trkpt lat="45.93178" lon="4.76579">
        <ele>170</ele>
        <time>2017-05-24T09:54:37Z</time>
      </trkpt>
      <trkpt lat="45.93173" lon="4.76574">
        <ele>170</ele>
        <time>2017-05-24T09:54:38Z</time>
      </trkpt>
      <trkpt lat="45.93169" lon="4.76569">
        <ele>170</ele>
        <time>2017-05-24T09:54:39Z</time>
      </trkpt>
      <trkpt lat="45.93164" lon="4.76564">
        <ele>170</ele>
        <time>2017-05-24T09:54:40Z</time>
      </trkpt>
      <trkpt lat="45.93159" lon="4.7656">
        <ele>170</ele>
        <time>2017-05-24T09:54:41Z</time>
      </trkpt>
      <trkpt lat="45.93155" lon="4.76555">
        <ele>170</ele>
        <time>2017-05-24T09:54:42Z</time>
      </trkpt>
      <trkpt lat="45.93151" lon="4.7655">
        <ele>170</ele>
        <time>2017-05-24T09:54:43Z</time>
      </trkpt>
      <trkpt lat="45.93146" lon="4.76546">
        <ele>170</ele>
        <time>2017-05-24T09:54:44Z</time>
      </trkpt>
      <trkpt lat="45.93142" lon="4.76542">
        <ele>170</ele>
        <time>2017-05-24T09:54:45Z</time>
      </trkpt>
      <trkpt lat="45.93138" lon="4.76538">
        <ele>170</ele>
        <time>2017-05-24T09:54:46Z</time>
      </trkpt>
      <trkpt lat="45.93134" lon="4.76533">
        <ele>170</ele>
        <time>2017-05-24T09:54:47Z</time>
      </trkpt>
      <trkpt lat="45.93129" lon="4.7653">
        <ele>170</ele>
        <time>2017-05-24T09:54:48Z</time>
      </trkpt>
      <trkpt lat="45.93124" lon="4.76525">
        <ele>170</ele>
        <time>2017-05-24T09:54:49Z</time>
      </trkpt>
      <trkpt lat="45.9312" lon="4.7652">
        <ele>170</ele>
        <time>2017-05-24T09:54:50Z</time>
      </trkpt>
      <trkpt lat="45.93114" lon="4.76515">
        <ele>170</ele>
        <time>2017-05-24T09:54:51Z</time>
      </trkpt>
      <trkpt lat="45.93107" lon="4.7651">
        <ele>170</ele>
        <time>2017-05-24T09:54:52Z</time>
      </trkpt>
      <trkpt lat="45.93101" lon="4.76505">
        <ele>170</ele>
        <time>2017-05-24T09:54:53Z</time>
      </trkpt>
      <trkpt lat="45.93095" lon="4.76499">
        <ele>170</ele>
        <time>2017-05-24T09:54:54Z</time>
      </trkpt>
      <trkpt lat="45.9309" lon="4.76495">
        <ele>170</ele>
        <time>2017-05-24T09:54:55Z</time>
      </trkpt>
      <trkpt lat="45.93085" lon="4.7649">
        <ele>170</ele>
        <time>2017-05-24T09:54:56Z</time>
      </trkpt>
      <trkpt lat="45.9308" lon="4.76486">
        <ele>170</ele>
        <time>2017-05-24T09:54:57Z</time>
      </trkpt>
      <trkpt lat="45.93076" lon="4.76482">
        <ele>169</ele>
        <time>2017-05-24T09:54:58Z</time>
      </trkpt>
      <trkpt lat="45.93072" lon="4.76478">
        <ele>169</ele>
        <time>2017-05-24T09:54:59Z</time>
      </trkpt>
      <trkpt lat="45.93068" lon="4.76473">
        <ele>169</ele>
        <time>2017-05-24T09:55:00Z</time>
      </trkpt>
      <trkpt lat="45.93063" lon="4.76468">
        <ele>169</ele>
        <time>2017-05-24T09:55:01Z</time>
      </trkpt>
      <trkpt lat="45.93059" lon="4.76463">
        <ele>169</ele>
        <time>2017-05-24T09:55:02Z</time>
      </trkpt>
      <trkpt lat="45.93054" lon="4.76458">
        <ele>169</ele>
        <time>2017-05-24T09:55:03Z</time>
      </trkpt>
      <trkpt lat="45.93049" lon="4.76453">
        <ele>169</ele>
        <time>2017-05-24T09:55:04Z</time>
      </trkpt>
      <trkpt lat="45.93044" lon="4.76448">
        <ele>169</ele>
        <time>2017-05-24T09:55:05Z</time>
      </trkpt>
      <trkpt lat="45.93039" lon="4.76443">
        <ele>169</ele>
        <time>2017-05-24T09:55:06Z</time>
      </trkpt>
      <trkpt lat="45.93034" lon="4.76438">
        <ele>169</ele>
        <time>2017-05-24T09:55:07Z</time>
      </trkpt>
      <trkpt lat="45.9303" lon="4.76434">
        <ele>169</ele>
        <time>2017-05-24T09:55:08Z</time>
      </trkpt>
      <trkpt lat="45.93025" lon="4.76429">
        <ele>169</ele>
        <time>2017-05-24T09:55:09Z</time>
      </trkpt>
      <trkpt lat="45.9302" lon="4.76425">
        <ele>169</ele>
        <time>2017-05-24T09:55:10Z</time>
      </trkpt>
      <trkpt lat="45.93016" lon="4.76421">
        <ele>169</ele>
        <time>2017-05-24T09:55:11Z</time>
      </trkpt>
      <trkpt lat="45.93011" lon="4.76417">
        <ele>169</ele>
        <time>2017-05-24T09:55:12Z</time>
      </trkpt>
      <trkpt lat="45.93007" lon="4.76413">
        <ele>169</ele>
        <time>2017-05-24T09:55:13Z</time>
      </trkpt>
      <trkpt lat="45.93003" lon="4.76409">
        <ele>169</ele>
        <time>2017-05-24T09:55:14Z</time>
      </trkpt>
      <trkpt lat="45.92999" lon="4.76404">
        <ele>169</ele>
        <time>2017-05-24T09:55:15Z</time>
      </trkpt>
      <trkpt lat="45.92994" lon="4.764">
        <ele>169</ele>
        <time>2017-05-24T09:55:16Z</time>
      </trkpt>
      <trkpt lat="45.9299" lon="4.76395">
        <ele>169</ele>
        <time>2017-05-24T09:55:17Z</time>
      </trkpt>
      <trkpt lat="45.92985" lon="4.76391">
        <ele>169</ele>
        <time>2017-05-24T09:55:18Z</time>
      </trkpt>
      <trkpt lat="45.92981" lon="4.76386">
        <ele>169</ele>
        <time>2017-05-24T09:55:19Z</time>
      </trkpt>
      <trkpt lat="45.92976" lon="4.76381">
        <ele>169</ele>
        <time>2017-05-24T09:55:20Z</time>
      </trkpt>
      <trkpt lat="45.92972" lon="4.76377">
        <ele>169</ele>
        <time>2017-05-24T09:55:21Z</time>
      </trkpt>
      <trkpt lat="45.92968" lon="4.76373">
        <ele>169</ele>
        <time>2017-05-24T09:55:22Z</time>
      </trkpt>
      <trkpt lat="45.92963" lon="4.76367">
        <ele>169</ele>
        <time>2017-05-24T09:55:23Z</time>
      </trkpt>
      <trkpt lat="45.92958" lon="4.76362">
        <ele>169</ele>
        <time>2017-05-24T09:55:24Z</time>
      </trkpt>
      <trkpt lat="45.92953" lon="4.76358">
        <ele>169</ele>
        <time>2017-05-24T09:55:25Z</time>
      </trkpt>
      <trkpt lat="45.92948" lon="4.76353">
        <ele>169</ele>
        <time>2017-05-24T09:55:26Z</time>
      </trkpt>
      <trkpt lat="45.92944" lon="4.76348">
        <ele>169</ele>
        <time>2017-05-24T09:55:27Z</time>
      </trkpt>
      <trkpt lat="45.9294" lon="4.76344">
        <ele>169</ele>
        <time>2017-05-24T09:55:28Z</time>
      </trkpt>
      <trkpt lat="45.92935" lon="4.7634">
        <ele>169</ele>
        <time>2017-05-24T09:55:29Z</time>
      </trkpt>
      <trkpt lat="45.92931" lon="4.76337">
        <ele>169</ele>
        <time>2017-05-24T09:55:30Z</time>
      </trkpt>
      <trkpt lat="45.92927" lon="4.76332">
        <ele>169</ele>
        <time>2017-05-24T09:55:31Z</time>
      </trkpt>
      <trkpt lat="45.92923" lon="4.76328">
        <ele>169</ele>
        <time>2017-05-24T09:55:32Z</time>
      </trkpt>
      <trkpt lat="45.92919" lon="4.76324">
        <ele>169</ele>
        <time>2017-05-24T09:55:33Z</time>
      </trkpt>
      <trkpt lat="45.92914" lon="4.7632">
        <ele>169</ele>
        <time>2017-05-24T09:55:34Z</time>
      </trkpt>
      <trkpt lat="45.92909" lon="4.76316">
        <ele>169</ele>
        <time>2017-05-24T09:55:35Z</time>
      </trkpt>
      <trkpt lat="45.92905" lon="4.76312">
        <ele>169</ele>
        <time>2017-05-24T09:55:36Z</time>
      </trkpt>
      <trkpt lat="45.929" lon="4.76307">
        <ele>169</ele>
        <time>2017-05-24T09:55:37Z</time>
      </trkpt>
      <trkpt lat="45.92895" lon="4.76302">
        <ele>169</ele>
        <time>2017-05-24T09:55:38Z</time>
      </trkpt>
      <trkpt lat="45.9289" lon="4.76297">
        <ele>169</ele>
        <time>2017-05-24T09:55:39Z</time>
      </trkpt>
      <trkpt lat="45.92885" lon="4.76293">
        <ele>169</ele>
        <time>2017-05-24T09:55:40Z</time>
      </trkpt>
      <trkpt lat="45.92881" lon="4.76288">
        <ele>169</ele>
        <time>2017-05-24T09:55:41Z</time>
      </trkpt>
      <trkpt lat="45.92876" lon="4.76284">
        <ele>169</ele>
        <time>2017-05-24T09:55:42Z</time>
      </trkpt>
      <trkpt lat="45.92872" lon="4.76279">
        <ele>169</ele>
        <time>2017-05-24T09:55:43Z</time>
      </trkpt>
      <trkpt lat="45.92868" lon="4.76275">
        <ele>169</ele>
        <time>2017-05-24T09:55:44Z</time>
      </trkpt>
      <trkpt lat="45.92864" lon="4.76271">
        <ele>169</ele>
        <time>2017-05-24T09:55:45Z</time>
      </trkpt>
      <trkpt lat="45.9286" lon="4.76267">
        <ele>169</ele>
        <time>2017-05-24T09:55:46Z</time>
      </trkpt>
      <trkpt lat="45.92853" lon="4.76259">
        <ele>169</ele>
        <time>2017-05-24T09:55:48Z</time>
      </trkpt>
      <trkpt lat="45.92851" lon="4.76254">
        <ele>169</ele>
        <time>2017-05-24T09:55:49Z</time>
      </trkpt>
      <trkpt lat="45.92847" lon="4.7625">
        <ele>169</ele>
        <time>2017-05-24T09:55:50Z</time>
      </trkpt>
      <trkpt lat="45.92843" lon="4.76245">
        <ele>169</ele>
        <time>2017-05-24T09:55:51Z</time>
      </trkpt>
      <trkpt lat="45.92839" lon="4.76241">
        <ele>169</ele>
        <time>2017-05-24T09:55:52Z</time>
      </trkpt>
      <trkpt lat="45.92834" lon="4.76236">
        <ele>169</ele>
        <time>2017-05-24T09:55:53Z</time>
      </trkpt>
      <trkpt lat="45.92828" lon="4.76231">
        <ele>168</ele>
        <time>2017-05-24T09:55:54Z</time>
      </trkpt>
      <trkpt lat="45.92823" lon="4.76225">
        <ele>168</ele>
        <time>2017-05-24T09:55:55Z</time>
      </trkpt>
      <trkpt lat="45.92817" lon="4.76219">
        <ele>168</ele>
        <time>2017-05-24T09:55:56Z</time>
      </trkpt>
      <trkpt lat="45.92812" lon="4.76214">
        <ele>168</ele>
        <time>2017-05-24T09:55:57Z</time>
      </trkpt>
      <trkpt lat="45.92806" lon="4.76208">
        <ele>168</ele>
        <time>2017-05-24T09:55:58Z</time>
      </trkpt>
      <trkpt lat="45.92802" lon="4.76203">
        <ele>168</ele>
        <time>2017-05-24T09:55:59Z</time>
      </trkpt>
      <trkpt lat="45.92796" lon="4.76198">
        <ele>168</ele>
        <time>2017-05-24T09:56:00Z</time>
      </trkpt>
      <trkpt lat="45.92791" lon="4.76193">
        <ele>168</ele>
        <time>2017-05-24T09:56:01Z</time>
      </trkpt>
      <trkpt lat="45.92786" lon="4.76189">
        <ele>168</ele>
        <time>2017-05-24T09:56:02Z</time>
      </trkpt>
      <trkpt lat="45.9278" lon="4.76184">
        <ele>168</ele>
        <time>2017-05-24T09:56:03Z</time>
      </trkpt>
      <trkpt lat="45.92775" lon="4.76179">
        <ele>167</ele>
        <time>2017-05-24T09:56:04Z</time>
      </trkpt>
      <trkpt lat="45.92771" lon="4.76174">
        <ele>167</ele>
        <time>2017-05-24T09:56:05Z</time>
      </trkpt>
      <trkpt lat="45.92766" lon="4.7617">
        <ele>167</ele>
        <time>2017-05-24T09:56:06Z</time>
      </trkpt>
      <trkpt lat="45.92761" lon="4.76166">
        <ele>167</ele>
        <time>2017-05-24T09:56:07Z</time>
      </trkpt>
      <trkpt lat="45.92756" lon="4.76162">
        <ele>167</ele>
        <time>2017-05-24T09:56:08Z</time>
      </trkpt>
      <trkpt lat="45.92751" lon="4.76157">
        <ele>167</ele>
        <time>2017-05-24T09:56:09Z</time>
      </trkpt>
      <trkpt lat="45.92745" lon="4.76153">
        <ele>168</ele>
        <time>2017-05-24T09:56:10Z</time>
      </trkpt>
      <trkpt lat="45.92739" lon="4.76148">
        <ele>168</ele>
        <time>2017-05-24T09:56:11Z</time>
      </trkpt>
      <trkpt lat="45.92732" lon="4.76144">
        <ele>168</ele>
        <time>2017-05-24T09:56:12Z</time>
      </trkpt>
      <trkpt lat="45.92726" lon="4.76139">
        <ele>168</ele>
        <time>2017-05-24T09:56:13Z</time>
      </trkpt>
      <trkpt lat="45.9272" lon="4.76134">
        <ele>168</ele>
        <time>2017-05-24T09:56:14Z</time>
      </trkpt>
      <trkpt lat="45.92714" lon="4.76131">
        <ele>168</ele>
        <time>2017-05-24T09:56:15Z</time>
      </trkpt>
      <trkpt lat="45.92709" lon="4.76127">
        <ele>168</ele>
        <time>2017-05-24T09:56:16Z</time>
      </trkpt>
      <trkpt lat="45.92704" lon="4.76123">
        <ele>169</ele>
        <time>2017-05-24T09:56:17Z</time>
      </trkpt>
      <trkpt lat="45.92699" lon="4.76119">
        <ele>169</ele>
        <time>2017-05-24T09:56:18Z</time>
      </trkpt>
      <trkpt lat="45.92695" lon="4.76116">
        <ele>169</ele>
        <time>2017-05-24T09:56:19Z</time>
      </trkpt>
      <trkpt lat="45.92691" lon="4.76112">
        <ele>169</ele>
        <time>2017-05-24T09:56:20Z</time>
      </trkpt>
      <trkpt lat="45.92686" lon="4.76108">
        <ele>169</ele>
        <time>2017-05-24T09:56:21Z</time>
      </trkpt>
      <trkpt lat="45.92682" lon="4.76105">
        <ele>169</ele>
        <time>2017-05-24T09:56:22Z</time>
      </trkpt>
      <trkpt lat="45.92677" lon="4.761">
        <ele>169</ele>
        <time>2017-05-24T09:56:23Z</time>
      </trkpt>
      <trkpt lat="45.92672" lon="4.76096">
        <ele>169</ele>
        <time>2017-05-24T09:56:24Z</time>
      </trkpt>
      <trkpt lat="45.92666" lon="4.76092">
        <ele>170</ele>
        <time>2017-05-24T09:56:25Z</time>
      </trkpt>
      <trkpt lat="45.92661" lon="4.76088">
        <ele>170</ele>
        <time>2017-05-24T09:56:26Z</time>
      </trkpt>
      <trkpt lat="45.92655" lon="4.76084">
        <ele>170</ele>
        <time>2017-05-24T09:56:27Z</time>
      </trkpt>
      <trkpt lat="45.9265" lon="4.7608">
        <ele>170</ele>
        <time>2017-05-24T09:56:28Z</time>
      </trkpt>
      <trkpt lat="45.92644" lon="4.76076">
        <ele>170</ele>
        <time>2017-05-24T09:56:29Z</time>
      </trkpt>
      <trkpt lat="45.92639" lon="4.76072">
        <ele>170</ele>
        <time>2017-05-24T09:56:30Z</time>
      </trkpt>
      <trkpt lat="45.92634" lon="4.76068">
        <ele>170</ele>
        <time>2017-05-24T09:56:31Z</time>
      </trkpt>
      <trkpt lat="45.92629" lon="4.76064">
        <ele>170</ele>
        <time>2017-05-24T09:56:32Z</time>
      </trkpt>
      <trkpt lat="45.92624" lon="4.7606">
        <ele>171</ele>
        <time>2017-05-24T09:56:33Z</time>
      </trkpt>
      <trkpt lat="45.92618" lon="4.76056">
        <ele>171</ele>
        <time>2017-05-24T09:56:34Z</time>
      </trkpt>
      <trkpt lat="45.92613" lon="4.76052">
        <ele>171</ele>
        <time>2017-05-24T09:56:35Z</time>
      </trkpt>
      <trkpt lat="45.92607" lon="4.76048">
        <ele>171</ele>
        <time>2017-05-24T09:56:36Z</time>
      </trkpt>
      <trkpt lat="45.92601" lon="4.76044">
        <ele>171</ele>
        <time>2017-05-24T09:56:37Z</time>
      </trkpt>
      <trkpt lat="45.92595" lon="4.7604">
        <ele>171</ele>
        <time>2017-05-24T09:56:38Z</time>
      </trkpt>
      <trkpt lat="45.92589" lon="4.76036">
        <ele>171</ele>
        <time>2017-05-24T09:56:39Z</time>
      </trkpt>
      <trkpt lat="45.92583" lon="4.76032">
        <ele>172</ele>
        <time>2017-05-24T09:56:40Z</time>
      </trkpt>
      <trkpt lat="45.92577" lon="4.76028">
        <ele>172</ele>
        <time>2017-05-24T09:56:41Z</time>
      </trkpt>
      <trkpt lat="45.92571" lon="4.76024">
        <ele>172</ele>
        <time>2017-05-24T09:56:42Z</time>
      </trkpt>
      <trkpt lat="45.92566" lon="4.7602">
        <ele>172</ele>
        <time>2017-05-24T09:56:43Z</time>
      </trkpt>
      <trkpt lat="45.9256" lon="4.76016">
        <ele>172</ele>
        <time>2017-05-24T09:56:44Z</time>
      </trkpt>
      <trkpt lat="45.92555" lon="4.76012">
        <ele>172</ele>
        <time>2017-05-24T09:56:45Z</time>
      </trkpt>
      <trkpt lat="45.9255" lon="4.76009">
        <ele>172</ele>
        <time>2017-05-24T09:56:46Z</time>
      </trkpt>
      <trkpt lat="45.92545" lon="4.76006">
        <ele>172</ele>
        <time>2017-05-24T09:56:47Z</time>
      </trkpt>
      <trkpt lat="45.9254" lon="4.76003">
        <ele>172</ele>
        <time>2017-05-24T09:56:48Z</time>
      </trkpt>
      <trkpt lat="45.92536" lon="4.75999">
        <ele>172</ele>
        <time>2017-05-24T09:56:49Z</time>
      </trkpt>
      <trkpt lat="45.92531" lon="4.75996">
        <ele>172</ele>
        <time>2017-05-24T09:56:50Z</time>
      </trkpt>
      <trkpt lat="45.92527" lon="4.75993">
        <ele>172</ele>
        <time>2017-05-24T09:56:51Z</time>
      </trkpt>
      <trkpt lat="45.92523" lon="4.75989">
        <ele>172</ele>
        <time>2017-05-24T09:56:52Z</time>
      </trkpt>
      <trkpt lat="45.92518" lon="4.75986">
        <ele>172</ele>
        <time>2017-05-24T09:56:53Z</time>
      </trkpt>
      <trkpt lat="45.92514" lon="4.75984">
        <ele>172</ele>
        <time>2017-05-24T09:56:54Z</time>
      </trkpt>
      <trkpt lat="45.92509" lon="4.75981">
        <ele>172</ele>
        <time>2017-05-24T09:56:55Z</time>
      </trkpt>
      <trkpt lat="45.92505" lon="4.75977">
        <ele>172</ele>
        <time>2017-05-24T09:56:56Z</time>
      </trkpt>
      <trkpt lat="45.925" lon="4.75974">
        <ele>172</ele>
        <time>2017-05-24T09:56:57Z</time>
      </trkpt>
      <trkpt lat="45.92496" lon="4.7597">
        <ele>172</ele>
        <time>2017-05-24T09:56:58Z</time>
      </trkpt>
      <trkpt lat="45.92491" lon="4.75967">
        <ele>172</ele>
        <time>2017-05-24T09:56:59Z</time>
      </trkpt>
      <trkpt lat="45.92486" lon="4.75964">
        <ele>172</ele>
        <time>2017-05-24T09:57:00Z</time>
      </trkpt>
      <trkpt lat="45.92481" lon="4.75961">
        <ele>172</ele>
        <time>2017-05-24T09:57:01Z</time>
      </trkpt>
      <trkpt lat="45.92476" lon="4.75958">
        <ele>172</ele>
        <time>2017-05-24T09:57:02Z</time>
      </trkpt>
      <trkpt lat="45.92471" lon="4.75955">
        <ele>172</ele>
        <time>2017-05-24T09:57:03Z</time>
      </trkpt>
      <trkpt lat="45.92466" lon="4.75952">
        <ele>172</ele>
        <time>2017-05-24T09:57:04Z</time>
      </trkpt>
      <trkpt lat="45.92461" lon="4.75948">
        <ele>172</ele>
        <time>2017-05-24T09:57:05Z</time>
      </trkpt>
      <trkpt lat="45.92455" lon="4.75944">
        <ele>172</ele>
        <time>2017-05-24T09:57:06Z</time>
      </trkpt>
      <trkpt lat="45.9245" lon="4.75941">
        <ele>172</ele>
        <time>2017-05-24T09:57:07Z</time>
      </trkpt>
      <trkpt lat="45.92444" lon="4.75937">
        <ele>172</ele>
        <time>2017-05-24T09:57:08Z</time>
      </trkpt>
      <trkpt lat="45.92438" lon="4.75933">
        <ele>172</ele>
        <time>2017-05-24T09:57:09Z</time>
      </trkpt>
      <trkpt lat="45.92432" lon="4.75929">
        <ele>172</ele>
        <time>2017-05-24T09:57:10Z</time>
      </trkpt>
      <trkpt lat="45.92426" lon="4.75925">
        <ele>172</ele>
        <time>2017-05-24T09:57:11Z</time>
      </trkpt>
      <trkpt lat="45.9242" lon="4.75921">
        <ele>172</ele>
        <time>2017-05-24T09:57:12Z</time>
      </trkpt>
      <trkpt lat="45.92413" lon="4.75916">
        <ele>172</ele>
        <time>2017-05-24T09:57:13Z</time>
      </trkpt>
      <trkpt lat="45.92407" lon="4.75912">
        <ele>172</ele>
        <time>2017-05-24T09:57:14Z</time>
      </trkpt>
      <trkpt lat="45.92401" lon="4.75908">
        <ele>173</ele>
        <time>2017-05-24T09:57:15Z</time>
      </trkpt>
      <trkpt lat="45.92394" lon="4.75903">
        <ele>173</ele>
        <time>2017-05-24T09:57:16Z</time>
      </trkpt>
      <trkpt lat="45.92388" lon="4.75899">
        <ele>173</ele>
        <time>2017-05-24T09:57:17Z</time>
      </trkpt>
      <trkpt lat="45.92382" lon="4.75894">
        <ele>173</ele>
        <time>2017-05-24T09:57:18Z</time>
      </trkpt>
      <trkpt lat="45.92376" lon="4.7589">
        <ele>173</ele>
        <time>2017-05-24T09:57:19Z</time>
      </trkpt>
      <trkpt lat="45.92369" lon="4.75886">
        <ele>173</ele>
        <time>2017-05-24T09:57:20Z</time>
      </trkpt>
      <trkpt lat="45.92363" lon="4.75882">
        <ele>173</ele>
        <time>2017-05-24T09:57:21Z</time>
      </trkpt>
      <trkpt lat="45.92357" lon="4.75878">
        <ele>173</ele>
        <time>2017-05-24T09:57:22Z</time>
      </trkpt>
      <trkpt lat="45.92351" lon="4.75874">
        <ele>173</ele>
        <time>2017-05-24T09:57:23Z</time>
      </trkpt>
      <trkpt lat="45.92345" lon="4.7587">
        <ele>173</ele>
        <time>2017-05-24T09:57:24Z</time>
      </trkpt>
      <trkpt lat="45.9234" lon="4.75866">
        <ele>173</ele>
        <time>2017-05-24T09:57:25Z</time>
      </trkpt>
      <trkpt lat="45.92334" lon="4.75863">
        <ele>173</ele>
        <time>2017-05-24T09:57:26Z</time>
      </trkpt>
      <trkpt lat="45.92329" lon="4.75859">
        <ele>173</ele>
        <time>2017-05-24T09:57:27Z</time>
      </trkpt>
      <trkpt lat="45.92324" lon="4.75857">
        <ele>173</ele>
        <time>2017-05-24T09:57:28Z</time>
      </trkpt>
      <trkpt lat="45.92319" lon="4.75854">
        <ele>174</ele>
        <time>2017-05-24T09:57:29Z</time>
      </trkpt>
      <trkpt lat="45.92315" lon="4.75851">
        <ele>173</ele>
        <time>2017-05-24T09:57:30Z</time>
      </trkpt>
      <trkpt lat="45.9231" lon="4.75848">
        <ele>173</ele>
        <time>2017-05-24T09:57:31Z</time>
      </trkpt>
      <trkpt lat="45.92306" lon="4.75845">
        <ele>173</ele>
        <time>2017-05-24T09:57:32Z</time>
      </trkpt>
      <trkpt lat="45.92301" lon="4.75843">
        <ele>173</ele>
        <time>2017-05-24T09:57:33Z</time>
      </trkpt>
      <trkpt lat="45.92296" lon="4.7584">
        <ele>173</ele>
        <time>2017-05-24T09:57:34Z</time>
      </trkpt>
      <trkpt lat="45.92291" lon="4.75837">
        <ele>173</ele>
        <time>2017-05-24T09:57:35Z</time>
      </trkpt>
      <trkpt lat="45.92287" lon="4.75834">
        <ele>173</ele>
        <time>2017-05-24T09:57:36Z</time>
      </trkpt>
      <trkpt lat="45.92281" lon="4.75831">
        <ele>174</ele>
        <time>2017-05-24T09:57:37Z</time>
      </trkpt>
      <trkpt lat="45.92276" lon="4.75826">
        <ele>174</ele>
        <time>2017-05-24T09:57:38Z</time>
      </trkpt>
      <trkpt lat="45.92271" lon="4.75821">
        <ele>174</ele>
        <time>2017-05-24T09:57:39Z</time>
      </trkpt>
      <trkpt lat="45.92267" lon="4.75815">
        <ele>174</ele>
        <time>2017-05-24T09:57:40Z</time>
      </trkpt>
      <trkpt lat="45.92263" lon="4.75807">
        <ele>174</ele>
        <time>2017-05-24T09:57:41Z</time>
      </trkpt>
      <trkpt lat="45.92261" lon="4.75799">
        <ele>174</ele>
        <time>2017-05-24T09:57:42Z</time>
      </trkpt>
      <trkpt lat="45.92258" lon="4.7579">
        <ele>174</ele>
        <time>2017-05-24T09:57:43Z</time>
      </trkpt>
      <trkpt lat="45.92256" lon="4.75781">
        <ele>174</ele>
        <time>2017-05-24T09:57:44Z</time>
      </trkpt>
      <trkpt lat="45.92255" lon="4.75773">
        <ele>174</ele>
        <time>2017-05-24T09:57:45Z</time>
      </trkpt>
      <trkpt lat="45.92253" lon="4.75763">
        <ele>174</ele>
        <time>2017-05-24T09:57:46Z</time>
      </trkpt>
      <trkpt lat="45.92252" lon="4.75755">
        <ele>174</ele>
        <time>2017-05-24T09:57:47Z</time>
      </trkpt>
      <trkpt lat="45.9225" lon="4.75746">
        <ele>174</ele>
        <time>2017-05-24T09:57:48Z</time>
      </trkpt>
      <trkpt lat="45.92248" lon="4.75737">
        <ele>174</ele>
        <time>2017-05-24T09:57:49Z</time>
      </trkpt>
      <trkpt lat="45.92246" lon="4.75729">
        <ele>174</ele>
        <time>2017-05-24T09:57:50Z</time>
      </trkpt>
      <trkpt lat="45.92244" lon="4.75721">
        <ele>174</ele>
        <time>2017-05-24T09:57:51Z</time>
      </trkpt>
      <trkpt lat="45.92241" lon="4.75714">
        <ele>174</ele>
        <time>2017-05-24T09:57:52Z</time>
      </trkpt>
      <trkpt lat="45.92237" lon="4.75708">
        <ele>174</ele>
        <time>2017-05-24T09:57:53Z</time>
      </trkpt>
      <trkpt lat="45.92233" lon="4.75702">
        <ele>174</ele>
        <time>2017-05-24T09:57:54Z</time>
      </trkpt>
      <trkpt lat="45.92228" lon="4.75697">
        <ele>174</ele>
        <time>2017-05-24T09:57:55Z</time>
      </trkpt>
      <trkpt lat="45.92223" lon="4.75692">
        <ele>174</ele>
        <time>2017-05-24T09:57:56Z</time>
      </trkpt>
      <trkpt lat="45.92218" lon="4.75687">
        <ele>174</ele>
        <time>2017-05-24T09:57:57Z</time>
      </trkpt>
      <trkpt lat="45.92213" lon="4.75682">
        <ele>174</ele>
        <time>2017-05-24T09:57:58Z</time>
      </trkpt>
      <trkpt lat="45.92207" lon="4.75677">
        <ele>174</ele>
        <time>2017-05-24T09:57:59Z</time>
      </trkpt>
      <trkpt lat="45.92202" lon="4.75673">
        <ele>174</ele>
        <time>2017-05-24T09:58:00Z</time>
      </trkpt>
      <trkpt lat="45.92197" lon="4.75668">
        <ele>174</ele>
        <time>2017-05-24T09:58:01Z</time>
      </trkpt>
      <trkpt lat="45.92191" lon="4.75663">
        <ele>174</ele>
        <time>2017-05-24T09:58:02Z</time>
      </trkpt>
      <trkpt lat="45.92187" lon="4.75657">
        <ele>174</ele>
        <time>2017-05-24T09:58:03Z</time>
      </trkpt>
      <trkpt lat="45.92182" lon="4.75652">
        <ele>174</ele>
        <time>2017-05-24T09:58:04Z</time>
      </trkpt>
      <trkpt lat="45.92177" lon="4.75647">
        <ele>174</ele>
        <time>2017-05-24T09:58:05Z</time>
      </trkpt>
      <trkpt lat="45.92172" lon="4.75642">
        <ele>174</ele>
        <time>2017-05-24T09:58:06Z</time>
      </trkpt>
      <trkpt lat="45.92167" lon="4.75637">
        <ele>174</ele>
        <time>2017-05-24T09:58:07Z</time>
      </trkpt>
      <trkpt lat="45.92162" lon="4.75632">
        <ele>174</ele>
        <time>2017-05-24T09:58:08Z</time>
      </trkpt>
      <trkpt lat="45.92157" lon="4.75627">
        <ele>174</ele>
        <time>2017-05-24T09:58:09Z</time>
      </trkpt>
      <trkpt lat="45.92152" lon="4.75622">
        <ele>174</ele>
        <time>2017-05-24T09:58:10Z</time>
      </trkpt>
      <trkpt lat="45.92148" lon="4.75617">
        <ele>174</ele>
        <time>2017-05-24T09:58:11Z</time>
      </trkpt>
      <trkpt lat="45.92143" lon="4.75612">
        <ele>174</ele>
        <time>2017-05-24T09:58:12Z</time>
      </trkpt>
      <trkpt lat="45.92139" lon="4.75608">
        <ele>174</ele>
        <time>2017-05-24T09:58:13Z</time>
      </trkpt>
      <trkpt lat="45.92134" lon="4.75603">
        <ele>174</ele>
        <time>2017-05-24T09:58:14Z</time>
      </trkpt>
      <trkpt lat="45.9213" lon="4.75598">
        <ele>174</ele>
        <time>2017-05-24T09:58:15Z</time>
      </trkpt>
      <trkpt lat="45.92126" lon="4.75594">
        <ele>174</ele>
        <time>2017-05-24T09:58:16Z</time>
      </trkpt>
      <trkpt lat="45.92122" lon="4.75589">
        <ele>174</ele>
        <time>2017-05-24T09:58:17Z</time>
      </trkpt>
      <trkpt lat="45.92119" lon="4.75584">
        <ele>174</ele>
        <time>2017-05-24T09:58:18Z</time>
      </trkpt>
      <trkpt lat="45.92116" lon="4.75578">
        <ele>174</ele>
        <time>2017-05-24T09:58:19Z</time>
      </trkpt>
      <trkpt lat="45.92116" lon="4.75566">
        <ele>174</ele>
        <time>2017-05-24T09:58:21Z</time>
      </trkpt>
      <trkpt lat="45.92118" lon="4.75561">
        <ele>174</ele>
        <time>2017-05-24T09:58:22Z</time>
      </trkpt>
      <trkpt lat="45.92121" lon="4.75555">
        <ele>174</ele>
        <time>2017-05-24T09:58:23Z</time>
      </trkpt>
      <trkpt lat="45.92124" lon="4.75549">
        <ele>174</ele>
        <time>2017-05-24T09:58:24Z</time>
      </trkpt>
      <trkpt lat="45.92127" lon="4.75543">
        <ele>174</ele>
        <time>2017-05-24T09:58:25Z</time>
      </trkpt>
      <trkpt lat="45.92131" lon="4.75537">
        <ele>174</ele>
        <time>2017-05-24T09:58:26Z</time>
      </trkpt>
      <trkpt lat="45.92134" lon="4.75531">
        <ele>174</ele>
        <time>2017-05-24T09:58:27Z</time>
      </trkpt>
      <trkpt lat="45.92138" lon="4.75524">
        <ele>174</ele>
        <time>2017-05-24T09:58:28Z</time>
      </trkpt>
      <trkpt lat="45.92142" lon="4.75517">
        <ele>174</ele>
        <time>2017-05-24T09:58:29Z</time>
      </trkpt>
      <trkpt lat="45.92146" lon="4.75509">
        <ele>175</ele>
        <time>2017-05-24T09:58:30Z</time>
      </trkpt>
      <trkpt lat="45.92149" lon="4.75501">
        <ele>175</ele>
        <time>2017-05-24T09:58:31Z</time>
      </trkpt>
      <trkpt lat="45.92152" lon="4.75493">
        <ele>175</ele>
        <time>2017-05-24T09:58:32Z</time>
      </trkpt>
      <trkpt lat="45.92155" lon="4.75485">
        <ele>176</ele>
        <time>2017-05-24T09:58:33Z</time>
      </trkpt>
      <trkpt lat="45.92158" lon="4.75477">
        <ele>176</ele>
        <time>2017-05-24T09:58:34Z</time>
      </trkpt>
      <trkpt lat="45.92161" lon="4.7547">
        <ele>176</ele>
        <time>2017-05-24T09:58:35Z</time>
      </trkpt>
      <trkpt lat="45.92164" lon="4.75462">
        <ele>176</ele>
        <time>2017-05-24T09:58:36Z</time>
      </trkpt>
      <trkpt lat="45.92166" lon="4.75456">
        <ele>176</ele>
        <time>2017-05-24T09:58:37Z</time>
      </trkpt>
      <trkpt lat="45.92169" lon="4.7545">
        <ele>176</ele>
        <time>2017-05-24T09:58:38Z</time>
      </trkpt>
      <trkpt lat="45.92171" lon="4.75444">
        <ele>176</ele>
        <time>2017-05-24T09:58:39Z</time>
      </trkpt>
      <trkpt lat="45.92174" lon="4.75438">
        <ele>177</ele>
        <time>2017-05-24T09:58:40Z</time>
      </trkpt>
      <trkpt lat="45.92176" lon="4.75431">
        <ele>177</ele>
        <time>2017-05-24T09:58:41Z</time>
      </trkpt>
      <trkpt lat="45.92179" lon="4.75424">
        <ele>177</ele>
        <time>2017-05-24T09:58:42Z</time>
      </trkpt>
      <trkpt lat="45.92182" lon="4.75417">
        <ele>177</ele>
        <time>2017-05-24T09:58:43Z</time>
      </trkpt>
      <trkpt lat="45.92185" lon="4.75409">
        <ele>177</ele>
        <time>2017-05-24T09:58:44Z</time>
      </trkpt>
      <trkpt lat="45.92188" lon="4.75402">
        <ele>177</ele>
        <time>2017-05-24T09:58:45Z</time>
      </trkpt>
      <trkpt lat="45.92191" lon="4.75395">
        <ele>177</ele>
        <time>2017-05-24T09:58:46Z</time>
      </trkpt>
      <trkpt lat="45.92193" lon="4.75388">
        <ele>177</ele>
        <time>2017-05-24T09:58:47Z</time>
      </trkpt>
      <trkpt lat="45.92196" lon="4.7538">
        <ele>177</ele>
        <time>2017-05-24T09:58:48Z</time>
      </trkpt>
      <trkpt lat="45.92199" lon="4.75372">
        <ele>177</ele>
        <time>2017-05-24T09:58:49Z</time>
      </trkpt>
      <trkpt lat="45.92202" lon="4.75363">
        <ele>177</ele>
        <time>2017-05-24T09:58:50Z</time>
      </trkpt>
      <trkpt lat="45.92204" lon="4.75355">
        <ele>177</ele>
        <time>2017-05-24T09:58:51Z</time>
      </trkpt>
      <trkpt lat="45.92206" lon="4.75347">
        <ele>177</ele>
        <time>2017-05-24T09:58:52Z</time>
      </trkpt>
      <trkpt lat="45.92208" lon="4.75339">
        <ele>177</ele>
        <time>2017-05-24T09:58:53Z</time>
      </trkpt>
      <trkpt lat="45.92209" lon="4.75331">
        <ele>176</ele>
        <time>2017-05-24T09:58:54Z</time>
      </trkpt>
      <trkpt lat="45.9221" lon="4.75323">
        <ele>176</ele>
        <time>2017-05-24T09:58:55Z</time>
      </trkpt>
      <trkpt lat="45.92211" lon="4.75315">
        <ele>176</ele>
        <time>2017-05-24T09:58:56Z</time>
      </trkpt>
      <trkpt lat="45.92212" lon="4.75307">
        <ele>176</ele>
        <time>2017-05-24T09:58:57Z</time>
      </trkpt>
      <trkpt lat="45.92212" lon="4.75298">
        <ele>176</ele>
        <time>2017-05-24T09:58:58Z</time>
      </trkpt>
      <trkpt lat="45.92213" lon="4.75289">
        <ele>176</ele>
        <time>2017-05-24T09:58:59Z</time>
      </trkpt>
      <trkpt lat="45.92213" lon="4.75281">
        <ele>176</ele>
        <time>2017-05-24T09:59:00Z</time>
      </trkpt>
      <trkpt lat="45.92214" lon="4.75271">
        <ele>176</ele>
        <time>2017-05-24T09:59:01Z</time>
      </trkpt>
      <trkpt lat="45.92213" lon="4.75261">
        <ele>176</ele>
        <time>2017-05-24T09:59:02Z</time>
      </trkpt>
      <trkpt lat="45.92213" lon="4.75252">
        <ele>175</ele>
        <time>2017-05-24T09:59:03Z</time>
      </trkpt>
      <trkpt lat="45.92214" lon="4.75243">
        <ele>175</ele>
        <time>2017-05-24T09:59:04Z</time>
      </trkpt>
      <trkpt lat="45.92215" lon="4.75234">
        <ele>175</ele>
        <time>2017-05-24T09:59:05Z</time>
      </trkpt>
      <trkpt lat="45.92216" lon="4.75225">
        <ele>175</ele>
        <time>2017-05-24T09:59:06Z</time>
      </trkpt>
      <trkpt lat="45.92217" lon="4.75216">
        <ele>175</ele>
        <time>2017-05-24T09:59:07Z</time>
      </trkpt>
      <trkpt lat="45.92218" lon="4.75207">
        <ele>175</ele>
        <time>2017-05-24T09:59:08Z</time>
      </trkpt>
      <trkpt lat="45.9222" lon="4.75198">
        <ele>175</ele>
        <time>2017-05-24T09:59:09Z</time>
      </trkpt>
      <trkpt lat="45.92223" lon="4.75189">
        <ele>175</ele>
        <time>2017-05-24T09:59:10Z</time>
      </trkpt>
      <trkpt lat="45.92226" lon="4.75181">
        <ele>175</ele>
        <time>2017-05-24T09:59:11Z</time>
      </trkpt>
      <trkpt lat="45.92228" lon="4.75172">
        <ele>175</ele>
        <time>2017-05-24T09:59:12Z</time>
      </trkpt>
      <trkpt lat="45.92232" lon="4.75164">
        <ele>174</ele>
        <time>2017-05-24T09:59:13Z</time>
      </trkpt>
      <trkpt lat="45.92235" lon="4.75156">
        <ele>174</ele>
        <time>2017-05-24T09:59:14Z</time>
      </trkpt>
      <trkpt lat="45.92239" lon="4.75148">
        <ele>174</ele>
        <time>2017-05-24T09:59:15Z</time>
      </trkpt>
      <trkpt lat="45.92243" lon="4.75141">
        <ele>174</ele>
        <time>2017-05-24T09:59:16Z</time>
      </trkpt>
      <trkpt lat="45.92248" lon="4.75135">
        <ele>174</ele>
        <time>2017-05-24T09:59:17Z</time>
      </trkpt>
      <trkpt lat="45.92252" lon="4.75129">
        <ele>174</ele>
        <time>2017-05-24T09:59:18Z</time>
      </trkpt>
      <trkpt lat="45.92257" lon="4.75123">
        <ele>174</ele>
        <time>2017-05-24T09:59:19Z</time>
      </trkpt>
      <trkpt lat="45.92261" lon="4.75118">
        <ele>174</ele>
        <time>2017-05-24T09:59:20Z</time>
      </trkpt>
      <trkpt lat="45.92266" lon="4.75114">
        <ele>174</ele>
        <time>2017-05-24T09:59:21Z</time>
      </trkpt>
      <trkpt lat="45.9227" lon="4.7511">
        <ele>174</ele>
        <time>2017-05-24T09:59:22Z</time>
      </trkpt>
      <trkpt lat="45.92275" lon="4.75105">
        <ele>174</ele>
        <time>2017-05-24T09:59:23Z</time>
      </trkpt>
      <trkpt lat="45.9228" lon="4.751">
        <ele>173</ele>
        <time>2017-05-24T09:59:24Z</time>
      </trkpt>
      <trkpt lat="45.92284" lon="4.75095">
        <ele>173</ele>
        <time>2017-05-24T09:59:25Z</time>
      </trkpt>
      <trkpt lat="45.92289" lon="4.7509">
        <ele>173</ele>
        <time>2017-05-24T09:59:26Z</time>
      </trkpt>
      <trkpt lat="45.92295" lon="4.75085">
        <ele>173</ele>
        <time>2017-05-24T09:59:27Z</time>
      </trkpt>
      <trkpt lat="45.923" lon="4.75079">
        <ele>172</ele>
        <time>2017-05-24T09:59:28Z</time>
      </trkpt>
      <trkpt lat="45.92305" lon="4.75072">
        <ele>172</ele>
        <time>2017-05-24T09:59:29Z</time>
      </trkpt>
      <trkpt lat="45.9231" lon="4.75066">
        <ele>172</ele>
        <time>2017-05-24T09:59:30Z</time>
      </trkpt>
      <trkpt lat="45.92314" lon="4.7506">
        <ele>172</ele>
        <time>2017-05-24T09:59:31Z</time>
      </trkpt>
      <trkpt lat="45.92318" lon="4.75053">
        <ele>172</ele>
        <time>2017-05-24T09:59:32Z</time>
      </trkpt>
      <trkpt lat="45.92322" lon="4.75046">
        <ele>172</ele>
        <time>2017-05-24T09:59:33Z</time>
      </trkpt>
      <trkpt lat="45.92326" lon="4.75039">
        <ele>171</ele>
        <time>2017-05-24T09:59:34Z</time>
      </trkpt>
      <trkpt lat="45.92329" lon="4.75032">
        <ele>171</ele>
        <time>2017-05-24T09:59:35Z</time>
      </trkpt>
      <trkpt lat="45.92333" lon="4.75025">
        <ele>171</ele>
        <time>2017-05-24T09:59:36Z</time>
      </trkpt>
      <trkpt lat="45.92337" lon="4.75017">
        <ele>170</ele>
        <time>2017-05-24T09:59:37Z</time>
      </trkpt>
      <trkpt lat="45.9234" lon="4.7501">
        <ele>170</ele>
        <time>2017-05-24T09:59:38Z</time>
      </trkpt>
      <trkpt lat="45.92343" lon="4.75003">
        <ele>170</ele>
        <time>2017-05-24T09:59:39Z</time>
      </trkpt>
      <trkpt lat="45.92346" lon="4.74996">
        <ele>170</ele>
        <time>2017-05-24T09:59:40Z</time>
      </trkpt>
      <trkpt lat="45.92349" lon="4.74988">
        <ele>170</ele>
        <time>2017-05-24T09:59:41Z</time>
      </trkpt>
      <trkpt lat="45.92352" lon="4.74982">
        <ele>170</ele>
        <time>2017-05-24T09:59:42Z</time>
      </trkpt>
      <trkpt lat="45.92355" lon="4.74975">
        <ele>170</ele>
        <time>2017-05-24T09:59:43Z</time>
      </trkpt>
      <trkpt lat="45.92357" lon="4.74969">
        <ele>170</ele>
        <time>2017-05-24T09:59:44Z</time>
      </trkpt>
      <trkpt lat="45.9236" lon="4.74961">
        <ele>170</ele>
        <time>2017-05-24T09:59:45Z</time>
      </trkpt>
      <trkpt lat="45.92363" lon="4.74954">
        <ele>170</ele>
        <time>2017-05-24T09:59:46Z</time>
      </trkpt>
      <trkpt lat="45.92366" lon="4.74946">
        <ele>170</ele>
        <time>2017-05-24T09:59:47Z</time>
      </trkpt>
      <trkpt lat="45.92368" lon="4.74939">
        <ele>170</ele>
        <time>2017-05-24T09:59:48Z</time>
      </trkpt>
      <trkpt lat="45.92371" lon="4.74932">
        <ele>170</ele>
        <time>2017-05-24T09:59:49Z</time>
      </trkpt>
      <trkpt lat="45.92374" lon="4.74925">
        <ele>170</ele>
        <time>2017-05-24T09:59:50Z</time>
      </trkpt>
      <trkpt lat="45.92376" lon="4.74919">
        <ele>170</ele>
        <time>2017-05-24T09:59:51Z</time>
      </trkpt>
      <trkpt lat="45.92379" lon="4.74911">
        <ele>171</ele>
        <time>2017-05-24T09:59:52Z</time>
      </trkpt>
      <trkpt lat="45.92381" lon="4.74904">
        <ele>171</ele>
        <time>2017-05-24T09:59:53Z</time>
      </trkpt>
      <trkpt lat="45.92384" lon="4.74897">
        <ele>171</ele>
        <time>2017-05-24T09:59:54Z</time>
      </trkpt>
      <trkpt lat="45.92387" lon="4.7489">
        <ele>171</ele>
        <time>2017-05-24T09:59:55Z</time>
      </trkpt>
      <trkpt lat="45.9239" lon="4.74883">
        <ele>171</ele>
        <time>2017-05-24T09:59:56Z</time>
      </trkpt>
      <trkpt lat="45.92393" lon="4.74876">
        <ele>171</ele>
        <time>2017-05-24T09:59:57Z</time>
      </trkpt>
      <trkpt lat="45.92395" lon="4.74868">
        <ele>171</ele>
        <time>2017-05-24T09:59:58Z</time>
      </trkpt>
      <trkpt lat="45.92398" lon="4.7486">
        <ele>171</ele>
        <time>2017-05-24T09:59:59Z</time>
      </trkpt>
      <trkpt lat="45.92401" lon="4.74852">
        <ele>171</ele>
        <time>2017-05-24T10:00:00Z</time>
      </trkpt>
      <trkpt lat="45.92403" lon="4.74843">
        <ele>171</ele>
        <time>2017-05-24T10:00:01Z</time>
      </trkpt>
      <trkpt lat="45.92406" lon="4.74834">
        <ele>171</ele>
        <time>2017-05-24T10:00:02Z</time>
      </trkpt>
      <trkpt lat="45.92408" lon="4.74824">
        <ele>171</ele>
        <time>2017-05-24T10:00:03Z</time>
      </trkpt>
      <trkpt lat="45.9241" lon="4.74815">
        <ele>171</ele>
        <time>2017-05-24T10:00:04Z</time>
      </trkpt>
      <trkpt lat="45.92412" lon="4.74806">
        <ele>171</ele>
        <time>2017-05-24T10:00:05Z</time>
      </trkpt>
      <trkpt lat="45.92414" lon="4.74797">
        <ele>171</ele>
        <time>2017-05-24T10:00:06Z</time>
      </trkpt>
      <trkpt lat="45.92416" lon="4.74788">
        <ele>171</ele>
        <time>2017-05-24T10:00:07Z</time>
      </trkpt>
      <trkpt lat="45.92417" lon="4.74779">
        <ele>171</ele>
        <time>2017-05-24T10:00:08Z</time>
      </trkpt>
      <trkpt lat="45.92419" lon="4.74771">
        <ele>171</ele>
        <time>2017-05-24T10:00:09Z</time>
      </trkpt>
      <trkpt lat="45.92421" lon="4.74763">
        <ele>171</ele>
        <time>2017-05-24T10:00:10Z</time>
      </trkpt>
      <trkpt lat="45.92423" lon="4.74756">
        <ele>172</ele>
        <time>2017-05-24T10:00:11Z</time>
      </trkpt>
      <trkpt lat="45.92425" lon="4.74749">
        <ele>172</ele>
        <time>2017-05-24T10:00:12Z</time>
      </trkpt>
      <trkpt lat="45.92427" lon="4.74743">
        <ele>171</ele>
        <time>2017-05-24T10:00:13Z</time>
      </trkpt>
      <trkpt lat="45.9243" lon="4.74736">
        <ele>171</ele>
        <time>2017-05-24T10:00:14Z</time>
      </trkpt>
      <trkpt lat="45.92432" lon="4.74729">
        <ele>171</ele>
        <time>2017-05-24T10:00:15Z</time>
      </trkpt>
      <trkpt lat="45.92434" lon="4.74722">
        <ele>171</ele>
        <time>2017-05-24T10:00:16Z</time>
      </trkpt>
      <trkpt lat="45.92437" lon="4.74716">
        <ele>171</ele>
        <time>2017-05-24T10:00:17Z</time>
      </trkpt>
      <trkpt lat="45.92439" lon="4.7471">
        <ele>171</ele>
        <time>2017-05-24T10:00:18Z</time>
      </trkpt>
      <trkpt lat="45.92441" lon="4.74704">
        <ele>171</ele>
        <time>2017-05-24T10:00:19Z</time>
      </trkpt>
      <trkpt lat="45.92444" lon="4.74698">
        <ele>171</ele>
        <time>2017-05-24T10:00:20Z</time>
      </trkpt>
      <trkpt lat="45.92448" lon="4.74688">
        <ele>171</ele>
        <time>2017-05-24T10:00:22Z</time>
      </trkpt>
      <trkpt lat="45.92451" lon="4.74682">
        <ele>171</ele>
        <time>2017-05-24T10:00:23Z</time>
      </trkpt>
      <trkpt lat="45.92453" lon="4.74677">
        <ele>171</ele>
        <time>2017-05-24T10:00:24Z</time>
      </trkpt>
      <trkpt lat="45.92456" lon="4.74671">
        <ele>171</ele>
        <time>2017-05-24T10:00:25Z</time>
      </trkpt>
      <trkpt lat="45.92459" lon="4.74666">
        <ele>171</ele>
        <time>2017-05-24T10:00:26Z</time>
      </trkpt>
      <trkpt lat="45.92461" lon="4.74661">
        <ele>171</ele>
        <time>2017-05-24T10:00:27Z</time>
      </trkpt>
      <trkpt lat="45.92464" lon="4.74655">
        <ele>171</ele>
        <time>2017-05-24T10:00:28Z</time>
      </trkpt>
      <trkpt lat="45.92467" lon="4.7465">
        <ele>171</ele>
        <time>2017-05-24T10:00:29Z</time>
      </trkpt>
      <trkpt lat="45.92473" lon="4.74643">
        <ele>171</ele>
        <time>2017-05-24T10:00:31Z</time>
      </trkpt>
      <trkpt lat="45.92477" lon="4.74639">
        <ele>171</ele>
        <time>2017-05-24T10:00:32Z</time>
      </trkpt>
      <trkpt lat="45.92482" lon="4.74635">
        <ele>171</ele>
        <time>2017-05-24T10:00:33Z</time>
      </trkpt>
      <trkpt lat="45.92485" lon="4.74631">
        <ele>171</ele>
        <time>2017-05-24T10:00:34Z</time>
      </trkpt>
      <trkpt lat="45.92489" lon="4.74626">
        <ele>171</ele>
        <time>2017-05-24T10:00:35Z</time>
      </trkpt>
      <trkpt lat="45.92492" lon="4.74622">
        <ele>171</ele>
        <time>2017-05-24T10:00:36Z</time>
      </trkpt>
      <trkpt lat="45.92496" lon="4.74617">
        <ele>171</ele>
        <time>2017-05-24T10:00:37Z</time>
      </trkpt>
      <trkpt lat="45.925" lon="4.74611">
        <ele>171</ele>
        <time>2017-05-24T10:00:38Z</time>
      </trkpt>
      <trkpt lat="45.92504" lon="4.74606">
        <ele>171</ele>
        <time>2017-05-24T10:00:39Z</time>
      </trkpt>
      <trkpt lat="45.92507" lon="4.74601">
        <ele>171</ele>
        <time>2017-05-24T10:00:40Z</time>
      </trkpt>
      <trkpt lat="45.92511" lon="4.74597">
        <ele>171</ele>
        <time>2017-05-24T10:00:41Z</time>
      </trkpt>
      <trkpt lat="45.92515" lon="4.74592">
        <ele>171</ele>
        <time>2017-05-24T10:00:42Z</time>
      </trkpt>
      <trkpt lat="45.92519" lon="4.74587">
        <ele>171</ele>
        <time>2017-05-24T10:00:43Z</time>
      </trkpt>
      <trkpt lat="45.92523" lon="4.74582">
        <ele>171</ele>
        <time>2017-05-24T10:00:44Z</time>
      </trkpt>
      <trkpt lat="45.92527" lon="4.74576">
        <ele>171</ele>
        <time>2017-05-24T10:00:45Z</time>
      </trkpt>
      <trkpt lat="45.92531" lon="4.74571">
        <ele>171</ele>
        <time>2017-05-24T10:00:46Z</time>
      </trkpt>
      <trkpt lat="45.92535" lon="4.74565">
        <ele>171</ele>
        <time>2017-05-24T10:00:47Z</time>
      </trkpt>
      <trkpt lat="45.9254" lon="4.74559">
        <ele>171</ele>
        <time>2017-05-24T10:00:48Z</time>
      </trkpt>
      <trkpt lat="45.92544" lon="4.74553">
        <ele>170</ele>
        <time>2017-05-24T10:00:49Z</time>
      </trkpt>
      <trkpt lat="45.92547" lon="4.74547">
        <ele>170</ele>
        <time>2017-05-24T10:00:50Z</time>
      </trkpt>
      <trkpt lat="45.92551" lon="4.74541">
        <ele>170</ele>
        <time>2017-05-24T10:00:51Z</time>
      </trkpt>
      <trkpt lat="45.92554" lon="4.74535">
        <ele>170</ele>
        <time>2017-05-24T10:00:52Z</time>
      </trkpt>
      <trkpt lat="45.92557" lon="4.74528">
        <ele>170</ele>
        <time>2017-05-24T10:00:53Z</time>
      </trkpt>
      <trkpt lat="45.9256" lon="4.74522">
        <ele>170</ele>
        <time>2017-05-24T10:00:54Z</time>
      </trkpt>
      <trkpt lat="45.92564" lon="4.74516">
        <ele>170</ele>
        <time>2017-05-24T10:00:55Z</time>
      </trkpt>
      <trkpt lat="45.92567" lon="4.7451">
        <ele>170</ele>
        <time>2017-05-24T10:00:56Z</time>
      </trkpt>
      <trkpt lat="45.92571" lon="4.74504">
        <ele>170</ele>
        <time>2017-05-24T10:00:57Z</time>
      </trkpt>
      <trkpt lat="45.92574" lon="4.74498">
        <ele>170</ele>
        <time>2017-05-24T10:00:58Z</time>
      </trkpt>
      <trkpt lat="45.92577" lon="4.74492">
        <ele>170</ele>
        <time>2017-05-24T10:00:59Z</time>
      </trkpt>
      <trkpt lat="45.9258" lon="4.74486">
        <ele>170</ele>
        <time>2017-05-24T10:01:00Z</time>
      </trkpt>
      <trkpt lat="45.92584" lon="4.74479">
        <ele>170</ele>
        <time>2017-05-24T10:01:01Z</time>
      </trkpt>
      <trkpt lat="45.92588" lon="4.74472">
        <ele>170</ele>
        <time>2017-05-24T10:01:02Z</time>
      </trkpt>
      <trkpt lat="45.92591" lon="4.74465">
        <ele>170</ele>
        <time>2017-05-24T10:01:03Z</time>
      </trkpt>
      <trkpt lat="45.92595" lon="4.74457">
        <ele>170</ele>
        <time>2017-05-24T10:01:04Z</time>
      </trkpt>
      <trkpt lat="45.926" lon="4.74449">
        <ele>170</ele>
        <time>2017-05-24T10:01:05Z</time>
      </trkpt>
      <trkpt lat="45.92604" lon="4.74442">
        <ele>170</ele>
        <time>2017-05-24T10:01:06Z</time>
      </trkpt>
      <trkpt lat="45.92608" lon="4.74434">
        <ele>170</ele>
        <time>2017-05-24T10:01:07Z</time>
      </trkpt>
      <trkpt lat="45.92612" lon="4.74426">
        <ele>170</ele>
        <time>2017-05-24T10:01:08Z</time>
      </trkpt>
      <trkpt lat="45.92615" lon="4.7442">
        <ele>170</ele>
        <time>2017-05-24T10:01:09Z</time>
      </trkpt>
      <trkpt lat="45.92619" lon="4.74413">
        <ele>170</ele>
        <time>2017-05-24T10:01:10Z</time>
      </trkpt>
      <trkpt lat="45.92622" lon="4.74407">
        <ele>170</ele>
        <time>2017-05-24T10:01:11Z</time>
      </trkpt>
      <trkpt lat="45.92626" lon="4.74401">
        <ele>170</ele>
        <time>2017-05-24T10:01:12Z</time>
      </trkpt>
      <trkpt lat="45.92629" lon="4.74395">
        <ele>170</ele>
        <time>2017-05-24T10:01:13Z</time>
      </trkpt>
      <trkpt lat="45.92632" lon="4.7439">
        <ele>170</ele>
        <time>2017-05-24T10:01:14Z</time>
      </trkpt>
      <trkpt lat="45.92635" lon="4.74384">
        <ele>170</ele>
        <time>2017-05-24T10:01:15Z</time>
      </trkpt>
      <trkpt lat="45.92639" lon="4.74378">
        <ele>170</ele>
        <time>2017-05-24T10:01:16Z</time>
      </trkpt>
      <trkpt lat="45.92642" lon="4.74371">
        <ele>171</ele>
        <time>2017-05-24T10:01:17Z</time>
      </trkpt>
      <trkpt lat="45.92646" lon="4.74364">
        <ele>171</ele>
        <time>2017-05-24T10:01:18Z</time>
      </trkpt>
      <trkpt lat="45.9265" lon="4.74357">
        <ele>171</ele>
        <time>2017-05-24T10:01:19Z</time>
      </trkpt>
      <trkpt lat="45.92654" lon="4.7435">
        <ele>171</ele>
        <time>2017-05-24T10:01:20Z</time>
      </trkpt>
      <trkpt lat="45.92658" lon="4.74344">
        <ele>171</ele>
        <time>2017-05-24T10:01:21Z</time>
      </trkpt>
      <trkpt lat="45.92661" lon="4.74337">
        <ele>171</ele>
        <time>2017-05-24T10:01:22Z</time>
      </trkpt>
      <trkpt lat="45.92665" lon="4.74331">
        <ele>171</ele>
        <time>2017-05-24T10:01:23Z</time>
      </trkpt>
      <trkpt lat="45.92668" lon="4.74325">
        <ele>171</ele>
        <time>2017-05-24T10:01:24Z</time>
      </trkpt>
      <trkpt lat="45.92671" lon="4.7432">
        <ele>171</ele>
        <time>2017-05-24T10:01:25Z</time>
      </trkpt>
      <trkpt lat="45.92674" lon="4.74314">
        <ele>171</ele>
        <time>2017-05-24T10:01:26Z</time>
      </trkpt>
      <trkpt lat="45.92677" lon="4.74309">
        <ele>171</ele>
        <time>2017-05-24T10:01:27Z</time>
      </trkpt>
      <trkpt lat="45.9268" lon="4.74303">
        <ele>171</ele>
        <time>2017-05-24T10:01:28Z</time>
      </trkpt>
      <trkpt lat="45.92682" lon="4.74298">
        <ele>171</ele>
        <time>2017-05-24T10:01:29Z</time>
      </trkpt>
      <trkpt lat="45.92685" lon="4.74292">
        <ele>171</ele>
        <time>2017-05-24T10:01:30Z</time>
      </trkpt>
      <trkpt lat="45.92688" lon="4.74287">
        <ele>171</ele>
        <time>2017-05-24T10:01:31Z</time>
      </trkpt>
      <trkpt lat="45.92691" lon="4.74281">
        <ele>171</ele>
        <time>2017-05-24T10:01:32Z</time>
      </trkpt>
      <trkpt lat="45.92695" lon="4.74276">
        <ele>171</ele>
        <time>2017-05-24T10:01:33Z</time>
      </trkpt>
      <trkpt lat="45.92697" lon="4.74271">
        <ele>171</ele>
        <time>2017-05-24T10:01:34Z</time>
      </trkpt>
      <trkpt lat="45.927" lon="4.74265">
        <ele>171</ele>
        <time>2017-05-24T10:01:35Z</time>
      </trkpt>
      <trkpt lat="45.92704" lon="4.7426">
        <ele>171</ele>
        <time>2017-05-24T10:01:36Z</time>
      </trkpt>
      <trkpt lat="45.92707" lon="4.74254">
        <ele>171</ele>
        <time>2017-05-24T10:01:37Z</time>
      </trkpt>
      <trkpt lat="45.92711" lon="4.74249">
        <ele>171</ele>
        <time>2017-05-24T10:01:38Z</time>
      </trkpt>
      <trkpt lat="45.92714" lon="4.74243">
        <ele>171</ele>
        <time>2017-05-24T10:01:39Z</time>
      </trkpt>
      <trkpt lat="45.92718" lon="4.74238">
        <ele>171</ele>
        <time>2017-05-24T10:01:40Z</time>
      </trkpt>
      <trkpt lat="45.92721" lon="4.74232">
        <ele>171</ele>
        <time>2017-05-24T10:01:41Z</time>
      </trkpt>
      <trkpt lat="45.92725" lon="4.74226">
        <ele>171</ele>
        <time>2017-05-24T10:01:42Z</time>
      </trkpt>
      <trkpt lat="45.92729" lon="4.7422">
        <ele>171</ele>
        <time>2017-05-24T10:01:43Z</time>
      </trkpt>
      <trkpt lat="45.92733" lon="4.74214">
        <ele>171</ele>
        <time>2017-05-24T10:01:44Z</time>
      </trkpt>
      <trkpt lat="45.92737" lon="4.74208">
        <ele>171</ele>
        <time>2017-05-24T10:01:45Z</time>
      </trkpt>
      <trkpt lat="45.92742" lon="4.74202">
        <ele>171</ele>
        <time>2017-05-24T10:01:46Z</time>
      </trkpt>
      <trkpt lat="45.92746" lon="4.74196">
        <ele>171</ele>
        <time>2017-05-24T10:01:47Z</time>
      </trkpt>
      <trkpt lat="45.92751" lon="4.7419">
        <ele>172</ele>
        <time>2017-05-24T10:01:48Z</time>
      </trkpt>
      <trkpt lat="45.92755" lon="4.74185">
        <ele>172</ele>
        <time>2017-05-24T10:01:49Z</time>
      </trkpt>
      <trkpt lat="45.9276" lon="4.7418">
        <ele>172</ele>
        <time>2017-05-24T10:01:50Z</time>
      </trkpt>
      <trkpt lat="45.92764" lon="4.74175">
        <ele>172</ele>
        <time>2017-05-24T10:01:51Z</time>
      </trkpt>
      <trkpt lat="45.92769" lon="4.7417">
        <ele>172</ele>
        <time>2017-05-24T10:01:52Z</time>
      </trkpt>
      <trkpt lat="45.92773" lon="4.74165">
        <ele>172</ele>
        <time>2017-05-24T10:01:53Z</time>
      </trkpt>
      <trkpt lat="45.92776" lon="4.74161">
        <ele>172</ele>
        <time>2017-05-24T10:01:54Z</time>
      </trkpt>
      <trkpt lat="45.9278" lon="4.74156">
        <ele>172</ele>
        <time>2017-05-24T10:01:55Z</time>
      </trkpt>
      <trkpt lat="45.92784" lon="4.74152">
        <ele>172</ele>
        <time>2017-05-24T10:01:56Z</time>
      </trkpt>
      <trkpt lat="45.92788" lon="4.74148">
        <ele>172</ele>
        <time>2017-05-24T10:01:57Z</time>
      </trkpt>
      <trkpt lat="45.92792" lon="4.74144">
        <ele>172</ele>
        <time>2017-05-24T10:01:58Z</time>
      </trkpt>
      <trkpt lat="45.92797" lon="4.7414">
        <ele>172</ele>
        <time>2017-05-24T10:01:59Z</time>
      </trkpt>
      <trkpt lat="45.92801" lon="4.74136">
        <ele>172</ele>
        <time>2017-05-24T10:02:00Z</time>
      </trkpt>
      <trkpt lat="45.92806" lon="4.74131">
        <ele>172</ele>
        <time>2017-05-24T10:02:01Z</time>
      </trkpt>
      <trkpt lat="45.92811" lon="4.74126">
        <ele>172</ele>
        <time>2017-05-24T10:02:02Z</time>
      </trkpt>
      <trkpt lat="45.92816" lon="4.7412">
        <ele>172</ele>
        <time>2017-05-24T10:02:03Z</time>
      </trkpt>
      <trkpt lat="45.92821" lon="4.74114">
        <ele>172</ele>
        <time>2017-05-24T10:02:04Z</time>
      </trkpt>
      <trkpt lat="45.92826" lon="4.74109">
        <ele>171</ele>
        <time>2017-05-24T10:02:05Z</time>
      </trkpt>
      <trkpt lat="45.9283" lon="4.74103">
        <ele>171</ele>
        <time>2017-05-24T10:02:06Z</time>
      </trkpt>
      <trkpt lat="45.92835" lon="4.74098">
        <ele>171</ele>
        <time>2017-05-24T10:02:07Z</time>
      </trkpt>
      <trkpt lat="45.92839" lon="4.74093">
        <ele>171</ele>
        <time>2017-05-24T10:02:08Z</time>
      </trkpt>
      <trkpt lat="45.92842" lon="4.74089">
        <ele>171</ele>
        <time>2017-05-24T10:02:09Z</time>
      </trkpt>
      <trkpt lat="45.92846" lon="4.74085">
        <ele>171</ele>
        <time>2017-05-24T10:02:10Z</time>
      </trkpt>
      <trkpt lat="45.9285" lon="4.74081">
        <ele>172</ele>
        <time>2017-05-24T10:02:11Z</time>
      </trkpt>
      <trkpt lat="45.92853" lon="4.74076">
        <ele>172</ele>
        <time>2017-05-24T10:02:12Z</time>
      </trkpt>
      <trkpt lat="45.92857" lon="4.74072">
        <ele>172</ele>
        <time>2017-05-24T10:02:13Z</time>
      </trkpt>
      <trkpt lat="45.9286" lon="4.74067">
        <ele>172</ele>
        <time>2017-05-24T10:02:14Z</time>
      </trkpt>
      <trkpt lat="45.92864" lon="4.74062">
        <ele>172</ele>
        <time>2017-05-24T10:02:15Z</time>
      </trkpt>
      <trkpt lat="45.92867" lon="4.74058">
        <ele>172</ele>
        <time>2017-05-24T10:02:16Z</time>
      </trkpt>
      <trkpt lat="45.92874" lon="4.74051">
        <ele>172</ele>
        <time>2017-05-24T10:02:18Z</time>
      </trkpt>
      <trkpt lat="45.92878" lon="4.74048">
        <ele>172</ele>
        <time>2017-05-24T10:02:19Z</time>
      </trkpt>
      <trkpt lat="45.92885" lon="4.74046">
        <ele>172</ele>
        <time>2017-05-24T10:02:21Z</time>
      </trkpt>
      <trkpt lat="45.92889" lon="4.74047">
        <ele>172</ele>
        <time>2017-05-24T10:02:22Z</time>
      </trkpt>
      <trkpt lat="45.92893" lon="4.74048">
        <ele>172</ele>
        <time>2017-05-24T10:02:23Z</time>
      </trkpt>
      <trkpt lat="45.92898" lon="4.74049">
        <ele>172</ele>
        <time>2017-05-24T10:02:24Z</time>
      </trkpt>
      <trkpt lat="45.92903" lon="4.74049">
        <ele>172</ele>
        <time>2017-05-24T10:02:25Z</time>
      </trkpt>
      <trkpt lat="45.92908" lon="4.74047">
        <ele>172</ele>
        <time>2017-05-24T10:02:26Z</time>
      </trkpt>
      <trkpt lat="45.92915" lon="4.74039">
        <ele>172</ele>
        <time>2017-05-24T10:02:28Z</time>
      </trkpt>
      <trkpt lat="45.92918" lon="4.74034">
        <ele>172</ele>
        <time>2017-05-24T10:02:29Z</time>
      </trkpt>
      <trkpt lat="45.92919" lon="4.74027">
        <ele>172</ele>
        <time>2017-05-24T10:02:30Z</time>
      </trkpt>
      <trkpt lat="45.9292" lon="4.7402">
        <ele>172</ele>
        <time>2017-05-24T10:02:31Z</time>
      </trkpt>
      <trkpt lat="45.92919" lon="4.74013">
        <ele>172</ele>
        <time>2017-05-24T10:02:32Z</time>
      </trkpt>
      <trkpt lat="45.92918" lon="4.74006">
        <ele>172</ele>
        <time>2017-05-24T10:02:33Z</time>
      </trkpt>
      <trkpt lat="45.92916" lon="4.74">
        <ele>172</ele>
        <time>2017-05-24T10:02:34Z</time>
      </trkpt>
      <trkpt lat="45.92913" lon="4.73994">
        <ele>172</ele>
        <time>2017-05-24T10:02:35Z</time>
      </trkpt>
      <trkpt lat="45.92909" lon="4.7399">
        <ele>172</ele>
        <time>2017-05-24T10:02:36Z</time>
      </trkpt>
      <trkpt lat="45.92905" lon="4.73986">
        <ele>172</ele>
        <time>2017-05-24T10:02:37Z</time>
      </trkpt>
      <trkpt lat="45.929" lon="4.73983">
        <ele>172</ele>
        <time>2017-05-24T10:02:38Z</time>
      </trkpt>
      <trkpt lat="45.92896" lon="4.73979">
        <ele>172</ele>
        <time>2017-05-24T10:02:39Z</time>
      </trkpt>
      <trkpt lat="45.92892" lon="4.73975">
        <ele>172</ele>
        <time>2017-05-24T10:02:40Z</time>
      </trkpt>
      <trkpt lat="45.9289" lon="4.73969">
        <ele>172</ele>
        <time>2017-05-24T10:02:41Z</time>
      </trkpt>
      <trkpt lat="45.92889" lon="4.73963">
        <ele>172</ele>
        <time>2017-05-24T10:02:42Z</time>
      </trkpt>
      <trkpt lat="45.92889" lon="4.73956">
        <ele>172</ele>
        <time>2017-05-24T10:02:43Z</time>
      </trkpt>
      <trkpt lat="45.92889" lon="4.73949">
        <ele>172</ele>
        <time>2017-05-24T10:02:44Z</time>
      </trkpt>
      <trkpt lat="45.92889" lon="4.73941">
        <ele>172</ele>
        <time>2017-05-24T10:02:45Z</time>
      </trkpt>
      <trkpt lat="45.92888" lon="4.73933">
        <ele>172</ele>
        <time>2017-05-24T10:02:46Z</time>
      </trkpt>
      <trkpt lat="45.92888" lon="4.73925">
        <ele>172</ele>
        <time>2017-05-24T10:02:47Z</time>
      </trkpt>
      <trkpt lat="45.92887" lon="4.73917">
        <ele>172</ele>
        <time>2017-05-24T10:02:48Z</time>
      </trkpt>
      <trkpt lat="45.92885" lon="4.73909">
        <ele>173</ele>
        <time>2017-05-24T10:02:49Z</time>
      </trkpt>
      <trkpt lat="45.92884" lon="4.73901">
        <ele>173</ele>
        <time>2017-05-24T10:02:50Z</time>
      </trkpt>
      <trkpt lat="45.92883" lon="4.73893">
        <ele>173</ele>
        <time>2017-05-24T10:02:51Z</time>
      </trkpt>
      <trkpt lat="45.92881" lon="4.73885">
        <ele>173</ele>
        <time>2017-05-24T10:02:52Z</time>
      </trkpt>
      <trkpt lat="45.92879" lon="4.73877">
        <ele>173</ele>
        <time>2017-05-24T10:02:53Z</time>
      </trkpt>
      <trkpt lat="45.92876" lon="4.7387">
        <ele>173</ele>
        <time>2017-05-24T10:02:54Z</time>
      </trkpt>
      <trkpt lat="45.92874" lon="4.73863">
        <ele>173</ele>
        <time>2017-05-24T10:02:55Z</time>
      </trkpt>
      <trkpt lat="45.92872" lon="4.73855">
        <ele>173</ele>
        <time>2017-05-24T10:02:56Z</time>
      </trkpt>
      <trkpt lat="45.9287" lon="4.73848">
        <ele>173</ele>
        <time>2017-05-24T10:02:57Z</time>
      </trkpt>
      <trkpt lat="45.92868" lon="4.7384">
        <ele>173</ele>
        <time>2017-05-24T10:02:58Z</time>
      </trkpt>
      <trkpt lat="45.92866" lon="4.73832">
        <ele>173</ele>
        <time>2017-05-24T10:02:59Z</time>
      </trkpt>
      <trkpt lat="45.92865" lon="4.73825">
        <ele>173</ele>
        <time>2017-05-24T10:03:00Z</time>
      </trkpt>
      <trkpt lat="45.92862" lon="4.73818">
        <ele>173</ele>
        <time>2017-05-24T10:03:01Z</time>
      </trkpt>
      <trkpt lat="45.92859" lon="4.7381">
        <ele>173</ele>
        <time>2017-05-24T10:03:02Z</time>
      </trkpt>
      <trkpt lat="45.92856" lon="4.73803">
        <ele>173</ele>
        <time>2017-05-24T10:03:03Z</time>
      </trkpt>
      <trkpt lat="45.92851" lon="4.73795">
        <ele>173</ele>
        <time>2017-05-24T10:03:04Z</time>
      </trkpt>
      <trkpt lat="45.92846" lon="4.7379">
        <ele>173</ele>
        <time>2017-05-24T10:03:05Z</time>
      </trkpt>
      <trkpt lat="45.9284" lon="4.73785">
        <ele>173</ele>
        <time>2017-05-24T10:03:06Z</time>
      </trkpt>
      <trkpt lat="45.92834" lon="4.73782">
        <ele>173</ele>
        <time>2017-05-24T10:03:07Z</time>
      </trkpt>
      <trkpt lat="45.92828" lon="4.73778">
        <ele>173</ele>
        <time>2017-05-24T10:03:08Z</time>
      </trkpt>
      <trkpt lat="45.92823" lon="4.73775">
        <ele>173</ele>
        <time>2017-05-24T10:03:09Z</time>
      </trkpt>
      <trkpt lat="45.92818" lon="4.73772">
        <ele>173</ele>
        <time>2017-05-24T10:03:10Z</time>
      </trkpt>
      <trkpt lat="45.92814" lon="4.73771">
        <ele>173</ele>
        <time>2017-05-24T10:03:11Z</time>
      </trkpt>
      <trkpt lat="45.92806" lon="4.73766">
        <ele>173</ele>
        <time>2017-05-24T10:03:13Z</time>
      </trkpt>
      <trkpt lat="45.92803" lon="4.73765">
        <ele>173</ele>
        <time>2017-05-24T10:03:14Z</time>
      </trkpt>
      <trkpt lat="45.92795" lon="4.73761">
        <ele>173</ele>
        <time>2017-05-24T10:03:16Z</time>
      </trkpt>
      <trkpt lat="45.92791" lon="4.73758">
        <ele>173</ele>
        <time>2017-05-24T10:03:17Z</time>
      </trkpt>
      <trkpt lat="45.92785" lon="4.73751">
        <ele>173</ele>
        <time>2017-05-24T10:03:19Z</time>
      </trkpt>
      <trkpt lat="45.92784" lon="4.73747">
        <ele>172</ele>
        <time>2017-05-24T10:03:20Z</time>
      </trkpt>
      <trkpt lat="45.9278" lon="4.73739">
        <ele>172</ele>
        <time>2017-05-24T10:03:22Z</time>
      </trkpt>
      <trkpt lat="45.92777" lon="4.73736">
        <ele>172</ele>
        <time>2017-05-24T10:03:23Z</time>
      </trkpt>
      <trkpt lat="45.9277" lon="4.73732">
        <ele>172</ele>
        <time>2017-05-24T10:03:25Z</time>
      </trkpt>
      <trkpt lat="45.92767" lon="4.73731">
        <ele>172</ele>
        <time>2017-05-24T10:03:26Z</time>
      </trkpt>
      <trkpt lat="45.92759" lon="4.73728">
        <ele>172</ele>
        <time>2017-05-24T10:03:28Z</time>
      </trkpt>
      <trkpt lat="45.92756" lon="4.73726">
        <ele>172</ele>
        <time>2017-05-24T10:03:29Z</time>
      </trkpt>
      <trkpt lat="45.92751" lon="4.73725">
        <ele>172</ele>
        <time>2017-05-24T10:03:30Z</time>
      </trkpt>
      <trkpt lat="45.92747" lon="4.73724">
        <ele>173</ele>
        <time>2017-05-24T10:03:31Z</time>
      </trkpt>
      <trkpt lat="45.92742" lon="4.73724">
        <ele>173</ele>
        <time>2017-05-24T10:03:32Z</time>
      </trkpt>
      <trkpt lat="45.92737" lon="4.73723">
        <ele>173</ele>
        <time>2017-05-24T10:03:33Z</time>
      </trkpt>
      <trkpt lat="45.92732" lon="4.73722">
        <ele>173</ele>
        <time>2017-05-24T10:03:34Z</time>
      </trkpt>
      <trkpt lat="45.92728" lon="4.73721">
        <ele>173</ele>
        <time>2017-05-24T10:03:35Z</time>
      </trkpt>
      <trkpt lat="45.92723" lon="4.7372">
        <ele>173</ele>
        <time>2017-05-24T10:03:36Z</time>
      </trkpt>
      <trkpt lat="45.92719" lon="4.73719">
        <ele>173</ele>
        <time>2017-05-24T10:03:37Z</time>
      </trkpt>
      <trkpt lat="45.92714" lon="4.73717">
        <ele>173</ele>
        <time>2017-05-24T10:03:38Z</time>
      </trkpt>
      <trkpt lat="45.92709" lon="4.73715">
        <ele>173</ele>
        <time>2017-05-24T10:03:39Z</time>
      </trkpt>
      <trkpt lat="45.92704" lon="4.73714">
        <ele>173</ele>
        <time>2017-05-24T10:03:40Z</time>
      </trkpt>
      <trkpt lat="45.92699" lon="4.73713">
        <ele>173</ele>
        <time>2017-05-24T10:03:41Z</time>
      </trkpt>
      <trkpt lat="45.92695" lon="4.73713">
        <ele>173</ele>
        <time>2017-05-24T10:03:42Z</time>
      </trkpt>
      <trkpt lat="45.9269" lon="4.73712">
        <ele>173</ele>
        <time>2017-05-24T10:03:43Z</time>
      </trkpt>
      <trkpt lat="45.92685" lon="4.73711">
        <ele>173</ele>
        <time>2017-05-24T10:03:44Z</time>
      </trkpt>
      <trkpt lat="45.9268" lon="4.73709">
        <ele>173</ele>
        <time>2017-05-24T10:03:45Z</time>
      </trkpt>
      <trkpt lat="45.92676" lon="4.73706">
        <ele>173</ele>
        <time>2017-05-24T10:03:46Z</time>
      </trkpt>
      <trkpt lat="45.92671" lon="4.73703">
        <ele>174</ele>
        <time>2017-05-24T10:03:47Z</time>
      </trkpt>
      <trkpt lat="45.92667" lon="4.73701">
        <ele>173</ele>
        <time>2017-05-24T10:03:48Z</time>
      </trkpt>
      <trkpt lat="45.92662" lon="4.73699">
        <ele>173</ele>
        <time>2017-05-24T10:03:49Z</time>
      </trkpt>
      <trkpt lat="45.92654" lon="4.73693">
        <ele>173</ele>
        <time>2017-05-24T10:03:51Z</time>
      </trkpt>
      <trkpt lat="45.9265" lon="4.73689">
        <ele>173</ele>
        <time>2017-05-24T10:03:52Z</time>
      </trkpt>
      <trkpt lat="45.92647" lon="4.73685">
        <ele>173</ele>
        <time>2017-05-24T10:03:53Z</time>
      </trkpt>
      <trkpt lat="45.92644" lon="4.7368">
        <ele>173</ele>
        <time>2017-05-24T10:03:54Z</time>
      </trkpt>
      <trkpt lat="45.9264" lon="4.73675">
        <ele>173</ele>
        <time>2017-05-24T10:03:55Z</time>
      </trkpt>
      <trkpt lat="45.92637" lon="4.73669">
        <ele>173</ele>
        <time>2017-05-24T10:03:56Z</time>
      </trkpt>
      <trkpt lat="45.92634" lon="4.73662">
        <ele>173</ele>
        <time>2017-05-24T10:03:57Z</time>
      </trkpt>
      <trkpt lat="45.92631" lon="4.73654">
        <ele>173</ele>
        <time>2017-05-24T10:03:58Z</time>
      </trkpt>
      <trkpt lat="45.92628" lon="4.73647">
        <ele>173</ele>
        <time>2017-05-24T10:03:59Z</time>
      </trkpt>
      <trkpt lat="45.92624" lon="4.73639">
        <ele>173</ele>
        <time>2017-05-24T10:04:00Z</time>
      </trkpt>
      <trkpt lat="45.9262" lon="4.73632">
        <ele>173</ele>
        <time>2017-05-24T10:04:01Z</time>
      </trkpt>
      <trkpt lat="45.92615" lon="4.73627">
        <ele>173</ele>
        <time>2017-05-24T10:04:02Z</time>
      </trkpt>
      <trkpt lat="45.92609" lon="4.73624">
        <ele>173</ele>
        <time>2017-05-24T10:04:03Z</time>
      </trkpt>
      <trkpt lat="45.92604" lon="4.73622">
        <ele>173</ele>
        <time>2017-05-24T10:04:04Z</time>
      </trkpt>
      <trkpt lat="45.92598" lon="4.73622">
        <ele>173</ele>
        <time>2017-05-24T10:04:05Z</time>
      </trkpt>
      <trkpt lat="45.92592" lon="4.73622">
        <ele>173</ele>
        <time>2017-05-24T10:04:06Z</time>
      </trkpt>
      <trkpt lat="45.92586" lon="4.73623">
        <ele>173</ele>
        <time>2017-05-24T10:04:07Z</time>
      </trkpt>
      <trkpt lat="45.92581" lon="4.73624">
        <ele>173</ele>
        <time>2017-05-24T10:04:08Z</time>
      </trkpt>
      <trkpt lat="45.92576" lon="4.73626">
        <ele>173</ele>
        <time>2017-05-24T10:04:09Z</time>
      </trkpt>
      <trkpt lat="45.9257" lon="4.73627">
        <ele>173</ele>
        <time>2017-05-24T10:04:10Z</time>
      </trkpt>
      <trkpt lat="45.92565" lon="4.73629">
        <ele>173</ele>
        <time>2017-05-24T10:04:11Z</time>
      </trkpt>
      <trkpt lat="45.92561" lon="4.73631">
        <ele>173</ele>
        <time>2017-05-24T10:04:12Z</time>
      </trkpt>
      <trkpt lat="45.92556" lon="4.73632">
        <ele>173</ele>
        <time>2017-05-24T10:04:13Z</time>
      </trkpt>
      <trkpt lat="45.92551" lon="4.73634">
        <ele>173</ele>
        <time>2017-05-24T10:04:14Z</time>
      </trkpt>
      <trkpt lat="45.92546" lon="4.73635">
        <ele>173</ele>
        <time>2017-05-24T10:04:15Z</time>
      </trkpt>
      <trkpt lat="45.9254" lon="4.73636">
        <ele>173</ele>
        <time>2017-05-24T10:04:16Z</time>
      </trkpt>
      <trkpt lat="45.92535" lon="4.73636">
        <ele>173</ele>
        <time>2017-05-24T10:04:17Z</time>
      </trkpt>
      <trkpt lat="45.9253" lon="4.73637">
        <ele>173</ele>
        <time>2017-05-24T10:04:18Z</time>
      </trkpt>
      <trkpt lat="45.92526" lon="4.73638">
        <ele>173</ele>
        <time>2017-05-24T10:04:19Z</time>
      </trkpt>
      <trkpt lat="45.92521" lon="4.73637">
        <ele>173</ele>
        <time>2017-05-24T10:04:20Z</time>
      </trkpt>
      <trkpt lat="45.92516" lon="4.73638">
        <ele>173</ele>
        <time>2017-05-24T10:04:21Z</time>
      </trkpt>
      <trkpt lat="45.92512" lon="4.73638">
        <ele>174</ele>
        <time>2017-05-24T10:04:22Z</time>
      </trkpt>
      <trkpt lat="45.92504" lon="4.73638">
        <ele>174</ele>
        <time>2017-05-24T10:04:24Z</time>
      </trkpt>
      <trkpt lat="45.925" lon="4.73638">
        <ele>174</ele>
        <time>2017-05-24T10:04:25Z</time>
      </trkpt>
      <trkpt lat="45.92491" lon="4.73639">
        <ele>174</ele>
        <time>2017-05-24T10:04:27Z</time>
      </trkpt>
      <trkpt lat="45.92487" lon="4.7364">
        <ele>174</ele>
        <time>2017-05-24T10:04:28Z</time>
      </trkpt>
      <trkpt lat="45.92478" lon="4.73642">
        <ele>174</ele>
        <time>2017-05-24T10:04:30Z</time>
      </trkpt>
      <trkpt lat="45.92474" lon="4.73645">
        <ele>174</ele>
        <time>2017-05-24T10:04:31Z</time>
      </trkpt>
      <trkpt lat="45.9247" lon="4.73656">
        <ele>174</ele>
        <time>2017-05-24T10:04:33Z</time>
      </trkpt>
      <trkpt lat="45.9247" lon="4.73662">
        <ele>174</ele>
        <time>2017-05-24T10:04:34Z</time>
      </trkpt>
      <trkpt lat="45.92469" lon="4.73673">
        <ele>174</ele>
        <time>2017-05-24T10:04:36Z</time>
      </trkpt>
      <trkpt lat="45.92469" lon="4.73679">
        <ele>174</ele>
        <time>2017-05-24T10:04:37Z</time>
      </trkpt>
      <trkpt lat="45.92467" lon="4.73689">
        <ele>174</ele>
        <time>2017-05-24T10:04:39Z</time>
      </trkpt>
      <trkpt lat="45.92465" lon="4.73694">
        <ele>174</ele>
        <time>2017-05-24T10:04:40Z</time>
      </trkpt>
      <trkpt lat="45.92461" lon="4.73705">
        <ele>174</ele>
        <time>2017-05-24T10:04:43Z</time>
      </trkpt>
      <trkpt lat="45.92461" lon="4.73707">
        <ele>174</ele>
        <time>2017-05-24T10:04:44Z</time>
      </trkpt>
      <trkpt lat="45.92462" lon="4.73709">
        <ele>174</ele>
        <time>2017-05-24T10:04:51Z</time>
      </trkpt>
      <trkpt lat="45.92462" lon="4.7371">
        <ele>174</ele>
        <time>2017-05-24T10:04:52Z</time>
      </trkpt>
      <trkpt lat="45.9246" lon="4.7371">
        <ele>174</ele>
        <time>2017-05-24T10:04:55Z</time>
      </trkpt>
      <trkpt lat="45.9246" lon="4.73709">
        <ele>174</ele>
        <time>2017-05-24T10:04:56Z</time>
      </trkpt>
      <trkpt lat="45.92459" lon="4.73709">
        <ele>174</ele>
        <time>2017-05-24T10:05:16.82Z</time>
      </trkpt>
    </trkseg>
  </trk>
</gpx>